<?xml version='1.0' encoding='UTF-8'?><gpx version="1.1" creator="JPX - https://github.com/jenetics/jpx" xmlns="http://www.topografix.com/GPX/1/1"><trk><trkseg><trkpt lat="42.40231634678646" lon="-7.801777929212475"><ele>116.7142857142857</ele><time>2026-03-22T18:02:39Z</time></trkpt><trkpt lat="42.4023244629252" lon="-7.8018708225179845"><ele>118.42857142857142</ele><time>2026-03-22T18:02:48Z</time></trkpt><trkpt lat="42.4023130526842" lon="-7.8019601311889435"><ele>120.14285714285714</ele><time>2026-03-22T18:03:08Z</time></trkpt><trkpt lat="42.402297218329096" lon="-7.8020780489293395"><ele>121.85714285714285</ele><time>2026-03-22T18:03:13Z</time></trkpt><trkpt lat="42.40235352964983" lon="-7.802137257151002"><ele>123.57142857142856</ele><time>2026-03-22T18:03:23.999Z</time></trkpt><trkpt lat="42.40242121573808" lon="-7.802130868330997"><ele>125.28571428571429</ele><time>2026-03-22T18:03:32.999Z</time></trkpt><trkpt lat="42.402492753893824" lon="-7.802093868179722"><ele>127.0</ele><time>2026-03-22T18:03:38.999Z</time></trkpt><trkpt lat="42.40260384341429" lon="-7.802099445548287"><ele>127.00000000000001</ele><time>2026-03-22T18:07:42Z</time></trkpt><trkpt lat="42.40266844916128" lon="-7.802059860719704"><ele>127.0</ele><time>2026-03-22T18:07:44Z</time></trkpt><trkpt lat="42.40259189812334" lon="-7.802079378702139"><ele>127.0</ele><time>2026-03-22T18:07:48.999Z</time></trkpt><trkpt lat="42.40252730040165" lon="-7.80207995758884"><ele>127.0</ele><time>2026-03-22T18:07:51.999Z</time></trkpt><trkpt lat="42.40243885859267" lon="-7.802084580972429"><ele>127.00000000000001</ele><time>2026-03-22T18:07:54.999Z</time></trkpt><trkpt lat="42.40236556886507" lon="-7.802121235963027"><ele>127.0</ele><time>2026-03-22T18:07:57.999Z</time></trkpt><trkpt lat="42.40228861692485" lon="-7.802139676795056"><ele>127.00000000000001</ele><time>2026-03-22T18:08:02.999Z</time></trkpt><trkpt lat="42.402213980804376" lon="-7.802153344476772"><ele>127.0</ele><time>2026-03-22T18:08:04.999Z</time></trkpt><trkpt lat="42.40215150030714" lon="-7.802165452028259"><ele>127.0</ele><time>2026-03-22T18:08:06.999Z</time></trkpt><trkpt lat="42.402044355337445" lon="-7.802187458065073"><ele>127.0</ele><time>2026-03-22T18:08:09.999Z</time></trkpt><trkpt lat="42.40195963072479" lon="-7.802202789766107"><ele>127.00000000000001</ele><time>2026-03-22T18:08:11.999Z</time></trkpt><trkpt lat="42.40187979285643" lon="-7.802226983865274"><ele>127.0</ele><time>2026-03-22T18:08:13.999Z</time></trkpt><trkpt lat="42.40179160584206" lon="-7.80224453314604"><ele>126.16666666666667</ele><time>2026-03-22T18:08:15.999Z</time></trkpt><trkpt lat="42.40170678006722" lon="-7.80225848344377"><ele>125.33333333333334</ele><time>2026-03-22T18:08:17.999Z</time></trkpt><trkpt lat="42.40163458169705" lon="-7.802280163216865"><ele>124.5</ele><time>2026-03-22T18:08:19.999Z</time></trkpt><trkpt lat="42.4015714560548" lon="-7.802288232033501"><ele>123.66666666666666</ele><time>2026-03-22T18:08:21.999Z</time></trkpt><trkpt lat="42.401497886757994" lon="-7.8022866684396215"><ele>122.83333333333333</ele><time>2026-03-22T18:08:23.999Z</time></trkpt><trkpt lat="42.40137120478796" lon="-7.802276310249567"><ele>122.0</ele><time>2026-03-22T18:08:25.999Z</time></trkpt><trkpt lat="42.40126237687001" lon="-7.802294527353839"><ele>120.8</ele><time>2026-03-22T18:08:26.999Z</time></trkpt><trkpt lat="42.401169516946446" lon="-7.802317008644549"><ele>119.6</ele><time>2026-03-22T18:08:27.999Z</time></trkpt><trkpt lat="42.40108388353265" lon="-7.802334878369124"><ele>118.39999999999999</ele><time>2026-03-22T18:08:28.999Z</time></trkpt><trkpt lat="42.40097635578603" lon="-7.802363231598021"><ele>117.19999999999999</ele><time>2026-03-22T18:08:29.999Z</time></trkpt><trkpt lat="42.400874994355156" lon="-7.802392420082127"><ele>116.0</ele><time>2026-03-22T18:08:30.999Z</time></trkpt><trkpt lat="42.40079026601347" lon="-7.802432098581839"><ele>116.00000000000001</ele><time>2026-03-22T18:08:31.999Z</time></trkpt><trkpt lat="42.400712188884135" lon="-7.8024809441232765"><ele>116.0</ele><time>2026-03-22T18:08:32.999Z</time></trkpt><trkpt lat="42.40064496284669" lon="-7.802514529965265"><ele>116.00000000000001</ele><time>2026-03-22T18:08:33.999Z</time></trkpt><trkpt lat="42.400562993428416" lon="-7.80252584201227"><ele>116.00000000000001</ele><time>2026-03-22T18:08:34.999Z</time></trkpt><trkpt lat="42.40049442158265" lon="-7.802533057019523"><ele>116.0</ele><time>2026-03-22T18:08:35.999Z</time></trkpt><trkpt lat="42.400423089859395" lon="-7.802539490606205"><ele>116.00000000000001</ele><time>2026-03-22T18:08:36.999Z</time></trkpt><trkpt lat="42.40035893942807" lon="-7.802559043256104"><ele>116.00000000000001</ele><time>2026-03-22T18:08:37.999Z</time></trkpt><trkpt lat="42.400293061147366" lon="-7.802571956463495"><ele>116.16666666666666</ele><time>2026-03-22T18:08:38.999Z</time></trkpt><trkpt lat="42.400228723179744" lon="-7.802581553063039"><ele>116.33333333333333</ele><time>2026-03-22T18:08:39.999Z</time></trkpt><trkpt lat="42.40016451829469" lon="-7.802592366998083"><ele>116.5</ele><time>2026-03-22T18:08:40.999Z</time></trkpt><trkpt lat="42.40007565204528" lon="-7.802607872381901"><ele>116.66666666666666</ele><time>2026-03-22T18:08:41.999Z</time></trkpt><trkpt lat="42.39997248632504" lon="-7.802613941669046"><ele>116.83333333333333</ele><time>2026-03-22T18:08:42.999Z</time></trkpt><trkpt lat="42.39988520880954" lon="-7.802622225212288"><ele>117.0</ele><time>2026-03-22T18:08:43.999Z</time></trkpt><trkpt lat="42.39980501327176" lon="-7.8026232000820706"><ele>117.0</ele><time>2026-03-22T18:08:45Z</time></trkpt><trkpt lat="42.39972274627586" lon="-7.802623117367526"><ele>116.99999999999999</ele><time>2026-03-22T18:08:46Z</time></trkpt><trkpt lat="42.39964032197359" lon="-7.802632131015514"><ele>116.99999999999999</ele><time>2026-03-22T18:08:47Z</time></trkpt><trkpt lat="42.39952594077035" lon="-7.802647885579344"><ele>117.0</ele><time>2026-03-22T18:08:49Z</time></trkpt><trkpt lat="42.399449353982725" lon="-7.802727907034177"><ele>117.0</ele><time>2026-03-22T18:08:51Z</time></trkpt><trkpt lat="42.399446191270385" lon="-7.802894779648575"><ele>119.19999999999999</ele><time>2026-03-22T18:08:53Z</time></trkpt><trkpt lat="42.39949585048664" lon="-7.8029926524173385"><ele>121.39999999999999</ele><time>2026-03-22T18:08:55Z</time></trkpt><trkpt lat="42.39955603730682" lon="-7.8030388714006405"><ele>123.60000000000001</ele><time>2026-03-22T18:08:56Z</time></trkpt><trkpt lat="42.399646208541036" lon="-7.802986287702521"><ele>125.80000000000001</ele><time>2026-03-22T18:08:57Z</time></trkpt><trkpt lat="42.39973119319299" lon="-7.802955347601669"><ele>128.0</ele><time>2026-03-22T18:08:58Z</time></trkpt><trkpt lat="42.399838393241915" lon="-7.8029487287753225"><ele>128.0</ele><time>2026-03-22T18:08:59Z</time></trkpt><trkpt lat="42.39994574446223" lon="-7.8029401445675495"><ele>128.0</ele><time>2026-03-22T18:09:00Z</time></trkpt><trkpt lat="42.40008140811566" lon="-7.802918158666805"><ele>128.0</ele><time>2026-03-22T18:09:01Z</time></trkpt><trkpt lat="42.4002071853129" lon="-7.802894691976106"><ele>128.0</ele><time>2026-03-22T18:09:02Z</time></trkpt><trkpt lat="42.40034058782686" lon="-7.802868316407079"><ele>128.0</ele><time>2026-03-22T18:09:03Z</time></trkpt><trkpt lat="42.40048265341319" lon="-7.802835998143612"><ele>128.0</ele><time>2026-03-22T18:09:04Z</time></trkpt><trkpt lat="42.40063519203521" lon="-7.8027949610520055"><ele>128.0</ele><time>2026-03-22T18:09:05Z</time></trkpt><trkpt lat="42.40079201697181" lon="-7.802759852970485"><ele>128.25</ele><time>2026-03-22T18:09:06Z</time></trkpt><trkpt lat="42.400941027004635" lon="-7.802733477304552"><ele>128.5</ele><time>2026-03-22T18:09:07Z</time></trkpt><trkpt lat="42.40108081442751" lon="-7.802706480478982"><ele>128.75</ele><time>2026-03-22T18:09:08Z</time></trkpt><trkpt lat="42.40120285580635" lon="-7.802681836016876"><ele>129.0</ele><time>2026-03-22T18:09:09Z</time></trkpt><trkpt lat="42.4013377577198" lon="-7.802634027596507"><ele>127.83333333333333</ele><time>2026-03-22T18:09:10Z</time></trkpt><trkpt lat="42.40142512665656" lon="-7.802605465068344"><ele>126.66666666666666</ele><time>2026-03-22T18:09:11Z</time></trkpt><trkpt lat="42.40151552313842" lon="-7.802575912645419"><ele>125.5</ele><time>2026-03-22T18:09:12Z</time></trkpt><trkpt lat="42.40160292869885" lon="-7.802547338105116"><ele>124.33333333333333</ele><time>2026-03-22T18:09:13Z</time></trkpt><trkpt lat="42.40168884289884" lon="-7.802523113505767"><ele>123.16666666666666</ele><time>2026-03-22T18:09:14Z</time></trkpt><trkpt lat="42.4017694990936" lon="-7.8025000155984525"><ele>122.0</ele><time>2026-03-22T18:09:15Z</time></trkpt><trkpt lat="42.40185371933603" lon="-7.802492209458978"><ele>122.0</ele><time>2026-03-22T18:09:16Z</time></trkpt><trkpt lat="42.4019506023388" lon="-7.802499656229876"><ele>121.99999999999999</ele><time>2026-03-22T18:09:17Z</time></trkpt><trkpt lat="42.40206666096633" lon="-7.802479656556725"><ele>121.99999999999999</ele><time>2026-03-22T18:09:18Z</time></trkpt><trkpt lat="42.40217700619465" lon="-7.802481602685866"><ele>122.0</ele><time>2026-03-22T18:09:19Z</time></trkpt><trkpt lat="42.40228660986938" lon="-7.802503034261965"><ele>122.0</ele><time>2026-03-22T18:09:20Z</time></trkpt><trkpt lat="42.40241029675548" lon="-7.8024924297480265"><ele>123.25</ele><time>2026-03-22T18:09:21Z</time></trkpt><trkpt lat="42.40253064213938" lon="-7.802494658480919"><ele>124.5</ele><time>2026-03-22T18:09:22Z</time></trkpt><trkpt lat="42.40267630653896" lon="-7.802505605350996"><ele>125.75</ele><time>2026-03-22T18:09:23Z</time></trkpt><trkpt lat="42.40280482320412" lon="-7.802476928853337"><ele>127.0</ele><time>2026-03-22T18:09:24Z</time></trkpt><trkpt lat="42.402939003868596" lon="-7.80247692885632"><ele>128.75</ele><time>2026-03-22T18:09:25Z</time></trkpt><trkpt lat="42.4030781188141" lon="-7.802496034180503"><ele>130.5</ele><time>2026-03-22T18:09:26Z</time></trkpt><trkpt lat="42.4032194719925" lon="-7.802480997597564"><ele>132.25</ele><time>2026-03-22T18:09:27Z</time></trkpt><trkpt lat="42.40336916524636" lon="-7.802492790695069"><ele>134.0</ele><time>2026-03-22T18:09:28Z</time></trkpt><trkpt lat="42.40350719067743" lon="-7.802466484537604"><ele>134.0</ele><time>2026-03-22T18:09:29Z</time></trkpt><trkpt lat="42.4036280773579" lon="-7.802482329169687"><ele>134.0</ele><time>2026-03-22T18:09:30Z</time></trkpt><trkpt lat="42.4037373084578" lon="-7.802479902600041"><ele>134.0</ele><time>2026-03-22T18:09:31Z</time></trkpt><trkpt lat="42.40381829235142" lon="-7.802484986761584"><ele>134.0</ele><time>2026-03-22T18:09:32Z</time></trkpt><trkpt lat="42.40388444363103" lon="-7.802515067971175"><ele>134.0</ele><time>2026-03-22T18:09:33Z</time></trkpt><trkpt lat="42.40394515248545" lon="-7.80258159038422"><ele>135.6</ele><time>2026-03-22T18:09:34Z</time></trkpt><trkpt lat="42.40397827823272" lon="-7.802671395261125"><ele>137.2</ele><time>2026-03-22T18:09:35Z</time></trkpt><trkpt lat="42.40396656866856" lon="-7.802774947898278"><ele>138.79999999999998</ele><time>2026-03-22T18:09:36Z</time></trkpt><trkpt lat="42.40391627534228" lon="-7.802904489706333"><ele>140.4</ele><time>2026-03-22T18:09:37Z</time></trkpt><trkpt lat="42.403843828470045" lon="-7.8030212331095195"><ele>142.0</ele><time>2026-03-22T18:09:38Z</time></trkpt><trkpt lat="42.40376668494506" lon="-7.803130059672214"><ele>142.0</ele><time>2026-03-22T18:09:39Z</time></trkpt><trkpt lat="42.40368543165911" lon="-7.803256692880429"><ele>142.0</ele><time>2026-03-22T18:09:40Z</time></trkpt><trkpt lat="42.40358563926101" lon="-7.803394006129447"><ele>142.0</ele><time>2026-03-22T18:09:41Z</time></trkpt><trkpt lat="42.40354121042263" lon="-7.803542748513264"><ele>142.0</ele><time>2026-03-22T18:09:42Z</time></trkpt><trkpt lat="42.40352456786705" lon="-7.803692058581234"><ele>143.5</ele><time>2026-03-22T18:09:42.999Z</time></trkpt><trkpt lat="42.403563545462426" lon="-7.803829020008872"><ele>145.0</ele><time>2026-03-22T18:09:43.999Z</time></trkpt><trkpt lat="42.4036191842239" lon="-7.803976715048605"><ele>146.5</ele><time>2026-03-22T18:09:44.999Z</time></trkpt><trkpt lat="42.4037028581716" lon="-7.804078797693751"><ele>148.0</ele><time>2026-03-22T18:09:45.999Z</time></trkpt><trkpt lat="42.40380343462548" lon="-7.80418945400637"><ele>148.75</ele><time>2026-03-22T18:09:46.999Z</time></trkpt><trkpt lat="42.40390555291703" lon="-7.804259346778036"><ele>149.5</ele><time>2026-03-22T18:09:47.999Z</time></trkpt><trkpt lat="42.404005033756505" lon="-7.804347014618908"><ele>150.25</ele><time>2026-03-22T18:09:48.999Z</time></trkpt><trkpt lat="42.404105058827554" lon="-7.804440716806226"><ele>151.0</ele><time>2026-03-22T18:09:49.999Z</time></trkpt><trkpt lat="42.40419326977105" lon="-7.804550673527587"><ele>152.8</ele><time>2026-03-22T18:09:50.999Z</time></trkpt><trkpt lat="42.404283359088915" lon="-7.804640256079912"><ele>154.6</ele><time>2026-03-22T18:09:51.999Z</time></trkpt><trkpt lat="42.40435339452096" lon="-7.804736483819691"><ele>156.4</ele><time>2026-03-22T18:09:52.999Z</time></trkpt><trkpt lat="42.404393866056445" lon="-7.804864174071234"><ele>158.2</ele><time>2026-03-22T18:09:53.999Z</time></trkpt><trkpt lat="42.404421962801095" lon="-7.805003066157527"><ele>160.0</ele><time>2026-03-22T18:09:54.999Z</time></trkpt><trkpt lat="42.40442791015288" lon="-7.805162157984879"><ele>160.75</ele><time>2026-03-22T18:09:55.999Z</time></trkpt><trkpt lat="42.404442413481505" lon="-7.805326026353513"><ele>161.5</ele><time>2026-03-22T18:09:56.999Z</time></trkpt><trkpt lat="42.40445407709366" lon="-7.805499824546341"><ele>162.25</ele><time>2026-03-22T18:09:57.999Z</time></trkpt><trkpt lat="42.40446177698688" lon="-7.805663064246608"><ele>163.0</ele><time>2026-03-22T18:09:58.999Z</time></trkpt><trkpt lat="42.40447697112913" lon="-7.805805167552218"><ele>163.0</ele><time>2026-03-22T18:09:59.999Z</time></trkpt><trkpt lat="42.4044717483911" lon="-7.805946161392878"><ele>163.0</ele><time>2026-03-22T18:10:00.999Z</time></trkpt><trkpt lat="42.404437105587036" lon="-7.806076033723916"><ele>163.0</ele><time>2026-03-22T18:10:01.999Z</time></trkpt><trkpt lat="42.40437550049155" lon="-7.80618877237734"><ele>163.0</ele><time>2026-03-22T18:10:02.999Z</time></trkpt><trkpt lat="42.40429599259507" lon="-7.8062800165283095"><ele>163.0</ele><time>2026-03-22T18:10:03.999Z</time></trkpt><trkpt lat="42.40417525426967" lon="-7.806335907961426"><ele>163.25</ele><time>2026-03-22T18:10:04.999Z</time></trkpt><trkpt lat="42.40406519821729" lon="-7.806357876062836"><ele>163.5</ele><time>2026-03-22T18:10:05.999Z</time></trkpt><trkpt lat="42.40392907895136" lon="-7.806356551073684"><ele>163.75</ele><time>2026-03-22T18:10:06.999Z</time></trkpt><trkpt lat="42.40378571607288" lon="-7.806339510108094"><ele>164.0</ele><time>2026-03-22T18:10:07.999Z</time></trkpt><trkpt lat="42.40363991404139" lon="-7.806316487616431"><ele>164.0</ele><time>2026-03-22T18:10:08.999Z</time></trkpt><trkpt lat="42.4034919001759" lon="-7.806289144993254"><ele>164.0</ele><time>2026-03-22T18:10:09.999Z</time></trkpt><trkpt lat="42.40335338650868" lon="-7.806269748132017"><ele>164.0</ele><time>2026-03-22T18:10:10.999Z</time></trkpt><trkpt lat="42.4032312712273" lon="-7.80625674223152"><ele>164.0</ele><time>2026-03-22T18:10:11.999Z</time></trkpt><trkpt lat="42.403119061580746" lon="-7.8062536071676885"><ele>164.0</ele><time>2026-03-22T18:10:12.999Z</time></trkpt><trkpt lat="42.40301071666457" lon="-7.806286861793288"><ele>164.0</ele><time>2026-03-22T18:10:13.999Z</time></trkpt><trkpt lat="42.40292896823404" lon="-7.806341485158131"><ele>164.0</ele><time>2026-03-22T18:10:14.999Z</time></trkpt><trkpt lat="42.402842025165306" lon="-7.806406149543019"><ele>164.0</ele><time>2026-03-22T18:10:15.999Z</time></trkpt><trkpt lat="42.4027452037564" lon="-7.806467848764144"><ele>164.0</ele><time>2026-03-22T18:10:16.999Z</time></trkpt><trkpt lat="42.402640953644216" lon="-7.806534859401014"><ele>165.75</ele><time>2026-03-22T18:10:17.999Z</time></trkpt><trkpt lat="42.40252907011822" lon="-7.806599096219025"><ele>167.5</ele><time>2026-03-22T18:10:18.999Z</time></trkpt><trkpt lat="42.40241826235191" lon="-7.806656903716345"><ele>169.25</ele><time>2026-03-22T18:10:19.999Z</time></trkpt><trkpt lat="42.40230014567008" lon="-7.806731622322417"><ele>171.0</ele><time>2026-03-22T18:10:20.999Z</time></trkpt><trkpt lat="42.40218873561391" lon="-7.806809160644131"><ele>173.5</ele><time>2026-03-22T18:10:21.999Z</time></trkpt><trkpt lat="42.40207829374313" lon="-7.806895179754786"><ele>176.0</ele><time>2026-03-22T18:10:22.999Z</time></trkpt><trkpt lat="42.401973138361726" lon="-7.806975083899038"><ele>178.5</ele><time>2026-03-22T18:10:23.999Z</time></trkpt><trkpt lat="42.40185442644623" lon="-7.807061555435466"><ele>181.0</ele><time>2026-03-22T18:10:24.999Z</time></trkpt><trkpt lat="42.40173208941424" lon="-7.807147889059357"><ele>181.0</ele><time>2026-03-22T18:10:25.999Z</time></trkpt><trkpt lat="42.40161626921281" lon="-7.8072321754041685"><ele>181.0</ele><time>2026-03-22T18:10:26.999Z</time></trkpt><trkpt lat="42.4014952022309" lon="-7.807326542089804"><ele>181.0</ele><time>2026-03-22T18:10:27.999Z</time></trkpt><trkpt lat="42.40137821805762" lon="-7.807431883268421"><ele>181.0</ele><time>2026-03-22T18:10:28.999Z</time></trkpt><trkpt lat="42.40128762035259" lon="-7.807545972426538"><ele>183.0</ele><time>2026-03-22T18:10:29.999Z</time></trkpt><trkpt lat="42.40121790970932" lon="-7.8076697801453845"><ele>185.0</ele><time>2026-03-22T18:10:30.999Z</time></trkpt><trkpt lat="42.401149894262744" lon="-7.807789234709046"><ele>187.0</ele><time>2026-03-22T18:10:31.999Z</time></trkpt><trkpt lat="42.40107434436543" lon="-7.807920825309332"><ele>189.0</ele><time>2026-03-22T18:10:32.999Z</time></trkpt><trkpt lat="42.40098989781541" lon="-7.808036719351987"><ele>189.0</ele><time>2026-03-22T18:10:33.999Z</time></trkpt><trkpt lat="42.4009001684365" lon="-7.808157078426856"><ele>189.0</ele><time>2026-03-22T18:10:34.999Z</time></trkpt><trkpt lat="42.40080083349705" lon="-7.808291748857129"><ele>189.0</ele><time>2026-03-22T18:10:35.999Z</time></trkpt><trkpt lat="42.40069192397886" lon="-7.8084203985240315"><ele>189.0</ele><time>2026-03-22T18:10:36.999Z</time></trkpt><trkpt lat="42.40058127925792" lon="-7.808557909225405"><ele>190.5</ele><time>2026-03-22T18:10:37.999Z</time></trkpt><trkpt lat="42.40046540410916" lon="-7.808696622582487"><ele>192.0</ele><time>2026-03-22T18:10:38.999Z</time></trkpt><trkpt lat="42.40034882474171" lon="-7.808801367954043"><ele>193.5</ele><time>2026-03-22T18:10:39.999Z</time></trkpt><trkpt lat="42.40021442827622" lon="-7.808904696687775"><ele>195.0</ele><time>2026-03-22T18:10:40.999Z</time></trkpt><trkpt lat="42.40007768843817" lon="-7.809005195018933"><ele>195.0</ele><time>2026-03-22T18:10:41.999Z</time></trkpt><trkpt lat="42.3999607297657" lon="-7.809111169689122"><ele>195.0</ele><time>2026-03-22T18:10:42.999Z</time></trkpt><trkpt lat="42.39986716123427" lon="-7.809192383538596"><ele>195.0</ele><time>2026-03-22T18:10:43.999Z</time></trkpt><trkpt lat="42.39976181126268" lon="-7.809277941695262"><ele>195.0</ele><time>2026-03-22T18:10:44.999Z</time></trkpt><trkpt lat="42.39965625442519" lon="-7.809369381868065"><ele>195.75</ele><time>2026-03-22T18:10:45.999Z</time></trkpt><trkpt lat="42.3995560644231" lon="-7.809473361773892"><ele>196.5</ele><time>2026-03-22T18:10:46.999Z</time></trkpt><trkpt lat="42.39946470505981" lon="-7.80959902403409"><ele>197.25</ele><time>2026-03-22T18:10:47.999Z</time></trkpt><trkpt lat="42.399394837026634" lon="-7.809709143384123"><ele>198.0</ele><time>2026-03-22T18:10:48.999Z</time></trkpt><trkpt lat="42.39933529499835" lon="-7.809804393460962"><ele>198.0</ele><time>2026-03-22T18:10:49.999Z</time></trkpt><trkpt lat="42.39928950863942" lon="-7.809880529619495"><ele>198.0</ele><time>2026-03-22T18:10:51Z</time></trkpt><trkpt lat="42.39922515121271" lon="-7.809975548205401"><ele>198.0</ele><time>2026-03-22T18:10:53Z</time></trkpt><trkpt lat="42.39915693224597" lon="-7.810111331462978"><ele>198.0</ele><time>2026-03-22T18:10:55Z</time></trkpt><trkpt lat="42.39910593007822" lon="-7.810223124195317"><ele>198.0</ele><time>2026-03-22T18:10:56Z</time></trkpt><trkpt lat="42.39905533461753" lon="-7.810370822991186"><ele>198.2</ele><time>2026-03-22T18:10:57Z</time></trkpt><trkpt lat="42.39901231484858" lon="-7.810522424484763"><ele>198.4</ele><time>2026-03-22T18:10:58Z</time></trkpt><trkpt lat="42.39897362047334" lon="-7.810674687991519"><ele>198.6</ele><time>2026-03-22T18:10:59Z</time></trkpt><trkpt lat="42.39894684281311" lon="-7.810787592103478"><ele>198.79999999999998</ele><time>2026-03-22T18:11:00Z</time></trkpt><trkpt lat="42.39891734924351" lon="-7.810886087910564"><ele>199.0</ele><time>2026-03-22T18:11:01Z</time></trkpt><trkpt lat="42.39889943657314" lon="-7.810973995417806"><ele>199.6</ele><time>2026-03-22T18:11:02Z</time></trkpt><trkpt lat="42.398889527087135" lon="-7.811104701449898"><ele>200.2</ele><time>2026-03-22T18:11:04Z</time></trkpt><trkpt lat="42.398854313945826" lon="-7.8111939060022655"><ele>200.79999999999998</ele><time>2026-03-22T18:11:07Z</time></trkpt><trkpt lat="42.39870622971488" lon="-7.811126678193225"><ele>201.39999999999998</ele><time>2026-03-22T18:11:09Z</time></trkpt><trkpt lat="42.398615326186714" lon="-7.811047269069519"><ele>202.0</ele><time>2026-03-22T18:11:10Z</time></trkpt><trkpt lat="42.39852185667448" lon="-7.810964814302756"><ele>204.5</ele><time>2026-03-22T18:11:11Z</time></trkpt><trkpt lat="42.3984275316962" lon="-7.810875016147938"><ele>207.0</ele><time>2026-03-22T18:11:12Z</time></trkpt><trkpt lat="42.398349946262094" lon="-7.810748395766783"><ele>209.5</ele><time>2026-03-22T18:11:13Z</time></trkpt><trkpt lat="42.39827995839605" lon="-7.81059391073431"><ele>212.0</ele><time>2026-03-22T18:11:14Z</time></trkpt><trkpt lat="42.398237245224145" lon="-7.810428547686745"><ele>212.0</ele><time>2026-03-22T18:11:15Z</time></trkpt><trkpt lat="42.39818093832613" lon="-7.810277336686819"><ele>212.0</ele><time>2026-03-22T18:11:16Z</time></trkpt><trkpt lat="42.398117854292806" lon="-7.810168399591012"><ele>212.0</ele><time>2026-03-22T18:11:17Z</time></trkpt><trkpt lat="42.39804166932249" lon="-7.810085812951879"><ele>212.0</ele><time>2026-03-22T18:11:18Z</time></trkpt><trkpt lat="42.397966197235355" lon="-7.8100131206981995"><ele>212.0</ele><time>2026-03-22T18:11:19Z</time></trkpt><trkpt lat="42.39788299193378" lon="-7.809925221726716"><ele>214.0</ele><time>2026-03-22T18:11:20Z</time></trkpt><trkpt lat="42.39780501586462" lon="-7.809838983560389"><ele>216.0</ele><time>2026-03-22T18:11:21Z</time></trkpt><trkpt lat="42.397735114331425" lon="-7.809762760696957"><ele>218.0</ele><time>2026-03-22T18:11:22Z</time></trkpt><trkpt lat="42.39765204570097" lon="-7.8096872692005235"><ele>220.0</ele><time>2026-03-22T18:11:23Z</time></trkpt><trkpt lat="42.397570423243856" lon="-7.809613224533765"><ele>222.0</ele><time>2026-03-22T18:11:24Z</time></trkpt><trkpt lat="42.39747524146478" lon="-7.809537312018267"><ele>222.0</ele><time>2026-03-22T18:11:25Z</time></trkpt><trkpt lat="42.397383385236544" lon="-7.80946440828085"><ele>222.0</ele><time>2026-03-22T18:11:26Z</time></trkpt><trkpt lat="42.39727846124608" lon="-7.809371405253652"><ele>222.0</ele><time>2026-03-22T18:11:27Z</time></trkpt><trkpt lat="42.39717868151678" lon="-7.809257527213197"><ele>222.0</ele><time>2026-03-22T18:11:28Z</time></trkpt><trkpt lat="42.397076449857856" lon="-7.809146123907137"><ele>220.25</ele><time>2026-03-22T18:11:29Z</time></trkpt><trkpt lat="42.396977350404796" lon="-7.80904202865981"><ele>218.5</ele><time>2026-03-22T18:11:30Z</time></trkpt><trkpt lat="42.39688396918509" lon="-7.808950686437898"><ele>216.75</ele><time>2026-03-22T18:11:31Z</time></trkpt><trkpt lat="42.3967918480876" lon="-7.808868758053769"><ele>215.0</ele><time>2026-03-22T18:11:32Z</time></trkpt><trkpt lat="42.39670406818101" lon="-7.80879747861953"><ele>215.0</ele><time>2026-03-22T18:11:33Z</time></trkpt><trkpt lat="42.39660537951163" lon="-7.808751081975319"><ele>215.0</ele><time>2026-03-22T18:11:34Z</time></trkpt><trkpt lat="42.39651447083984" lon="-7.808722988994459"><ele>215.0</ele><time>2026-03-22T18:11:34.999Z</time></trkpt><trkpt lat="42.39645025206794" lon="-7.808700872082489"><ele>215.0</ele><time>2026-03-22T18:11:35.999Z</time></trkpt><trkpt lat="42.39634356003931" lon="-7.808662308159781"><ele>215.0</ele><time>2026-03-22T18:11:37.999Z</time></trkpt><trkpt lat="42.39626284379004" lon="-7.808635614194629"><ele>215.2</ele><time>2026-03-22T18:11:38.999Z</time></trkpt><trkpt lat="42.39616274180072" lon="-7.808605392123871"><ele>215.4</ele><time>2026-03-22T18:11:39.999Z</time></trkpt><trkpt lat="42.39605412002517" lon="-7.808573541207881"><ele>215.60000000000002</ele><time>2026-03-22T18:11:40.999Z</time></trkpt><trkpt lat="42.395945871882326" lon="-7.808541970733728"><ele>215.8</ele><time>2026-03-22T18:11:41.999Z</time></trkpt><trkpt lat="42.395829226895316" lon="-7.808515564745357"><ele>216.0</ele><time>2026-03-22T18:11:42.999Z</time></trkpt><trkpt lat="42.39570343807515" lon="-7.808504872848415"><ele>216.0</ele><time>2026-03-22T18:11:43.999Z</time></trkpt><trkpt lat="42.39556126208844" lon="-7.808500728133982"><ele>216.0</ele><time>2026-03-22T18:11:44.999Z</time></trkpt><trkpt lat="42.395407621881986" lon="-7.808492526639348"><ele>216.0</ele><time>2026-03-22T18:11:45.999Z</time></trkpt><trkpt lat="42.39524429874776" lon="-7.808484798216484"><ele>213.33333333333331</ele><time>2026-03-22T18:11:46.999Z</time></trkpt><trkpt lat="42.395076072765754" lon="-7.808474356591131"><ele>210.66666666666666</ele><time>2026-03-22T18:11:47.999Z</time></trkpt><trkpt lat="42.394913141154305" lon="-7.80846999287582"><ele>208.0</ele><time>2026-03-22T18:11:48.999Z</time></trkpt><trkpt lat="42.39476963488766" lon="-7.808468224751722"><ele>208.0</ele><time>2026-03-22T18:11:49.999Z</time></trkpt><trkpt lat="42.39463052734378" lon="-7.808480300387238"><ele>208.0</ele><time>2026-03-22T18:11:50.999Z</time></trkpt><trkpt lat="42.39447860893081" lon="-7.808520562065387"><ele>208.0</ele><time>2026-03-22T18:11:51.999Z</time></trkpt><trkpt lat="42.39433754298243" lon="-7.80858488028157"><ele>208.0</ele><time>2026-03-22T18:11:52.999Z</time></trkpt><trkpt lat="42.39421483583398" lon="-7.808658621245256"><ele>207.5</ele><time>2026-03-22T18:11:53.999Z</time></trkpt><trkpt lat="42.394103838928174" lon="-7.808747647205613"><ele>207.0</ele><time>2026-03-22T18:11:54.999Z</time></trkpt><trkpt lat="42.39400135545639" lon="-7.808847625214978"><ele>206.5</ele><time>2026-03-22T18:11:55.999Z</time></trkpt><trkpt lat="42.39390980235083" lon="-7.80896133431332"><ele>206.0</ele><time>2026-03-22T18:11:56.999Z</time></trkpt><trkpt lat="42.393828260705334" lon="-7.80907509758908"><ele>206.0</ele><time>2026-03-22T18:11:57.999Z</time></trkpt><trkpt lat="42.39375625123822" lon="-7.80919618340808"><ele>206.0</ele><time>2026-03-22T18:11:58.999Z</time></trkpt><trkpt lat="42.39368794955677" lon="-7.809323734274226"><ele>206.0</ele><time>2026-03-22T18:11:59.999Z</time></trkpt><trkpt lat="42.393621256359914" lon="-7.8094561668416524"><ele>206.0</ele><time>2026-03-22T18:12:00.999Z</time></trkpt><trkpt lat="42.393554467870366" lon="-7.80958216632081"><ele>208.25</ele><time>2026-03-22T18:12:01.999Z</time></trkpt><trkpt lat="42.39348700595388" lon="-7.809713188351287"><ele>210.5</ele><time>2026-03-22T18:12:02.999Z</time></trkpt><trkpt lat="42.393419628199545" lon="-7.809854994370825"><ele>212.75</ele><time>2026-03-22T18:12:03.999Z</time></trkpt><trkpt lat="42.393355293434965" lon="-7.809987447953168"><ele>215.0</ele><time>2026-03-22T18:12:04.999Z</time></trkpt><trkpt lat="42.39328605979208" lon="-7.810122971684101"><ele>216.5</ele><time>2026-03-22T18:12:05.999Z</time></trkpt><trkpt lat="42.3931954021053" lon="-7.810271477646835"><ele>218.0</ele><time>2026-03-22T18:12:06.999Z</time></trkpt><trkpt lat="42.39309942411625" lon="-7.8104121261696875"><ele>219.5</ele><time>2026-03-22T18:12:07.999Z</time></trkpt><trkpt lat="42.392982340038245" lon="-7.810542047501941"><ele>221.0</ele><time>2026-03-22T18:12:08.999Z</time></trkpt><trkpt lat="42.39284414848119" lon="-7.810654740138745"><ele>221.0</ele><time>2026-03-22T18:12:09.999Z</time></trkpt><trkpt lat="42.392692636545625" lon="-7.810738798452795"><ele>221.0</ele><time>2026-03-22T18:12:10.999Z</time></trkpt><trkpt lat="42.39252997922791" lon="-7.810798714170941"><ele>221.0</ele><time>2026-03-22T18:12:11.999Z</time></trkpt><trkpt lat="42.392355093822864" lon="-7.810821451776304"><ele>221.0</ele><time>2026-03-22T18:12:12.999Z</time></trkpt><trkpt lat="42.39217682417984" lon="-7.810820822717275"><ele>221.0</ele><time>2026-03-22T18:12:13.999Z</time></trkpt><trkpt lat="42.391992657516596" lon="-7.810814572896444"><ele>221.0</ele><time>2026-03-22T18:12:14.999Z</time></trkpt><trkpt lat="42.39182385036337" lon="-7.810777433086394"><ele>222.25</ele><time>2026-03-22T18:12:15.999Z</time></trkpt><trkpt lat="42.391673776732624" lon="-7.810736375756958"><ele>223.5</ele><time>2026-03-22T18:12:16.999Z</time></trkpt><trkpt lat="42.3915335619721" lon="-7.8106862056007"><ele>224.75</ele><time>2026-03-22T18:12:17.999Z</time></trkpt><trkpt lat="42.39140059126339" lon="-7.810626263551293"><ele>226.0</ele><time>2026-03-22T18:12:18.999Z</time></trkpt><trkpt lat="42.3912698862826" lon="-7.81054307411335"><ele>226.5</ele><time>2026-03-22T18:12:19.999Z</time></trkpt><trkpt lat="42.39113696446022" lon="-7.810458555718203"><ele>227.0</ele><time>2026-03-22T18:12:20.999Z</time></trkpt><trkpt lat="42.39101751519991" lon="-7.8103927508134285"><ele>227.5</ele><time>2026-03-22T18:12:21.999Z</time></trkpt><trkpt lat="42.39088481091649" lon="-7.810334418170742"><ele>228.0</ele><time>2026-03-22T18:12:22.999Z</time></trkpt><trkpt lat="42.390754230079985" lon="-7.810298384512858"><ele>228.0</ele><time>2026-03-22T18:12:23.999Z</time></trkpt><trkpt lat="42.390631548163846" lon="-7.8102775788041745"><ele>228.0</ele><time>2026-03-22T18:12:24.999Z</time></trkpt><trkpt lat="42.39050222370034" lon="-7.81026426900083"><ele>228.0</ele><time>2026-03-22T18:12:25.999Z</time></trkpt><trkpt lat="42.390378272788176" lon="-7.810263071838043"><ele>228.0</ele><time>2026-03-22T18:12:26.999Z</time></trkpt><trkpt lat="42.39026171094366" lon="-7.810264363991707"><ele>225.75</ele><time>2026-03-22T18:12:27.999Z</time></trkpt><trkpt lat="42.39013683729976" lon="-7.810266504582456"><ele>223.5</ele><time>2026-03-22T18:12:28.999Z</time></trkpt><trkpt lat="42.3900202589762" lon="-7.8102726325872105"><ele>221.25</ele><time>2026-03-22T18:12:29.999Z</time></trkpt><trkpt lat="42.38989161484188" lon="-7.810287508736523"><ele>219.0</ele><time>2026-03-22T18:12:30.999Z</time></trkpt><trkpt lat="42.38975038917462" lon="-7.810305307869396"><ele>215.33333333333331</ele><time>2026-03-22T18:12:31.999Z</time></trkpt><trkpt lat="42.38959677808719" lon="-7.8103506893087555"><ele>211.66666666666666</ele><time>2026-03-22T18:12:32.999Z</time></trkpt><trkpt lat="42.3894504815712" lon="-7.810441448943173"><ele>208.0</ele><time>2026-03-22T18:12:33.999Z</time></trkpt><trkpt lat="42.38932533484229" lon="-7.810573300763361"><ele>208.0</ele><time>2026-03-22T18:12:34.999Z</time></trkpt><trkpt lat="42.389203965636064" lon="-7.810696916961561"><ele>208.0</ele><time>2026-03-22T18:12:35.999Z</time></trkpt><trkpt lat="42.38909025521269" lon="-7.810795460947234"><ele>208.0</ele><time>2026-03-22T18:12:36.999Z</time></trkpt><trkpt lat="42.38896777076362" lon="-7.810883061526111"><ele>208.0</ele><time>2026-03-22T18:12:37.999Z</time></trkpt><trkpt lat="42.38883963679552" lon="-7.810943206463986"><ele>205.75</ele><time>2026-03-22T18:12:38.999Z</time></trkpt><trkpt lat="42.388698210477365" lon="-7.81098575869863"><ele>203.5</ele><time>2026-03-22T18:12:39.999Z</time></trkpt><trkpt lat="42.38854838376886" lon="-7.81101127820008"><ele>201.25</ele><time>2026-03-22T18:12:40.999Z</time></trkpt><trkpt lat="42.388405472550865" lon="-7.811037121048319"><ele>199.0</ele><time>2026-03-22T18:12:41.999Z</time></trkpt><trkpt lat="42.38826582579778" lon="-7.811067565061852"><ele>200.0</ele><time>2026-03-22T18:12:42.999Z</time></trkpt><trkpt lat="42.3881364185108" lon="-7.811095486610069"><ele>201.0</ele><time>2026-03-22T18:12:43.999Z</time></trkpt><trkpt lat="42.388004767083885" lon="-7.811118561324379"><ele>202.0</ele><time>2026-03-22T18:12:44.999Z</time></trkpt><trkpt lat="42.38787685756989" lon="-7.81114890317041"><ele>203.0</ele><time>2026-03-22T18:12:45.999Z</time></trkpt><trkpt lat="42.38775492264586" lon="-7.81117415214954"><ele>203.0</ele><time>2026-03-22T18:12:46.999Z</time></trkpt><trkpt lat="42.38763742244845" lon="-7.811199229130519"><ele>203.0</ele><time>2026-03-22T18:12:47.999Z</time></trkpt><trkpt lat="42.38751977432191" lon="-7.811223313863649"><ele>203.0</ele><time>2026-03-22T18:12:48.999Z</time></trkpt><trkpt lat="42.38740125688992" lon="-7.811246356488503"><ele>203.0</ele><time>2026-03-22T18:12:49.999Z</time></trkpt><trkpt lat="42.38728636007678" lon="-7.811273904801586"><ele>200.5</ele><time>2026-03-22T18:12:50.999Z</time></trkpt><trkpt lat="42.387171253072694" lon="-7.811302996638974"><ele>198.0</ele><time>2026-03-22T18:12:51.999Z</time></trkpt><trkpt lat="42.38705916201173" lon="-7.811334462819269"><ele>195.5</ele><time>2026-03-22T18:12:52.999Z</time></trkpt><trkpt lat="42.38693956932987" lon="-7.811361058455029"><ele>193.0</ele><time>2026-03-22T18:12:53.999Z</time></trkpt><trkpt lat="42.38681612635365" lon="-7.811406116349455"><ele>193.0</ele><time>2026-03-22T18:12:54.999Z</time></trkpt><trkpt lat="42.3867093727356" lon="-7.811460694285197"><ele>193.0</ele><time>2026-03-22T18:12:55.999Z</time></trkpt><trkpt lat="42.38661794118247" lon="-7.811554662159659"><ele>193.0</ele><time>2026-03-22T18:12:57Z</time></trkpt><trkpt lat="42.38653231373742" lon="-7.811683086383428"><ele>193.0</ele><time>2026-03-22T18:12:58Z</time></trkpt><trkpt lat="42.38645360549117" lon="-7.811801911216589"><ele>194.5</ele><time>2026-03-22T18:12:59Z</time></trkpt><trkpt lat="42.38636816316323" lon="-7.811918330165504"><ele>196.0</ele><time>2026-03-22T18:13:00Z</time></trkpt><trkpt lat="42.38626526124098" lon="-7.812011415546997"><ele>197.5</ele><time>2026-03-22T18:13:01Z</time></trkpt><trkpt lat="42.3861424573066" lon="-7.812078604527136"><ele>199.0</ele><time>2026-03-22T18:13:02Z</time></trkpt><trkpt lat="42.38601976960078" lon="-7.812154911628383"><ele>199.0</ele><time>2026-03-22T18:13:03Z</time></trkpt><trkpt lat="42.385902717865235" lon="-7.812236096935824"><ele>199.0</ele><time>2026-03-22T18:13:04Z</time></trkpt><trkpt lat="42.38579688009581" lon="-7.812301622987983"><ele>199.0</ele><time>2026-03-22T18:13:05Z</time></trkpt><trkpt lat="42.38569038177142" lon="-7.8123599495323"><ele>199.0</ele><time>2026-03-22T18:13:06Z</time></trkpt><trkpt lat="42.38558309518866" lon="-7.8124264082468935"><ele>199.5</ele><time>2026-03-22T18:13:07Z</time></trkpt><trkpt lat="42.38547282142545" lon="-7.812499037525892"><ele>200.0</ele><time>2026-03-22T18:13:08Z</time></trkpt><trkpt lat="42.3853710477663" lon="-7.81256406677313"><ele>200.5</ele><time>2026-03-22T18:13:09Z</time></trkpt><trkpt lat="42.38526097797831" lon="-7.812615222270082"><ele>201.0</ele><time>2026-03-22T18:13:10Z</time></trkpt><trkpt lat="42.38516020421041" lon="-7.812664604839166"><ele>201.0</ele><time>2026-03-22T18:13:11Z</time></trkpt><trkpt lat="42.385061990482875" lon="-7.812697512436808"><ele>201.0</ele><time>2026-03-22T18:13:12Z</time></trkpt><trkpt lat="42.38496848213255" lon="-7.812732424941244"><ele>201.0</ele><time>2026-03-22T18:13:13Z</time></trkpt><trkpt lat="42.38486787952159" lon="-7.81277106076195"><ele>201.0</ele><time>2026-03-22T18:13:14Z</time></trkpt><trkpt lat="42.3847864287757" lon="-7.812801712247663"><ele>201.0</ele><time>2026-03-22T18:13:15Z</time></trkpt><trkpt lat="42.38470507675956" lon="-7.812831104201955"><ele>201.0</ele><time>2026-03-22T18:13:16Z</time></trkpt><trkpt lat="42.38463304018151" lon="-7.81285816842593"><ele>201.0</ele><time>2026-03-22T18:13:17Z</time></trkpt><trkpt lat="42.384563738969966" lon="-7.812879882954516"><ele>201.0</ele><time>2026-03-22T18:13:18Z</time></trkpt><trkpt lat="42.38448390197515" lon="-7.812901948484236"><ele>201.0</ele><time>2026-03-22T18:13:19Z</time></trkpt><trkpt lat="42.38440330053335" lon="-7.812914864219193"><ele>201.0</ele><time>2026-03-22T18:13:20Z</time></trkpt><trkpt lat="42.384303507162095" lon="-7.812922597570415"><ele>201.0</ele><time>2026-03-22T18:13:21Z</time></trkpt><trkpt lat="42.38419590024028" lon="-7.81290358602233"><ele>201.0</ele><time>2026-03-22T18:13:22Z</time></trkpt><trkpt lat="42.38408609983016" lon="-7.81284435336953"><ele>201.0</ele><time>2026-03-22T18:13:23Z</time></trkpt><trkpt lat="42.38398254831387" lon="-7.812766801795139"><ele>201.0</ele><time>2026-03-22T18:13:24Z</time></trkpt><trkpt lat="42.38388259920378" lon="-7.812688405212189"><ele>201.0</ele><time>2026-03-22T18:13:25Z</time></trkpt><trkpt lat="42.383795202910974" lon="-7.812638276917403"><ele>201.0</ele><time>2026-03-22T18:13:26Z</time></trkpt><trkpt lat="42.383684182816715" lon="-7.81260259377211"><ele>201.4</ele><time>2026-03-22T18:13:27Z</time></trkpt><trkpt lat="42.38357332671957" lon="-7.81258929981322"><ele>201.8</ele><time>2026-03-22T18:13:28Z</time></trkpt><trkpt lat="42.38346800460448" lon="-7.812598738457631"><ele>202.20000000000002</ele><time>2026-03-22T18:13:29Z</time></trkpt><trkpt lat="42.383354368367485" lon="-7.812628159025415"><ele>202.60000000000002</ele><time>2026-03-22T18:13:30Z</time></trkpt><trkpt lat="42.38325208368377" lon="-7.81267373257833"><ele>203.0</ele><time>2026-03-22T18:13:31Z</time></trkpt><trkpt lat="42.383142877294155" lon="-7.8127559723202085"><ele>203.0</ele><time>2026-03-22T18:13:32Z</time></trkpt><trkpt lat="42.383061930709" lon="-7.812879253386439"><ele>203.0</ele><time>2026-03-22T18:13:33Z</time></trkpt><trkpt lat="42.38298782223005" lon="-7.813027507751942"><ele>203.0</ele><time>2026-03-22T18:13:34Z</time></trkpt><trkpt lat="42.38291468298091" lon="-7.813176031885918"><ele>203.0</ele><time>2026-03-22T18:13:35Z</time></trkpt><trkpt lat="42.38283489250666" lon="-7.8133222804666"><ele>198.0</ele><time>2026-03-22T18:13:36Z</time></trkpt><trkpt lat="42.3827512647896" lon="-7.813472783340573"><ele>193.0</ele><time>2026-03-22T18:13:37Z</time></trkpt><trkpt lat="42.38268184321437" lon="-7.813621275497488"><ele>188.0</ele><time>2026-03-22T18:13:38Z</time></trkpt><trkpt lat="42.38263054207136" lon="-7.813784989811038"><ele>183.0</ele><time>2026-03-22T18:13:39Z</time></trkpt><trkpt lat="42.3826100736421" lon="-7.813960730188477"><ele>183.0</ele><time>2026-03-22T18:13:40Z</time></trkpt><trkpt lat="42.3826155070759" lon="-7.81414601843442"><ele>183.0</ele><time>2026-03-22T18:13:41Z</time></trkpt><trkpt lat="42.38263748423699" lon="-7.814302305336894"><ele>183.0</ele><time>2026-03-22T18:13:42Z</time></trkpt><trkpt lat="42.382641855090775" lon="-7.814483086915798"><ele>183.0</ele><time>2026-03-22T18:13:43Z</time></trkpt><trkpt lat="42.38264683870242" lon="-7.814669295213741"><ele>182.25</ele><time>2026-03-22T18:13:44Z</time></trkpt><trkpt lat="42.382653564823926" lon="-7.814870569638333"><ele>181.5</ele><time>2026-03-22T18:13:45Z</time></trkpt><trkpt lat="42.382662748413146" lon="-7.815072927411059"><ele>180.75</ele><time>2026-03-22T18:13:46Z</time></trkpt><trkpt lat="42.38267000673934" lon="-7.815275488451543"><ele>180.0</ele><time>2026-03-22T18:13:47Z</time></trkpt><trkpt lat="42.38268005726539" lon="-7.815475066562547"><ele>178.0</ele><time>2026-03-22T18:13:48Z</time></trkpt><trkpt lat="42.38268157427153" lon="-7.815664598418477"><ele>176.0</ele><time>2026-03-22T18:13:49Z</time></trkpt><trkpt lat="42.38268966853383" lon="-7.815856768911734"><ele>174.0</ele><time>2026-03-22T18:13:49.999Z</time></trkpt><trkpt lat="42.3826966678997" lon="-7.816038149894562"><ele>172.0</ele><time>2026-03-22T18:13:50.999Z</time></trkpt><trkpt lat="42.38270308058785" lon="-7.816226316211449"><ele>169.75</ele><time>2026-03-22T18:13:51.999Z</time></trkpt><trkpt lat="42.382711381689404" lon="-7.816408214316943"><ele>167.5</ele><time>2026-03-22T18:13:52.999Z</time></trkpt><trkpt lat="42.382717095624585" lon="-7.816581129853342"><ele>165.25</ele><time>2026-03-22T18:13:53.999Z</time></trkpt><trkpt lat="42.38272520694883" lon="-7.816760726125633"><ele>163.0</ele><time>2026-03-22T18:13:54.999Z</time></trkpt><trkpt lat="42.38273612910535" lon="-7.816929137395739"><ele>163.0</ele><time>2026-03-22T18:13:55.999Z</time></trkpt><trkpt lat="42.382742670639" lon="-7.817087838432504"><ele>163.0</ele><time>2026-03-22T18:13:56.999Z</time></trkpt><trkpt lat="42.382747422527395" lon="-7.817245137528578"><ele>163.0</ele><time>2026-03-22T18:13:57.999Z</time></trkpt><trkpt lat="42.3827472494031" lon="-7.8173919310040905"><ele>163.0</ele><time>2026-03-22T18:13:58.999Z</time></trkpt><trkpt lat="42.382735945911" lon="-7.817531739418815"><ele>163.0</ele><time>2026-03-22T18:13:59.999Z</time></trkpt><trkpt lat="42.38269838882337" lon="-7.817676098188537"><ele>163.75</ele><time>2026-03-22T18:14:00.999Z</time></trkpt><trkpt lat="42.3826424714339" lon="-7.817831031142305"><ele>164.5</ele><time>2026-03-22T18:14:01.999Z</time></trkpt><trkpt lat="42.38258003331892" lon="-7.817976439771337"><ele>165.25</ele><time>2026-03-22T18:14:02.999Z</time></trkpt><trkpt lat="42.38252202586139" lon="-7.818109695560802"><ele>166.0</ele><time>2026-03-22T18:14:03.999Z</time></trkpt><trkpt lat="42.38246631684415" lon="-7.818231395841289"><ele>166.0</ele><time>2026-03-22T18:14:04.999Z</time></trkpt><trkpt lat="42.382417651116796" lon="-7.81834259858522"><ele>166.0</ele><time>2026-03-22T18:14:05.999Z</time></trkpt><trkpt lat="42.38237077562287" lon="-7.818465522745446"><ele>166.0</ele><time>2026-03-22T18:14:06.999Z</time></trkpt><trkpt lat="42.38231345812462" lon="-7.8185849205548825"><ele>166.0</ele><time>2026-03-22T18:14:07.999Z</time></trkpt><trkpt lat="42.38225005766978" lon="-7.81872634356718"><ele>166.0</ele><time>2026-03-22T18:14:08.999Z</time></trkpt><trkpt lat="42.38218829235699" lon="-7.81883792267796"><ele>165.0</ele><time>2026-03-22T18:14:09.999Z</time></trkpt><trkpt lat="42.38212200329689" lon="-7.818951326772505"><ele>164.0</ele><time>2026-03-22T18:14:10.999Z</time></trkpt><trkpt lat="42.38205426217756" lon="-7.81907044137415"><ele>163.0</ele><time>2026-03-22T18:14:11.999Z</time></trkpt><trkpt lat="42.38199819444005" lon="-7.819182919867447"><ele>162.0</ele><time>2026-03-22T18:14:12.999Z</time></trkpt><trkpt lat="42.381946610715126" lon="-7.819307581617111"><ele>161.0</ele><time>2026-03-22T18:14:13.999Z</time></trkpt><trkpt lat="42.38190724385042" lon="-7.819422781630609"><ele>160.83333333333331</ele><time>2026-03-22T18:14:14.999Z</time></trkpt><trkpt lat="42.38188755749563" lon="-7.8195304190734705"><ele>160.66666666666666</ele><time>2026-03-22T18:14:15.999Z</time></trkpt><trkpt lat="42.38186738236787" lon="-7.8196868503670345"><ele>160.5</ele><time>2026-03-22T18:14:17.999Z</time></trkpt><trkpt lat="42.38185322263605" lon="-7.819802213620185"><ele>160.33333333333334</ele><time>2026-03-22T18:14:19.999Z</time></trkpt><trkpt lat="42.381855538201165" lon="-7.819920749850109"><ele>160.16666666666669</ele><time>2026-03-22T18:14:22.999Z</time></trkpt><trkpt lat="42.38182224861047" lon="-7.820010812791637"><ele>160.0</ele><time>2026-03-22T18:14:24.999Z</time></trkpt><trkpt lat="42.38179418994602" lon="-7.820199555844362"><ele>159.25</ele><time>2026-03-22T18:14:26.999Z</time></trkpt><trkpt lat="42.38179303064525" lon="-7.820347923049862"><ele>158.5</ele><time>2026-03-22T18:14:27.999Z</time></trkpt><trkpt lat="42.38181276517493" lon="-7.820515250400937"><ele>157.75</ele><time>2026-03-22T18:14:28.999Z</time></trkpt><trkpt lat="42.381863806322464" lon="-7.820697467343989"><ele>157.0</ele><time>2026-03-22T18:14:29.999Z</time></trkpt><trkpt lat="42.38192228846764" lon="-7.820875553227704"><ele>156.0</ele><time>2026-03-22T18:14:30.999Z</time></trkpt><trkpt lat="42.38197528153657" lon="-7.82106487291909"><ele>155.0</ele><time>2026-03-22T18:14:31.999Z</time></trkpt><trkpt lat="42.382033845347955" lon="-7.821248211273744"><ele>154.0</ele><time>2026-03-22T18:14:32.999Z</time></trkpt><trkpt lat="42.38209916778135" lon="-7.821434233276341"><ele>153.0</ele><time>2026-03-22T18:14:33.999Z</time></trkpt><trkpt lat="42.382177032070516" lon="-7.82163600504081"><ele>151.0</ele><time>2026-03-22T18:14:34.999Z</time></trkpt><trkpt lat="42.382271055340816" lon="-7.821853223798823"><ele>149.0</ele><time>2026-03-22T18:14:35.999Z</time></trkpt><trkpt lat="42.38235138938208" lon="-7.822075437724649"><ele>147.0</ele><time>2026-03-22T18:14:36.999Z</time></trkpt><trkpt lat="42.38243981008414" lon="-7.822295118333297"><ele>147.0</ele><time>2026-03-22T18:14:37.999Z</time></trkpt><trkpt lat="42.38251792133979" lon="-7.822503131192043"><ele>147.0</ele><time>2026-03-22T18:14:38.999Z</time></trkpt><trkpt lat="42.382600153122226" lon="-7.822714056029491"><ele>147.0</ele><time>2026-03-22T18:14:39.999Z</time></trkpt><trkpt lat="42.382688821936135" lon="-7.822938176358566"><ele>145.66666666666666</ele><time>2026-03-22T18:14:40.999Z</time></trkpt><trkpt lat="42.38277740232646" lon="-7.823148596478177"><ele>144.33333333333331</ele><time>2026-03-22T18:14:41.999Z</time></trkpt><trkpt lat="42.38285998671492" lon="-7.823365747537787"><ele>143.0</ele><time>2026-03-22T18:14:42.999Z</time></trkpt><trkpt lat="42.38294072730781" lon="-7.823563243838435"><ele>141.66666666666666</ele><time>2026-03-22T18:14:43.999Z</time></trkpt><trkpt lat="42.38301849280287" lon="-7.823761464872254"><ele>140.33333333333334</ele><time>2026-03-22T18:14:44.999Z</time></trkpt><trkpt lat="42.383095931361126" lon="-7.823956489007875"><ele>139.0</ele><time>2026-03-22T18:14:45.999Z</time></trkpt><trkpt lat="42.383171992095455" lon="-7.8241497658511845"><ele>137.0</ele><time>2026-03-22T18:14:46.999Z</time></trkpt><trkpt lat="42.38324894322765" lon="-7.824354717688899"><ele>135.0</ele><time>2026-03-22T18:14:47.999Z</time></trkpt><trkpt lat="42.38332771477703" lon="-7.824556041482025"><ele>133.0</ele><time>2026-03-22T18:14:48.999Z</time></trkpt><trkpt lat="42.38340909235086" lon="-7.824759750225579"><ele>133.0</ele><time>2026-03-22T18:14:49.999Z</time></trkpt><trkpt lat="42.38348754953365" lon="-7.824962911533741"><ele>133.0</ele><time>2026-03-22T18:14:50.999Z</time></trkpt><trkpt lat="42.38356400583093" lon="-7.8251544657835055"><ele>133.0</ele><time>2026-03-22T18:14:51.999Z</time></trkpt><trkpt lat="42.38363621830701" lon="-7.825349238897716"><ele>130.33333333333334</ele><time>2026-03-22T18:14:52.999Z</time></trkpt><trkpt lat="42.383710812074604" lon="-7.825538573670548"><ele>127.66666666666666</ele><time>2026-03-22T18:14:53.999Z</time></trkpt><trkpt lat="42.3837798851163" lon="-7.8257246457364475"><ele>125.0</ele><time>2026-03-22T18:14:54.999Z</time></trkpt><trkpt lat="42.38384592237007" lon="-7.825921502111586"><ele>123.66666666666666</ele><time>2026-03-22T18:14:55.999Z</time></trkpt><trkpt lat="42.38390658051742" lon="-7.826122388891044"><ele>122.33333333333334</ele><time>2026-03-22T18:14:56.999Z</time></trkpt><trkpt lat="42.38394156571306" lon="-7.826326381647111"><ele>121.0</ele><time>2026-03-22T18:14:57.999Z</time></trkpt><trkpt lat="42.38397178651196" lon="-7.826539082432386"><ele>121.0</ele><time>2026-03-22T18:14:58.999Z</time></trkpt><trkpt lat="42.383990638473136" lon="-7.8267608445956895"><ele>121.0</ele><time>2026-03-22T18:14:59.999Z</time></trkpt><trkpt lat="42.38400957391611" lon="-7.826977986204535"><ele>121.0</ele><time>2026-03-22T18:15:00.999Z</time></trkpt><trkpt lat="42.38402741363386" lon="-7.827185410917459"><ele>120.75</ele><time>2026-03-22T18:15:01.999Z</time></trkpt><trkpt lat="42.38404196428941" lon="-7.8273749300607065"><ele>120.5</ele><time>2026-03-22T18:15:03Z</time></trkpt><trkpt lat="42.38404951995747" lon="-7.827576097557734"><ele>120.25</ele><time>2026-03-22T18:15:04Z</time></trkpt><trkpt lat="42.38405074029326" lon="-7.827777546848502"><ele>120.0</ele><time>2026-03-22T18:15:05Z</time></trkpt><trkpt lat="42.384015993078584" lon="-7.828004412765881"><ele>119.66666666666666</ele><time>2026-03-22T18:15:06Z</time></trkpt><trkpt lat="42.38393459117254" lon="-7.828226682747583"><ele>119.33333333333333</ele><time>2026-03-22T18:15:07Z</time></trkpt><trkpt lat="42.38386250807984" lon="-7.828431535322806"><ele>119.0</ele><time>2026-03-22T18:15:08Z</time></trkpt><trkpt lat="42.38380172485515" lon="-7.828626497735731"><ele>121.5</ele><time>2026-03-22T18:15:09Z</time></trkpt><trkpt lat="42.38374522104895" lon="-7.828825544626308"><ele>124.0</ele><time>2026-03-22T18:15:10Z</time></trkpt><trkpt lat="42.38370480189046" lon="-7.8290135223324615"><ele>126.5</ele><time>2026-03-22T18:15:11Z</time></trkpt><trkpt lat="42.38368887502144" lon="-7.829205616384998"><ele>129.0</ele><time>2026-03-22T18:15:12Z</time></trkpt><trkpt lat="42.38369017113546" lon="-7.829402655186368"><ele>130.0</ele><time>2026-03-22T18:15:13Z</time></trkpt><trkpt lat="42.38370335249546" lon="-7.829601398472237"><ele>131.0</ele><time>2026-03-22T18:15:14Z</time></trkpt><trkpt lat="42.383716524342795" lon="-7.829774825516711"><ele>132.0</ele><time>2026-03-22T18:15:15Z</time></trkpt><trkpt lat="42.383724469095824" lon="-7.829962736560639"><ele>133.0</ele><time>2026-03-22T18:15:16Z</time></trkpt><trkpt lat="42.38373095111946" lon="-7.830140427307469"><ele>131.0</ele><time>2026-03-22T18:15:17Z</time></trkpt><trkpt lat="42.38373762608333" lon="-7.830317437603702"><ele>129.0</ele><time>2026-03-22T18:15:18Z</time></trkpt><trkpt lat="42.383743707162004" lon="-7.830482738239419"><ele>127.0</ele><time>2026-03-22T18:15:19Z</time></trkpt><trkpt lat="42.383751066862914" lon="-7.830645107469932"><ele>125.0</ele><time>2026-03-22T18:15:20Z</time></trkpt><trkpt lat="42.383758928381724" lon="-7.830794108524724"><ele>125.0</ele><time>2026-03-22T18:15:21Z</time></trkpt><trkpt lat="42.383782795139155" lon="-7.830943438924504"><ele>125.0</ele><time>2026-03-22T18:15:22Z</time></trkpt><trkpt lat="42.38382454072718" lon="-7.831093146466687"><ele>125.0</ele><time>2026-03-22T18:15:23Z</time></trkpt><trkpt lat="42.38387343433003" lon="-7.831241337244062"><ele>125.0</ele><time>2026-03-22T18:15:24Z</time></trkpt><trkpt lat="42.38392635734101" lon="-7.83140870342122"><ele>122.0</ele><time>2026-03-22T18:15:25Z</time></trkpt><trkpt lat="42.38398590101721" lon="-7.831581557450624"><ele>119.0</ele><time>2026-03-22T18:15:26Z</time></trkpt><trkpt lat="42.38405803503052" lon="-7.8317612500962195"><ele>116.0</ele><time>2026-03-22T18:15:27Z</time></trkpt><trkpt lat="42.384128578150296" lon="-7.831957427639442"><ele>116.0</ele><time>2026-03-22T18:15:28Z</time></trkpt><trkpt lat="42.384185796477354" lon="-7.832115075974691"><ele>116.0</ele><time>2026-03-22T18:15:29Z</time></trkpt><trkpt lat="42.38422817665347" lon="-7.832245245149615"><ele>116.0</ele><time>2026-03-22T18:15:30Z</time></trkpt><trkpt lat="42.384252656879504" lon="-7.832372359718209"><ele>116.0</ele><time>2026-03-22T18:15:31Z</time></trkpt><trkpt lat="42.38425892030822" lon="-7.832510907537883"><ele>116.0</ele><time>2026-03-22T18:15:32Z</time></trkpt><trkpt lat="42.38426667150443" lon="-7.8326524672596145"><ele>115.99999999999999</ele><time>2026-03-22T18:15:33Z</time></trkpt><trkpt lat="42.38427606406769" lon="-7.832785525188266"><ele>116.0</ele><time>2026-03-22T18:15:34Z</time></trkpt><trkpt lat="42.38427839468001" lon="-7.832906437171137"><ele>116.0</ele><time>2026-03-22T18:15:35Z</time></trkpt><trkpt lat="42.38427670634751" lon="-7.8330241475936235"><ele>116.0</ele><time>2026-03-22T18:15:36Z</time></trkpt><trkpt lat="42.384266746438755" lon="-7.833121841884715"><ele>115.99999999999999</ele><time>2026-03-22T18:15:37Z</time></trkpt><trkpt lat="42.38425312780801" lon="-7.8332238827992215"><ele>116.0</ele><time>2026-03-22T18:15:38Z</time></trkpt><trkpt lat="42.38423544674815" lon="-7.83332665700856"><ele>116.0</ele><time>2026-03-22T18:15:39Z</time></trkpt><trkpt lat="42.38422266896478" lon="-7.833416416311842"><ele>116.0</ele><time>2026-03-22T18:15:40Z</time></trkpt><trkpt lat="42.384196223049756" lon="-7.8335800324347495"><ele>116.0</ele><time>2026-03-22T18:15:42Z</time></trkpt><trkpt lat="42.38416970559136" lon="-7.833719814011649"><ele>116.0</ele><time>2026-03-22T18:15:43.999Z</time></trkpt><trkpt lat="42.38414646157222" lon="-7.833847651938791"><ele>116.0</ele><time>2026-03-22T18:15:45.999Z</time></trkpt><trkpt lat="42.38412187568927" lon="-7.833999298102382"><ele>115.75</ele><time>2026-03-22T18:15:47.999Z</time></trkpt><trkpt lat="42.38409092200323" lon="-7.834163459803909"><ele>115.5</ele><time>2026-03-22T18:15:48.999Z</time></trkpt><trkpt lat="42.38405521597476" lon="-7.834313001076597"><ele>115.25</ele><time>2026-03-22T18:15:49.999Z</time></trkpt><trkpt lat="42.384011328707494" lon="-7.834487710305801"><ele>115.0</ele><time>2026-03-22T18:15:50.999Z</time></trkpt><trkpt lat="42.38395094304714" lon="-7.8346589393201445"><ele>115.33333333333334</ele><time>2026-03-22T18:15:51.999Z</time></trkpt><trkpt lat="42.38386679514152" lon="-7.834828812980526"><ele>115.66666666666666</ele><time>2026-03-22T18:15:52.999Z</time></trkpt><trkpt lat="42.38376064131785" lon="-7.834987819968725"><ele>116.0</ele><time>2026-03-22T18:15:53.999Z</time></trkpt><trkpt lat="42.38362981421833" lon="-7.835126193652809"><ele>120.0</ele><time>2026-03-22T18:15:54.999Z</time></trkpt><trkpt lat="42.38350381662041" lon="-7.835230341619494"><ele>124.0</ele><time>2026-03-22T18:15:55.999Z</time></trkpt><trkpt lat="42.38336494635366" lon="-7.835291452353516"><ele>128.0</ele><time>2026-03-22T18:15:56.999Z</time></trkpt><trkpt lat="42.38321618131148" lon="-7.83531373092895"><ele>132.0</ele><time>2026-03-22T18:15:57.999Z</time></trkpt><trkpt lat="42.383062567272525" lon="-7.8353031287611"><ele>131.0</ele><time>2026-03-22T18:15:58.999Z</time></trkpt><trkpt lat="42.382921284384985" lon="-7.83530981938497"><ele>130.0</ele><time>2026-03-22T18:15:59.999Z</time></trkpt><trkpt lat="42.38278525511882" lon="-7.835332597907841"><ele>129.0</ele><time>2026-03-22T18:16:00.999Z</time></trkpt><trkpt lat="42.38263691801154" lon="-7.8353866053516015"><ele>128.0</ele><time>2026-03-22T18:16:01.999Z</time></trkpt><trkpt lat="42.38249045354222" lon="-7.835450176986512"><ele>128.0</ele><time>2026-03-22T18:16:02.999Z</time></trkpt><trkpt lat="42.38235605989064" lon="-7.835513991079876"><ele>128.0</ele><time>2026-03-22T18:16:03.999Z</time></trkpt><trkpt lat="42.38223070779053" lon="-7.835546794444829"><ele>128.0</ele><time>2026-03-22T18:16:04.999Z</time></trkpt><trkpt lat="42.382083849258976" lon="-7.835538268094191"><ele>128.0</ele><time>2026-03-22T18:16:05.999Z</time></trkpt><trkpt lat="42.38193095969045" lon="-7.835484007594698"><ele>127.66666666666666</ele><time>2026-03-22T18:16:06.999Z</time></trkpt><trkpt lat="42.38176543928701" lon="-7.835369090697424"><ele>127.33333333333334</ele><time>2026-03-22T18:16:07.999Z</time></trkpt><trkpt lat="42.38161068555823" lon="-7.835256454732438"><ele>127.0</ele><time>2026-03-22T18:16:08.999Z</time></trkpt><trkpt lat="42.381475350164216" lon="-7.835123870801147"><ele>125.5</ele><time>2026-03-22T18:16:09.999Z</time></trkpt><trkpt lat="42.38134819126336" lon="-7.835023479953568"><ele>124.0</ele><time>2026-03-22T18:16:10.999Z</time></trkpt><trkpt lat="42.38122563069922" lon="-7.834909289463457"><ele>122.5</ele><time>2026-03-22T18:16:11.999Z</time></trkpt><trkpt lat="42.381104774752934" lon="-7.834805020246191"><ele>121.0</ele><time>2026-03-22T18:16:12.999Z</time></trkpt><trkpt lat="42.38099015000235" lon="-7.834704040778085"><ele>121.0</ele><time>2026-03-22T18:16:13.999Z</time></trkpt><trkpt lat="42.380891610702506" lon="-7.834603414931717"><ele>121.0</ele><time>2026-03-22T18:16:14.999Z</time></trkpt><trkpt lat="42.38080225550215" lon="-7.8345083521518255"><ele>121.0</ele><time>2026-03-22T18:16:15.999Z</time></trkpt><trkpt lat="42.38071073286157" lon="-7.834403099149537"><ele>121.0</ele><time>2026-03-22T18:16:16.999Z</time></trkpt><trkpt lat="42.380637414538796" lon="-7.834302892515985"><ele>120.0</ele><time>2026-03-22T18:16:17.999Z</time></trkpt><trkpt lat="42.380568845919996" lon="-7.83420488574252"><ele>119.0</ele><time>2026-03-22T18:16:18.999Z</time></trkpt><trkpt lat="42.38051525830508" lon="-7.834127153379959"><ele>118.0</ele><time>2026-03-22T18:16:19.999Z</time></trkpt><trkpt lat="42.38044213123795" lon="-7.8340210776764625"><ele>117.0</ele><time>2026-03-22T18:16:21.999Z</time></trkpt><trkpt lat="42.38038486654351" lon="-7.833938011358706"><ele>116.0</ele><time>2026-03-22T18:16:23.999Z</time></trkpt><trkpt lat="42.38030384191456" lon="-7.833830225215753"><ele>118.6</ele><time>2026-03-22T18:16:25.999Z</time></trkpt><trkpt lat="42.380242331146185" lon="-7.833736590085481"><ele>121.19999999999999</ele><time>2026-03-22T18:16:26.999Z</time></trkpt><trkpt lat="42.3801335957795" lon="-7.833674676252634"><ele>123.80000000000001</ele><time>2026-03-22T18:16:27.999Z</time></trkpt><trkpt lat="42.38002499277898" lon="-7.83363257488645"><ele>126.4</ele><time>2026-03-22T18:16:28.999Z</time></trkpt><trkpt lat="42.37990979242833" lon="-7.833610525248358"><ele>129.0</ele><time>2026-03-22T18:16:29.999Z</time></trkpt><trkpt lat="42.37978004969567" lon="-7.833582464973975"><ele>130.6</ele><time>2026-03-22T18:16:30.999Z</time></trkpt><trkpt lat="42.37966837605986" lon="-7.8335581447483715"><ele>132.2</ele><time>2026-03-22T18:16:31.999Z</time></trkpt><trkpt lat="42.37955674965628" lon="-7.83352657932013"><ele>133.79999999999998</ele><time>2026-03-22T18:16:32.999Z</time></trkpt><trkpt lat="42.37944306563361" lon="-7.833499427665937"><ele>135.4</ele><time>2026-03-22T18:16:33.999Z</time></trkpt><trkpt lat="42.379341566030256" lon="-7.833485584951135"><ele>137.0</ele><time>2026-03-22T18:16:34.999Z</time></trkpt><trkpt lat="42.37924537704221" lon="-7.83349399622185"><ele>137.0</ele><time>2026-03-22T18:16:35.999Z</time></trkpt><trkpt lat="42.37914831054507" lon="-7.8335205278107525"><ele>137.0</ele><time>2026-03-22T18:16:36.999Z</time></trkpt><trkpt lat="42.37904527459127" lon="-7.833574335913435"><ele>137.0</ele><time>2026-03-22T18:16:37.999Z</time></trkpt><trkpt lat="42.37892297731436" lon="-7.833625298690877"><ele>137.0</ele><time>2026-03-22T18:16:38.999Z</time></trkpt><trkpt lat="42.37879563648689" lon="-7.833657092131239"><ele>137.5</ele><time>2026-03-22T18:16:39.999Z</time></trkpt><trkpt lat="42.378660117094846" lon="-7.833664613444131"><ele>138.0</ele><time>2026-03-22T18:16:40.999Z</time></trkpt><trkpt lat="42.37852232557562" lon="-7.833652789780542"><ele>138.5</ele><time>2026-03-22T18:16:41.999Z</time></trkpt><trkpt lat="42.378377288603474" lon="-7.833626338435264"><ele>139.0</ele><time>2026-03-22T18:16:42.999Z</time></trkpt><trkpt lat="42.37823345942587" lon="-7.833604310365308"><ele>139.0</ele><time>2026-03-22T18:16:43.999Z</time></trkpt><trkpt lat="42.378092476312695" lon="-7.833622291526518"><ele>139.0</ele><time>2026-03-22T18:16:44.999Z</time></trkpt><trkpt lat="42.37795390337875" lon="-7.83368716898783"><ele>139.0</ele><time>2026-03-22T18:16:45.999Z</time></trkpt><trkpt lat="42.377806038214054" lon="-7.833759648377655"><ele>139.0</ele><time>2026-03-22T18:16:46.999Z</time></trkpt><trkpt lat="42.37766667616239" lon="-7.833838489159949"><ele>138.66666666666669</ele><time>2026-03-22T18:16:47.999Z</time></trkpt><trkpt lat="42.37751542080074" lon="-7.833921201883827"><ele>138.33333333333334</ele><time>2026-03-22T18:16:48.999Z</time></trkpt><trkpt lat="42.37736614390748" lon="-7.833987361634598"><ele>138.0</ele><time>2026-03-22T18:16:49.999Z</time></trkpt><trkpt lat="42.37722108779068" lon="-7.834050221460338"><ele>136.75</ele><time>2026-03-22T18:16:50.999Z</time></trkpt><trkpt lat="42.37707876508303" lon="-7.834098627201753"><ele>135.5</ele><time>2026-03-22T18:16:51.999Z</time></trkpt><trkpt lat="42.37693663602089" lon="-7.834124518363566"><ele>134.25</ele><time>2026-03-22T18:16:52.999Z</time></trkpt><trkpt lat="42.376797835878875" lon="-7.8341567493542295"><ele>133.0</ele><time>2026-03-22T18:16:53.999Z</time></trkpt><trkpt lat="42.376668347183404" lon="-7.834208029985855"><ele>133.0</ele><time>2026-03-22T18:16:54.999Z</time></trkpt><trkpt lat="42.37654094706923" lon="-7.834299033166041"><ele>133.0</ele><time>2026-03-22T18:16:55.999Z</time></trkpt><trkpt lat="42.37640336026334" lon="-7.83442580604242"><ele>133.0</ele><time>2026-03-22T18:16:56.999Z</time></trkpt><trkpt lat="42.37625582847279" lon="-7.834559678842013"><ele>130.0</ele><time>2026-03-22T18:16:57.999Z</time></trkpt><trkpt lat="42.37610073765688" lon="-7.834690599169472"><ele>127.0</ele><time>2026-03-22T18:16:58.999Z</time></trkpt><trkpt lat="42.375948248653955" lon="-7.834834977245908"><ele>124.0</ele><time>2026-03-22T18:16:59.999Z</time></trkpt><trkpt lat="42.37579462324878" lon="-7.8350120240560175"><ele>122.66666666666667</ele><time>2026-03-22T18:17:00.999Z</time></trkpt><trkpt lat="42.375647118060364" lon="-7.835209200762122"><ele>121.33333333333334</ele><time>2026-03-22T18:17:01.999Z</time></trkpt><trkpt lat="42.3754968818166" lon="-7.835411914222153"><ele>120.0</ele><time>2026-03-22T18:17:02.999Z</time></trkpt><trkpt lat="42.375362373542636" lon="-7.835613161240552"><ele>120.0</ele><time>2026-03-22T18:17:03.999Z</time></trkpt><trkpt lat="42.375242156580505" lon="-7.835806104508521"><ele>120.0</ele><time>2026-03-22T18:17:04.999Z</time></trkpt><trkpt lat="42.37514138949066" lon="-7.835988923347639"><ele>120.0</ele><time>2026-03-22T18:17:05.999Z</time></trkpt><trkpt lat="42.37505243749519" lon="-7.836160571974112"><ele>122.5</ele><time>2026-03-22T18:17:06.999Z</time></trkpt><trkpt lat="42.37496244989386" lon="-7.836336525934554"><ele>125.0</ele><time>2026-03-22T18:17:07.999Z</time></trkpt><trkpt lat="42.37488038548884" lon="-7.836492177861112"><ele>127.5</ele><time>2026-03-22T18:17:09Z</time></trkpt><trkpt lat="42.37480014558029" lon="-7.836654150309859"><ele>130.0</ele><time>2026-03-22T18:17:10Z</time></trkpt><trkpt lat="42.3747163762875" lon="-7.836802106028013"><ele>129.5</ele><time>2026-03-22T18:17:11Z</time></trkpt><trkpt lat="42.374633215309956" lon="-7.836965598534534"><ele>129.0</ele><time>2026-03-22T18:17:12Z</time></trkpt><trkpt lat="42.37455301667184" lon="-7.837130620981644"><ele>128.5</ele><time>2026-03-22T18:17:13Z</time></trkpt><trkpt lat="42.37447274820206" lon="-7.8372998945123165"><ele>128.0</ele><time>2026-03-22T18:17:14Z</time></trkpt><trkpt lat="42.37438530736902" lon="-7.837466801945395"><ele>131.66666666666666</ele><time>2026-03-22T18:17:15Z</time></trkpt><trkpt lat="42.3743037510766" lon="-7.837637561406852"><ele>135.33333333333334</ele><time>2026-03-22T18:17:16Z</time></trkpt><trkpt lat="42.37421251423815" lon="-7.83781185185999"><ele>139.0</ele><time>2026-03-22T18:17:17Z</time></trkpt><trkpt lat="42.37412163939373" lon="-7.837990386778714"><ele>139.0</ele><time>2026-03-22T18:17:18Z</time></trkpt><trkpt lat="42.37403024185871" lon="-7.838178274390186"><ele>139.0</ele><time>2026-03-22T18:17:19Z</time></trkpt><trkpt lat="42.37394230339544" lon="-7.838356954236849"><ele>139.0</ele><time>2026-03-22T18:17:20Z</time></trkpt><trkpt lat="42.373857534824516" lon="-7.838514492537652"><ele>135.5</ele><time>2026-03-22T18:17:21Z</time></trkpt><trkpt lat="42.37377834097679" lon="-7.838663622609426"><ele>132.0</ele><time>2026-03-22T18:17:22Z</time></trkpt><trkpt lat="42.37370018526953" lon="-7.8388026127786885"><ele>128.5</ele><time>2026-03-22T18:17:23Z</time></trkpt><trkpt lat="42.373611873506135" lon="-7.838923479301822"><ele>125.0</ele><time>2026-03-22T18:17:24Z</time></trkpt><trkpt lat="42.3735275816217" lon="-7.839033627868178"><ele>125.0</ele><time>2026-03-22T18:17:25Z</time></trkpt><trkpt lat="42.37344572805968" lon="-7.839148631130224"><ele>125.0</ele><time>2026-03-22T18:17:26Z</time></trkpt><trkpt lat="42.37337240899137" lon="-7.839280324485009"><ele>125.0</ele><time>2026-03-22T18:17:27Z</time></trkpt><trkpt lat="42.37332329372802" lon="-7.839414657649246"><ele>125.0</ele><time>2026-03-22T18:17:28Z</time></trkpt><trkpt lat="42.37328100572941" lon="-7.83956807963889"><ele>123.5</ele><time>2026-03-22T18:17:29Z</time></trkpt><trkpt lat="42.37323214006108" lon="-7.8396947911942805"><ele>122.0</ele><time>2026-03-22T18:17:30Z</time></trkpt><trkpt lat="42.37315766255176" lon="-7.839814618278638"><ele>120.5</ele><time>2026-03-22T18:17:31Z</time></trkpt><trkpt lat="42.37307886559651" lon="-7.839944280597836"><ele>119.0</ele><time>2026-03-22T18:17:32Z</time></trkpt><trkpt lat="42.37301156522512" lon="-7.840058079262396"><ele>120.25</ele><time>2026-03-22T18:17:33Z</time></trkpt><trkpt lat="42.37294620395334" lon="-7.840195636924444"><ele>121.5</ele><time>2026-03-22T18:17:34Z</time></trkpt><trkpt lat="42.37289307183113" lon="-7.840340278539312"><ele>122.75</ele><time>2026-03-22T18:17:35Z</time></trkpt><trkpt lat="42.37283840793798" lon="-7.8404952973630735"><ele>124.0</ele><time>2026-03-22T18:17:36Z</time></trkpt><trkpt lat="42.37277045672681" lon="-7.840671081738191"><ele>124.0</ele><time>2026-03-22T18:17:37Z</time></trkpt><trkpt lat="42.37270438616792" lon="-7.840844079646843"><ele>124.0</ele><time>2026-03-22T18:17:38Z</time></trkpt><trkpt lat="42.37261540537046" lon="-7.8410001616817855"><ele>124.0</ele><time>2026-03-22T18:17:39Z</time></trkpt><trkpt lat="42.37252666072308" lon="-7.841143550509469"><ele>124.0</ele><time>2026-03-22T18:17:40Z</time></trkpt><trkpt lat="42.37243874247438" lon="-7.841283262360733"><ele>124.0</ele><time>2026-03-22T18:17:41Z</time></trkpt><trkpt lat="42.372351924000235" lon="-7.841425006757902"><ele>124.0</ele><time>2026-03-22T18:17:42Z</time></trkpt><trkpt lat="42.37226753743887" lon="-7.84155781813328"><ele>124.0</ele><time>2026-03-22T18:17:43Z</time></trkpt><trkpt lat="42.37218892662868" lon="-7.841690529042103"><ele>124.0</ele><time>2026-03-22T18:17:44Z</time></trkpt><trkpt lat="42.372116843281695" lon="-7.841809802239753"><ele>126.5</ele><time>2026-03-22T18:17:45Z</time></trkpt><trkpt lat="42.372048442469634" lon="-7.841931428750761"><ele>129.0</ele><time>2026-03-22T18:17:46Z</time></trkpt><trkpt lat="42.3719777727819" lon="-7.842038881917051"><ele>131.5</ele><time>2026-03-22T18:17:47Z</time></trkpt><trkpt lat="42.37189156703559" lon="-7.842149801893917"><ele>134.0</ele><time>2026-03-22T18:17:48Z</time></trkpt><trkpt lat="42.37180540832492" lon="-7.842267234827744"><ele>134.0</ele><time>2026-03-22T18:17:49Z</time></trkpt><trkpt lat="42.37171512249805" lon="-7.842378482438505"><ele>134.0</ele><time>2026-03-22T18:17:50Z</time></trkpt><trkpt lat="42.37162750445035" lon="-7.842485473488472"><ele>134.0</ele><time>2026-03-22T18:17:51Z</time></trkpt><trkpt lat="42.37154192035993" lon="-7.842593922124058"><ele>134.0</ele><time>2026-03-22T18:17:52Z</time></trkpt><trkpt lat="42.37146005696363" lon="-7.842687282964622"><ele>132.75</ele><time>2026-03-22T18:17:53Z</time></trkpt><trkpt lat="42.37138093993092" lon="-7.8427892779964266"><ele>131.5</ele><time>2026-03-22T18:17:54Z</time></trkpt><trkpt lat="42.37129441395457" lon="-7.842899747101526"><ele>130.25</ele><time>2026-03-22T18:17:55Z</time></trkpt><trkpt lat="42.37120180643655" lon="-7.8429966921151175"><ele>129.0</ele><time>2026-03-22T18:17:56Z</time></trkpt><trkpt lat="42.37109882831692" lon="-7.843111107189049"><ele>129.0</ele><time>2026-03-22T18:17:57Z</time></trkpt><trkpt lat="42.37100186730475" lon="-7.843222961782412"><ele>129.0</ele><time>2026-03-22T18:17:58Z</time></trkpt><trkpt lat="42.3709009319223" lon="-7.84334098226649"><ele>129.0</ele><time>2026-03-22T18:17:59Z</time></trkpt><trkpt lat="42.3708014041281" lon="-7.843459869685436"><ele>129.0</ele><time>2026-03-22T18:18:00Z</time></trkpt><trkpt lat="42.370707477731514" lon="-7.843572595075902"><ele>127.75</ele><time>2026-03-22T18:18:01Z</time></trkpt><trkpt lat="42.370623164623076" lon="-7.843718763381275"><ele>126.5</ele><time>2026-03-22T18:18:02Z</time></trkpt><trkpt lat="42.370536690603394" lon="-7.843855465654218"><ele>125.25</ele><time>2026-03-22T18:18:03Z</time></trkpt><trkpt lat="42.37046656769617" lon="-7.844011138723449"><ele>124.0</ele><time>2026-03-22T18:18:04Z</time></trkpt><trkpt lat="42.370431315064344" lon="-7.84415735200174"><ele>125.2</ele><time>2026-03-22T18:18:05Z</time></trkpt><trkpt lat="42.370407314460905" lon="-7.844305461839157"><ele>126.4</ele><time>2026-03-22T18:18:06Z</time></trkpt><trkpt lat="42.370367205432444" lon="-7.8444444962571325"><ele>127.6</ele><time>2026-03-22T18:18:07Z</time></trkpt><trkpt lat="42.370330343892924" lon="-7.8445506559315925"><ele>128.8</ele><time>2026-03-22T18:18:08Z</time></trkpt><trkpt lat="42.37028905854403" lon="-7.844681159708281"><ele>130.0</ele><time>2026-03-22T18:18:09Z</time></trkpt><trkpt lat="42.370244528711524" lon="-7.8448084405796354"><ele>130.0</ele><time>2026-03-22T18:18:10Z</time></trkpt><trkpt lat="42.37018931500465" lon="-7.844942919833514"><ele>130.0</ele><time>2026-03-22T18:18:11Z</time></trkpt><trkpt lat="42.37011553632225" lon="-7.845074226078547"><ele>130.0</ele><time>2026-03-22T18:18:12Z</time></trkpt><trkpt lat="42.37002027997004" lon="-7.845178196827111"><ele>130.0</ele><time>2026-03-22T18:18:13Z</time></trkpt><trkpt lat="42.369917776980785" lon="-7.8453040793235935"><ele>128.0</ele><time>2026-03-22T18:18:14Z</time></trkpt><trkpt lat="42.369823141359326" lon="-7.8454364525791584"><ele>126.0</ele><time>2026-03-22T18:18:15Z</time></trkpt><trkpt lat="42.3697233497827" lon="-7.845559725895021"><ele>124.0</ele><time>2026-03-22T18:18:16Z</time></trkpt><trkpt lat="42.369617528433764" lon="-7.84567814611144"><ele>122.0</ele><time>2026-03-22T18:18:16.999Z</time></trkpt><trkpt lat="42.36950613641274" lon="-7.845807352623229"><ele>122.0</ele><time>2026-03-22T18:18:17.999Z</time></trkpt><trkpt lat="42.36939043771915" lon="-7.84591783789361"><ele>122.0</ele><time>2026-03-22T18:18:18.999Z</time></trkpt><trkpt lat="42.36928378076794" lon="-7.846021459849277"><ele>122.0</ele><time>2026-03-22T18:18:19.999Z</time></trkpt><trkpt lat="42.369173665594616" lon="-7.846141516412965"><ele>122.0</ele><time>2026-03-22T18:18:20.999Z</time></trkpt><trkpt lat="42.36908988075031" lon="-7.8462755981730945"><ele>123.5</ele><time>2026-03-22T18:18:21.999Z</time></trkpt><trkpt lat="42.36901216365806" lon="-7.846419689012772"><ele>125.0</ele><time>2026-03-22T18:18:22.999Z</time></trkpt><trkpt lat="42.36894931979209" lon="-7.846576751657022"><ele>126.5</ele><time>2026-03-22T18:18:23.999Z</time></trkpt><trkpt lat="42.368887641146365" lon="-7.846727036990026"><ele>128.0</ele><time>2026-03-22T18:18:24.999Z</time></trkpt><trkpt lat="42.36882057046129" lon="-7.846848987401263"><ele>128.0</ele><time>2026-03-22T18:18:25.999Z</time></trkpt><trkpt lat="42.36874092782563" lon="-7.846958174283766"><ele>128.0</ele><time>2026-03-22T18:18:26.999Z</time></trkpt><trkpt lat="42.36866287973406" lon="-7.84706740724046"><ele>128.0</ele><time>2026-03-22T18:18:27.999Z</time></trkpt><trkpt lat="42.368595198009416" lon="-7.847190607991072"><ele>128.0</ele><time>2026-03-22T18:18:28.999Z</time></trkpt><trkpt lat="42.368537223521926" lon="-7.847313551710868"><ele>128.0</ele><time>2026-03-22T18:18:29.999Z</time></trkpt><trkpt lat="42.36847760956398" lon="-7.847426412209226"><ele>128.0</ele><time>2026-03-22T18:18:30.999Z</time></trkpt><trkpt lat="42.368419211972416" lon="-7.847540367031522"><ele>128.0</ele><time>2026-03-22T18:18:31.999Z</time></trkpt><trkpt lat="42.36836019429725" lon="-7.8476516912857175"><ele>128.0</ele><time>2026-03-22T18:18:32.999Z</time></trkpt><trkpt lat="42.36829849743488" lon="-7.847761846358765"><ele>128.0</ele><time>2026-03-22T18:18:33.999Z</time></trkpt><trkpt lat="42.368222532473446" lon="-7.8478750536674875"><ele>128.0</ele><time>2026-03-22T18:18:34.999Z</time></trkpt><trkpt lat="42.36815474998283" lon="-7.84798717910937"><ele>129.0</ele><time>2026-03-22T18:18:35.999Z</time></trkpt><trkpt lat="42.36807355729961" lon="-7.84809184923918"><ele>130.0</ele><time>2026-03-22T18:18:36.999Z</time></trkpt><trkpt lat="42.367993990384825" lon="-7.848173326563618"><ele>131.0</ele><time>2026-03-22T18:18:37.999Z</time></trkpt><trkpt lat="42.36793196316303" lon="-7.848341835354682"><ele>132.0</ele><time>2026-03-22T18:18:38.999Z</time></trkpt><trkpt lat="42.36785415170618" lon="-7.848475962650385"><ele>132.0</ele><time>2026-03-22T18:18:39.999Z</time></trkpt><trkpt lat="42.367784229932" lon="-7.84860783369538"><ele>132.0</ele><time>2026-03-22T18:18:40.999Z</time></trkpt><trkpt lat="42.36767513552102" lon="-7.848736225299968"><ele>132.0</ele><time>2026-03-22T18:18:41.999Z</time></trkpt><trkpt lat="42.36756894013028" lon="-7.848858204468394"><ele>132.0</ele><time>2026-03-22T18:18:42.999Z</time></trkpt><trkpt lat="42.36747195411412" lon="-7.848961738303462"><ele>132.0</ele><time>2026-03-22T18:18:43.999Z</time></trkpt><trkpt lat="42.367382679232264" lon="-7.8490726192163"><ele>132.0</ele><time>2026-03-22T18:18:44.999Z</time></trkpt><trkpt lat="42.367293853498104" lon="-7.849175632310605"><ele>132.0</ele><time>2026-03-22T18:18:45.999Z</time></trkpt><trkpt lat="42.367202269491834" lon="-7.849280709381505"><ele>132.0</ele><time>2026-03-22T18:18:46.999Z</time></trkpt><trkpt lat="42.367108096749554" lon="-7.849380589409447"><ele>130.75</ele><time>2026-03-22T18:18:47.999Z</time></trkpt><trkpt lat="42.367016900793104" lon="-7.8494856869894"><ele>129.5</ele><time>2026-03-22T18:18:48.999Z</time></trkpt><trkpt lat="42.36692416958728" lon="-7.849582123385462"><ele>128.25</ele><time>2026-03-22T18:18:49.999Z</time></trkpt><trkpt lat="42.36683487016972" lon="-7.84966926714352"><ele>127.0</ele><time>2026-03-22T18:18:50.999Z</time></trkpt><trkpt lat="42.36675687391302" lon="-7.849768182943851"><ele>127.0</ele><time>2026-03-22T18:18:51.999Z</time></trkpt><trkpt lat="42.36669385432682" lon="-7.849889527859988"><ele>126.99999999999999</ele><time>2026-03-22T18:18:52.999Z</time></trkpt><trkpt lat="42.36663646738719" lon="-7.850018654537953"><ele>126.99999999999999</ele><time>2026-03-22T18:18:53.999Z</time></trkpt><trkpt lat="42.36656799599304" lon="-7.850126447989605"><ele>127.0</ele><time>2026-03-22T18:18:54.999Z</time></trkpt><trkpt lat="42.36650065998577" lon="-7.850207994921948"><ele>127.0</ele><time>2026-03-22T18:18:55.999Z</time></trkpt><trkpt lat="42.36639259211509" lon="-7.850319252867392"><ele>127.5</ele><time>2026-03-22T18:18:56.999Z</time></trkpt><trkpt lat="42.36628029450744" lon="-7.850423322003956"><ele>128.0</ele><time>2026-03-22T18:18:57.999Z</time></trkpt><trkpt lat="42.36618012165605" lon="-7.850510147991304"><ele>128.5</ele><time>2026-03-22T18:18:58.999Z</time></trkpt><trkpt lat="42.36608654822607" lon="-7.850594307444632"><ele>129.0</ele><time>2026-03-22T18:18:59.999Z</time></trkpt><trkpt lat="42.36599876076174" lon="-7.850674542837515"><ele>129.0</ele><time>2026-03-22T18:19:00.999Z</time></trkpt><trkpt lat="42.365903599148254" lon="-7.850750415164046"><ele>129.0</ele><time>2026-03-22T18:19:01.999Z</time></trkpt><trkpt lat="42.36581932908544" lon="-7.850794782723253"><ele>129.0</ele><time>2026-03-22T18:19:02.999Z</time></trkpt><trkpt lat="42.36571123328487" lon="-7.850849663036607"><ele>129.0</ele><time>2026-03-22T18:19:03.999Z</time></trkpt><trkpt lat="42.365615693805196" lon="-7.85092260901822"><ele>129.0</ele><time>2026-03-22T18:19:04.999Z</time></trkpt><trkpt lat="42.36551834182657" lon="-7.850995857135661"><ele>127.6</ele><time>2026-03-22T18:19:05.999Z</time></trkpt><trkpt lat="42.36540538418186" lon="-7.851064429713575"><ele>126.2</ele><time>2026-03-22T18:19:06.999Z</time></trkpt><trkpt lat="42.365317360181244" lon="-7.851127627272428"><ele>124.79999999999998</ele><time>2026-03-22T18:19:07.999Z</time></trkpt><trkpt lat="42.365231747826385" lon="-7.851189197546206"><ele>123.39999999999999</ele><time>2026-03-22T18:19:08.999Z</time></trkpt><trkpt lat="42.365156286269354" lon="-7.851278540157284"><ele>122.0</ele><time>2026-03-22T18:19:09.999Z</time></trkpt><trkpt lat="42.36510486104496" lon="-7.851387426510442"><ele>122.0</ele><time>2026-03-22T18:19:10.999Z</time></trkpt><trkpt lat="42.36507363248107" lon="-7.851512923408178"><ele>121.99999999999999</ele><time>2026-03-22T18:19:11.999Z</time></trkpt><trkpt lat="42.365054049793336" lon="-7.851642116598886"><ele>121.99999999999999</ele><time>2026-03-22T18:19:12.999Z</time></trkpt><trkpt lat="42.36503741707566" lon="-7.851771742310321"><ele>122.0</ele><time>2026-03-22T18:19:13.999Z</time></trkpt><trkpt lat="42.3650102268734" lon="-7.851894949666813"><ele>122.0</ele><time>2026-03-22T18:19:15Z</time></trkpt><trkpt lat="42.36497197936553" lon="-7.852020780462655"><ele>121.8</ele><time>2026-03-22T18:19:16Z</time></trkpt><trkpt lat="42.364902908886236" lon="-7.852138892971821"><ele>121.6</ele><time>2026-03-22T18:19:17Z</time></trkpt><trkpt lat="42.36484144690358" lon="-7.852251668353744"><ele>121.39999999999999</ele><time>2026-03-22T18:19:18Z</time></trkpt><trkpt lat="42.3647867118694" lon="-7.852342915689337"><ele>121.19999999999999</ele><time>2026-03-22T18:19:19Z</time></trkpt><trkpt lat="42.36472834562825" lon="-7.8524335443058115"><ele>121.0</ele><time>2026-03-22T18:19:20Z</time></trkpt><trkpt lat="42.364661029921415" lon="-7.85253291405827"><ele>125.0</ele><time>2026-03-22T18:19:21Z</time></trkpt><trkpt lat="42.36458351272036" lon="-7.852634101597545"><ele>129.0</ele><time>2026-03-22T18:19:22Z</time></trkpt><trkpt lat="42.3644918756823" lon="-7.852725840527658"><ele>133.0</ele><time>2026-03-22T18:19:23Z</time></trkpt><trkpt lat="42.36437840992509" lon="-7.852792386549457"><ele>137.0</ele><time>2026-03-22T18:19:24Z</time></trkpt><trkpt lat="42.36426582238235" lon="-7.852839937386645"><ele>137.0</ele><time>2026-03-22T18:19:25Z</time></trkpt><trkpt lat="42.364164639058046" lon="-7.852876282475199"><ele>137.0</ele><time>2026-03-22T18:19:26Z</time></trkpt><trkpt lat="42.36405850183223" lon="-7.852908364323163"><ele>137.0</ele><time>2026-03-22T18:19:27Z</time></trkpt><trkpt lat="42.36396081672587" lon="-7.85292778668324"><ele>137.0</ele><time>2026-03-22T18:19:28Z</time></trkpt><trkpt lat="42.36386188262068" lon="-7.8529480896717425"><ele>137.0</ele><time>2026-03-22T18:19:29Z</time></trkpt><trkpt lat="42.36375414840188" lon="-7.852961781849565"><ele>137.2</ele><time>2026-03-22T18:19:30Z</time></trkpt><trkpt lat="42.36363728005406" lon="-7.852967310350383"><ele>137.39999999999998</ele><time>2026-03-22T18:19:31Z</time></trkpt><trkpt lat="42.363529080736235" lon="-7.852975680674572"><ele>137.60000000000002</ele><time>2026-03-22T18:19:32Z</time></trkpt><trkpt lat="42.363426291245496" lon="-7.852971833686314"><ele>137.8</ele><time>2026-03-22T18:19:33Z</time></trkpt><trkpt lat="42.36333472003462" lon="-7.852987474138641"><ele>138.0</ele><time>2026-03-22T18:19:34Z</time></trkpt><trkpt lat="42.36324071687728" lon="-7.852991032280473"><ele>138.0</ele><time>2026-03-22T18:19:35Z</time></trkpt><trkpt lat="42.363135980500935" lon="-7.852991697031057"><ele>138.0</ele><time>2026-03-22T18:19:36Z</time></trkpt><trkpt lat="42.363023705285585" lon="-7.852993362719995"><ele>138.0</ele><time>2026-03-22T18:19:37Z</time></trkpt><trkpt lat="42.36290146434949" lon="-7.852982492606609"><ele>138.0</ele><time>2026-03-22T18:19:38Z</time></trkpt><trkpt lat="42.36277121223269" lon="-7.852979223404932"><ele>136.75</ele><time>2026-03-22T18:19:39Z</time></trkpt><trkpt lat="42.36264073400092" lon="-7.85298358256676"><ele>135.5</ele><time>2026-03-22T18:19:40Z</time></trkpt><trkpt lat="42.362509778952884" lon="-7.853012691591298"><ele>134.25</ele><time>2026-03-22T18:19:41Z</time></trkpt><trkpt lat="42.362391408534265" lon="-7.853069260591502"><ele>133.0</ele><time>2026-03-22T18:19:42Z</time></trkpt><trkpt lat="42.36229199279357" lon="-7.853133856114404"><ele>133.0</ele><time>2026-03-22T18:19:43Z</time></trkpt><trkpt lat="42.362201674623655" lon="-7.853186020101"><ele>133.0</ele><time>2026-03-22T18:19:44Z</time></trkpt><trkpt lat="42.36210412519385" lon="-7.853243190832866"><ele>133.0</ele><time>2026-03-22T18:19:45Z</time></trkpt><trkpt lat="42.36200512191375" lon="-7.853300954513593"><ele>133.0</ele><time>2026-03-22T18:19:46Z</time></trkpt><trkpt lat="42.361900049357715" lon="-7.853359066936406"><ele>133.0</ele><time>2026-03-22T18:19:47Z</time></trkpt><trkpt lat="42.3617945588486" lon="-7.853411349166431"><ele>134.5</ele><time>2026-03-22T18:19:48Z</time></trkpt><trkpt lat="42.36168670841557" lon="-7.853471467941528"><ele>136.0</ele><time>2026-03-22T18:19:49Z</time></trkpt><trkpt lat="42.36158139968065" lon="-7.853530637959169"><ele>137.5</ele><time>2026-03-22T18:19:50Z</time></trkpt><trkpt lat="42.36147669306762" lon="-7.853589644432628"><ele>139.0</ele><time>2026-03-22T18:19:51Z</time></trkpt><trkpt lat="42.361366295446544" lon="-7.853651700222233"><ele>139.0</ele><time>2026-03-22T18:19:52Z</time></trkpt><trkpt lat="42.361270044061456" lon="-7.853707732977344"><ele>139.0</ele><time>2026-03-22T18:19:53Z</time></trkpt><trkpt lat="42.361174605624385" lon="-7.853749137957567"><ele>139.0</ele><time>2026-03-22T18:19:54Z</time></trkpt><trkpt lat="42.36108830175523" lon="-7.853795356950632"><ele>139.0</ele><time>2026-03-22T18:19:55Z</time></trkpt><trkpt lat="42.361017527747634" lon="-7.853829716330865"><ele>139.0</ele><time>2026-03-22T18:19:56Z</time></trkpt><trkpt lat="42.36093073744766" lon="-7.853872787491214"><ele>139.0</ele><time>2026-03-22T18:19:57Z</time></trkpt><trkpt lat="42.36084307895724" lon="-7.8539212478826785"><ele>139.0</ele><time>2026-03-22T18:19:58Z</time></trkpt><trkpt lat="42.36074958115665" lon="-7.853972727917164"><ele>139.0</ele><time>2026-03-22T18:19:59Z</time></trkpt><trkpt lat="42.36065320576446" lon="-7.854042421933875"><ele>139.0</ele><time>2026-03-22T18:20:00Z</time></trkpt><trkpt lat="42.36055487045901" lon="-7.854087765294347"><ele>139.0</ele><time>2026-03-22T18:20:01Z</time></trkpt><trkpt lat="42.36043022837395" lon="-7.854145395187397"><ele>140.0</ele><time>2026-03-22T18:20:02Z</time></trkpt><trkpt lat="42.36030776665807" lon="-7.854212734516816"><ele>141.0</ele><time>2026-03-22T18:20:03Z</time></trkpt><trkpt lat="42.36018855862816" lon="-7.854289458615057"><ele>142.0</ele><time>2026-03-22T18:20:04Z</time></trkpt><trkpt lat="42.36007143976286" lon="-7.854390690968045"><ele>143.0</ele><time>2026-03-22T18:20:05Z</time></trkpt><trkpt lat="42.359960932184826" lon="-7.854511582071905"><ele>143.0</ele><time>2026-03-22T18:20:06Z</time></trkpt><trkpt lat="42.359846855499626" lon="-7.854645195570231"><ele>143.0</ele><time>2026-03-22T18:20:07Z</time></trkpt><trkpt lat="42.35974883401133" lon="-7.854761942585333"><ele>143.0</ele><time>2026-03-22T18:20:08Z</time></trkpt><trkpt lat="42.35965205232591" lon="-7.854869332562766"><ele>143.0</ele><time>2026-03-22T18:20:09Z</time></trkpt><trkpt lat="42.35955035057457" lon="-7.854965756935965"><ele>142.75</ele><time>2026-03-22T18:20:10Z</time></trkpt><trkpt lat="42.35946395024606" lon="-7.85507100400194"><ele>142.5</ele><time>2026-03-22T18:20:11Z</time></trkpt><trkpt lat="42.35937753751352" lon="-7.855175046990739"><ele>142.25</ele><time>2026-03-22T18:20:12Z</time></trkpt><trkpt lat="42.35929327478219" lon="-7.855267428610941"><ele>142.0</ele><time>2026-03-22T18:20:13Z</time></trkpt><trkpt lat="42.35920681944072" lon="-7.855361147699761"><ele>142.33333333333334</ele><time>2026-03-22T18:20:14Z</time></trkpt><trkpt lat="42.359139517526124" lon="-7.855432897912332"><ele>142.66666666666669</ele><time>2026-03-22T18:20:15Z</time></trkpt><trkpt lat="42.35907242197834" lon="-7.855500099081576"><ele>143.0</ele><time>2026-03-22T18:20:16Z</time></trkpt><trkpt lat="42.35901000205098" lon="-7.85556019132085"><ele>143.33333333333334</ele><time>2026-03-22T18:20:17Z</time></trkpt><trkpt lat="42.358960241365935" lon="-7.855628256015493"><ele>143.66666666666666</ele><time>2026-03-22T18:20:18Z</time></trkpt><trkpt lat="42.358906562387844" lon="-7.855686988821417"><ele>144.0</ele><time>2026-03-22T18:20:19Z</time></trkpt><trkpt lat="42.35884622610958" lon="-7.855721921986277"><ele>144.0</ele><time>2026-03-22T18:20:20Z</time></trkpt><trkpt lat="42.35877845781257" lon="-7.8556935649797035"><ele>144.0</ele><time>2026-03-22T18:20:21Z</time></trkpt><trkpt lat="42.35872514146428" lon="-7.855612570432203"><ele>144.0</ele><time>2026-03-22T18:20:22Z</time></trkpt><trkpt lat="42.35869980977577" lon="-7.855500465461155"><ele>144.0</ele><time>2026-03-22T18:20:23Z</time></trkpt><trkpt lat="42.358717093860854" lon="-7.855364315200944"><ele>144.0</ele><time>2026-03-22T18:20:24Z</time></trkpt><trkpt lat="42.35870823072222" lon="-7.855212859986517"><ele>144.0</ele><time>2026-03-22T18:20:25Z</time></trkpt><trkpt lat="42.358678466925404" lon="-7.855058766575136"><ele>144.0</ele><time>2026-03-22T18:20:26Z</time></trkpt><trkpt lat="42.35857520297134" lon="-7.854937048135217"><ele>144.0</ele><time>2026-03-22T18:20:27Z</time></trkpt><trkpt lat="42.35849794500347" lon="-7.854819806071007"><ele>144.0</ele><time>2026-03-22T18:20:28Z</time></trkpt><trkpt lat="42.358419954767506" lon="-7.854705912584412"><ele>144.0</ele><time>2026-03-22T18:20:29Z</time></trkpt><trkpt lat="42.358343814615836" lon="-7.854599388985401"><ele>144.0</ele><time>2026-03-22T18:20:30Z</time></trkpt><trkpt lat="42.35827049250511" lon="-7.854496506683633"><ele>144.0</ele><time>2026-03-22T18:20:30.999Z</time></trkpt><trkpt lat="42.35821612988365" lon="-7.854387577930472"><ele>144.0</ele><time>2026-03-22T18:20:31.999Z</time></trkpt><trkpt lat="42.35816732666143" lon="-7.854272962396682"><ele>144.0</ele><time>2026-03-22T18:20:32.999Z</time></trkpt><trkpt lat="42.35813919283719" lon="-7.854139330961354"><ele>143.75</ele><time>2026-03-22T18:20:33.999Z</time></trkpt><trkpt lat="42.35814125834333" lon="-7.85398474772027"><ele>143.5</ele><time>2026-03-22T18:20:34.999Z</time></trkpt><trkpt lat="42.358166913039014" lon="-7.853812504794588"><ele>143.25</ele><time>2026-03-22T18:20:35.999Z</time></trkpt><trkpt lat="42.35819201434487" lon="-7.853660797792298"><ele>143.0</ele><time>2026-03-22T18:20:36.999Z</time></trkpt><trkpt lat="42.35821465128727" lon="-7.853502858035636"><ele>142.20000000000002</ele><time>2026-03-22T18:20:37.999Z</time></trkpt><trkpt lat="42.35821381969773" lon="-7.853368239052164"><ele>141.4</ele><time>2026-03-22T18:20:38.999Z</time></trkpt><trkpt lat="42.35817244640009" lon="-7.853245803452065"><ele>140.60000000000002</ele><time>2026-03-22T18:20:39.999Z</time></trkpt><trkpt lat="42.35809075339538" lon="-7.853147143016932"><ele>139.8</ele><time>2026-03-22T18:20:40.999Z</time></trkpt><trkpt lat="42.357982704787155" lon="-7.853100440005264"><ele>139.0</ele><time>2026-03-22T18:20:41.999Z</time></trkpt><trkpt lat="42.35787195269624" lon="-7.853112302305273"><ele>139.0</ele><time>2026-03-22T18:20:42.999Z</time></trkpt><trkpt lat="42.357759240730154" lon="-7.853178253407809"><ele>139.0</ele><time>2026-03-22T18:20:43.999Z</time></trkpt><trkpt lat="42.35764395533377" lon="-7.853271933662543"><ele>139.0</ele><time>2026-03-22T18:20:44.999Z</time></trkpt><trkpt lat="42.35755275147498" lon="-7.8534014821539655"><ele>139.0</ele><time>2026-03-22T18:20:45.999Z</time></trkpt><trkpt lat="42.35746022337377" lon="-7.85353997938294"><ele>139.0</ele><time>2026-03-22T18:20:46.999Z</time></trkpt><trkpt lat="42.35737333076593" lon="-7.853637116907287"><ele>139.0</ele><time>2026-03-22T18:20:47.999Z</time></trkpt><trkpt lat="42.35723162161819" lon="-7.853759343571237"><ele>139.0</ele><time>2026-03-22T18:20:48.999Z</time></trkpt><trkpt lat="42.35709507274254" lon="-7.853839716316903"><ele>139.0</ele><time>2026-03-22T18:20:49.999Z</time></trkpt><trkpt lat="42.35696350858362" lon="-7.853908352148558"><ele>137.0</ele><time>2026-03-22T18:20:50.999Z</time></trkpt><trkpt lat="42.356836831571464" lon="-7.853965847279061"><ele>135.0</ele><time>2026-03-22T18:20:51.999Z</time></trkpt><trkpt lat="42.35670355702002" lon="-7.854023409037723"><ele>133.0</ele><time>2026-03-22T18:20:52.999Z</time></trkpt><trkpt lat="42.35657597941517" lon="-7.854069446976027"><ele>131.0</ele><time>2026-03-22T18:20:53.999Z</time></trkpt><trkpt lat="42.35645521750949" lon="-7.8541111115130136"><ele>128.4</ele><time>2026-03-22T18:20:54.999Z</time></trkpt><trkpt lat="42.35635943576442" lon="-7.854136992139052"><ele>125.8</ele><time>2026-03-22T18:20:55.999Z</time></trkpt><trkpt lat="42.35627727356868" lon="-7.854156897739601"><ele>123.20000000000002</ele><time>2026-03-22T18:20:56.999Z</time></trkpt><trkpt lat="42.35620145965981" lon="-7.854172104681638"><ele>120.60000000000001</ele><time>2026-03-22T18:20:57.999Z</time></trkpt><trkpt lat="42.3561360101338" lon="-7.854171796166307"><ele>118.0</ele><time>2026-03-22T18:20:58.999Z</time></trkpt><trkpt lat="42.35600407712372" lon="-7.854197918800784"><ele>118.0</ele><time>2026-03-22T18:21:00.999Z</time></trkpt><trkpt lat="42.35593772974719" lon="-7.8542015745659235"><ele>118.00000000000001</ele><time>2026-03-22T18:21:01.999Z</time></trkpt><trkpt lat="42.35584277773511" lon="-7.854211709809678"><ele>118.00000000000001</ele><time>2026-03-22T18:21:02.999Z</time></trkpt><trkpt lat="42.355726454318244" lon="-7.854217409987809"><ele>118.0</ele><time>2026-03-22T18:21:03.999Z</time></trkpt><trkpt lat="42.35559799776247" lon="-7.854229008960146"><ele>118.0</ele><time>2026-03-22T18:21:04.999Z</time></trkpt><trkpt lat="42.3554811605504" lon="-7.854258543107467"><ele>117.5</ele><time>2026-03-22T18:21:05.999Z</time></trkpt><trkpt lat="42.35537043722648" lon="-7.854314587011901"><ele>117.0</ele><time>2026-03-22T18:21:06.999Z</time></trkpt><trkpt lat="42.35524921778419" lon="-7.8543049199905255"><ele>116.5</ele><time>2026-03-22T18:21:07.999Z</time></trkpt><trkpt lat="42.355140907237605" lon="-7.85433771993908"><ele>116.0</ele><time>2026-03-22T18:21:08.999Z</time></trkpt><trkpt lat="42.35503455244764" lon="-7.8543875810445725"><ele>116.0</ele><time>2026-03-22T18:21:09.999Z</time></trkpt><trkpt lat="42.35492007048024" lon="-7.854441343463913"><ele>116.0</ele><time>2026-03-22T18:21:10.999Z</time></trkpt><trkpt lat="42.354810961913294" lon="-7.854497640552553"><ele>116.0</ele><time>2026-03-22T18:21:11.999Z</time></trkpt><trkpt lat="42.35470119012068" lon="-7.854555604395956"><ele>116.0</ele><time>2026-03-22T18:21:12.999Z</time></trkpt><trkpt lat="42.35459339828046" lon="-7.854615774789565"><ele>113.75</ele><time>2026-03-22T18:21:13.999Z</time></trkpt><trkpt lat="42.35448474155985" lon="-7.854725080643169"><ele>111.5</ele><time>2026-03-22T18:21:14.999Z</time></trkpt><trkpt lat="42.35438261704135" lon="-7.854848933464851"><ele>109.25</ele><time>2026-03-22T18:21:15.999Z</time></trkpt><trkpt lat="42.35429281270714" lon="-7.854947980736334"><ele>107.0</ele><time>2026-03-22T18:21:16.999Z</time></trkpt><trkpt lat="42.35421922981843" lon="-7.855053647104203"><ele>107.8</ele><time>2026-03-22T18:21:17.999Z</time></trkpt><trkpt lat="42.354180926186395" lon="-7.855128422647657"><ele>108.6</ele><time>2026-03-22T18:21:18.999Z</time></trkpt><trkpt lat="42.35415359272826" lon="-7.855214426614712"><ele>109.39999999999999</ele><time>2026-03-22T18:21:21Z</time></trkpt><trkpt lat="42.35407121865551" lon="-7.855346952854401"><ele>110.19999999999999</ele><time>2026-03-22T18:21:58Z</time></trkpt><trkpt lat="42.354031165925875" lon="-7.85545874930549"><ele>111.0</ele><time>2026-03-22T18:21:59Z</time></trkpt><trkpt lat="42.35398287123313" lon="-7.855576319592833"><ele>111.0</ele><time>2026-03-22T18:22:00Z</time></trkpt><trkpt lat="42.35392662293539" lon="-7.855703004183648"><ele>111.0</ele><time>2026-03-22T18:22:01Z</time></trkpt><trkpt lat="42.35386500797606" lon="-7.855847054312979"><ele>111.0</ele><time>2026-03-22T18:22:02Z</time></trkpt><trkpt lat="42.353793647950404" lon="-7.855993965134968"><ele>111.0</ele><time>2026-03-22T18:22:03Z</time></trkpt><trkpt lat="42.35370648681776" lon="-7.856135246936121"><ele>112.0</ele><time>2026-03-22T18:22:04Z</time></trkpt><trkpt lat="42.35359718656705" lon="-7.856267533002091"><ele>113.0</ele><time>2026-03-22T18:22:05Z</time></trkpt><trkpt lat="42.35348203352301" lon="-7.856403313045511"><ele>114.0</ele><time>2026-03-22T18:22:06Z</time></trkpt><trkpt lat="42.353367392331" lon="-7.856547904644901"><ele>114.0</ele><time>2026-03-22T18:22:07Z</time></trkpt><trkpt lat="42.3532485497856" lon="-7.856700607461164"><ele>114.0</ele><time>2026-03-22T18:22:08Z</time></trkpt><trkpt lat="42.35312852724957" lon="-7.856856222780584"><ele>114.0</ele><time>2026-03-22T18:22:09Z</time></trkpt><trkpt lat="42.3530053712455" lon="-7.857004538661009"><ele>114.75</ele><time>2026-03-22T18:22:10Z</time></trkpt><trkpt lat="42.35289507563862" lon="-7.8571427954251245"><ele>115.5</ele><time>2026-03-22T18:22:11Z</time></trkpt><trkpt lat="42.352798733470635" lon="-7.857256685167742"><ele>116.25</ele><time>2026-03-22T18:22:12Z</time></trkpt><trkpt lat="42.35272366538913" lon="-7.857350738255327"><ele>117.0</ele><time>2026-03-22T18:22:13Z</time></trkpt><trkpt lat="42.352639191211104" lon="-7.857446913978243"><ele>117.0</ele><time>2026-03-22T18:22:14Z</time></trkpt><trkpt lat="42.352541579722676" lon="-7.857569065363605"><ele>117.0</ele><time>2026-03-22T18:22:15Z</time></trkpt><trkpt lat="42.352438335174696" lon="-7.857695493730961"><ele>117.0</ele><time>2026-03-22T18:22:16Z</time></trkpt><trkpt lat="42.35234111290931" lon="-7.857828210236171"><ele>117.0</ele><time>2026-03-22T18:22:17Z</time></trkpt><trkpt lat="42.35226265983226" lon="-7.857970698469513"><ele>116.75</ele><time>2026-03-22T18:22:18Z</time></trkpt><trkpt lat="42.3522015555347" lon="-7.8581236567511565"><ele>116.5</ele><time>2026-03-22T18:22:19Z</time></trkpt><trkpt lat="42.35214890225027" lon="-7.858287359004681"><ele>116.25</ele><time>2026-03-22T18:22:20Z</time></trkpt><trkpt lat="42.35215282293986" lon="-7.8584738418779185"><ele>116.0</ele><time>2026-03-22T18:22:21Z</time></trkpt><trkpt lat="42.352161378285054" lon="-7.858668447559875"><ele>116.0</ele><time>2026-03-22T18:22:22Z</time></trkpt><trkpt lat="42.352151410986544" lon="-7.858830814900389"><ele>116.0</ele><time>2026-03-22T18:22:23Z</time></trkpt><trkpt lat="42.35212154458958" lon="-7.858982784935509"><ele>116.0</ele><time>2026-03-22T18:22:24Z</time></trkpt><trkpt lat="42.352062126986525" lon="-7.859130692157288"><ele>116.0</ele><time>2026-03-22T18:22:25Z</time></trkpt><trkpt lat="42.35196931610867" lon="-7.8592829337576"><ele>119.75</ele><time>2026-03-22T18:22:26Z</time></trkpt><trkpt lat="42.35185299360808" lon="-7.859410161121163"><ele>123.5</ele><time>2026-03-22T18:22:27Z</time></trkpt><trkpt lat="42.351732915506496" lon="-7.8595200883717995"><ele>127.25</ele><time>2026-03-22T18:22:28Z</time></trkpt><trkpt lat="42.35162983474453" lon="-7.85962245820744"><ele>131.0</ele><time>2026-03-22T18:22:29Z</time></trkpt><trkpt lat="42.35153667599089" lon="-7.859721195187841"><ele>131.0</ele><time>2026-03-22T18:22:29.999Z</time></trkpt><trkpt lat="42.351448946193095" lon="-7.859828295662561"><ele>131.0</ele><time>2026-03-22T18:22:30.999Z</time></trkpt><trkpt lat="42.35137177347827" lon="-7.859920889475789"><ele>131.0</ele><time>2026-03-22T18:22:31.999Z</time></trkpt><trkpt lat="42.35129581288787" lon="-7.860008898881853"><ele>131.0</ele><time>2026-03-22T18:22:32.999Z</time></trkpt><trkpt lat="42.351228651603925" lon="-7.860101807175547"><ele>131.0</ele><time>2026-03-22T18:22:33.999Z</time></trkpt><trkpt lat="42.35112770226111" lon="-7.860217924331941"><ele>130.25</ele><time>2026-03-22T18:22:34.999Z</time></trkpt><trkpt lat="42.35101890614775" lon="-7.860340984093482"><ele>129.5</ele><time>2026-03-22T18:22:35.999Z</time></trkpt><trkpt lat="42.35090730321901" lon="-7.860477105602888"><ele>128.75</ele><time>2026-03-22T18:22:36.999Z</time></trkpt><trkpt lat="42.3508020523314" lon="-7.860626579248834"><ele>128.0</ele><time>2026-03-22T18:22:37.999Z</time></trkpt><trkpt lat="42.350716834480416" lon="-7.860779781436453"><ele>128.0</ele><time>2026-03-22T18:22:38.999Z</time></trkpt><trkpt lat="42.35064216162108" lon="-7.860937849080393"><ele>128.0</ele><time>2026-03-22T18:22:39.999Z</time></trkpt><trkpt lat="42.350571278109264" lon="-7.861099039088642"><ele>128.0</ele><time>2026-03-22T18:22:40.999Z</time></trkpt><trkpt lat="42.35048496347516" lon="-7.861258189165933"><ele>128.0</ele><time>2026-03-22T18:22:41.999Z</time></trkpt><trkpt lat="42.3504009281276" lon="-7.861424400959086"><ele>128.25</ele><time>2026-03-22T18:22:42.999Z</time></trkpt><trkpt lat="42.35031853052702" lon="-7.861584221858401"><ele>128.5</ele><time>2026-03-22T18:22:43.999Z</time></trkpt><trkpt lat="42.350241431862294" lon="-7.861733997492808"><ele>128.75</ele><time>2026-03-22T18:22:44.999Z</time></trkpt><trkpt lat="42.35018437154991" lon="-7.861857619822345"><ele>129.0</ele><time>2026-03-22T18:22:45.999Z</time></trkpt><trkpt lat="42.35014180360294" lon="-7.8619497413327455"><ele>129.0</ele><time>2026-03-22T18:22:46.999Z</time></trkpt><trkpt lat="42.35009493593801" lon="-7.862057128837537"><ele>129.0</ele><time>2026-03-22T18:22:47.999Z</time></trkpt><trkpt lat="42.3500412043261" lon="-7.862190169316557"><ele>129.0</ele><time>2026-03-22T18:22:48.999Z</time></trkpt><trkpt lat="42.349981799048436" lon="-7.862308650992102"><ele>129.0</ele><time>2026-03-22T18:22:49.999Z</time></trkpt><trkpt lat="42.3499231237533" lon="-7.862431860508714"><ele>129.0</ele><time>2026-03-22T18:22:50.999Z</time></trkpt><trkpt lat="42.34986585937007" lon="-7.862562921074505"><ele>129.25</ele><time>2026-03-22T18:22:51.999Z</time></trkpt><trkpt lat="42.34980143663059" lon="-7.862705359282456"><ele>129.5</ele><time>2026-03-22T18:22:52.999Z</time></trkpt><trkpt lat="42.34973500716965" lon="-7.862836846435349"><ele>129.75</ele><time>2026-03-22T18:22:53.999Z</time></trkpt><trkpt lat="42.34967314906293" lon="-7.862961963424102"><ele>130.0</ele><time>2026-03-22T18:22:54.999Z</time></trkpt><trkpt lat="42.34959625684563" lon="-7.863062301815896"><ele>129.25</ele><time>2026-03-22T18:22:55.999Z</time></trkpt><trkpt lat="42.34950359400406" lon="-7.863164635208025"><ele>128.5</ele><time>2026-03-22T18:22:56.999Z</time></trkpt><trkpt lat="42.34940265030322" lon="-7.86326853549606"><ele>127.75</ele><time>2026-03-22T18:22:57.999Z</time></trkpt><trkpt lat="42.3493027400185" lon="-7.863368604824163"><ele>127.0</ele><time>2026-03-22T18:22:58.999Z</time></trkpt><trkpt lat="42.3492017949942" lon="-7.863464497977135"><ele>127.0</ele><time>2026-03-22T18:22:59.999Z</time></trkpt><trkpt lat="42.34910693507824" lon="-7.863554941770045"><ele>126.99999999999999</ele><time>2026-03-22T18:23:00.999Z</time></trkpt><trkpt lat="42.349021986252424" lon="-7.863639462383174"><ele>126.99999999999999</ele><time>2026-03-22T18:23:01.999Z</time></trkpt><trkpt lat="42.348949533466666" lon="-7.863732280223781"><ele>127.0</ele><time>2026-03-22T18:23:02.999Z</time></trkpt><trkpt lat="42.348882287462104" lon="-7.86381369379986"><ele>127.0</ele><time>2026-03-22T18:23:03.999Z</time></trkpt><trkpt lat="42.348830962282086" lon="-7.863918106684783"><ele>125.83333333333334</ele><time>2026-03-22T18:23:04.999Z</time></trkpt><trkpt lat="42.348762543989146" lon="-7.863988091725219"><ele>124.66666666666667</ele><time>2026-03-22T18:23:05.999Z</time></trkpt><trkpt lat="42.34868596146402" lon="-7.864086626742442"><ele>123.5</ele><time>2026-03-22T18:23:07.999Z</time></trkpt><trkpt lat="42.348610070205915" lon="-7.864160390977138"><ele>122.33333333333334</ele><time>2026-03-22T18:23:09.999Z</time></trkpt><trkpt lat="42.3485577378816" lon="-7.8642243092055875"><ele>121.16666666666667</ele><time>2026-03-22T18:23:11.999Z</time></trkpt><trkpt lat="42.348488852106385" lon="-7.864307944093814"><ele>120.0</ele><time>2026-03-22T18:23:14.999Z</time></trkpt><trkpt lat="42.34842756378953" lon="-7.8643752423852815"><ele>120.0</ele><time>2026-03-22T18:23:16.999Z</time></trkpt><trkpt lat="42.348373714440704" lon="-7.864474475103516"><ele>120.0</ele><time>2026-03-22T18:23:18.999Z</time></trkpt><trkpt lat="42.34835233986667" lon="-7.864570586282006"><ele>120.0</ele><time>2026-03-22T18:23:19.999Z</time></trkpt><trkpt lat="42.34839721935355" lon="-7.86467514551923"><ele>120.0</ele><time>2026-03-22T18:23:20.999Z</time></trkpt><trkpt lat="42.34849401003704" lon="-7.864719190882919"><ele>120.0</ele><time>2026-03-22T18:23:21.999Z</time></trkpt><trkpt lat="42.348551090928034" lon="-7.864789223096754"><ele>120.0</ele><time>2026-03-22T18:23:22.999Z</time></trkpt><trkpt lat="42.34860883877339" lon="-7.864844150082142"><ele>120.0</ele><time>2026-03-22T18:23:23.999Z</time></trkpt><trkpt lat="42.34866081574573" lon="-7.864896222684339"><ele>120.0</ele><time>2026-03-22T18:23:24.999Z</time></trkpt><trkpt lat="42.34871131086196" lon="-7.864953810608976"><ele>120.0</ele><time>2026-03-22T18:23:25.999Z</time></trkpt><trkpt lat="42.34879875655787" lon="-7.865039523120771"><ele>120.0</ele><time>2026-03-22T18:23:28Z</time></trkpt><trkpt lat="42.34886493102813" lon="-7.865149881325778"><ele>120.0</ele><time>2026-03-22T18:23:30Z</time></trkpt><trkpt lat="42.348817741658095" lon="-7.865250184146637"><ele>120.0</ele><time>2026-03-22T18:23:32Z</time></trkpt><trkpt lat="42.348755449267784" lon="-7.865322833274141"><ele>121.6</ele><time>2026-03-22T18:23:35Z</time></trkpt><trkpt lat="42.34869200166921" lon="-7.865389933565689"><ele>123.2</ele><time>2026-03-22T18:23:39Z</time></trkpt><trkpt lat="42.34872188550059" lon="-7.8654998238252665"><ele>124.80000000000001</ele><time>2026-03-22T18:23:40Z</time></trkpt><trkpt lat="42.34872737910033" lon="-7.8656080603124305"><ele>126.4</ele><time>2026-03-22T18:23:42Z</time></trkpt><trkpt lat="42.348681559988506" lon="-7.86570628876177"><ele>128.0</ele><time>2026-03-22T18:23:44Z</time></trkpt><trkpt lat="42.348634742350754" lon="-7.865858549851933"><ele>129.0</ele><time>2026-03-22T18:23:46Z</time></trkpt><trkpt lat="42.34858823964987" lon="-7.86600907805864"><ele>130.0</ele><time>2026-03-22T18:23:48Z</time></trkpt><trkpt lat="42.34854063332497" lon="-7.866171623988718"><ele>131.0</ele><time>2026-03-22T18:23:50Z</time></trkpt><trkpt lat="42.348510810991854" lon="-7.866256169913851"><ele>132.0</ele><time>2026-03-22T18:23:51Z</time></trkpt><trkpt lat="42.348479400655904" lon="-7.866359816262043"><ele>133.0</ele><time>2026-03-22T18:23:52Z</time></trkpt><trkpt lat="42.34844385925211" lon="-7.866469775502851"><ele>133.0</ele><time>2026-03-22T18:23:53Z</time></trkpt><trkpt lat="42.34841725635188" lon="-7.8665883334385445"><ele>133.0</ele><time>2026-03-22T18:23:54Z</time></trkpt><trkpt lat="42.34838090587347" lon="-7.866692998962621"><ele>133.0</ele><time>2026-03-22T18:23:55Z</time></trkpt><trkpt lat="42.34834341554931" lon="-7.866808623606068"><ele>133.0</ele><time>2026-03-22T18:23:56Z</time></trkpt><trkpt lat="42.348312995474664" lon="-7.86692385084453"><ele>133.0</ele><time>2026-03-22T18:23:57Z</time></trkpt><trkpt lat="42.34827598199396" lon="-7.867030089447407"><ele>133.0</ele><time>2026-03-22T18:23:58Z</time></trkpt><trkpt lat="42.34824502003212" lon="-7.867141164104944"><ele>133.0</ele><time>2026-03-22T18:23:59Z</time></trkpt><trkpt lat="42.34822680346738" lon="-7.867259318335809"><ele>133.0</ele><time>2026-03-22T18:24:00Z</time></trkpt><trkpt lat="42.34821819185297" lon="-7.867371602595817"><ele>133.0</ele><time>2026-03-22T18:24:01Z</time></trkpt><trkpt lat="42.34821413028146" lon="-7.8674786324007915"><ele>133.0</ele><time>2026-03-22T18:24:02Z</time></trkpt><trkpt lat="42.34821291536639" lon="-7.867589326238363"><ele>133.0</ele><time>2026-03-22T18:24:03Z</time></trkpt><trkpt lat="42.34820956344317" lon="-7.8677089173353325"><ele>133.0</ele><time>2026-03-22T18:24:04Z</time></trkpt><trkpt lat="42.34820231462375" lon="-7.867820573463464"><ele>132.83333333333334</ele><time>2026-03-22T18:24:05Z</time></trkpt><trkpt lat="42.34819826591568" lon="-7.86793699617264"><ele>132.66666666666669</ele><time>2026-03-22T18:24:06Z</time></trkpt><trkpt lat="42.348195092766005" lon="-7.868028763979794"><ele>132.5</ele><time>2026-03-22T18:24:07Z</time></trkpt><trkpt lat="42.348193531990795" lon="-7.868129121473211"><ele>132.33333333333334</ele><time>2026-03-22T18:24:08Z</time></trkpt><trkpt lat="42.34820521941924" lon="-7.868270951679149"><ele>132.16666666666666</ele><time>2026-03-22T18:24:10Z</time></trkpt><trkpt lat="42.34827692489588" lon="-7.868393645796244"><ele>132.0</ele><time>2026-03-22T18:24:12Z</time></trkpt><trkpt lat="42.34833488809921" lon="-7.8684506785633905"><ele>131.79999999999998</ele><time>2026-03-22T18:24:13Z</time></trkpt><trkpt lat="42.34841075632949" lon="-7.868485606209578"><ele>131.6</ele><time>2026-03-22T18:24:14Z</time></trkpt><trkpt lat="42.34847780220141" lon="-7.868516860925759"><ele>131.39999999999998</ele><time>2026-03-22T18:24:15Z</time></trkpt><trkpt lat="42.34858010697835" lon="-7.868575399093048"><ele>131.2</ele><time>2026-03-22T18:24:17Z</time></trkpt><trkpt lat="42.34868146912933" lon="-7.868640637182377"><ele>131.0</ele><time>2026-03-22T18:24:19Z</time></trkpt><trkpt lat="42.34875679135556" lon="-7.8687206830432"><ele>131.0</ele><time>2026-03-22T18:24:23Z</time></trkpt><trkpt lat="42.34867472810879" lon="-7.868882638219712"><ele>131.0</ele><time>2026-03-22T18:24:24Z</time></trkpt><trkpt lat="42.34865765449659" lon="-7.8689920149145"><ele>131.0</ele><time>2026-03-22T18:24:25Z</time></trkpt><trkpt lat="42.348622837397684" lon="-7.869092607857927"><ele>131.0</ele><time>2026-03-22T18:24:26Z</time></trkpt><trkpt lat="42.3485937546054" lon="-7.8691871297296645"><ele>131.0</ele><time>2026-03-22T18:24:27Z</time></trkpt><trkpt lat="42.3485609230555" lon="-7.86927877438283"><ele>130.8</ele><time>2026-03-22T18:24:28Z</time></trkpt><trkpt lat="42.3485083167067" lon="-7.869460062787016"><ele>130.6</ele><time>2026-03-22T18:24:30Z</time></trkpt><trkpt lat="42.34845243417105" lon="-7.869591017524906"><ele>130.4</ele><time>2026-03-22T18:24:31Z</time></trkpt><trkpt lat="42.348421576688885" lon="-7.869696870611648"><ele>130.2</ele><time>2026-03-22T18:24:32Z</time></trkpt><trkpt lat="42.34838725416643" lon="-7.869785534529739"><ele>130.0</ele><time>2026-03-22T18:24:33Z</time></trkpt><trkpt lat="42.34834102046379" lon="-7.869852077910381"><ele>130.0</ele><time>2026-03-22T18:24:34Z</time></trkpt><trkpt lat="42.34828125978948" lon="-7.869883411297632"><ele>130.0</ele><time>2026-03-22T18:24:35Z</time></trkpt><trkpt lat="42.348217867781344" lon="-7.869905415300228"><ele>130.0</ele><time>2026-03-22T18:24:36Z</time></trkpt><trkpt lat="42.348117298493484" lon="-7.869988717379122"><ele>130.0</ele><time>2026-03-22T18:24:38Z</time></trkpt><trkpt lat="42.3480811078582" lon="-7.870084305282025"><ele>130.0</ele><time>2026-03-22T18:24:39Z</time></trkpt><trkpt lat="42.34803033380634" lon="-7.870186451551299"><ele>130.0</ele><time>2026-03-22T18:24:40Z</time></trkpt><trkpt lat="42.34798786942937" lon="-7.870293427834021"><ele>129.0</ele><time>2026-03-22T18:24:41Z</time></trkpt><trkpt lat="42.34795762370685" lon="-7.870388240163081"><ele>128.0</ele><time>2026-03-22T18:24:42Z</time></trkpt><trkpt lat="42.34792664610396" lon="-7.87047822602666"><ele>127.0</ele><time>2026-03-22T18:24:43Z</time></trkpt><trkpt lat="42.34789725160499" lon="-7.870584753486206"><ele>126.0</ele><time>2026-03-22T18:24:44Z</time></trkpt><trkpt lat="42.3478667397031" lon="-7.870687985094026"><ele>125.00000000000001</ele><time>2026-03-22T18:24:45Z</time></trkpt><trkpt lat="42.34783236015099" lon="-7.870793289872648"><ele>124.0</ele><time>2026-03-22T18:24:46Z</time></trkpt><trkpt lat="42.347799340201604" lon="-7.870914856016177"><ele>123.2</ele><time>2026-03-22T18:24:47Z</time></trkpt><trkpt lat="42.34776549646028" lon="-7.87104516058131"><ele>122.4</ele><time>2026-03-22T18:24:48Z</time></trkpt><trkpt lat="42.34773469109054" lon="-7.871172954566266"><ele>121.6</ele><time>2026-03-22T18:24:49Z</time></trkpt><trkpt lat="42.347707492319515" lon="-7.871310530691647"><ele>120.8</ele><time>2026-03-22T18:24:50Z</time></trkpt><trkpt lat="42.347682466666235" lon="-7.871442496405889"><ele>120.0</ele><time>2026-03-22T18:24:51Z</time></trkpt><trkpt lat="42.34765802799571" lon="-7.871574101705345"><ele>120.0</ele><time>2026-03-22T18:24:52Z</time></trkpt><trkpt lat="42.347636220280755" lon="-7.871711722863738"><ele>120.0</ele><time>2026-03-22T18:24:53Z</time></trkpt><trkpt lat="42.34761942252691" lon="-7.871851113644555"><ele>120.0</ele><time>2026-03-22T18:24:54Z</time></trkpt><trkpt lat="42.347602092352204" lon="-7.871982752697699"><ele>120.0</ele><time>2026-03-22T18:24:55Z</time></trkpt><trkpt lat="42.34758418864978" lon="-7.872110780555812"><ele>120.0</ele><time>2026-03-22T18:24:56Z</time></trkpt><trkpt lat="42.34756300281209" lon="-7.872236821244598"><ele>120.0</ele><time>2026-03-22T18:24:57Z</time></trkpt><trkpt lat="42.347546721017956" lon="-7.872364694691286"><ele>120.0</ele><time>2026-03-22T18:24:57.999Z</time></trkpt><trkpt lat="42.34752519748614" lon="-7.8725105698867335"><ele>120.0</ele><time>2026-03-22T18:24:58.999Z</time></trkpt><trkpt lat="42.347505678331984" lon="-7.872661326930538"><ele>120.0</ele><time>2026-03-22T18:24:59.999Z</time></trkpt><trkpt lat="42.34747946540663" lon="-7.87279798846698"><ele>120.0</ele><time>2026-03-22T18:25:00.999Z</time></trkpt><trkpt lat="42.34746267587054" lon="-7.872932413300311"><ele>120.0</ele><time>2026-03-22T18:25:01.999Z</time></trkpt><trkpt lat="42.347441469733056" lon="-7.873050585493155"><ele>120.0</ele><time>2026-03-22T18:25:02.999Z</time></trkpt><trkpt lat="42.34741893378438" lon="-7.873171807689919"><ele>120.0</ele><time>2026-03-22T18:25:03.999Z</time></trkpt><trkpt lat="42.34739264604233" lon="-7.873283764540807"><ele>120.0</ele><time>2026-03-22T18:25:04.999Z</time></trkpt><trkpt lat="42.34736575121082" lon="-7.873388882101228"><ele>120.0</ele><time>2026-03-22T18:25:05.999Z</time></trkpt><trkpt lat="42.34734254243952" lon="-7.873482460171548"><ele>120.0</ele><time>2026-03-22T18:25:06.999Z</time></trkpt><trkpt lat="42.34731915692592" lon="-7.873577757193266"><ele>120.4</ele><time>2026-03-22T18:25:07.999Z</time></trkpt><trkpt lat="42.34730430120975" lon="-7.8736658042037675"><ele>120.8</ele><time>2026-03-22T18:25:08.999Z</time></trkpt><trkpt lat="42.34729112283051" lon="-7.873758967481575"><ele>121.19999999999999</ele><time>2026-03-22T18:25:10.999Z</time></trkpt><trkpt lat="42.34728954274341" lon="-7.8738666831554"><ele>121.6</ele><time>2026-03-22T18:25:15.999Z</time></trkpt><trkpt lat="42.34727444257478" lon="-7.874070054951443"><ele>122.0</ele><time>2026-03-22T18:25:17.999Z</time></trkpt><trkpt lat="42.34726846995942" lon="-7.874183012404729"><ele>122.6</ele><time>2026-03-22T18:25:18.999Z</time></trkpt><trkpt lat="42.34721327285702" lon="-7.87431388037672"><ele>123.19999999999999</ele><time>2026-03-22T18:25:19.999Z</time></trkpt><trkpt lat="42.347165302907804" lon="-7.874450242897082"><ele>123.8</ele><time>2026-03-22T18:25:20.999Z</time></trkpt><trkpt lat="42.34714777830351" lon="-7.874564731612329"><ele>124.4</ele><time>2026-03-22T18:25:21.999Z</time></trkpt><trkpt lat="42.34713686007042" lon="-7.8746776263716844"><ele>125.0</ele><time>2026-03-22T18:25:22.999Z</time></trkpt><trkpt lat="42.34712647427203" lon="-7.8747686241334796"><ele>123.16666666666666</ele><time>2026-03-22T18:25:23.999Z</time></trkpt><trkpt lat="42.34711622788427" lon="-7.8748843345214"><ele>121.33333333333333</ele><time>2026-03-22T18:25:25.999Z</time></trkpt><trkpt lat="42.347107600382586" lon="-7.8749806059864955"><ele>119.5</ele><time>2026-03-22T18:25:29.999Z</time></trkpt><trkpt lat="42.34712627639734" lon="-7.875136330114288"><ele>117.66666666666666</ele><time>2026-03-22T18:25:31.999Z</time></trkpt><trkpt lat="42.34714175575722" lon="-7.8752269551231375"><ele>115.83333333333333</ele><time>2026-03-22T18:25:33Z</time></trkpt><trkpt lat="42.34712064498687" lon="-7.875312945282326"><ele>114.0</ele><time>2026-03-22T18:25:34Z</time></trkpt><trkpt lat="42.34700098504996" lon="-7.875426013563033"><ele>113.33333333333333</ele><time>2026-03-22T18:25:36Z</time></trkpt><trkpt lat="42.34692056348585" lon="-7.875425797276551"><ele>112.66666666666666</ele><time>2026-03-22T18:25:37Z</time></trkpt><trkpt lat="42.34684031828718" lon="-7.875370039786255"><ele>112.0</ele><time>2026-03-22T18:25:38Z</time></trkpt><trkpt lat="42.34676251383376" lon="-7.875360997343042"><ele>111.33333333333333</ele><time>2026-03-22T18:25:39Z</time></trkpt><trkpt lat="42.346699143944136" lon="-7.87536128329856"><ele>110.66666666666666</ele><time>2026-03-22T18:25:40Z</time></trkpt><trkpt lat="42.346618556966696" lon="-7.875377878798973"><ele>110.0</ele><time>2026-03-22T18:25:41Z</time></trkpt><trkpt lat="42.34653879614554" lon="-7.875394703892812"><ele>110.0</ele><time>2026-03-22T18:25:42Z</time></trkpt><trkpt lat="42.34644430650486" lon="-7.875416621594107"><ele>110.0</ele><time>2026-03-22T18:25:43Z</time></trkpt><trkpt lat="42.34634970458177" lon="-7.875446701507962"><ele>110.0</ele><time>2026-03-22T18:25:44Z</time></trkpt><trkpt lat="42.3462485147777" lon="-7.875481904362035"><ele>110.0</ele><time>2026-03-22T18:25:45Z</time></trkpt><trkpt lat="42.346149594474696" lon="-7.8755163038241465"><ele>110.0</ele><time>2026-03-22T18:25:46Z</time></trkpt><trkpt lat="42.34603265631058" lon="-7.875552040069083"><ele>108.0</ele><time>2026-03-22T18:25:47Z</time></trkpt><trkpt lat="42.34590671285939" lon="-7.875588329660328"><ele>106.0</ele><time>2026-03-22T18:25:48Z</time></trkpt><trkpt lat="42.34576278156934" lon="-7.875624281307942"><ele>104.0</ele><time>2026-03-22T18:25:49Z</time></trkpt><trkpt lat="42.34561244583683" lon="-7.875667076655966"><ele>102.0</ele><time>2026-03-22T18:25:50Z</time></trkpt><trkpt lat="42.345459199248765" lon="-7.875715765100902"><ele>102.0</ele><time>2026-03-22T18:25:51Z</time></trkpt><trkpt lat="42.345302974099326" lon="-7.875768328684782"><ele>102.0</ele><time>2026-03-22T18:25:52Z</time></trkpt><trkpt lat="42.34513840748876" lon="-7.875829862947917"><ele>102.0</ele><time>2026-03-22T18:25:53Z</time></trkpt><trkpt lat="42.344965915584766" lon="-7.875890853922197"><ele>102.0</ele><time>2026-03-22T18:25:54Z</time></trkpt><trkpt lat="42.34478429297382" lon="-7.875956767141582"><ele>102.0</ele><time>2026-03-22T18:25:55Z</time></trkpt><trkpt lat="42.3446022448998" lon="-7.876021331977975"><ele>102.0</ele><time>2026-03-22T18:25:56Z</time></trkpt><trkpt lat="42.344415034266994" lon="-7.876085324000158"><ele>104.33333333333334</ele><time>2026-03-22T18:25:57Z</time></trkpt><trkpt lat="42.34422774615283" lon="-7.876153131610414"><ele>106.66666666666667</ele><time>2026-03-22T18:25:58Z</time></trkpt><trkpt lat="42.34403267515523" lon="-7.876229264357293"><ele>109.0</ele><time>2026-03-22T18:25:59Z</time></trkpt><trkpt lat="42.33361043985164" lon="-7.879710761448673"><ele>130.0</ele><time>2026-03-22T18:26:54Z</time></trkpt><trkpt lat="42.333260004037456" lon="-7.879400807482998"><ele>151.0</ele><time>2026-03-22T18:26:56Z</time></trkpt><trkpt lat="42.33308838173357" lon="-7.879246009573455"><ele>157.33333333333334</ele><time>2026-03-22T18:26:57Z</time></trkpt><trkpt lat="42.33291521904837" lon="-7.879096489815781"><ele>163.66666666666666</ele><time>2026-03-22T18:26:58Z</time></trkpt><trkpt lat="42.332735663006" lon="-7.878949387556858"><ele>170.0</ele><time>2026-03-22T18:26:59Z</time></trkpt><trkpt lat="42.3325591658373" lon="-7.87879935073473"><ele>170.0</ele><time>2026-03-22T18:27:00Z</time></trkpt><trkpt lat="42.33237398574091" lon="-7.878659942992511"><ele>170.0</ele><time>2026-03-22T18:27:00.999Z</time></trkpt><trkpt lat="42.33218527459458" lon="-7.878528545113042"><ele>170.0</ele><time>2026-03-22T18:27:01.999Z</time></trkpt><trkpt lat="42.331998058363475" lon="-7.878416231908899"><ele>173.66666666666666</ele><time>2026-03-22T18:27:02.999Z</time></trkpt><trkpt lat="42.33181824465526" lon="-7.878316405202332"><ele>177.33333333333334</ele><time>2026-03-22T18:27:03.999Z</time></trkpt><trkpt lat="42.33159918899521" lon="-7.878245823475673"><ele>181.0</ele><time>2026-03-22T18:27:04.999Z</time></trkpt><trkpt lat="42.33138822350454" lon="-7.878192252724131"><ele>182.0</ele><time>2026-03-22T18:27:05.999Z</time></trkpt><trkpt lat="42.3311675861356" lon="-7.878150557582423"><ele>183.0</ele><time>2026-03-22T18:27:06.999Z</time></trkpt><trkpt lat="42.33094624523113" lon="-7.878118400837249"><ele>184.0</ele><time>2026-03-22T18:27:07.999Z</time></trkpt><trkpt lat="42.3307166635799" lon="-7.878107788500477"><ele>184.0</ele><time>2026-03-22T18:27:08.999Z</time></trkpt><trkpt lat="42.3304968534386" lon="-7.878120795814167"><ele>184.0</ele><time>2026-03-22T18:27:09.999Z</time></trkpt><trkpt lat="42.33029030931815" lon="-7.878149920969146"><ele>184.0</ele><time>2026-03-22T18:27:10.999Z</time></trkpt><trkpt lat="42.330089263298696" lon="-7.878194464796625"><ele>184.0</ele><time>2026-03-22T18:27:11.999Z</time></trkpt><trkpt lat="42.329880254186214" lon="-7.878251938005766"><ele>184.0</ele><time>2026-03-22T18:27:12.999Z</time></trkpt><trkpt lat="42.32967907488952" lon="-7.878327548193238"><ele>184.0</ele><time>2026-03-22T18:27:13.999Z</time></trkpt><trkpt lat="42.32948484481702" lon="-7.8784306760977785"><ele>184.5</ele><time>2026-03-22T18:27:14.999Z</time></trkpt><trkpt lat="42.32913473254468" lon="-7.878640956946165"><ele>185.0</ele><time>2026-03-22T18:27:16.999Z</time></trkpt><trkpt lat="42.32897433625128" lon="-7.878756706434867"><ele>179.33333333333331</ele><time>2026-03-22T18:27:17.999Z</time></trkpt><trkpt lat="42.32881717481053" lon="-7.878875257510196"><ele>173.66666666666666</ele><time>2026-03-22T18:27:18.999Z</time></trkpt><trkpt lat="42.32865691577385" lon="-7.8789937084223975"><ele>168.0</ele><time>2026-03-22T18:27:19.999Z</time></trkpt><trkpt lat="42.32849510474031" lon="-7.879111418073944"><ele>168.0</ele><time>2026-03-22T18:27:20.999Z</time></trkpt><trkpt lat="42.328323144911856" lon="-7.879227293208482"><ele>168.0</ele><time>2026-03-22T18:27:21.999Z</time></trkpt><trkpt lat="42.32815591477785" lon="-7.879339567694524"><ele>168.0</ele><time>2026-03-22T18:27:22.999Z</time></trkpt><trkpt lat="42.327996056495344" lon="-7.879438230138848"><ele>166.66666666666666</ele><time>2026-03-22T18:27:23.999Z</time></trkpt><trkpt lat="42.32783944342443" lon="-7.8795314923514335"><ele>165.33333333333331</ele><time>2026-03-22T18:27:24.999Z</time></trkpt><trkpt lat="42.327684603003064" lon="-7.879606931367667"><ele>164.0</ele><time>2026-03-22T18:27:25.999Z</time></trkpt><trkpt lat="42.32754316854792" lon="-7.879661669217501"><ele>164.0</ele><time>2026-03-22T18:27:26.999Z</time></trkpt><trkpt lat="42.327388270310955" lon="-7.879708823092924"><ele>164.0</ele><time>2026-03-22T18:27:27.999Z</time></trkpt><trkpt lat="42.32724530833688" lon="-7.879770089618618"><ele>164.0</ele><time>2026-03-22T18:27:28.999Z</time></trkpt><trkpt lat="42.327097506721785" lon="-7.879781737197183"><ele>161.5</ele><time>2026-03-22T18:27:29.999Z</time></trkpt><trkpt lat="42.326957284411066" lon="-7.879796296748371"><ele>159.0</ele><time>2026-03-22T18:27:30.999Z</time></trkpt><trkpt lat="42.32682466670613" lon="-7.879812819504156"><ele>156.5</ele><time>2026-03-22T18:27:31.999Z</time></trkpt><trkpt lat="42.32668533568103" lon="-7.879787456764274"><ele>154.0</ele><time>2026-03-22T18:27:32.999Z</time></trkpt><trkpt lat="42.32657480658914" lon="-7.879770908027198"><ele>154.0</ele><time>2026-03-22T18:27:33.999Z</time></trkpt><trkpt lat="42.32648098162015" lon="-7.879779578876448"><ele>154.0</ele><time>2026-03-22T18:27:34.999Z</time></trkpt><trkpt lat="42.32640051476209" lon="-7.879830362565081"><ele>154.0</ele><time>2026-03-22T18:27:35.999Z</time></trkpt><trkpt lat="42.32625441437466" lon="-7.880058888767036"><ele>154.0</ele><time>2026-03-22T18:27:37.999Z</time></trkpt><trkpt lat="42.32618458778675" lon="-7.880211459644205"><ele>154.25</ele><time>2026-03-22T18:27:39Z</time></trkpt><trkpt lat="42.326115783049985" lon="-7.8803641148830055"><ele>154.5</ele><time>2026-03-22T18:27:40Z</time></trkpt><trkpt lat="42.326046298081806" lon="-7.880527504712172"><ele>154.75</ele><time>2026-03-22T18:27:41Z</time></trkpt><trkpt lat="42.32596466714179" lon="-7.880707671550065"><ele>155.0</ele><time>2026-03-22T18:27:42Z</time></trkpt><trkpt lat="42.325863964861576" lon="-7.88088456680358"><ele>156.33333333333331</ele><time>2026-03-22T18:27:43Z</time></trkpt><trkpt lat="42.325767077713074" lon="-7.881071025989589"><ele>157.66666666666666</ele><time>2026-03-22T18:27:44Z</time></trkpt><trkpt lat="42.32566485382514" lon="-7.881271684406382"><ele>159.0</ele><time>2026-03-22T18:27:45Z</time></trkpt><trkpt lat="42.325569682836694" lon="-7.881473751622619"><ele>160.33333333333334</ele><time>2026-03-22T18:27:46Z</time></trkpt><trkpt lat="42.32548259223286" lon="-7.881680311844147"><ele>161.66666666666669</ele><time>2026-03-22T18:27:47Z</time></trkpt><trkpt lat="42.32540898799528" lon="-7.881868880422155"><ele>163.0</ele><time>2026-03-22T18:27:48Z</time></trkpt><trkpt lat="42.325348296217264" lon="-7.882026364512873"><ele>163.0</ele><time>2026-03-22T18:27:49Z</time></trkpt><trkpt lat="42.32529736375698" lon="-7.882129224225319"><ele>163.0</ele><time>2026-03-22T18:27:50Z</time></trkpt><trkpt lat="42.32523470198753" lon="-7.882195147243745"><ele>163.0</ele><time>2026-03-22T18:27:51Z</time></trkpt><trkpt lat="42.32516637194998" lon="-7.882218122341247"><ele>163.0</ele><time>2026-03-22T18:27:52Z</time></trkpt><trkpt lat="42.32509054977796" lon="-7.882233593095481"><ele>163.0</ele><time>2026-03-22T18:27:53Z</time></trkpt><trkpt lat="42.32500699173284" lon="-7.882263039107467"><ele>163.0</ele><time>2026-03-22T18:27:54Z</time></trkpt><trkpt lat="42.32489761919466" lon="-7.882322772714063"><ele>163.0</ele><time>2026-03-22T18:27:55Z</time></trkpt><trkpt lat="42.32477333770618" lon="-7.882367311705192"><ele>163.0</ele><time>2026-03-22T18:27:56Z</time></trkpt><trkpt lat="42.32469309672388" lon="-7.882396880527806"><ele>161.0</ele><time>2026-03-22T18:27:57Z</time></trkpt></trkseg><trkseg><trkpt lat="42.32479758564599" lon="-7.882399074740598"><ele>163.0</ele><time>2026-03-22T19:05:37.999Z</time></trkpt><trkpt lat="42.32494546060834" lon="-7.88231636723742"><ele>163.0</ele><time>2026-03-22T19:05:39.999Z</time></trkpt><trkpt lat="42.32502750840907" lon="-7.882211557231891"><ele>163.0</ele><time>2026-03-22T19:05:40.999Z</time></trkpt><trkpt lat="42.32512832497616" lon="-7.882169033241466"><ele>163.0</ele><time>2026-03-22T19:05:42.999Z</time></trkpt><trkpt lat="42.32519209595609" lon="-7.882140066525807"><ele>163.0</ele><time>2026-03-22T19:05:44.999Z</time></trkpt><trkpt lat="42.325248166036175" lon="-7.882185784535694"><ele>163.0</ele><time>2026-03-22T19:05:47.999Z</time></trkpt><trkpt lat="42.325274100349816" lon="-7.882003495291511"><ele>163.0</ele><time>2026-03-22T19:06:04.999Z</time></trkpt><trkpt lat="42.32530606622092" lon="-7.881921667571652"><ele>163.0</ele><time>2026-03-22T19:06:05.999Z</time></trkpt><trkpt lat="42.325339710860064" lon="-7.88183894453907"><ele>163.0</ele><time>2026-03-22T19:06:06.999Z</time></trkpt><trkpt lat="42.32538023380751" lon="-7.881739309591411"><ele>163.0</ele><time>2026-03-22T19:06:07.999Z</time></trkpt><trkpt lat="42.32542634766153" lon="-7.881625728652188"><ele>162.20000000000002</ele><time>2026-03-22T19:06:08.999Z</time></trkpt><trkpt lat="42.32547761324136" lon="-7.881502111662827"><ele>161.4</ele><time>2026-03-22T19:06:09.999Z</time></trkpt><trkpt lat="42.32553208787317" lon="-7.8813827297926515"><ele>160.60000000000002</ele><time>2026-03-22T19:06:10.999Z</time></trkpt><trkpt lat="42.32559732248652" lon="-7.881263518153207"><ele>159.8</ele><time>2026-03-22T19:06:11.999Z</time></trkpt><trkpt lat="42.32566474670302" lon="-7.881142168851062"><ele>159.0</ele><time>2026-03-22T19:06:12.999Z</time></trkpt><trkpt lat="42.325735789696935" lon="-7.881014914725898"><ele>158.2</ele><time>2026-03-22T19:06:13.999Z</time></trkpt><trkpt lat="42.32579288132219" lon="-7.8808998490733355"><ele>157.4</ele><time>2026-03-22T19:06:14.999Z</time></trkpt><trkpt lat="42.32584361519911" lon="-7.8807787290009506"><ele>156.6</ele><time>2026-03-22T19:06:15.998Z</time></trkpt><trkpt lat="42.325905831474884" lon="-7.880657315468043"><ele>155.8</ele><time>2026-03-22T19:06:16.998Z</time></trkpt><trkpt lat="42.325949882821654" lon="-7.880549226440219"><ele>155.0</ele><time>2026-03-22T19:06:17.998Z</time></trkpt><trkpt lat="42.32599896393315" lon="-7.880451205508898"><ele>155.0</ele><time>2026-03-22T19:06:18.998Z</time></trkpt><trkpt lat="42.326036991849804" lon="-7.880352962547882"><ele>155.0</ele><time>2026-03-22T19:06:19.998Z</time></trkpt><trkpt lat="42.32607565438544" lon="-7.880267023800228"><ele>155.0</ele><time>2026-03-22T19:06:20.998Z</time></trkpt><trkpt lat="42.32611491718804" lon="-7.88018779313399"><ele>155.0</ele><time>2026-03-22T19:06:21.998Z</time></trkpt><trkpt lat="42.326153765418724" lon="-7.880110137370983"><ele>155.0</ele><time>2026-03-22T19:06:22.998Z</time></trkpt><trkpt lat="42.32620010468098" lon="-7.879960274659309"><ele>155.0</ele><time>2026-03-22T19:06:24.998Z</time></trkpt><trkpt lat="42.32617093787918" lon="-7.879831099187424"><ele>154.0</ele><time>2026-03-22T19:06:26.998Z</time></trkpt><trkpt lat="42.3261186564645" lon="-7.879779851474235"><ele>153.0</ele><time>2026-03-22T19:06:27.998Z</time></trkpt><trkpt lat="42.32602836128841" lon="-7.879767112072115"><ele>152.0</ele><time>2026-03-22T19:06:28.998Z</time></trkpt><trkpt lat="42.32593726910427" lon="-7.879789044816091"><ele>151.0</ele><time>2026-03-22T19:06:29.998Z</time></trkpt><trkpt lat="42.3258208568598" lon="-7.879835106974402"><ele>150.0</ele><time>2026-03-22T19:06:30.998Z</time></trkpt><trkpt lat="42.32570996879498" lon="-7.879886371375338"><ele>150.0</ele><time>2026-03-22T19:06:31.998Z</time></trkpt><trkpt lat="42.325589683565894" lon="-7.879930986404608"><ele>150.0</ele><time>2026-03-22T19:06:32.998Z</time></trkpt><trkpt lat="42.325494405776276" lon="-7.879963781272816"><ele>150.0</ele><time>2026-03-22T19:06:34Z</time></trkpt><trkpt lat="42.32539855939905" lon="-7.879989518226321"><ele>150.0</ele><time>2026-03-22T19:06:35Z</time></trkpt><trkpt lat="42.325306919971446" lon="-7.880002682524346"><ele>150.0</ele><time>2026-03-22T19:06:36Z</time></trkpt><trkpt lat="42.325220118574734" lon="-7.880022345861503"><ele>149.4</ele><time>2026-03-22T19:06:37Z</time></trkpt><trkpt lat="42.32514545793842" lon="-7.880012324078611"><ele>148.8</ele><time>2026-03-22T19:06:38Z</time></trkpt><trkpt lat="42.32507627839771" lon="-7.880018275712474"><ele>148.2</ele><time>2026-03-22T19:06:39Z</time></trkpt><trkpt lat="42.32496607786129" lon="-7.8800234575115295"><ele>147.6</ele><time>2026-03-22T19:06:41Z</time></trkpt><trkpt lat="42.32484432347839" lon="-7.880055165463211"><ele>147.0</ele><time>2026-03-22T19:06:43Z</time></trkpt><trkpt lat="42.32475869385124" lon="-7.88010805225013"><ele>145.5</ele><time>2026-03-22T19:06:44Z</time></trkpt><trkpt lat="42.324692083085914" lon="-7.880255555662829"><ele>144.0</ele><time>2026-03-22T19:06:45Z</time></trkpt><trkpt lat="42.32460454953433" lon="-7.8803392056617465"><ele>142.5</ele><time>2026-03-22T19:06:46Z</time></trkpt><trkpt lat="42.32451173320055" lon="-7.880412131918237"><ele>141.0</ele><time>2026-03-22T19:06:47Z</time></trkpt><trkpt lat="42.32441388089076" lon="-7.880483837693184"><ele>141.0</ele><time>2026-03-22T19:06:48Z</time></trkpt><trkpt lat="42.32431901176008" lon="-7.88053040681234"><ele>141.0</ele><time>2026-03-22T19:06:49Z</time></trkpt><trkpt lat="42.32422639259093" lon="-7.880557197857392"><ele>141.0</ele><time>2026-03-22T19:06:50Z</time></trkpt><trkpt lat="42.32416098647787" lon="-7.8805716352541495"><ele>141.0</ele><time>2026-03-22T19:06:51Z</time></trkpt><trkpt lat="42.32407735266915" lon="-7.880574358392824"><ele>141.0</ele><time>2026-03-22T19:06:52Z</time></trkpt><trkpt lat="42.32401469116413" lon="-7.8805574086369194"><ele>141.0</ele><time>2026-03-22T19:06:53Z</time></trkpt><trkpt lat="42.32389866918413" lon="-7.880551481128707"><ele>141.5</ele><time>2026-03-22T19:06:55Z</time></trkpt><trkpt lat="42.323779390048806" lon="-7.880524851091802"><ele>142.0</ele><time>2026-03-22T19:06:57Z</time></trkpt><trkpt lat="42.323710103942354" lon="-7.880510802355634"><ele>142.5</ele><time>2026-03-22T19:06:58Z</time></trkpt><trkpt lat="42.323631031185336" lon="-7.8804949970799525"><ele>143.0</ele><time>2026-03-22T19:07:00Z</time></trkpt><trkpt lat="42.32354930806979" lon="-7.880506930507704"><ele>143.5</ele><time>2026-03-22T19:07:02Z</time></trkpt><trkpt lat="42.323457928144194" lon="-7.880508328394017"><ele>144.0</ele><time>2026-03-22T19:07:04Z</time></trkpt><trkpt lat="42.323350829656505" lon="-7.880520432628722"><ele>144.0</ele><time>2026-03-22T19:07:05.999Z</time></trkpt><trkpt lat="42.32328499243132" lon="-7.880531566873409"><ele>144.0</ele><time>2026-03-22T19:07:06.999Z</time></trkpt><trkpt lat="42.32319826301425" lon="-7.8805509109498235"><ele>144.0</ele><time>2026-03-22T19:07:07.999Z</time></trkpt><trkpt lat="42.32309216593596" lon="-7.8805760118105"><ele>144.0</ele><time>2026-03-22T19:07:08.999Z</time></trkpt><trkpt lat="42.323005993094675" lon="-7.880599018557591"><ele>144.0</ele><time>2026-03-22T19:07:09.999Z</time></trkpt><trkpt lat="42.322914701154176" lon="-7.880623392043838"><ele>144.0</ele><time>2026-03-22T19:07:10.999Z</time></trkpt><trkpt lat="42.322841935530334" lon="-7.880648488029474"><ele>143.8</ele><time>2026-03-22T19:07:11.999Z</time></trkpt><trkpt lat="42.32276766927917" lon="-7.880686240700537"><ele>143.60000000000002</ele><time>2026-03-22T19:07:12.999Z</time></trkpt><trkpt lat="42.32270640129769" lon="-7.880734039876718"><ele>143.4</ele><time>2026-03-22T19:07:13.999Z</time></trkpt><trkpt lat="42.32265945092443" lon="-7.880794695491939"><ele>143.20000000000002</ele><time>2026-03-22T19:07:14.999Z</time></trkpt><trkpt lat="42.32258052436867" lon="-7.8809321778679156"><ele>143.0</ele><time>2026-03-22T19:07:16.999Z</time></trkpt><trkpt lat="42.32251228659623" lon="-7.881064383076056"><ele>144.20000000000002</ele><time>2026-03-22T19:07:18.999Z</time></trkpt><trkpt lat="42.32244425657335" lon="-7.8812013473539"><ele>145.4</ele><time>2026-03-22T19:07:20.999Z</time></trkpt><trkpt lat="42.32237063721618" lon="-7.881344224755702"><ele>146.60000000000002</ele><time>2026-03-22T19:07:22.999Z</time></trkpt><trkpt lat="42.32232878430838" lon="-7.881420896115169"><ele>147.8</ele><time>2026-03-22T19:07:23.999Z</time></trkpt><trkpt lat="42.322275748639875" lon="-7.881505624184227"><ele>149.0</ele><time>2026-03-22T19:07:24.999Z</time></trkpt><trkpt lat="42.32221246408956" lon="-7.8815706124406315"><ele>149.33333333333331</ele><time>2026-03-22T19:07:25.999Z</time></trkpt><trkpt lat="42.32213768982655" lon="-7.881618361730778"><ele>149.66666666666666</ele><time>2026-03-22T19:07:26.999Z</time></trkpt><trkpt lat="42.322050434808915" lon="-7.881649995320837"><ele>150.0</ele><time>2026-03-22T19:07:27.999Z</time></trkpt><trkpt lat="42.32196262198577" lon="-7.8816605268250335"><ele>150.33333333333334</ele><time>2026-03-22T19:07:28.999Z</time></trkpt><trkpt lat="42.32187876025511" lon="-7.88166048306687"><ele>150.66666666666669</ele><time>2026-03-22T19:07:29.999Z</time></trkpt><trkpt lat="42.32179301027905" lon="-7.8816475754016375"><ele>151.0</ele><time>2026-03-22T19:07:30.999Z</time></trkpt><trkpt lat="42.321707619907556" lon="-7.881636475560312"><ele>151.0</ele><time>2026-03-22T19:07:31.999Z</time></trkpt><trkpt lat="42.32163942200648" lon="-7.8816281961495855"><ele>151.0</ele><time>2026-03-22T19:07:32.999Z</time></trkpt><trkpt lat="42.3215141146115" lon="-7.881614675063487"><ele>151.0</ele><time>2026-03-22T19:07:34.999Z</time></trkpt><trkpt lat="42.321449440574874" lon="-7.881607615362602"><ele>151.0</ele><time>2026-03-22T19:07:35.999Z</time></trkpt><trkpt lat="42.32138050582543" lon="-7.881599108821622"><ele>151.0</ele><time>2026-03-22T19:07:36.999Z</time></trkpt><trkpt lat="42.32131592466299" lon="-7.881591139491861"><ele>151.0</ele><time>2026-03-22T19:07:37.999Z</time></trkpt><trkpt lat="42.321204004821155" lon="-7.881555191963555"><ele>151.83333333333334</ele><time>2026-03-22T19:07:39.999Z</time></trkpt><trkpt lat="42.321110965079235" lon="-7.881562844455216"><ele>152.66666666666669</ele><time>2026-03-22T19:07:41.999Z</time></trkpt><trkpt lat="42.32101983880436" lon="-7.881549752844154"><ele>153.5</ele><time>2026-03-22T19:07:43.999Z</time></trkpt><trkpt lat="42.320909030647194" lon="-7.881534043977593"><ele>154.33333333333334</ele><time>2026-03-22T19:07:45.999Z</time></trkpt><trkpt lat="42.32084130487064" lon="-7.881525339284529"><ele>155.16666666666666</ele><time>2026-03-22T19:07:46.999Z</time></trkpt><trkpt lat="42.320764872231095" lon="-7.881515515542958"><ele>156.0</ele><time>2026-03-22T19:07:47.999Z</time></trkpt><trkpt lat="42.32065987015982" lon="-7.881502239178664"><ele>156.6</ele><time>2026-03-22T19:07:48.999Z</time></trkpt><trkpt lat="42.32055380935514" lon="-7.8814889666111165"><ele>157.2</ele><time>2026-03-22T19:07:49.999Z</time></trkpt><trkpt lat="42.32047378013421" lon="-7.881458753834672"><ele>157.8</ele><time>2026-03-22T19:07:50.999Z</time></trkpt><trkpt lat="42.32039120607305" lon="-7.881460817083222"><ele>158.4</ele><time>2026-03-22T19:07:51.999Z</time></trkpt><trkpt lat="42.320318238963864" lon="-7.881442173494189"><ele>159.0</ele><time>2026-03-22T19:07:52.999Z</time></trkpt><trkpt lat="42.320194726701324" lon="-7.8814257101457015"><ele>159.0</ele><time>2026-03-22T19:07:54.999Z</time></trkpt><trkpt lat="42.320088701595346" lon="-7.881384828514818"><ele>159.0</ele><time>2026-03-22T19:07:56.999Z</time></trkpt><trkpt lat="42.31997974622191" lon="-7.881344269797172"><ele>159.0</ele><time>2026-03-22T19:07:58.999Z</time></trkpt><trkpt lat="42.31987734868496" lon="-7.88130487899441"><ele>159.0</ele><time>2026-03-22T19:08:00.999Z</time></trkpt><trkpt lat="42.31978834362277" lon="-7.881272345727559"><ele>159.0</ele><time>2026-03-22T19:08:02.999Z</time></trkpt><trkpt lat="42.31971954288577" lon="-7.881247846045726"><ele>158.66666666666666</ele><time>2026-03-22T19:08:04.999Z</time></trkpt><trkpt lat="42.31963393858344" lon="-7.88121937986392"><ele>158.33333333333334</ele><time>2026-03-22T19:08:06.999Z</time></trkpt><trkpt lat="42.31948700759065" lon="-7.881213160642723"><ele>158.0</ele><time>2026-03-22T19:08:08.999Z</time></trkpt><trkpt lat="42.319411612037854" lon="-7.881187996593607"><ele>157.66666666666669</ele><time>2026-03-22T19:08:09.999Z</time></trkpt><trkpt lat="42.319344668148084" lon="-7.881208696661143"><ele>157.33333333333334</ele><time>2026-03-22T19:08:10.999Z</time></trkpt><trkpt lat="42.31928137166069" lon="-7.881208641504342"><ele>157.0</ele><time>2026-03-22T19:08:11.999Z</time></trkpt><trkpt lat="42.31914568425208" lon="-7.881228532303828"><ele>157.0</ele><time>2026-03-22T19:08:13.999Z</time></trkpt><trkpt lat="42.31906459773864" lon="-7.881246080782088"><ele>157.0</ele><time>2026-03-22T19:08:14.999Z</time></trkpt><trkpt lat="42.318993761935666" lon="-7.881261591813641"><ele>157.0</ele><time>2026-03-22T19:08:15.999Z</time></trkpt><trkpt lat="42.318929699969964" lon="-7.881255123069205"><ele>157.0</ele><time>2026-03-22T19:08:16.999Z</time></trkpt><trkpt lat="42.31882619869764" lon="-7.8812917505687095"><ele>157.0</ele><time>2026-03-22T19:08:18.999Z</time></trkpt><trkpt lat="42.31875165900714" lon="-7.881311654946961"><ele>157.0</ele><time>2026-03-22T19:08:19.999Z</time></trkpt><trkpt lat="42.31868266904479" lon="-7.881329562507508"><ele>156.5</ele><time>2026-03-22T19:08:20.999Z</time></trkpt><trkpt lat="42.31861841125575" lon="-7.881343247480561"><ele>156.0</ele><time>2026-03-22T19:08:21.999Z</time></trkpt><trkpt lat="42.31851065764896" lon="-7.8813694653598985"><ele>155.5</ele><time>2026-03-22T19:08:23.999Z</time></trkpt><trkpt lat="42.3184439078806" lon="-7.8813909024932665"><ele>155.0</ele><time>2026-03-22T19:08:24.999Z</time></trkpt><trkpt lat="42.31835832552323" lon="-7.8814065213228375"><ele>154.5</ele><time>2026-03-22T19:08:25.998Z</time></trkpt><trkpt lat="42.31828851964678" lon="-7.881431907323257"><ele>154.0</ele><time>2026-03-22T19:08:26.998Z</time></trkpt><trkpt lat="42.31822522319878" lon="-7.881462014400748"><ele>154.0</ele><time>2026-03-22T19:08:27.998Z</time></trkpt><trkpt lat="42.31811633888862" lon="-7.881505970396243"><ele>154.0</ele><time>2026-03-22T19:08:29.998Z</time></trkpt><trkpt lat="42.31802627576942" lon="-7.881571725928196"><ele>154.0</ele><time>2026-03-22T19:08:31.998Z</time></trkpt><trkpt lat="42.31795966151816" lon="-7.881657722129136"><ele>154.0</ele><time>2026-03-22T19:08:33.998Z</time></trkpt><trkpt lat="42.317885263760914" lon="-7.881805670982923"><ele>154.0</ele><time>2026-03-22T19:08:35.998Z</time></trkpt><trkpt lat="42.31784350641379" lon="-7.881876101026597"><ele>153.6</ele><time>2026-03-22T19:08:36.998Z</time></trkpt><trkpt lat="42.317759680500814" lon="-7.881992242278329"><ele>153.2</ele><time>2026-03-22T19:08:38.998Z</time></trkpt><trkpt lat="42.31772639280136" lon="-7.882096177494066"><ele>152.79999999999998</ele><time>2026-03-22T19:08:40.999Z</time></trkpt><trkpt lat="42.317700733704264" lon="-7.882194119661738"><ele>152.4</ele><time>2026-03-22T19:08:42.999Z</time></trkpt><trkpt lat="42.317653681884345" lon="-7.8823228534258245"><ele>152.0</ele><time>2026-03-22T19:08:44.999Z</time></trkpt><trkpt lat="42.3176258760268" lon="-7.882471122429272"><ele>152.0</ele><time>2026-03-22T19:08:46.999Z</time></trkpt><trkpt lat="42.31759567094512" lon="-7.882579354660074"><ele>152.0</ele><time>2026-03-22T19:08:47.999Z</time></trkpt><trkpt lat="42.317560246487616" lon="-7.88270284093778"><ele>152.0</ele><time>2026-03-22T19:08:48.999Z</time></trkpt><trkpt lat="42.317514418168685" lon="-7.882824854612034"><ele>152.0</ele><time>2026-03-22T19:08:49.999Z</time></trkpt><trkpt lat="42.31742662762705" lon="-7.88292248076031"><ele>152.0</ele><time>2026-03-22T19:08:50.999Z</time></trkpt><trkpt lat="42.31730641564693" lon="-7.88300338605179"><ele>152.25</ele><time>2026-03-22T19:08:51.999Z</time></trkpt><trkpt lat="42.317179974885356" lon="-7.883063450555037"><ele>152.5</ele><time>2026-03-22T19:08:52.999Z</time></trkpt><trkpt lat="42.317049513708234" lon="-7.883094386043204"><ele>152.75</ele><time>2026-03-22T19:08:53.999Z</time></trkpt><trkpt lat="42.31693857743796" lon="-7.883142621821731"><ele>153.0</ele><time>2026-03-22T19:08:54.999Z</time></trkpt><trkpt lat="42.31683614993315" lon="-7.883179088604651"><ele>153.0</ele><time>2026-03-22T19:08:55.999Z</time></trkpt><trkpt lat="42.3167512215435" lon="-7.883210375685682"><ele>153.0</ele><time>2026-03-22T19:08:56.999Z</time></trkpt><trkpt lat="42.31667691666639" lon="-7.883226513193561"><ele>153.0</ele><time>2026-03-22T19:08:57.999Z</time></trkpt><trkpt lat="42.31661094855603" lon="-7.883250792991331"><ele>153.0</ele><time>2026-03-22T19:08:58.999Z</time></trkpt><trkpt lat="42.31654676297185" lon="-7.883277082021554"><ele>153.0</ele><time>2026-03-22T19:08:59.999Z</time></trkpt><trkpt lat="42.31645489819162" lon="-7.8833048741946925"><ele>153.0</ele><time>2026-03-22T19:09:02Z</time></trkpt><trkpt lat="42.3163598917176" lon="-7.883330753730688"><ele>153.20000000000002</ele><time>2026-03-22T19:09:04Z</time></trkpt><trkpt lat="42.31630159473494" lon="-7.883370440595471"><ele>153.4</ele><time>2026-03-22T19:09:04.999Z</time></trkpt><trkpt lat="42.316227650105276" lon="-7.883395946556788"><ele>153.60000000000002</ele><time>2026-03-22T19:09:05.999Z</time></trkpt><trkpt lat="42.31616098602535" lon="-7.883418438551982"><ele>153.8</ele><time>2026-03-22T19:09:06.999Z</time></trkpt><trkpt lat="42.316052228357506" lon="-7.883454246773127"><ele>154.0</ele><time>2026-03-22T19:09:08.999Z</time></trkpt><trkpt lat="42.31592245896429" lon="-7.8834937201659105"><ele>154.5</ele><time>2026-03-22T19:09:10.999Z</time></trkpt><trkpt lat="42.31585018865923" lon="-7.883494014976464"><ele>155.0</ele><time>2026-03-22T19:09:11.999Z</time></trkpt><trkpt lat="42.31578110158131" lon="-7.883517188116134"><ele>155.5</ele><time>2026-03-22T19:09:12.999Z</time></trkpt><trkpt lat="42.31571785706012" lon="-7.883540768240448"><ele>156.0</ele><time>2026-03-22T19:09:13.999Z</time></trkpt><trkpt lat="42.315648718638315" lon="-7.883554530834687"><ele>156.5</ele><time>2026-03-22T19:09:14.999Z</time></trkpt><trkpt lat="42.31552933145423" lon="-7.88358505212097"><ele>157.0</ele><time>2026-03-22T19:09:16.999Z</time></trkpt><trkpt lat="42.315430081333105" lon="-7.883604384962742"><ele>157.0</ele><time>2026-03-22T19:09:18.999Z</time></trkpt><trkpt lat="42.31532878893526" lon="-7.883622583500046"><ele>157.0</ele><time>2026-03-22T19:09:20.999Z</time></trkpt><trkpt lat="42.31522359531175" lon="-7.883650812928771"><ele>157.0</ele><time>2026-03-22T19:09:22.999Z</time></trkpt><trkpt lat="42.31513185360283" lon="-7.883677412849694"><ele>157.0</ele><time>2026-03-22T19:09:24.999Z</time></trkpt><trkpt lat="42.31506543898931" lon="-7.883680849277585"><ele>157.0</ele><time>2026-03-22T19:09:27.999Z</time></trkpt><trkpt lat="42.314994009079356" lon="-7.883710513691724"><ele>157.0</ele><time>2026-03-22T19:09:38.999Z</time></trkpt><trkpt lat="42.31513665351002" lon="-7.883675254456274"><ele>157.0</ele><time>2026-03-22T19:10:51Z</time></trkpt><trkpt lat="42.31531029148039" lon="-7.883567811525393"><ele>157.0</ele><time>2026-03-22T19:10:52Z</time></trkpt><trkpt lat="42.315394345364766" lon="-7.883499255097644"><ele>157.0</ele><time>2026-03-22T19:10:55Z</time></trkpt><trkpt lat="42.31549346213056" lon="-7.883485979801874"><ele>157.0</ele><time>2026-03-22T19:10:57Z</time></trkpt><trkpt lat="42.31557072312546" lon="-7.8834897047390715"><ele>156.5</ele><time>2026-03-22T19:10:59Z</time></trkpt><trkpt lat="42.31563997756663" lon="-7.883485725529007"><ele>156.0</ele><time>2026-03-22T19:11:01Z</time></trkpt><trkpt lat="42.315724425222825" lon="-7.883476446269932"><ele>155.5</ele><time>2026-03-22T19:11:03Z</time></trkpt><trkpt lat="42.31579693663572" lon="-7.883459112517222"><ele>155.0</ele><time>2026-03-22T19:11:05Z</time></trkpt><trkpt lat="42.31589389368016" lon="-7.883438303897533"><ele>154.5</ele><time>2026-03-22T19:11:08Z</time></trkpt><trkpt lat="42.31596842369558" lon="-7.883414878976849"><ele>154.0</ele><time>2026-03-22T19:11:10Z</time></trkpt><trkpt lat="42.316044823603406" lon="-7.8833976899152765"><ele>154.0</ele><time>2026-03-22T19:11:12Z</time></trkpt><trkpt lat="42.31611731373808" lon="-7.8833551067427665"><ele>154.0</ele><time>2026-03-22T19:11:14Z</time></trkpt><trkpt lat="42.31619885045963" lon="-7.883332384551104"><ele>154.0</ele><time>2026-03-22T19:11:16Z</time></trkpt><trkpt lat="42.31627667101363" lon="-7.883300015478484"><ele>154.0</ele><time>2026-03-22T19:11:18Z</time></trkpt><trkpt lat="42.31635003141215" lon="-7.883275257769709"><ele>154.0</ele><time>2026-03-22T19:11:20Z</time></trkpt><trkpt lat="42.316420761779746" lon="-7.883253540105342"><ele>154.0</ele><time>2026-03-22T19:11:22Z</time></trkpt><trkpt lat="42.31650274582171" lon="-7.883228743177525"><ele>153.8</ele><time>2026-03-22T19:11:24Z</time></trkpt><trkpt lat="42.31659361351132" lon="-7.883196238342508"><ele>153.60000000000002</ele><time>2026-03-22T19:11:26Z</time></trkpt><trkpt lat="42.316701880241226" lon="-7.883156887856003"><ele>153.4</ele><time>2026-03-22T19:11:28Z</time></trkpt><trkpt lat="42.31677052937762" lon="-7.883131387547545"><ele>153.20000000000002</ele><time>2026-03-22T19:11:29Z</time></trkpt><trkpt lat="42.316849887198856" lon="-7.883099778908934"><ele>153.0</ele><time>2026-03-22T19:11:30Z</time></trkpt><trkpt lat="42.31693634953212" lon="-7.883068291601226"><ele>153.0</ele><time>2026-03-22T19:11:31Z</time></trkpt><trkpt lat="42.317032890143366" lon="-7.883034172670067"><ele>153.0</ele><time>2026-03-22T19:11:32Z</time></trkpt><trkpt lat="42.31713730181307" lon="-7.882999083867799"><ele>153.0</ele><time>2026-03-22T19:11:33Z</time></trkpt><trkpt lat="42.3172412883306" lon="-7.882960582246127"><ele>153.0</ele><time>2026-03-22T19:11:34Z</time></trkpt><trkpt lat="42.31734219877494" lon="-7.882910546537228"><ele>153.0</ele><time>2026-03-22T19:11:35Z</time></trkpt><trkpt lat="42.31742987704276" lon="-7.882844631451621"><ele>152.8</ele><time>2026-03-22T19:11:36Z</time></trkpt><trkpt lat="42.31750364151128" lon="-7.88273923786062"><ele>152.60000000000002</ele><time>2026-03-22T19:11:37Z</time></trkpt><trkpt lat="42.31756108763133" lon="-7.882600716892872"><ele>152.39999999999998</ele><time>2026-03-22T19:11:38Z</time></trkpt><trkpt lat="42.31759800235812" lon="-7.882434744443825"><ele>152.2</ele><time>2026-03-22T19:11:39Z</time></trkpt><trkpt lat="42.3176238642954" lon="-7.8823210889081965"><ele>152.0</ele><time>2026-03-22T19:11:40Z</time></trkpt><trkpt lat="42.31765781257718" lon="-7.882165065712234"><ele>152.0</ele><time>2026-03-22T19:11:42Z</time></trkpt><trkpt lat="42.317699966993494" lon="-7.882016776579095"><ele>152.0</ele><time>2026-03-22T19:11:44Z</time></trkpt><trkpt lat="42.31771783871787" lon="-7.8819298597956555"><ele>152.0</ele><time>2026-03-22T19:11:45Z</time></trkpt><trkpt lat="42.31773985321969" lon="-7.881845780743729"><ele>152.0</ele><time>2026-03-22T19:11:46Z</time></trkpt><trkpt lat="42.317751750152745" lon="-7.881702234517124"><ele>152.0</ele><time>2026-03-22T19:11:47.999Z</time></trkpt><trkpt lat="42.3178382541204" lon="-7.88161791480759"><ele>152.4</ele><time>2026-03-22T19:11:49.999Z</time></trkpt><trkpt lat="42.31791247984684" lon="-7.881616537116312"><ele>152.79999999999998</ele><time>2026-03-22T19:11:50.999Z</time></trkpt><trkpt lat="42.31799436001755" lon="-7.88153858574593"><ele>153.2</ele><time>2026-03-22T19:11:51.999Z</time></trkpt><trkpt lat="42.31810484012989" lon="-7.881472008564139"><ele>153.6</ele><time>2026-03-22T19:11:52.999Z</time></trkpt><trkpt lat="42.31822208774765" lon="-7.88141656793052"><ele>154.0</ele><time>2026-03-22T19:11:53.999Z</time></trkpt><trkpt lat="42.3183448503646" lon="-7.881373725054273"><ele>154.0</ele><time>2026-03-22T19:11:54.999Z</time></trkpt><trkpt lat="42.31845446633122" lon="-7.881344433325071"><ele>154.0</ele><time>2026-03-22T19:11:55.999Z</time></trkpt><trkpt lat="42.318557928313005" lon="-7.881319398092849"><ele>154.0</ele><time>2026-03-22T19:11:56.999Z</time></trkpt><trkpt lat="42.318654020994906" lon="-7.881303101226131"><ele>154.0</ele><time>2026-03-22T19:11:57.999Z</time></trkpt><trkpt lat="42.318741563032525" lon="-7.881281591046824"><ele>154.0</ele><time>2026-03-22T19:11:58.999Z</time></trkpt><trkpt lat="42.31884097256505" lon="-7.881249900447712"><ele>154.5</ele><time>2026-03-22T19:11:59.999Z</time></trkpt><trkpt lat="42.31893360957946" lon="-7.881222776514729"><ele>155.0</ele><time>2026-03-22T19:12:00.999Z</time></trkpt><trkpt lat="42.31902213761229" lon="-7.881206361408911"><ele>155.5</ele><time>2026-03-22T19:12:01.999Z</time></trkpt><trkpt lat="42.319103111944884" lon="-7.8811905505992375"><ele>156.0</ele><time>2026-03-22T19:12:02.999Z</time></trkpt><trkpt lat="42.319178166017444" lon="-7.881178144544782"><ele>156.5</ele><time>2026-03-22T19:12:03.999Z</time></trkpt><trkpt lat="42.31924488650314" lon="-7.881171713410241"><ele>157.0</ele><time>2026-03-22T19:12:04.999Z</time></trkpt><trkpt lat="42.319366098809084" lon="-7.8811703559186785"><ele>157.0</ele><time>2026-03-22T19:12:06.999Z</time></trkpt><trkpt lat="42.3194467294927" lon="-7.8811716337655255"><ele>157.0</ele><time>2026-03-22T19:12:08.999Z</time></trkpt><trkpt lat="42.31952134202784" lon="-7.881183468321382"><ele>157.0</ele><time>2026-03-22T19:12:16.999Z</time></trkpt><trkpt lat="42.31960132224307" lon="-7.881179733396546"><ele>157.0</ele><time>2026-03-22T19:12:18.999Z</time></trkpt><trkpt lat="42.319689116206945" lon="-7.881200604589793"><ele>157.0</ele><time>2026-03-22T19:12:20.999Z</time></trkpt><trkpt lat="42.31982218040991" lon="-7.881250814711171"><ele>157.33333333333334</ele><time>2026-03-22T19:12:22.999Z</time></trkpt><trkpt lat="42.319899472911594" lon="-7.881280240874206"><ele>157.66666666666669</ele><time>2026-03-22T19:12:23.999Z</time></trkpt><trkpt lat="42.31997386236307" lon="-7.881328056009662"><ele>158.0</ele><time>2026-03-22T19:12:24.999Z</time></trkpt><trkpt lat="42.32004845431767" lon="-7.881351122090893"><ele>158.33333333333334</ele><time>2026-03-22T19:12:25.999Z</time></trkpt><trkpt lat="42.32011008005992" lon="-7.881374897075279"><ele>158.66666666666666</ele><time>2026-03-22T19:12:26.999Z</time></trkpt><trkpt lat="42.320215706264825" lon="-7.881408152316548"><ele>159.0</ele><time>2026-03-22T19:12:28.999Z</time></trkpt><trkpt lat="42.32032578557318" lon="-7.8814231492651246"><ele>159.0</ele><time>2026-03-22T19:12:30.999Z</time></trkpt><trkpt lat="42.320389746272745" lon="-7.881435018567766"><ele>159.0</ele><time>2026-03-22T19:12:31.999Z</time></trkpt><trkpt lat="42.32046136277313" lon="-7.881447317061431"><ele>159.0</ele><time>2026-03-22T19:12:32.999Z</time></trkpt><trkpt lat="42.32054552802231" lon="-7.8814629523038855"><ele>159.0</ele><time>2026-03-22T19:12:33.999Z</time></trkpt><trkpt lat="42.3206396318576" lon="-7.881472727845924"><ele>159.0</ele><time>2026-03-22T19:12:34.999Z</time></trkpt><trkpt lat="42.32072668244766" lon="-7.881472392275971"><ele>159.0</ele><time>2026-03-22T19:12:35.999Z</time></trkpt><trkpt lat="42.32081127696938" lon="-7.881482558649386"><ele>158.5</ele><time>2026-03-22T19:12:36.999Z</time></trkpt><trkpt lat="42.32089248170191" lon="-7.881487827446711"><ele>158.0</ele><time>2026-03-22T19:12:37.999Z</time></trkpt><trkpt lat="42.3209725764781" lon="-7.8815004687046"><ele>157.5</ele><time>2026-03-22T19:12:38.999Z</time></trkpt><trkpt lat="42.32104834061049" lon="-7.881514023402062"><ele>157.0</ele><time>2026-03-22T19:12:39.999Z</time></trkpt><trkpt lat="42.32112448691829" lon="-7.881522407454997"><ele>156.5</ele><time>2026-03-22T19:12:40.999Z</time></trkpt><trkpt lat="42.321204807980926" lon="-7.881530559311469"><ele>156.0</ele><time>2026-03-22T19:12:41.999Z</time></trkpt><trkpt lat="42.321285338438834" lon="-7.881543067628276"><ele>156.0</ele><time>2026-03-22T19:12:42.999Z</time></trkpt><trkpt lat="42.321363263557515" lon="-7.881556112083915"><ele>156.0</ele><time>2026-03-22T19:12:43.999Z</time></trkpt><trkpt lat="42.321442352100014" lon="-7.881567184150701"><ele>156.0</ele><time>2026-03-22T19:12:44.999Z</time></trkpt><trkpt lat="42.32151906466789" lon="-7.881576518735704"><ele>156.0</ele><time>2026-03-22T19:12:45.999Z</time></trkpt><trkpt lat="42.3215949594342" lon="-7.8815873712437385"><ele>156.0</ele><time>2026-03-22T19:12:46.999Z</time></trkpt><trkpt lat="42.32167574461727" lon="-7.881602412717428"><ele>156.0</ele><time>2026-03-22T19:12:47.999Z</time></trkpt><trkpt lat="42.321756738183915" lon="-7.881611501495444"><ele>155.2857142857143</ele><time>2026-03-22T19:12:48.999Z</time></trkpt><trkpt lat="42.32183641516001" lon="-7.881622145446232"><ele>154.57142857142856</ele><time>2026-03-22T19:12:49.999Z</time></trkpt><trkpt lat="42.32191229364873" lon="-7.88163003203513"><ele>153.85714285714286</ele><time>2026-03-22T19:12:50.999Z</time></trkpt><trkpt lat="42.32198042358943" lon="-7.8816295586365825"><ele>153.14285714285717</ele><time>2026-03-22T19:12:52Z</time></trkpt><trkpt lat="42.322052889123704" lon="-7.881618673057428"><ele>152.42857142857144</ele><time>2026-03-22T19:12:53Z</time></trkpt><trkpt lat="42.32212053500085" lon="-7.881585878086986"><ele>151.71428571428572</ele><time>2026-03-22T19:12:54Z</time></trkpt><trkpt lat="42.32218416722723" lon="-7.881529512290642"><ele>151.0</ele><time>2026-03-22T19:12:55Z</time></trkpt><trkpt lat="42.322247567826025" lon="-7.881448687578197"><ele>150.66666666666669</ele><time>2026-03-22T19:12:56Z</time></trkpt><trkpt lat="42.32230580647424" lon="-7.881358874516905"><ele>150.33333333333334</ele><time>2026-03-22T19:12:57Z</time></trkpt><trkpt lat="42.32235300192007" lon="-7.881267426696979"><ele>150.0</ele><time>2026-03-22T19:12:58Z</time></trkpt><trkpt lat="42.32239694880488" lon="-7.881177785936968"><ele>149.66666666666666</ele><time>2026-03-22T19:12:59Z</time></trkpt><trkpt lat="42.32243910280495" lon="-7.881111073908046"><ele>149.33333333333331</ele><time>2026-03-22T19:13:00Z</time></trkpt><trkpt lat="42.32251121673201" lon="-7.880966737833476"><ele>149.0</ele><time>2026-03-22T19:13:02Z</time></trkpt><trkpt lat="42.322556561164895" lon="-7.88088377998759"><ele>148.0</ele><time>2026-03-22T19:13:03Z</time></trkpt><trkpt lat="42.32260538329312" lon="-7.880799129758786"><ele>147.0</ele><time>2026-03-22T19:13:04Z</time></trkpt><trkpt lat="42.32266005877457" lon="-7.880722489620858"><ele>146.0</ele><time>2026-03-22T19:13:05Z</time></trkpt><trkpt lat="42.32272278232376" lon="-7.88066269436606"><ele>145.0</ele><time>2026-03-22T19:13:06Z</time></trkpt><trkpt lat="42.32279155665324" lon="-7.880622664424931"><ele>144.0</ele><time>2026-03-22T19:13:07Z</time></trkpt><trkpt lat="42.32286460241682" lon="-7.880588729966692"><ele>143.0</ele><time>2026-03-22T19:13:08Z</time></trkpt><trkpt lat="42.322935850364054" lon="-7.880566133751467"><ele>143.0</ele><time>2026-03-22T19:13:09Z</time></trkpt><trkpt lat="42.32300586643085" lon="-7.880558601754502"><ele>143.0</ele><time>2026-03-22T19:13:10Z</time></trkpt><trkpt lat="42.32307939885702" lon="-7.880541981312704"><ele>143.0</ele><time>2026-03-22T19:13:11Z</time></trkpt><trkpt lat="42.32315914801352" lon="-7.880527316343938"><ele>143.0</ele><time>2026-03-22T19:13:12Z</time></trkpt><trkpt lat="42.32323937217522" lon="-7.880511456857979"><ele>143.0</ele><time>2026-03-22T19:13:13Z</time></trkpt><trkpt lat="42.32331494971761" lon="-7.880491537007043"><ele>143.0</ele><time>2026-03-22T19:13:14Z</time></trkpt><trkpt lat="42.32339122667566" lon="-7.880468362454359"><ele>143.16666666666666</ele><time>2026-03-22T19:13:15Z</time></trkpt><trkpt lat="42.32348628718319" lon="-7.88046172413002"><ele>143.33333333333331</ele><time>2026-03-22T19:13:17Z</time></trkpt><trkpt lat="42.3235927691771" lon="-7.880469846719523"><ele>143.5</ele><time>2026-03-22T19:13:19Z</time></trkpt><trkpt lat="42.323666078422704" lon="-7.880485133792287"><ele>143.66666666666666</ele><time>2026-03-22T19:13:20Z</time></trkpt><trkpt lat="42.32375164381253" lon="-7.880504037010098"><ele>143.83333333333334</ele><time>2026-03-22T19:13:21Z</time></trkpt><trkpt lat="42.32383738282932" lon="-7.880520055649566"><ele>144.0</ele><time>2026-03-22T19:13:22Z</time></trkpt><trkpt lat="42.32393774268435" lon="-7.880544771666812"><ele>143.4</ele><time>2026-03-22T19:13:23Z</time></trkpt><trkpt lat="42.32403351056297" lon="-7.8805454760296705"><ele>142.8</ele><time>2026-03-22T19:13:24Z</time></trkpt><trkpt lat="42.32413002038154" lon="-7.880540332675715"><ele>142.2</ele><time>2026-03-22T19:13:25Z</time></trkpt><trkpt lat="42.3242431914126" lon="-7.880507784509302"><ele>141.6</ele><time>2026-03-22T19:13:26Z</time></trkpt><trkpt lat="42.32434362544241" lon="-7.880477126545996"><ele>141.0</ele><time>2026-03-22T19:13:27Z</time></trkpt><trkpt lat="42.32442303179636" lon="-7.880425221175343"><ele>141.0</ele><time>2026-03-22T19:13:28Z</time></trkpt><trkpt lat="42.32448092041098" lon="-7.880383274023222"><ele>141.0</ele><time>2026-03-22T19:13:29Z</time></trkpt><trkpt lat="42.32454318804564" lon="-7.880306412420744"><ele>141.0</ele><time>2026-03-22T19:13:31Z</time></trkpt><trkpt lat="42.324608343042144" lon="-7.880172859270989"><ele>141.0</ele><time>2026-03-22T19:13:38Z</time></trkpt><trkpt lat="42.32462898408605" lon="-7.880074357101355"><ele>141.0</ele><time>2026-03-22T19:13:39Z</time></trkpt><trkpt lat="42.32461744424566" lon="-7.879952554465499"><ele>141.0</ele><time>2026-03-22T19:13:40Z</time></trkpt><trkpt lat="42.324618810008516" lon="-7.879855589680901"><ele>141.33333333333334</ele><time>2026-03-22T19:13:41Z</time></trkpt><trkpt lat="42.32464944275786" lon="-7.879779043521013"><ele>141.66666666666666</ele><time>2026-03-22T19:13:42Z</time></trkpt><trkpt lat="42.324705450501504" lon="-7.879717872978637"><ele>142.0</ele><time>2026-03-22T19:13:43Z</time></trkpt><trkpt lat="42.32478109624832" lon="-7.879682799723868"><ele>142.33333333333331</ele><time>2026-03-22T19:13:44Z</time></trkpt><trkpt lat="42.324865013742546" lon="-7.879657818042013"><ele>142.66666666666666</ele><time>2026-03-22T19:13:45Z</time></trkpt><trkpt lat="42.32494476921281" lon="-7.879630543017047"><ele>143.0</ele><time>2026-03-22T19:13:46Z</time></trkpt><trkpt lat="42.325020078151184" lon="-7.879582307965094"><ele>142.99999999999997</ele><time>2026-03-22T19:13:47Z</time></trkpt><trkpt lat="42.32509389500136" lon="-7.879523111731232"><ele>143.0</ele><time>2026-03-22T19:13:48Z</time></trkpt><trkpt lat="42.325150684074934" lon="-7.879458803465821"><ele>143.0</ele><time>2026-03-22T19:13:49Z</time></trkpt><trkpt lat="42.32520546344356" lon="-7.879387177503743"><ele>143.0</ele><time>2026-03-22T19:13:50Z</time></trkpt><trkpt lat="42.325252984316435" lon="-7.879315113274216"><ele>143.0</ele><time>2026-03-22T19:13:51Z</time></trkpt><trkpt lat="42.32528845811417" lon="-7.879242935601032"><ele>142.99999999999997</ele><time>2026-03-22T19:13:52Z</time></trkpt><trkpt lat="42.32532493158122" lon="-7.879166212717718"><ele>143.0</ele><time>2026-03-22T19:13:53Z</time></trkpt><trkpt lat="42.32535959918843" lon="-7.879093676220003"><ele>143.4</ele><time>2026-03-22T19:13:54Z</time></trkpt><trkpt lat="42.32541982132279" lon="-7.878991784390924"><ele>143.8</ele><time>2026-03-22T19:13:56Z</time></trkpt><trkpt lat="42.32548827024914" lon="-7.8789175168015495"><ele>144.2</ele><time>2026-03-22T19:13:58Z</time></trkpt><trkpt lat="42.32555497188963" lon="-7.878845101782739"><ele>144.6</ele><time>2026-03-22T19:14:10.999Z</time></trkpt><trkpt lat="42.32559828169149" lon="-7.878714386951003"><ele>145.0</ele><time>2026-03-22T19:14:12.999Z</time></trkpt><trkpt lat="42.325645275729585" lon="-7.878608106289248"><ele>145.0</ele><time>2026-03-22T19:14:14.999Z</time></trkpt><trkpt lat="42.32568731979774" lon="-7.878478211069014"><ele>145.0</ele><time>2026-03-22T19:14:16.999Z</time></trkpt><trkpt lat="42.32575351100576" lon="-7.8783586513593615"><ele>145.0</ele><time>2026-03-22T19:14:18.999Z</time></trkpt><trkpt lat="42.325805565036696" lon="-7.8782182017725875"><ele>145.0</ele><time>2026-03-22T19:14:20.999Z</time></trkpt><trkpt lat="42.325859894571195" lon="-7.878085330506583"><ele>145.0</ele><time>2026-03-22T19:14:22.999Z</time></trkpt><trkpt lat="42.32591393915859" lon="-7.877963441595591"><ele>144.5</ele><time>2026-03-22T19:14:24.999Z</time></trkpt><trkpt lat="42.32593891080727" lon="-7.8778717055762435"><ele>144.0</ele><time>2026-03-22T19:14:26.999Z</time></trkpt><trkpt lat="42.32594097042316" lon="-7.877743728331598"><ele>143.5</ele><time>2026-03-22T19:14:28.999Z</time></trkpt><trkpt lat="42.32588900576329" lon="-7.877628213323979"><ele>143.0</ele><time>2026-03-22T19:14:30.999Z</time></trkpt><trkpt lat="42.32582727869954" lon="-7.877564543931115"><ele>142.5</ele><time>2026-03-22T19:14:32.999Z</time></trkpt><trkpt lat="42.32575578999057" lon="-7.877551209806385"><ele>142.0</ele><time>2026-03-22T19:14:35.999Z</time></trkpt><trkpt lat="42.325651148292174" lon="-7.877576096180793"><ele>142.0</ele><time>2026-03-22T19:14:37.999Z</time></trkpt><trkpt lat="42.32559948407092" lon="-7.877627756923639"><ele>142.0</ele><time>2026-03-22T19:14:38.999Z</time></trkpt><trkpt lat="42.325514707518956" lon="-7.87774289124688"><ele>142.0</ele><time>2026-03-22T19:14:40.999Z</time></trkpt><trkpt lat="42.32545607021514" lon="-7.877828047567253"><ele>142.0</ele><time>2026-03-22T19:14:41.999Z</time></trkpt><trkpt lat="42.325388153528415" lon="-7.877927100840842"><ele>142.0</ele><time>2026-03-22T19:14:42.999Z</time></trkpt><trkpt lat="42.32532501278524" lon="-7.878018553783127"><ele>141.5</ele><time>2026-03-22T19:14:43.999Z</time></trkpt><trkpt lat="42.325269071688815" lon="-7.878103922616174"><ele>141.0</ele><time>2026-03-22T19:14:44.999Z</time></trkpt><trkpt lat="42.32521977233534" lon="-7.878189785467957"><ele>140.5</ele><time>2026-03-22T19:14:45.999Z</time></trkpt><trkpt lat="42.325193609172146" lon="-7.878295352134763"><ele>140.0</ele><time>2026-03-22T19:14:46.999Z</time></trkpt><trkpt lat="42.32516873215787" lon="-7.878401049413222"><ele>139.5</ele><time>2026-03-22T19:14:47.999Z</time></trkpt><trkpt lat="42.32520265294417" lon="-7.878511372708276"><ele>139.0</ele><time>2026-03-22T19:14:48.999Z</time></trkpt><trkpt lat="42.32523071705087" lon="-7.87864087885188"><ele>139.0</ele><time>2026-03-22T19:14:49.999Z</time></trkpt><trkpt lat="42.32527495738398" lon="-7.878756372491056"><ele>139.0</ele><time>2026-03-22T19:14:50.999Z</time></trkpt><trkpt lat="42.325409159744154" lon="-7.8788019879053905"><ele>139.0</ele><time>2026-03-22T19:14:51.999Z</time></trkpt><trkpt lat="42.325487073996925" lon="-7.878891838546895"><ele>139.0</ele><time>2026-03-22T19:14:52.999Z</time></trkpt><trkpt lat="42.32557815864833" lon="-7.878995317375801"><ele>140.5</ele><time>2026-03-22T19:14:53.999Z</time></trkpt><trkpt lat="42.32566618357548" lon="-7.879107687651883"><ele>142.0</ele><time>2026-03-22T19:14:54.999Z</time></trkpt><trkpt lat="42.32575599877701" lon="-7.879196988628078"><ele>143.5</ele><time>2026-03-22T19:14:55.999Z</time></trkpt><trkpt lat="42.32586678728256" lon="-7.879292646135028"><ele>145.0</ele><time>2026-03-22T19:14:56.999Z</time></trkpt><trkpt lat="42.32598335955552" lon="-7.879389689723359"><ele>146.25</ele><time>2026-03-22T19:14:58Z</time></trkpt><trkpt lat="42.326094424759006" lon="-7.879471461395864"><ele>147.5</ele><time>2026-03-22T19:14:59Z</time></trkpt><trkpt lat="42.32618862503063" lon="-7.879524334602048"><ele>148.75</ele><time>2026-03-22T19:15:00Z</time></trkpt><trkpt lat="42.326292027192025" lon="-7.879566428891173"><ele>150.0</ele><time>2026-03-22T19:15:01Z</time></trkpt><trkpt lat="42.32640619878251" lon="-7.879601765120151"><ele>151.0</ele><time>2026-03-22T19:15:02Z</time></trkpt><trkpt lat="42.326525898582545" lon="-7.879634534700721"><ele>152.0</ele><time>2026-03-22T19:15:03Z</time></trkpt><trkpt lat="42.32663751278533" lon="-7.87966021111922"><ele>153.0</ele><time>2026-03-22T19:15:04Z</time></trkpt><trkpt lat="42.32674875213795" lon="-7.879676931494951"><ele>154.0</ele><time>2026-03-22T19:15:05Z</time></trkpt><trkpt lat="42.326862786589295" lon="-7.879681790225998"><ele>154.0</ele><time>2026-03-22T19:15:06Z</time></trkpt><trkpt lat="42.326994052949615" lon="-7.879680829327848"><ele>154.0</ele><time>2026-03-22T19:15:07Z</time></trkpt><trkpt lat="42.327123099567764" lon="-7.879677711402917"><ele>154.0</ele><time>2026-03-22T19:15:08Z</time></trkpt><trkpt lat="42.327256453547406" lon="-7.87966762885687"><ele>154.0</ele><time>2026-03-22T19:15:09Z</time></trkpt><trkpt lat="42.32738214230761" lon="-7.879640640234151"><ele>156.5</ele><time>2026-03-22T19:15:10Z</time></trkpt><trkpt lat="42.32751028928538" lon="-7.879606261764943"><ele>159.0</ele><time>2026-03-22T19:15:11Z</time></trkpt><trkpt lat="42.327643031068405" lon="-7.879562206720242"><ele>161.5</ele><time>2026-03-22T19:15:12Z</time></trkpt><trkpt lat="42.32778249336186" lon="-7.879502889171207"><ele>164.0</ele><time>2026-03-22T19:15:13Z</time></trkpt><trkpt lat="42.32792219557697" lon="-7.879431545195351"><ele>164.0</ele><time>2026-03-22T19:15:14Z</time></trkpt><trkpt lat="42.32804889721877" lon="-7.879356191095887"><ele>164.0</ele><time>2026-03-22T19:15:15Z</time></trkpt><trkpt lat="42.32817474272229" lon="-7.87926601664076"><ele>164.0</ele><time>2026-03-22T19:15:16Z</time></trkpt><trkpt lat="42.32829364611763" lon="-7.879177660994727"><ele>164.0</ele><time>2026-03-22T19:15:17Z</time></trkpt><trkpt lat="42.32840687005462" lon="-7.879091905367664"><ele>165.0</ele><time>2026-03-22T19:15:18Z</time></trkpt><trkpt lat="42.3285109468524" lon="-7.879006299132081"><ele>166.0</ele><time>2026-03-22T19:15:19Z</time></trkpt><trkpt lat="42.32862990516278" lon="-7.878917061519906"><ele>167.0</ele><time>2026-03-22T19:15:20Z</time></trkpt><trkpt lat="42.328757097781754" lon="-7.878823850359627"><ele>168.0</ele><time>2026-03-22T19:15:21Z</time></trkpt><trkpt lat="42.32888589702407" lon="-7.878716644900776"><ele>170.33333333333334</ele><time>2026-03-22T19:15:22Z</time></trkpt><trkpt lat="42.32901494735198" lon="-7.878616987063991"><ele>172.66666666666669</ele><time>2026-03-22T19:15:23Z</time></trkpt><trkpt lat="42.32914729280338" lon="-7.878504242655949"><ele>175.0</ele><time>2026-03-22T19:15:24Z</time></trkpt><trkpt lat="42.32929643646746" lon="-7.878425949983175"><ele>175.0</ele><time>2026-03-22T19:15:25Z</time></trkpt><trkpt lat="42.32943766805641" lon="-7.878344205564633"><ele>175.0</ele><time>2026-03-22T19:15:26Z</time></trkpt><trkpt lat="42.32957507534369" lon="-7.878276526013462"><ele>175.0</ele><time>2026-03-22T19:15:27Z</time></trkpt><trkpt lat="42.329718231392434" lon="-7.8782174795679065"><ele>175.0</ele><time>2026-03-22T19:15:28Z</time></trkpt><trkpt lat="42.32985871443996" lon="-7.87815923803715"><ele>178.0</ele><time>2026-03-22T19:15:29Z</time></trkpt><trkpt lat="42.3300041183055" lon="-7.878112940319185"><ele>181.0</ele><time>2026-03-22T19:15:30Z</time></trkpt><trkpt lat="42.330153494710146" lon="-7.8780798180024005"><ele>184.0</ele><time>2026-03-22T19:15:31Z</time></trkpt><trkpt lat="42.3303118755983" lon="-7.878052538599801"><ele>184.0</ele><time>2026-03-22T19:15:32Z</time></trkpt><trkpt lat="42.33047349159865" lon="-7.878026018631613"><ele>184.0</ele><time>2026-03-22T19:15:33Z</time></trkpt><trkpt lat="42.33061669886304" lon="-7.878009102195515"><ele>184.0</ele><time>2026-03-22T19:15:34Z</time></trkpt><trkpt lat="42.33076649245798" lon="-7.878001929683271"><ele>184.0</ele><time>2026-03-22T19:15:35Z</time></trkpt><trkpt lat="42.33091250549211" lon="-7.878009797893165"><ele>184.0</ele><time>2026-03-22T19:15:36Z</time></trkpt><trkpt lat="42.331063442978" lon="-7.878026184779629"><ele>184.0</ele><time>2026-03-22T19:15:37Z</time></trkpt><trkpt lat="42.331214042885364" lon="-7.87805100061097"><ele>184.0</ele><time>2026-03-22T19:15:38Z</time></trkpt><trkpt lat="42.33136708778509" lon="-7.8780867660557545"><ele>183.0</ele><time>2026-03-22T19:15:39Z</time></trkpt><trkpt lat="42.331516677799" lon="-7.8781303034460075"><ele>182.0</ele><time>2026-03-22T19:15:40Z</time></trkpt><trkpt lat="42.33166519129391" lon="-7.878182553233906"><ele>181.0</ele><time>2026-03-22T19:15:41Z</time></trkpt><trkpt lat="42.33181641456774" lon="-7.8782407519092725"><ele>181.0</ele><time>2026-03-22T19:15:42Z</time></trkpt><trkpt lat="42.33196922544154" lon="-7.8783087860790015"><ele>181.0</ele><time>2026-03-22T19:15:43Z</time></trkpt><trkpt lat="42.33211348903038" lon="-7.878380359424559"><ele>181.0</ele><time>2026-03-22T19:15:44Z</time></trkpt><trkpt lat="42.33225566966776" lon="-7.878469913939245"><ele>177.33333333333334</ele><time>2026-03-22T19:15:45Z</time></trkpt><trkpt lat="42.332394694700476" lon="-7.8785658423477924"><ele>173.66666666666666</ele><time>2026-03-22T19:15:46Z</time></trkpt><trkpt lat="42.33253184539289" lon="-7.8786676460805545"><ele>170.0</ele><time>2026-03-22T19:15:47Z</time></trkpt><trkpt lat="42.33266103561418" lon="-7.878754097189417"><ele>170.0</ele><time>2026-03-22T19:15:48Z</time></trkpt><trkpt lat="42.332789035503865" lon="-7.87885779897298"><ele>170.0</ele><time>2026-03-22T19:15:49Z</time></trkpt><trkpt lat="42.332914086787085" lon="-7.878965103902609"><ele>170.0</ele><time>2026-03-22T19:15:50Z</time></trkpt><trkpt lat="42.333037752179166" lon="-7.879073328195644"><ele>170.0</ele><time>2026-03-22T19:15:51Z</time></trkpt><trkpt lat="42.33316188368563" lon="-7.8791777987710825"><ele>165.25</ele><time>2026-03-22T19:15:52Z</time></trkpt><trkpt lat="42.33328310342916" lon="-7.879277408025381"><ele>160.5</ele><time>2026-03-22T19:15:53Z</time></trkpt><trkpt lat="42.33340721999169" lon="-7.87937719649375"><ele>155.75</ele><time>2026-03-22T19:15:54Z</time></trkpt><trkpt lat="42.33353168563992" lon="-7.879480116325267"><ele>151.0</ele><time>2026-03-22T19:15:55Z</time></trkpt><trkpt lat="42.33365607715403" lon="-7.879579486813492"><ele>151.0</ele><time>2026-03-22T19:15:56Z</time></trkpt><trkpt lat="42.33378288085546" lon="-7.879677340282383"><ele>151.0</ele><time>2026-03-22T19:15:57Z</time></trkpt><trkpt lat="42.33391078750209" lon="-7.879770307754273"><ele>151.0</ele><time>2026-03-22T19:15:58Z</time></trkpt><trkpt lat="42.334043681940216" lon="-7.879850944704898"><ele>151.0</ele><time>2026-03-22T19:15:59Z</time></trkpt><trkpt lat="42.33417665499986" lon="-7.87992829791211"><ele>151.25</ele><time>2026-03-22T19:16:00Z</time></trkpt><trkpt lat="42.334312355149656" lon="-7.879984160753228"><ele>151.5</ele><time>2026-03-22T19:16:00.999Z</time></trkpt><trkpt lat="42.33445222590763" lon="-7.880033101091217"><ele>151.75</ele><time>2026-03-22T19:16:01.999Z</time></trkpt><trkpt lat="42.334592877042745" lon="-7.880075874891348"><ele>152.0</ele><time>2026-03-22T19:16:02.999Z</time></trkpt><trkpt lat="42.3347337638128" lon="-7.8801123806459605"><ele>149.25</ele><time>2026-03-22T19:16:03.999Z</time></trkpt><trkpt lat="42.33487601190793" lon="-7.880132741890472"><ele>146.5</ele><time>2026-03-22T19:16:04.999Z</time></trkpt><trkpt lat="42.335024891209265" lon="-7.880143582847572"><ele>143.75</ele><time>2026-03-22T19:16:05.999Z</time></trkpt><trkpt lat="42.335166114823" lon="-7.8801422048330885"><ele>141.0</ele><time>2026-03-22T19:16:06.999Z</time></trkpt><trkpt lat="42.335315373033474" lon="-7.880129254682285"><ele>141.0</ele><time>2026-03-22T19:16:07.999Z</time></trkpt><trkpt lat="42.335465472016985" lon="-7.880106341726606"><ele>141.0</ele><time>2026-03-22T19:16:08.999Z</time></trkpt><trkpt lat="42.33561286181154" lon="-7.8800711297309745"><ele>141.0</ele><time>2026-03-22T19:16:09.999Z</time></trkpt><trkpt lat="42.33576449303096" lon="-7.880024810097001"><ele>141.0</ele><time>2026-03-22T19:16:10.999Z</time></trkpt><trkpt lat="42.33591150032167" lon="-7.879957910224583"><ele>141.0</ele><time>2026-03-22T19:16:11.999Z</time></trkpt><trkpt lat="42.33605601861962" lon="-7.879884167383551"><ele>141.0</ele><time>2026-03-22T19:16:12.999Z</time></trkpt><trkpt lat="42.33621308176712" lon="-7.879799042551906"><ele>141.0</ele><time>2026-03-22T19:16:13.999Z</time></trkpt><trkpt lat="42.336372982160334" lon="-7.87969345377337"><ele>141.0</ele><time>2026-03-22T19:16:14.999Z</time></trkpt><trkpt lat="42.33653335002928" lon="-7.879574997131571"><ele>141.0</ele><time>2026-03-22T19:16:15.999Z</time></trkpt><trkpt lat="42.33668886996853" lon="-7.879449820442079"><ele>139.33333333333334</ele><time>2026-03-22T19:16:16.999Z</time></trkpt><trkpt lat="42.33683394550681" lon="-7.8793273261369725"><ele>137.66666666666669</ele><time>2026-03-22T19:16:17.999Z</time></trkpt><trkpt lat="42.33697071299856" lon="-7.879214110694328"><ele>136.0</ele><time>2026-03-22T19:16:18.999Z</time></trkpt><trkpt lat="42.33710773719055" lon="-7.87910407911744"><ele>133.0</ele><time>2026-03-22T19:16:19.999Z</time></trkpt><trkpt lat="42.337248313372406" lon="-7.878988010778998"><ele>130.0</ele><time>2026-03-22T19:16:20.999Z</time></trkpt><trkpt lat="42.33740535809156" lon="-7.878871750189452"><ele>127.0</ele><time>2026-03-22T19:16:21.999Z</time></trkpt><trkpt lat="42.337564590480845" lon="-7.87875383608871"><ele>127.0</ele><time>2026-03-22T19:16:22.999Z</time></trkpt><trkpt lat="42.337718758921355" lon="-7.878647565601577"><ele>127.0</ele><time>2026-03-22T19:16:23.999Z</time></trkpt><trkpt lat="42.33787311458171" lon="-7.878550467881279"><ele>127.0</ele><time>2026-03-22T19:16:24.999Z</time></trkpt><trkpt lat="42.33803315202446" lon="-7.878460411714826"><ele>128.0</ele><time>2026-03-22T19:16:25.999Z</time></trkpt><trkpt lat="42.338213401714505" lon="-7.878365254259846"><ele>129.0</ele><time>2026-03-22T19:16:26.999Z</time></trkpt><trkpt lat="42.338383678195" lon="-7.878286900278114"><ele>130.0</ele><time>2026-03-22T19:16:27.999Z</time></trkpt><trkpt lat="42.338548593539606" lon="-7.878224497666655"><ele>130.0</ele><time>2026-03-22T19:16:28.999Z</time></trkpt><trkpt lat="42.33870979776123" lon="-7.878173376755937"><ele>130.0</ele><time>2026-03-22T19:16:29.999Z</time></trkpt><trkpt lat="42.33887643345015" lon="-7.8781302738309975"><ele>130.0</ele><time>2026-03-22T19:16:30.999Z</time></trkpt><trkpt lat="42.33904358205902" lon="-7.878092803904126"><ele>127.33333333333334</ele><time>2026-03-22T19:16:31.999Z</time></trkpt><trkpt lat="42.33921715138252" lon="-7.8780636813126845"><ele>124.66666666666666</ele><time>2026-03-22T19:16:32.999Z</time></trkpt><trkpt lat="42.33939119498647" lon="-7.878038842596378"><ele>122.0</ele><time>2026-03-22T19:16:33.999Z</time></trkpt><trkpt lat="42.33956557198095" lon="-7.878020860434707"><ele>121.0</ele><time>2026-03-22T19:16:34.999Z</time></trkpt><trkpt lat="42.339748228562804" lon="-7.877991985501748"><ele>120.0</ele><time>2026-03-22T19:16:35.999Z</time></trkpt><trkpt lat="42.3399243070666" lon="-7.877978445288254"><ele>119.0</ele><time>2026-03-22T19:16:36.999Z</time></trkpt><trkpt lat="42.340100015954896" lon="-7.877959691917137"><ele>119.0</ele><time>2026-03-22T19:16:37.999Z</time></trkpt><trkpt lat="42.34026451245239" lon="-7.87793833149785"><ele>119.0</ele><time>2026-03-22T19:16:38.999Z</time></trkpt><trkpt lat="42.3404243272038" lon="-7.8779167213945"><ele>119.0</ele><time>2026-03-22T19:16:39.999Z</time></trkpt><trkpt lat="42.34058781934521" lon="-7.877893669243915"><ele>118.0</ele><time>2026-03-22T19:16:40.999Z</time></trkpt><trkpt lat="42.340743294200855" lon="-7.87786713139623"><ele>117.0</ele><time>2026-03-22T19:16:41.999Z</time></trkpt><trkpt lat="42.34091244562675" lon="-7.877835225077847"><ele>116.0</ele><time>2026-03-22T19:16:42.999Z</time></trkpt><trkpt lat="42.34108129063866" lon="-7.8777922373575615"><ele>116.0</ele><time>2026-03-22T19:16:43.999Z</time></trkpt><trkpt lat="42.34126032825818" lon="-7.877738581439594"><ele>116.0</ele><time>2026-03-22T19:16:44.999Z</time></trkpt><trkpt lat="42.34144738521159" lon="-7.877675531265134"><ele>116.0</ele><time>2026-03-22T19:16:45.999Z</time></trkpt><trkpt lat="42.34163856651994" lon="-7.877593832209508"><ele>115.66666666666666</ele><time>2026-03-22T19:16:46.999Z</time></trkpt><trkpt lat="42.34183324055225" lon="-7.877495938262986"><ele>115.33333333333334</ele><time>2026-03-22T19:16:47.999Z</time></trkpt><trkpt lat="42.3420300881527" lon="-7.877385333434128"><ele>115.0</ele><time>2026-03-22T19:16:48.999Z</time></trkpt><trkpt lat="42.34223024214782" lon="-7.877257170647736"><ele>115.0</ele><time>2026-03-22T19:16:49.999Z</time></trkpt><trkpt lat="42.34242795337833" lon="-7.877109817608408"><ele>115.0</ele><time>2026-03-22T19:16:50.999Z</time></trkpt><trkpt lat="42.342632214518" lon="-7.876946318240819"><ele>115.0</ele><time>2026-03-22T19:16:51.999Z</time></trkpt><trkpt lat="42.342826687443264" lon="-7.876793990821881"><ele>115.0</ele><time>2026-03-22T19:16:52.999Z</time></trkpt><trkpt lat="42.343021498683775" lon="-7.876635215446593"><ele>115.5</ele><time>2026-03-22T19:16:53.999Z</time></trkpt><trkpt lat="42.34322445871971" lon="-7.876474016609935"><ele>116.0</ele><time>2026-03-22T19:16:54.999Z</time></trkpt><trkpt lat="42.343476016516334" lon="-7.876484247392867"><ele>116.0</ele><time>2026-03-22T19:16:55.999Z</time></trkpt><trkpt lat="42.34366097771852" lon="-7.876338362364204"><ele>116.0</ele><time>2026-03-22T19:16:56.999Z</time></trkpt><trkpt lat="42.34383279991088" lon="-7.876259303076339"><ele>116.0</ele><time>2026-03-22T19:16:57.999Z</time></trkpt><trkpt lat="42.34400525234617" lon="-7.876198720388445"><ele>113.66666666666666</ele><time>2026-03-22T19:16:58.999Z</time></trkpt><trkpt lat="42.34417834333072" lon="-7.876141685652409"><ele>111.33333333333334</ele><time>2026-03-22T19:16:59.999Z</time></trkpt><trkpt lat="42.344337622488794" lon="-7.876087451940631"><ele>109.0</ele><time>2026-03-22T19:17:00.999Z</time></trkpt><trkpt lat="42.34449089792659" lon="-7.876000564346029"><ele>109.0</ele><time>2026-03-22T19:17:01.999Z</time></trkpt><trkpt lat="42.34465090918103" lon="-7.875947036857178"><ele>109.0</ele><time>2026-03-22T19:17:02.999Z</time></trkpt><trkpt lat="42.34481933169026" lon="-7.875892173437527"><ele>109.0</ele><time>2026-03-22T19:17:04Z</time></trkpt><trkpt lat="42.344989311817805" lon="-7.875835864563437"><ele>106.66666666666667</ele><time>2026-03-22T19:17:05Z</time></trkpt><trkpt lat="42.3451633856395" lon="-7.875777016697769"><ele>104.33333333333334</ele><time>2026-03-22T19:17:06Z</time></trkpt><trkpt lat="42.34534318719776" lon="-7.875738550428202"><ele>102.0</ele><time>2026-03-22T19:17:07Z</time></trkpt><trkpt lat="42.34551992162063" lon="-7.875673151770386"><ele>100.66666666666666</ele><time>2026-03-22T19:17:08Z</time></trkpt><trkpt lat="42.345700022193306" lon="-7.875612515842295"><ele>99.33333333333333</ele><time>2026-03-22T19:17:09Z</time></trkpt><trkpt lat="42.34586943782829" lon="-7.8755472441318695"><ele>98.0</ele><time>2026-03-22T19:17:10Z</time></trkpt><trkpt lat="42.34602286774912" lon="-7.875495216386587"><ele>98.0</ele><time>2026-03-22T19:17:11Z</time></trkpt><trkpt lat="42.346172075730145" lon="-7.875444522671565"><ele>98.0</ele><time>2026-03-22T19:17:12Z</time></trkpt><trkpt lat="42.346309215439085" lon="-7.875395466529111"><ele>98.0</ele><time>2026-03-22T19:17:13Z</time></trkpt><trkpt lat="42.346431744049674" lon="-7.875347485280279"><ele>98.0</ele><time>2026-03-22T19:17:14Z</time></trkpt><trkpt lat="42.346525760130405" lon="-7.875316343753413"><ele>99.99999999999999</ele><time>2026-03-22T19:17:15Z</time></trkpt><trkpt lat="42.34660553566762" lon="-7.875276014621751"><ele>102.0</ele><time>2026-03-22T19:17:16Z</time></trkpt><trkpt lat="42.346667835208216" lon="-7.875261614245118"><ele>104.0</ele><time>2026-03-22T19:17:18Z</time></trkpt><trkpt lat="42.34673874290225" lon="-7.875243444597662"><ele>106.0</ele><time>2026-03-22T19:17:20Z</time></trkpt><trkpt lat="42.34685207149675" lon="-7.875206396475047"><ele>107.99999999999999</ele><time>2026-03-22T19:17:22Z</time></trkpt><trkpt lat="42.34691720183007" lon="-7.875110851064288"><ele>110.0</ele><time>2026-03-22T19:17:24Z</time></trkpt><trkpt lat="42.34698754056443" lon="-7.875076423306667"><ele>109.99999999999999</ele><time>2026-03-22T19:17:25Z</time></trkpt><trkpt lat="42.34705905645323" lon="-7.875096552599615"><ele>110.0</ele><time>2026-03-22T19:17:26Z</time></trkpt><trkpt lat="42.34711932916474" lon="-7.875181819414747"><ele>110.0</ele><time>2026-03-22T19:17:27Z</time></trkpt><trkpt lat="42.34715493309124" lon="-7.8752904617274835"><ele>110.0</ele><time>2026-03-22T19:17:28Z</time></trkpt><trkpt lat="42.34720305890656" lon="-7.875372578001373"><ele>109.99999999999999</ele><time>2026-03-22T19:17:29Z</time></trkpt><trkpt lat="42.34728664783894" lon="-7.875453569530487"><ele>110.0</ele><time>2026-03-22T19:17:30Z</time></trkpt><trkpt lat="42.34736895447996" lon="-7.875563414717797"><ele>109.6</ele><time>2026-03-22T19:17:31Z</time></trkpt><trkpt lat="42.34746549144176" lon="-7.875647847688217"><ele>109.2</ele><time>2026-03-22T19:17:32Z</time></trkpt><trkpt lat="42.34755194899335" lon="-7.875749659984699"><ele>108.80000000000001</ele><time>2026-03-22T19:17:33Z</time></trkpt><trkpt lat="42.34762909777196" lon="-7.875839354746371"><ele>108.4</ele><time>2026-03-22T19:17:34Z</time></trkpt><trkpt lat="42.34769802394351" lon="-7.875917846641808"><ele>108.0</ele><time>2026-03-22T19:17:35Z</time></trkpt><trkpt lat="42.34776600087483" lon="-7.875995049078182"><ele>108.0</ele><time>2026-03-22T19:17:36Z</time></trkpt><trkpt lat="42.347847568599285" lon="-7.876084752474494"><ele>108.00000000000001</ele><time>2026-03-22T19:17:37Z</time></trkpt><trkpt lat="42.34790242454791" lon="-7.876154199186002"><ele>108.00000000000001</ele><time>2026-03-22T19:17:38Z</time></trkpt><trkpt lat="42.34799438653101" lon="-7.876241957080746"><ele>108.0</ele><time>2026-03-22T19:17:39Z</time></trkpt><trkpt lat="42.348068002146356" lon="-7.876326247042862"><ele>108.0</ele><time>2026-03-22T19:17:40Z</time></trkpt><trkpt lat="42.34814405427618" lon="-7.876412249682226"><ele>108.83333333333333</ele><time>2026-03-22T19:17:41Z</time></trkpt><trkpt lat="42.34821405672116" lon="-7.876486171419706"><ele>109.66666666666666</ele><time>2026-03-22T19:17:42Z</time></trkpt><trkpt lat="42.348271994275535" lon="-7.876552906107693"><ele>110.5</ele><time>2026-03-22T19:17:43Z</time></trkpt><trkpt lat="42.34833731926619" lon="-7.876621365402929"><ele>111.33333333333333</ele><time>2026-03-22T19:17:44Z</time></trkpt><trkpt lat="42.34840663610962" lon="-7.876696588333849"><ele>112.16666666666666</ele><time>2026-03-22T19:17:45Z</time></trkpt><trkpt lat="42.34846903478399" lon="-7.876763110283116"><ele>113.0</ele><time>2026-03-22T19:17:46Z</time></trkpt><trkpt lat="42.34853286193064" lon="-7.876830570978324"><ele>113.0</ele><time>2026-03-22T19:17:47Z</time></trkpt><trkpt lat="42.3486019427434" lon="-7.876900182877903"><ele>113.00000000000001</ele><time>2026-03-22T19:17:48Z</time></trkpt><trkpt lat="42.348671658367344" lon="-7.87697935129386"><ele>113.00000000000001</ele><time>2026-03-22T19:17:49Z</time></trkpt><trkpt lat="42.348752886586944" lon="-7.877061654135148"><ele>113.0</ele><time>2026-03-22T19:17:50Z</time></trkpt><trkpt lat="42.348845288979405" lon="-7.877150734465324"><ele>113.0</ele><time>2026-03-22T19:17:51Z</time></trkpt><trkpt lat="42.348952641502066" lon="-7.877237823741622"><ele>112.25</ele><time>2026-03-22T19:17:52Z</time></trkpt><trkpt lat="42.34906580086762" lon="-7.877342820237534"><ele>111.5</ele><time>2026-03-22T19:17:53Z</time></trkpt><trkpt lat="42.34918371263899" lon="-7.877455934873972"><ele>110.75</ele><time>2026-03-22T19:17:54Z</time></trkpt><trkpt lat="42.3493140917033" lon="-7.877575459323978"><ele>110.0</ele><time>2026-03-22T19:17:55Z</time></trkpt><trkpt lat="42.349451946802326" lon="-7.877677971073406"><ele>110.0</ele><time>2026-03-22T19:17:56Z</time></trkpt><trkpt lat="42.34960174400089" lon="-7.877759769378621"><ele>110.0</ele><time>2026-03-22T19:17:56.999Z</time></trkpt><trkpt lat="42.34976291739372" lon="-7.877824193065317"><ele>110.0</ele><time>2026-03-22T19:17:57.999Z</time></trkpt><trkpt lat="42.34992768492088" lon="-7.877872320954168"><ele>111.0</ele><time>2026-03-22T19:17:58.999Z</time></trkpt><trkpt lat="42.35010157741438" lon="-7.877912856976978"><ele>112.0</ele><time>2026-03-22T19:17:59.999Z</time></trkpt><trkpt lat="42.350283775158694" lon="-7.877935065895935"><ele>113.0</ele><time>2026-03-22T19:18:00.999Z</time></trkpt><trkpt lat="42.35046701820127" lon="-7.877952534374341"><ele>116.0</ele><time>2026-03-22T19:18:01.999Z</time></trkpt><trkpt lat="42.35065121028362" lon="-7.87795892674098"><ele>119.0</ele><time>2026-03-22T19:18:02.999Z</time></trkpt><trkpt lat="42.35083691732418" lon="-7.877966637179459"><ele>122.0</ele><time>2026-03-22T19:18:03.999Z</time></trkpt><trkpt lat="42.351026816300354" lon="-7.877985633717821"><ele>122.0</ele><time>2026-03-22T19:18:04.999Z</time></trkpt><trkpt lat="42.35122453157479" lon="-7.877989756569505"><ele>122.0</ele><time>2026-03-22T19:18:05.999Z</time></trkpt><trkpt lat="42.35141027161483" lon="-7.878009190815175"><ele>122.0</ele><time>2026-03-22T19:18:06.999Z</time></trkpt><trkpt lat="42.35160515815195" lon="-7.878026441227945"><ele>122.33333333333333</ele><time>2026-03-22T19:18:07.999Z</time></trkpt><trkpt lat="42.35180472234185" lon="-7.87804329318466"><ele>122.66666666666666</ele><time>2026-03-22T19:18:08.999Z</time></trkpt><trkpt lat="42.35200809879079" lon="-7.878061816551853"><ele>123.0</ele><time>2026-03-22T19:18:09.999Z</time></trkpt><trkpt lat="42.35221602440084" lon="-7.878091275645319"><ele>123.0</ele><time>2026-03-22T19:18:10.999Z</time></trkpt><trkpt lat="42.3524280206399" lon="-7.878131882767932"><ele>123.0</ele><time>2026-03-22T19:18:11.999Z</time></trkpt><trkpt lat="42.35264867202099" lon="-7.878171396223378"><ele>123.0</ele><time>2026-03-22T19:18:12.999Z</time></trkpt><trkpt lat="42.35287441708645" lon="-7.878213223325344"><ele>124.0</ele><time>2026-03-22T19:18:13.999Z</time></trkpt><trkpt lat="42.35309219872844" lon="-7.878256071249143"><ele>125.0</ele><time>2026-03-22T19:18:14.999Z</time></trkpt><trkpt lat="42.353316426132345" lon="-7.878316992731134"><ele>126.0</ele><time>2026-03-22T19:18:15.999Z</time></trkpt><trkpt lat="42.353530999334424" lon="-7.878381396467647"><ele>124.66666666666666</ele><time>2026-03-22T19:18:16.999Z</time></trkpt><trkpt lat="42.35374692264729" lon="-7.878447455077694"><ele>123.33333333333333</ele><time>2026-03-22T19:18:17.999Z</time></trkpt><trkpt lat="42.35392871861797" lon="-7.878582242922324"><ele>122.0</ele><time>2026-03-22T19:18:18.999Z</time></trkpt><trkpt lat="42.35412518313144" lon="-7.878728575885015"><ele>122.0</ele><time>2026-03-22T19:18:19.999Z</time></trkpt><trkpt lat="42.354306893326545" lon="-7.878886215368837"><ele>122.0</ele><time>2026-03-22T19:18:20.999Z</time></trkpt><trkpt lat="42.35447255133683" lon="-7.879069197115083"><ele>122.0</ele><time>2026-03-22T19:18:21.999Z</time></trkpt><trkpt lat="42.354625206888805" lon="-7.879265139093204"><ele>122.33333333333333</ele><time>2026-03-22T19:18:22.999Z</time></trkpt><trkpt lat="42.354768476937025" lon="-7.879471289402272"><ele>122.66666666666666</ele><time>2026-03-22T19:18:23.999Z</time></trkpt><trkpt lat="42.35490234944782" lon="-7.879687108532062"><ele>123.0</ele><time>2026-03-22T19:18:24.999Z</time></trkpt><trkpt lat="42.35503303686479" lon="-7.879913789710072"><ele>123.33333333333334</ele><time>2026-03-22T19:18:25.999Z</time></trkpt><trkpt lat="42.355150068350554" lon="-7.880157700990884"><ele>123.66666666666667</ele><time>2026-03-22T19:18:26.999Z</time></trkpt><trkpt lat="42.3552531955657" lon="-7.880408699412376"><ele>124.0</ele><time>2026-03-22T19:18:27.999Z</time></trkpt><trkpt lat="42.35533654130308" lon="-7.8806776978289195"><ele>126.0</ele><time>2026-03-22T19:18:28.999Z</time></trkpt><trkpt lat="42.35539884039652" lon="-7.880945249387503"><ele>128.0</ele><time>2026-03-22T19:18:29.999Z</time></trkpt><trkpt lat="42.3554357840166" lon="-7.881186125093629"><ele>130.0</ele><time>2026-03-22T19:18:30.999Z</time></trkpt><trkpt lat="42.35546881977352" lon="-7.881412328825386"><ele>130.0</ele><time>2026-03-22T19:18:31.999Z</time></trkpt><trkpt lat="42.35549040635925" lon="-7.881630179027123"><ele>130.0</ele><time>2026-03-22T19:18:32.999Z</time></trkpt><trkpt lat="42.355499574213894" lon="-7.881830066412725"><ele>130.0</ele><time>2026-03-22T19:18:33.999Z</time></trkpt><trkpt lat="42.35550357055639" lon="-7.881996290411815"><ele>130.0</ele><time>2026-03-22T19:18:34.999Z</time></trkpt><trkpt lat="42.35550424086602" lon="-7.882135358866124"><ele>129.66666666666669</ele><time>2026-03-22T19:18:35.999Z</time></trkpt><trkpt lat="42.35550780600354" lon="-7.882265661060189"><ele>129.33333333333334</ele><time>2026-03-22T19:18:36.999Z</time></trkpt><trkpt lat="42.355511313822504" lon="-7.882396397232104"><ele>129.0</ele><time>2026-03-22T19:18:37.999Z</time></trkpt><trkpt lat="42.35551738679429" lon="-7.882515581347525"><ele>128.66666666666666</ele><time>2026-03-22T19:18:38.999Z</time></trkpt><trkpt lat="42.35552154885771" lon="-7.882623015291386"><ele>128.33333333333331</ele><time>2026-03-22T19:18:39.999Z</time></trkpt><trkpt lat="42.355527476265706" lon="-7.882725012340347"><ele>128.0</ele><time>2026-03-22T19:18:40.999Z</time></trkpt><trkpt lat="42.35552948819742" lon="-7.882828609303991"><ele>127.99999999999999</ele><time>2026-03-22T19:18:41.999Z</time></trkpt><trkpt lat="42.35553271349528" lon="-7.882920476112508"><ele>128.0</ele><time>2026-03-22T19:18:42.999Z</time></trkpt><trkpt lat="42.355535228633755" lon="-7.883017080542762"><ele>128.0</ele><time>2026-03-22T19:18:43.999Z</time></trkpt><trkpt lat="42.3555350496185" lon="-7.883105574586585"><ele>128.0</ele><time>2026-03-22T19:18:44.999Z</time></trkpt><trkpt lat="42.35553978073513" lon="-7.883250215343565"><ele>127.99999999999999</ele><time>2026-03-22T19:18:46.999Z</time></trkpt><trkpt lat="42.355540620879346" lon="-7.8833359773952925"><ele>128.0</ele><time>2026-03-22T19:18:47.999Z</time></trkpt><trkpt lat="42.35554696900574" lon="-7.883438384951101"><ele>128.0</ele><time>2026-03-22T19:18:48.999Z</time></trkpt><trkpt lat="42.355550391933996" lon="-7.883552312284403"><ele>128.0</ele><time>2026-03-22T19:18:49.999Z</time></trkpt><trkpt lat="42.35555410123959" lon="-7.883662788120309"><ele>128.0</ele><time>2026-03-22T19:18:50.999Z</time></trkpt><trkpt lat="42.35556794501995" lon="-7.883751592274151"><ele>128.0</ele><time>2026-03-22T19:18:51.999Z</time></trkpt><trkpt lat="42.35556602919784" lon="-7.883910844415852"><ele>128.0</ele><time>2026-03-22T19:18:53.999Z</time></trkpt><trkpt lat="42.35559311583434" lon="-7.884045815605007"><ele>128.0</ele><time>2026-03-22T19:18:55.999Z</time></trkpt><trkpt lat="42.355587171294175" lon="-7.884148978526952"><ele>128.0</ele><time>2026-03-22T19:18:57.999Z</time></trkpt><trkpt lat="42.35559029223382" lon="-7.884266122452453"><ele>126.0</ele><time>2026-03-22T19:19:00.999Z</time></trkpt><trkpt lat="42.35566682445734" lon="-7.884281989356227"><ele>126.0</ele><time>2026-03-22T19:19:03.999Z</time></trkpt><trkpt lat="42.355600522388485" lon="-7.884297153808119"><ele>126.0</ele><time>2026-03-22T19:19:06.999Z</time></trkpt><trkpt lat="42.355691026600226" lon="-7.88428784273712"><ele>126.0</ele><time>2026-03-22T19:19:18Z</time></trkpt></trkseg><trkseg><trkpt lat="42.35559246987331" lon="-7.885087084850643"><ele>125.8</ele><time>2026-03-22T20:01:05.998Z</time></trkpt><trkpt lat="42.35558507470051" lon="-7.885182218521417"><ele>125.6</ele><time>2026-03-22T20:01:06.998Z</time></trkpt><trkpt lat="42.35557897951842" lon="-7.885303682922787"><ele>125.4</ele><time>2026-03-22T20:01:07.998Z</time></trkpt><trkpt lat="42.35558115430065" lon="-7.8854639086617135"><ele>125.2</ele><time>2026-03-22T20:01:08.998Z</time></trkpt><trkpt lat="42.355580340812374" lon="-7.885636218411972"><ele>125.0</ele><time>2026-03-22T20:01:09.998Z</time></trkpt><trkpt lat="42.35558887921598" lon="-7.885830718250133"><ele>124.0</ele><time>2026-03-22T20:01:10.998Z</time></trkpt><trkpt lat="42.35558665762055" lon="-7.886018889799533"><ele>123.0</ele><time>2026-03-22T20:01:11.998Z</time></trkpt><trkpt lat="42.355594917486854" lon="-7.886204217412167"><ele>122.0</ele><time>2026-03-22T20:01:12.998Z</time></trkpt><trkpt lat="42.355594149528116" lon="-7.88639370543343"><ele>121.0</ele><time>2026-03-22T20:01:13.998Z</time></trkpt><trkpt lat="42.35558714183245" lon="-7.88658665863921"><ele>121.0</ele><time>2026-03-22T20:01:14.998Z</time></trkpt><trkpt lat="42.35561210740897" lon="-7.8867844514118275"><ele>121.0</ele><time>2026-03-22T20:01:16Z</time></trkpt><trkpt lat="42.355613662215944" lon="-7.886976422984619"><ele>121.0</ele><time>2026-03-22T20:01:17Z</time></trkpt><trkpt lat="42.3556161229752" lon="-7.887189691169622"><ele>121.0</ele><time>2026-03-22T20:01:18Z</time></trkpt><trkpt lat="42.355621460222444" lon="-7.887415707184339"><ele>119.33333333333334</ele><time>2026-03-22T20:01:19Z</time></trkpt><trkpt lat="42.35562466192003" lon="-7.88764866036548"><ele>117.66666666666666</ele><time>2026-03-22T20:01:20Z</time></trkpt><trkpt lat="42.355629915139225" lon="-7.88789392372885"><ele>116.0</ele><time>2026-03-22T20:01:21Z</time></trkpt><trkpt lat="42.355640310178494" lon="-7.888143197172133"><ele>116.0</ele><time>2026-03-22T20:01:22Z</time></trkpt><trkpt lat="42.35563273016124" lon="-7.888369674555066"><ele>116.0</ele><time>2026-03-22T20:01:23Z</time></trkpt><trkpt lat="42.35564061096103" lon="-7.888601788052584"><ele>116.0</ele><time>2026-03-22T20:01:24Z</time></trkpt><trkpt lat="42.355650127238754" lon="-7.888819929368556"><ele>115.5</ele><time>2026-03-22T20:01:25Z</time></trkpt><trkpt lat="42.355653810112486" lon="-7.889021734811484"><ele>115.0</ele><time>2026-03-22T20:01:26Z</time></trkpt><trkpt lat="42.35565716765771" lon="-7.889213963741524"><ele>114.5</ele><time>2026-03-22T20:01:27Z</time></trkpt><trkpt lat="42.35566681379385" lon="-7.889400542463163"><ele>114.0</ele><time>2026-03-22T20:01:28Z</time></trkpt><trkpt lat="42.35567515624895" lon="-7.889603663411212"><ele>113.66666666666666</ele><time>2026-03-22T20:01:29Z</time></trkpt><trkpt lat="42.355665871979674" lon="-7.889833416160606"><ele>113.33333333333333</ele><time>2026-03-22T20:01:30Z</time></trkpt><trkpt lat="42.355674809868084" lon="-7.890049614472656"><ele>113.0</ele><time>2026-03-22T20:01:31Z</time></trkpt><trkpt lat="42.35569277259499" lon="-7.8902593493442295"><ele>112.66666666666666</ele><time>2026-03-22T20:01:32Z</time></trkpt><trkpt lat="42.355689707238746" lon="-7.890472873539634"><ele>112.33333333333334</ele><time>2026-03-22T20:01:33Z</time></trkpt><trkpt lat="42.35568885194463" lon="-7.890711765615097"><ele>112.0</ele><time>2026-03-22T20:01:34Z</time></trkpt><trkpt lat="42.35569445979037" lon="-7.890948436135715"><ele>111.33333333333334</ele><time>2026-03-22T20:01:35Z</time></trkpt><trkpt lat="42.355699477386004" lon="-7.8911964074915675"><ele>110.66666666666666</ele><time>2026-03-22T20:01:36Z</time></trkpt><trkpt lat="42.35569996273092" lon="-7.8914527984418505"><ele>110.0</ele><time>2026-03-22T20:01:37Z</time></trkpt><trkpt lat="42.35571219969899" lon="-7.891694849834215"><ele>109.33333333333333</ele><time>2026-03-22T20:01:38Z</time></trkpt><trkpt lat="42.35571753895924" lon="-7.891990807003239"><ele>108.66666666666666</ele><time>2026-03-22T20:01:39Z</time></trkpt><trkpt lat="42.35570553787799" lon="-7.892282675271669"><ele>108.0</ele><time>2026-03-22T20:01:40Z</time></trkpt><trkpt lat="42.35571110376254" lon="-7.892560735770248"><ele>107.66666666666666</ele><time>2026-03-22T20:01:41Z</time></trkpt><trkpt lat="42.35571667332694" lon="-7.892823206454806"><ele>107.33333333333333</ele><time>2026-03-22T20:01:42Z</time></trkpt><trkpt lat="42.35572347790101" lon="-7.893075099550899"><ele>107.0</ele><time>2026-03-22T20:01:43Z</time></trkpt><trkpt lat="42.355729644268955" lon="-7.893330417801505"><ele>108.0</ele><time>2026-03-22T20:01:44Z</time></trkpt><trkpt lat="42.355739312244566" lon="-7.893598384836209"><ele>109.0</ele><time>2026-03-22T20:01:45Z</time></trkpt><trkpt lat="42.35574522586737" lon="-7.893859280360396"><ele>110.0</ele><time>2026-03-22T20:01:46Z</time></trkpt><trkpt lat="42.355749974467194" lon="-7.894120081186567"><ele>110.33333333333333</ele><time>2026-03-22T20:01:47Z</time></trkpt><trkpt lat="42.35575976615546" lon="-7.894383649824582"><ele>110.66666666666666</ele><time>2026-03-22T20:01:48Z</time></trkpt><trkpt lat="42.355765658944804" lon="-7.894641501723658"><ele>111.0</ele><time>2026-03-22T20:01:49Z</time></trkpt><trkpt lat="42.355779311777155" lon="-7.894905869223336"><ele>110.0</ele><time>2026-03-22T20:01:50Z</time></trkpt><trkpt lat="42.35579024152891" lon="-7.895167295282475"><ele>109.0</ele><time>2026-03-22T20:01:51Z</time></trkpt><trkpt lat="42.35579370445342" lon="-7.89543198693041"><ele>108.0</ele><time>2026-03-22T20:01:52Z</time></trkpt><trkpt lat="42.355795891743696" lon="-7.895704159628373"><ele>107.66666666666666</ele><time>2026-03-22T20:01:53Z</time></trkpt><trkpt lat="42.355800571210516" lon="-7.8959714485189005"><ele>107.33333333333333</ele><time>2026-03-22T20:01:54Z</time></trkpt><trkpt lat="42.35580622730738" lon="-7.896241218415271"><ele>107.0</ele><time>2026-03-22T20:01:55Z</time></trkpt><trkpt lat="42.355806989821176" lon="-7.896513758584328"><ele>108.0</ele><time>2026-03-22T20:01:56Z</time></trkpt><trkpt lat="42.355810390352836" lon="-7.8967895202759655"><ele>109.0</ele><time>2026-03-22T20:01:56.999Z</time></trkpt><trkpt lat="42.35581542315964" lon="-7.897066461685078"><ele>110.0</ele><time>2026-03-22T20:01:57.999Z</time></trkpt><trkpt lat="42.35581868652376" lon="-7.897339226293724"><ele>110.33333333333333</ele><time>2026-03-22T20:01:58.999Z</time></trkpt><trkpt lat="42.35582199421291" lon="-7.897616653366929"><ele>110.66666666666666</ele><time>2026-03-22T20:01:59.999Z</time></trkpt><trkpt lat="42.355822980823206" lon="-7.897903079202488"><ele>111.0</ele><time>2026-03-22T20:02:00.999Z</time></trkpt><trkpt lat="42.355827881835374" lon="-7.898199366594234"><ele>111.66666666666666</ele><time>2026-03-22T20:02:01.999Z</time></trkpt><trkpt lat="42.35583332730026" lon="-7.8984921135379835"><ele>112.33333333333333</ele><time>2026-03-22T20:02:02.999Z</time></trkpt><trkpt lat="42.355832670437614" lon="-7.898784902068085"><ele>113.0</ele><time>2026-03-22T20:02:03.999Z</time></trkpt><trkpt lat="42.35583504118562" lon="-7.899088700975711"><ele>114.0</ele><time>2026-03-22T20:02:04.999Z</time></trkpt><trkpt lat="42.355835306517385" lon="-7.899390123715731"><ele>115.0</ele><time>2026-03-22T20:02:05.999Z</time></trkpt><trkpt lat="42.35584070803527" lon="-7.899692289682723"><ele>116.0</ele><time>2026-03-22T20:02:06.999Z</time></trkpt><trkpt lat="42.355843720640586" lon="-7.8999944082874345"><ele>118.0</ele><time>2026-03-22T20:02:07.999Z</time></trkpt><trkpt lat="42.35584266290751" lon="-7.9003067002978264"><ele>120.0</ele><time>2026-03-22T20:02:08.999Z</time></trkpt><trkpt lat="42.35584665179639" lon="-7.900613868234521"><ele>120.0</ele><time>2026-03-22T20:02:09.999Z</time></trkpt><trkpt lat="42.355847828799405" lon="-7.900922273629115"><ele>120.0</ele><time>2026-03-22T20:02:10.999Z</time></trkpt><trkpt lat="42.355847558178084" lon="-7.901225275941794"><ele>120.0</ele><time>2026-03-22T20:02:11.999Z</time></trkpt><trkpt lat="42.35584907248556" lon="-7.90152543870456"><ele>120.0</ele><time>2026-03-22T20:02:12.999Z</time></trkpt><trkpt lat="42.35584259637333" lon="-7.901821939935791"><ele>120.0</ele><time>2026-03-22T20:02:13.999Z</time></trkpt><trkpt lat="42.35583251654089" lon="-7.902112443957062"><ele>122.0</ele><time>2026-03-22T20:02:14.999Z</time></trkpt><trkpt lat="42.35581851447019" lon="-7.902406872446594"><ele>124.0</ele><time>2026-03-22T20:02:15.999Z</time></trkpt><trkpt lat="42.35579373785078" lon="-7.90269679418743"><ele>126.0</ele><time>2026-03-22T20:02:16.999Z</time></trkpt><trkpt lat="42.35574718158087" lon="-7.90298770685278"><ele>126.33333333333334</ele><time>2026-03-22T20:02:17.999Z</time></trkpt><trkpt lat="42.35568391812863" lon="-7.903273314359094"><ele>126.66666666666667</ele><time>2026-03-22T20:02:18.999Z</time></trkpt><trkpt lat="42.35561150367793" lon="-7.903558022653594"><ele>127.0</ele><time>2026-03-22T20:02:19.999Z</time></trkpt><trkpt lat="42.35553536483342" lon="-7.9038479494740255"><ele>124.66666666666667</ele><time>2026-03-22T20:02:20.999Z</time></trkpt><trkpt lat="42.35545772415786" lon="-7.90412299268086"><ele>122.33333333333334</ele><time>2026-03-22T20:02:21.999Z</time></trkpt><trkpt lat="42.35538805178516" lon="-7.904387542254057"><ele>120.0</ele><time>2026-03-22T20:02:22.999Z</time></trkpt><trkpt lat="42.35533113025637" lon="-7.904644400914822"><ele>120.0</ele><time>2026-03-22T20:02:23.999Z</time></trkpt><trkpt lat="42.35527092648708" lon="-7.904885309832096"><ele>120.0</ele><time>2026-03-22T20:02:24.999Z</time></trkpt><trkpt lat="42.35520735644997" lon="-7.9051156686313915"><ele>120.0</ele><time>2026-03-22T20:02:25.999Z</time></trkpt><trkpt lat="42.35513801074263" lon="-7.905364553636066"><ele>119.0</ele><time>2026-03-22T20:02:26.999Z</time></trkpt><trkpt lat="42.355076083453596" lon="-7.905605830528491"><ele>118.0</ele><time>2026-03-22T20:02:27.999Z</time></trkpt><trkpt lat="42.35501664931192" lon="-7.905835191657965"><ele>117.0</ele><time>2026-03-22T20:02:28.999Z</time></trkpt><trkpt lat="42.35496502791657" lon="-7.906051082738194"><ele>117.0</ele><time>2026-03-22T20:02:29.999Z</time></trkpt><trkpt lat="42.3548895848257" lon="-7.906286396972132"><ele>117.0</ele><time>2026-03-22T20:02:30.999Z</time></trkpt><trkpt lat="42.35481410749718" lon="-7.906522620509926"><ele>117.0</ele><time>2026-03-22T20:02:31.999Z</time></trkpt><trkpt lat="42.35474183471132" lon="-7.906787657697122"><ele>114.0</ele><time>2026-03-22T20:02:32.999Z</time></trkpt><trkpt lat="42.354680962663224" lon="-7.907066499803174"><ele>111.0</ele><time>2026-03-22T20:02:33.999Z</time></trkpt><trkpt lat="42.35462728719449" lon="-7.907349171947362"><ele>108.0</ele><time>2026-03-22T20:02:34.999Z</time></trkpt><trkpt lat="42.35457179368067" lon="-7.907639807259746"><ele>107.5</ele><time>2026-03-22T20:02:35.999Z</time></trkpt><trkpt lat="42.35450174896817" lon="-7.907938394568825"><ele>107.0</ele><time>2026-03-22T20:02:36.999Z</time></trkpt><trkpt lat="42.354426244823344" lon="-7.908230892083702"><ele>106.5</ele><time>2026-03-22T20:02:37.999Z</time></trkpt><trkpt lat="42.35427081808434" lon="-7.908503291344065"><ele>106.0</ele><time>2026-03-22T20:02:38.999Z</time></trkpt><trkpt lat="42.3541989545594" lon="-7.90881464080008"><ele>106.0</ele><time>2026-03-22T20:02:39.999Z</time></trkpt><trkpt lat="42.35419003098274" lon="-7.90914476565089"><ele>106.0</ele><time>2026-03-22T20:02:40.999Z</time></trkpt><trkpt lat="42.35411963183624" lon="-7.909417586810639"><ele>106.66666666666667</ele><time>2026-03-22T20:02:41.999Z</time></trkpt><trkpt lat="42.354043644684424" lon="-7.909676497435228"><ele>107.33333333333334</ele><time>2026-03-22T20:02:42.999Z</time></trkpt><trkpt lat="42.353974746588335" lon="-7.909922677204787"><ele>108.0</ele><time>2026-03-22T20:02:43.999Z</time></trkpt><trkpt lat="42.353909607720915" lon="-7.910162662555369"><ele>106.33333333333334</ele><time>2026-03-22T20:02:44.999Z</time></trkpt><trkpt lat="42.35385006515703" lon="-7.910416003047917"><ele>104.66666666666667</ele><time>2026-03-22T20:02:45.999Z</time></trkpt><trkpt lat="42.35378874690484" lon="-7.910679735891905"><ele>103.0</ele><time>2026-03-22T20:02:46.999Z</time></trkpt><trkpt lat="42.35372554037407" lon="-7.910943495867473"><ele>103.0</ele><time>2026-03-22T20:02:47.999Z</time></trkpt><trkpt lat="42.353659774217476" lon="-7.9111919583386205"><ele>103.0</ele><time>2026-03-22T20:02:48.999Z</time></trkpt><trkpt lat="42.35359920794278" lon="-7.911442275712123"><ele>103.0</ele><time>2026-03-22T20:02:49.999Z</time></trkpt><trkpt lat="42.353535988690496" lon="-7.911699186244173"><ele>101.66666666666667</ele><time>2026-03-22T20:02:50.999Z</time></trkpt><trkpt lat="42.353472942810775" lon="-7.911953274937136"><ele>100.33333333333334</ele><time>2026-03-22T20:02:51.999Z</time></trkpt><trkpt lat="42.353411382741236" lon="-7.912186922915427"><ele>99.0</ele><time>2026-03-22T20:02:52.999Z</time></trkpt><trkpt lat="42.3533540055363" lon="-7.912420927596283"><ele>98.66666666666666</ele><time>2026-03-22T20:02:53.999Z</time></trkpt><trkpt lat="42.35329299052756" lon="-7.9126555679867705"><ele>98.33333333333333</ele><time>2026-03-22T20:02:54.999Z</time></trkpt><trkpt lat="42.353232615446764" lon="-7.912904526286674"><ele>98.0</ele><time>2026-03-22T20:02:55.999Z</time></trkpt><trkpt lat="42.353158242698385" lon="-7.913149271689865"><ele>98.0</ele><time>2026-03-22T20:02:56.999Z</time></trkpt><trkpt lat="42.353071183996974" lon="-7.913393750317548"><ele>98.0</ele><time>2026-03-22T20:02:57.999Z</time></trkpt><trkpt lat="42.35296539700809" lon="-7.913620705512692"><ele>98.0</ele><time>2026-03-22T20:02:58.999Z</time></trkpt><trkpt lat="42.35283527407159" lon="-7.91383416334471"><ele>101.0</ele><time>2026-03-22T20:02:59.999Z</time></trkpt><trkpt lat="42.35268713723005" lon="-7.914012768090597"><ele>104.0</ele><time>2026-03-22T20:03:00.999Z</time></trkpt><trkpt lat="42.352525412597664" lon="-7.9141715939975015"><ele>107.0</ele><time>2026-03-22T20:03:01.999Z</time></trkpt><trkpt lat="42.35235780312368" lon="-7.914311603986134"><ele>110.66666666666666</ele><time>2026-03-22T20:03:02.998Z</time></trkpt><trkpt lat="42.35218575233343" lon="-7.914443701722869"><ele>114.33333333333334</ele><time>2026-03-22T20:03:03.998Z</time></trkpt><trkpt lat="42.352023382779755" lon="-7.914570560380849"><ele>118.0</ele><time>2026-03-22T20:03:04.998Z</time></trkpt><trkpt lat="42.35185264269896" lon="-7.914707213297497"><ele>118.0</ele><time>2026-03-22T20:03:05.998Z</time></trkpt><trkpt lat="42.35168682582687" lon="-7.91485076241729"><ele>118.0</ele><time>2026-03-22T20:03:06.998Z</time></trkpt><trkpt lat="42.35152827668415" lon="-7.915001347524153"><ele>118.0</ele><time>2026-03-22T20:03:07.998Z</time></trkpt><trkpt lat="42.35138798953856" lon="-7.915178445526766"><ele>117.0</ele><time>2026-03-22T20:03:08.998Z</time></trkpt><trkpt lat="42.35127016507349" lon="-7.915382631494161"><ele>116.0</ele><time>2026-03-22T20:03:09.998Z</time></trkpt><trkpt lat="42.35117990281447" lon="-7.915603213610102"><ele>115.0</ele><time>2026-03-22T20:03:10.998Z</time></trkpt><trkpt lat="42.35112203633625" lon="-7.915844851571016"><ele>117.33333333333334</ele><time>2026-03-22T20:03:11.998Z</time></trkpt><trkpt lat="42.351085154195296" lon="-7.916091292057723"><ele>119.66666666666666</ele><time>2026-03-22T20:03:12.998Z</time></trkpt><trkpt lat="42.35106666483371" lon="-7.916333251170629"><ele>122.0</ele><time>2026-03-22T20:03:13.998Z</time></trkpt><trkpt lat="42.35105949056784" lon="-7.916574158576852"><ele>123.33333333333333</ele><time>2026-03-22T20:03:14.998Z</time></trkpt><trkpt lat="42.35103748602242" lon="-7.916812595736347"><ele>124.66666666666666</ele><time>2026-03-22T20:03:15.998Z</time></trkpt><trkpt lat="42.35101826280649" lon="-7.917052333857759"><ele>126.0</ele><time>2026-03-22T20:03:16.998Z</time></trkpt><trkpt lat="42.35097555132988" lon="-7.917278545515677"><ele>126.0</ele><time>2026-03-22T20:03:17.998Z</time></trkpt><trkpt lat="42.3509102994054" lon="-7.917498138252658"><ele>126.0</ele><time>2026-03-22T20:03:18.998Z</time></trkpt><trkpt lat="42.35083385999161" lon="-7.917711747059252"><ele>126.0</ele><time>2026-03-22T20:03:19.998Z</time></trkpt><trkpt lat="42.350747976919365" lon="-7.917917908965909"><ele>128.33333333333334</ele><time>2026-03-22T20:03:20.998Z</time></trkpt><trkpt lat="42.3506550635836" lon="-7.9181216112099335"><ele>130.66666666666669</ele><time>2026-03-22T20:03:22Z</time></trkpt><trkpt lat="42.35055366491773" lon="-7.918320463792442"><ele>133.0</ele><time>2026-03-22T20:03:23Z</time></trkpt><trkpt lat="42.35045374497805" lon="-7.91852486319458"><ele>134.33333333333334</ele><time>2026-03-22T20:03:24Z</time></trkpt><trkpt lat="42.35035674193175" lon="-7.918718142268435"><ele>135.66666666666666</ele><time>2026-03-22T20:03:25Z</time></trkpt><trkpt lat="42.350258029981525" lon="-7.918919695724044"><ele>137.0</ele><time>2026-03-22T20:03:26Z</time></trkpt><trkpt lat="42.35015579411666" lon="-7.919144330330545"><ele>138.33333333333331</ele><time>2026-03-22T20:03:27Z</time></trkpt><trkpt lat="42.35006002258117" lon="-7.919343698560938"><ele>139.66666666666666</ele><time>2026-03-22T20:03:28Z</time></trkpt><trkpt lat="42.349955342582675" lon="-7.919547445091887"><ele>141.0</ele><time>2026-03-22T20:03:29Z</time></trkpt><trkpt lat="42.349854391853086" lon="-7.919755568967702"><ele>141.0</ele><time>2026-03-22T20:03:30Z</time></trkpt><trkpt lat="42.34975063177784" lon="-7.919973535119606"><ele>141.0</ele><time>2026-03-22T20:03:31Z</time></trkpt><trkpt lat="42.34965276584854" lon="-7.920188021770055"><ele>141.0</ele><time>2026-03-22T20:03:32Z</time></trkpt><trkpt lat="42.34955364617909" lon="-7.920419373707313"><ele>141.33333333333334</ele><time>2026-03-22T20:03:33Z</time></trkpt><trkpt lat="42.34946132612701" lon="-7.920632326271258"><ele>141.66666666666669</ele><time>2026-03-22T20:03:34Z</time></trkpt><trkpt lat="42.349364199684516" lon="-7.920865149425835"><ele>142.0</ele><time>2026-03-22T20:03:35Z</time></trkpt><trkpt lat="42.34927539665826" lon="-7.921104931095145"><ele>143.66666666666669</ele><time>2026-03-22T20:03:36Z</time></trkpt><trkpt lat="42.34919034549177" lon="-7.921339550976873"><ele>145.33333333333334</ele><time>2026-03-22T20:03:37Z</time></trkpt><trkpt lat="42.34910037943511" lon="-7.921591094907373"><ele>147.0</ele><time>2026-03-22T20:03:38Z</time></trkpt><trkpt lat="42.34903030916844" lon="-7.921828169036601"><ele>148.33333333333334</ele><time>2026-03-22T20:03:39Z</time></trkpt><trkpt lat="42.348965369544224" lon="-7.922064531980969"><ele>149.66666666666669</ele><time>2026-03-22T20:03:40Z</time></trkpt><trkpt lat="42.348903069820985" lon="-7.922331943992401"><ele>151.0</ele><time>2026-03-22T20:03:41Z</time></trkpt><trkpt lat="42.34885766597933" lon="-7.922582790393653"><ele>151.33333333333334</ele><time>2026-03-22T20:03:42Z</time></trkpt><trkpt lat="42.34882619576831" lon="-7.922848631102856"><ele>151.66666666666666</ele><time>2026-03-22T20:03:43Z</time></trkpt><trkpt lat="42.34880464166615" lon="-7.9231119365883425"><ele>152.0</ele><time>2026-03-22T20:03:44Z</time></trkpt><trkpt lat="42.348797613585255" lon="-7.923373965700957"><ele>152.33333333333331</ele><time>2026-03-22T20:03:45Z</time></trkpt><trkpt lat="42.348799021992505" lon="-7.9236444280511105"><ele>152.66666666666666</ele><time>2026-03-22T20:03:46Z</time></trkpt><trkpt lat="42.348816815484795" lon="-7.9239113697579455"><ele>153.0</ele><time>2026-03-22T20:03:47Z</time></trkpt><trkpt lat="42.348853689564734" lon="-7.924172490710055"><ele>159.0</ele><time>2026-03-22T20:03:48Z</time></trkpt><trkpt lat="42.348907459999914" lon="-7.924428076943083"><ele>165.0</ele><time>2026-03-22T20:03:49Z</time></trkpt><trkpt lat="42.34897377866028" lon="-7.924687386999192"><ele>171.0</ele><time>2026-03-22T20:03:50Z</time></trkpt><trkpt lat="42.34904494879324" lon="-7.924943601625423"><ele>167.0</ele><time>2026-03-22T20:03:51Z</time></trkpt><trkpt lat="42.34910483150408" lon="-7.925199992124138"><ele>163.0</ele><time>2026-03-22T20:03:52Z</time></trkpt><trkpt lat="42.34916345254205" lon="-7.925461036072702"><ele>159.0</ele><time>2026-03-22T20:03:53Z</time></trkpt><trkpt lat="42.349231257507554" lon="-7.925724432554894"><ele>157.0</ele><time>2026-03-22T20:03:54Z</time></trkpt><trkpt lat="42.34927080474352" lon="-7.9259930467352495"><ele>155.0</ele><time>2026-03-22T20:03:55Z</time></trkpt><trkpt lat="42.34928733012307" lon="-7.92627277590951"><ele>153.0</ele><time>2026-03-22T20:03:56Z</time></trkpt><trkpt lat="42.3492808154011" lon="-7.926557917327916"><ele>154.0</ele><time>2026-03-22T20:03:57Z</time></trkpt><trkpt lat="42.34925231528336" lon="-7.926828110377419"><ele>155.0</ele><time>2026-03-22T20:03:57.999Z</time></trkpt><trkpt lat="42.349201919452504" lon="-7.927101777461743"><ele>156.0</ele><time>2026-03-22T20:03:58.999Z</time></trkpt><trkpt lat="42.34910747149777" lon="-7.927347368179185"><ele>156.33333333333334</ele><time>2026-03-22T20:03:59.999Z</time></trkpt><trkpt lat="42.34901096582499" lon="-7.927600291882965"><ele>156.66666666666669</ele><time>2026-03-22T20:04:00.999Z</time></trkpt><trkpt lat="42.34889868705457" lon="-7.927836792832012"><ele>157.0</ele><time>2026-03-22T20:04:01.999Z</time></trkpt><trkpt lat="42.348768923240485" lon="-7.928059653613656"><ele>157.0</ele><time>2026-03-22T20:04:02.999Z</time></trkpt><trkpt lat="42.34861940275317" lon="-7.928267344628518"><ele>157.0</ele><time>2026-03-22T20:04:03.999Z</time></trkpt><trkpt lat="42.34846074379023" lon="-7.928464298973604"><ele>157.0</ele><time>2026-03-22T20:04:04.999Z</time></trkpt><trkpt lat="42.348297164098696" lon="-7.928655866416875"><ele>157.0</ele><time>2026-03-22T20:04:05.999Z</time></trkpt><trkpt lat="42.34812586095457" lon="-7.928842409101716"><ele>157.0</ele><time>2026-03-22T20:04:06.999Z</time></trkpt><trkpt lat="42.347953229139485" lon="-7.9290262324749685"><ele>157.0</ele><time>2026-03-22T20:04:07.999Z</time></trkpt><trkpt lat="42.347774898489035" lon="-7.9292065540660355"><ele>160.33333333333334</ele><time>2026-03-22T20:04:08.999Z</time></trkpt><trkpt lat="42.347593276298824" lon="-7.929376897380186"><ele>163.66666666666666</ele><time>2026-03-22T20:04:09.999Z</time></trkpt><trkpt lat="42.347411715623366" lon="-7.929553803916899"><ele>167.0</ele><time>2026-03-22T20:04:10.999Z</time></trkpt><trkpt lat="42.347237250751334" lon="-7.929739831906102"><ele>166.66666666666666</ele><time>2026-03-22T20:04:11.999Z</time></trkpt><trkpt lat="42.34707198044208" lon="-7.929939622562241"><ele>166.33333333333334</ele><time>2026-03-22T20:04:12.999Z</time></trkpt><trkpt lat="42.346911834406285" lon="-7.930147564335776"><ele>166.0</ele><time>2026-03-22T20:04:13.999Z</time></trkpt><trkpt lat="42.34677076259805" lon="-7.930385335371175"><ele>165.33333333333334</ele><time>2026-03-22T20:04:14.999Z</time></trkpt><trkpt lat="42.346642385416466" lon="-7.930617325330843"><ele>164.66666666666666</ele><time>2026-03-22T20:04:15.999Z</time></trkpt><trkpt lat="42.34653275795904" lon="-7.930849388656555"><ele>164.0</ele><time>2026-03-22T20:04:16.999Z</time></trkpt><trkpt lat="42.346432981238735" lon="-7.931092013626682"><ele>162.0</ele><time>2026-03-22T20:04:17.999Z</time></trkpt><trkpt lat="42.34632006917697" lon="-7.93133177579263"><ele>160.0</ele><time>2026-03-22T20:04:18.999Z</time></trkpt><trkpt lat="42.346222729776" lon="-7.931600658737963"><ele>158.0</ele><time>2026-03-22T20:04:19.999Z</time></trkpt><trkpt lat="42.346115497686654" lon="-7.931872338440567"><ele>158.0</ele><time>2026-03-22T20:04:20.999Z</time></trkpt><trkpt lat="42.34601318577802" lon="-7.932155903663297"><ele>158.0</ele><time>2026-03-22T20:04:21.999Z</time></trkpt><trkpt lat="42.345909279884204" lon="-7.932440948405446"><ele>162.5</ele><time>2026-03-22T20:04:22.999Z</time></trkpt><trkpt lat="42.34579516226218" lon="-7.932723646721393"><ele>167.0</ele><time>2026-03-22T20:04:23.999Z</time></trkpt><trkpt lat="42.345674381906235" lon="-7.93300267845343"><ele>167.0</ele><time>2026-03-22T20:04:24.999Z</time></trkpt><trkpt lat="42.34554837725015" lon="-7.933267952871168"><ele>167.0</ele><time>2026-03-22T20:04:25.999Z</time></trkpt><trkpt lat="42.34541181899197" lon="-7.933497123068117"><ele>162.0</ele><time>2026-03-22T20:04:26.999Z</time></trkpt><trkpt lat="42.34524182946608" lon="-7.933710364449838"><ele>157.0</ele><time>2026-03-22T20:04:27.999Z</time></trkpt><trkpt lat="42.345054831413634" lon="-7.933905045635017"><ele>157.0</ele><time>2026-03-22T20:04:28.999Z</time></trkpt><trkpt lat="42.344858117228306" lon="-7.934089601413121"><ele>157.0</ele><time>2026-03-22T20:04:29.999Z</time></trkpt><trkpt lat="42.34469465688519" lon="-7.934274232573439"><ele>153.66666666666669</ele><time>2026-03-22T20:04:30.999Z</time></trkpt><trkpt lat="42.34456119147775" lon="-7.934495384581238"><ele>150.33333333333334</ele><time>2026-03-22T20:04:31.999Z</time></trkpt><trkpt lat="42.34442785790112" lon="-7.934710469218884"><ele>147.0</ele><time>2026-03-22T20:04:32.999Z</time></trkpt><trkpt lat="42.34432137849231" lon="-7.934959897976786"><ele>151.0</ele><time>2026-03-22T20:04:33.999Z</time></trkpt><trkpt lat="42.34422731346418" lon="-7.935192404837084"><ele>155.0</ele><time>2026-03-22T20:04:34.999Z</time></trkpt><trkpt lat="42.34412637386907" lon="-7.935442490833918"><ele>159.0</ele><time>2026-03-22T20:04:35.999Z</time></trkpt><trkpt lat="42.344008556203455" lon="-7.935685661610224"><ele>153.0</ele><time>2026-03-22T20:04:36.999Z</time></trkpt><trkpt lat="42.3438588412887" lon="-7.935907318696784"><ele>147.0</ele><time>2026-03-22T20:04:37.999Z</time></trkpt><trkpt lat="42.3436918521849" lon="-7.936121935955915"><ele>147.0</ele><time>2026-03-22T20:04:38.999Z</time></trkpt><trkpt lat="42.343519699229894" lon="-7.93631811873724"><ele>147.0</ele><time>2026-03-22T20:04:39.999Z</time></trkpt><trkpt lat="42.34335452974003" lon="-7.936535875483365"><ele>142.0</ele><time>2026-03-22T20:04:40.999Z</time></trkpt><trkpt lat="42.343201193581464" lon="-7.936751705034541"><ele>137.0</ele><time>2026-03-22T20:04:41.999Z</time></trkpt><trkpt lat="42.34305810177558" lon="-7.936988857606727"><ele>132.0</ele><time>2026-03-22T20:04:42.999Z</time></trkpt><trkpt lat="42.34295718033251" lon="-7.937270205602582"><ele>136.5</ele><time>2026-03-22T20:04:43.999Z</time></trkpt><trkpt lat="42.34286665163999" lon="-7.937565145329838"><ele>141.0</ele><time>2026-03-22T20:04:44.999Z</time></trkpt><trkpt lat="42.34278745549527" lon="-7.937866873136705"><ele>141.0</ele><time>2026-03-22T20:04:45.999Z</time></trkpt><trkpt lat="42.342710024626975" lon="-7.9381700227917165"><ele>141.0</ele><time>2026-03-22T20:04:46.999Z</time></trkpt><trkpt lat="42.342635054970714" lon="-7.938463536336735"><ele>143.0</ele><time>2026-03-22T20:04:47.999Z</time></trkpt><trkpt lat="42.34255808387881" lon="-7.93876488601316"><ele>145.0</ele><time>2026-03-22T20:04:48.999Z</time></trkpt><trkpt lat="42.34246470139389" lon="-7.9390632813824205"><ele>145.0</ele><time>2026-03-22T20:04:49.999Z</time></trkpt><trkpt lat="42.34238823461651" lon="-7.939375792427578"><ele>145.0</ele><time>2026-03-22T20:04:50.999Z</time></trkpt><trkpt lat="42.34231060589447" lon="-7.939674287199866"><ele>145.0</ele><time>2026-03-22T20:04:51.999Z</time></trkpt><trkpt lat="42.34224153009985" lon="-7.939964595828271"><ele>145.0</ele><time>2026-03-22T20:04:52.999Z</time></trkpt><trkpt lat="42.34217450857384" lon="-7.9402657883986"><ele>138.5</ele><time>2026-03-22T20:04:53.999Z</time></trkpt><trkpt lat="42.34214193761524" lon="-7.940572532612352"><ele>132.0</ele><time>2026-03-22T20:04:54.999Z</time></trkpt><trkpt lat="42.3421076477871" lon="-7.940879715766237"><ele>132.5</ele><time>2026-03-22T20:04:55.999Z</time></trkpt><trkpt lat="42.342087309594994" lon="-7.941200037548446"><ele>133.0</ele><time>2026-03-22T20:04:56.999Z</time></trkpt><trkpt lat="42.34208575726992" lon="-7.941504970559825"><ele>131.5</ele><time>2026-03-22T20:04:57.999Z</time></trkpt><trkpt lat="42.342094682645154" lon="-7.941823792143609"><ele>130.0</ele><time>2026-03-22T20:04:58.999Z</time></trkpt><trkpt lat="42.3421108264933" lon="-7.9421403362683005"><ele>130.0</ele><time>2026-03-22T20:04:59.999Z</time></trkpt><trkpt lat="42.34212980277564" lon="-7.942456810495179"><ele>130.0</ele><time>2026-03-22T20:05:00.999Z</time></trkpt><trkpt lat="42.34214251875778" lon="-7.942776921867132"><ele>130.0</ele><time>2026-03-22T20:05:01.999Z</time></trkpt><trkpt lat="42.342124101258904" lon="-7.943093737835796"><ele>130.0</ele><time>2026-03-22T20:05:02.999Z</time></trkpt><trkpt lat="42.342110633187325" lon="-7.943409093155319"><ele>131.66666666666669</ele><time>2026-03-22T20:05:03.999Z</time></trkpt><trkpt lat="42.342058653717686" lon="-7.943703222575106"><ele>133.33333333333334</ele><time>2026-03-22T20:05:04.999Z</time></trkpt><trkpt lat="42.34203426496997" lon="-7.943996799107257"><ele>135.0</ele><time>2026-03-22T20:05:05.999Z</time></trkpt><trkpt lat="42.341999391602734" lon="-7.944295339891632"><ele>136.0</ele><time>2026-03-22T20:05:06.999Z</time></trkpt><trkpt lat="42.341975228047396" lon="-7.944596583416112"><ele>137.0</ele><time>2026-03-22T20:05:07.999Z</time></trkpt><trkpt lat="42.34196980481229" lon="-7.944892331666709"><ele>138.0</ele><time>2026-03-22T20:05:08.999Z</time></trkpt><trkpt lat="42.34197901454857" lon="-7.945187173814953"><ele>138.0</ele><time>2026-03-22T20:05:09.999Z</time></trkpt><trkpt lat="42.34199424262212" lon="-7.945471668277889"><ele>138.0</ele><time>2026-03-22T20:05:10.999Z</time></trkpt><trkpt lat="42.34201405349421" lon="-7.945768485463196"><ele>138.0</ele><time>2026-03-22T20:05:11.998Z</time></trkpt><trkpt lat="42.34202472213664" lon="-7.94605406645924"><ele>138.0</ele><time>2026-03-22T20:05:12.998Z</time></trkpt><trkpt lat="42.342048737199875" lon="-7.946359091435356"><ele>138.0</ele><time>2026-03-22T20:05:13.998Z</time></trkpt><trkpt lat="42.34205962381325" lon="-7.946650976199605"><ele>138.0</ele><time>2026-03-22T20:05:14.998Z</time></trkpt><trkpt lat="42.34205343828625" lon="-7.946941619866689"><ele>139.66666666666666</ele><time>2026-03-22T20:05:15.998Z</time></trkpt><trkpt lat="42.34202162171039" lon="-7.947234155813095"><ele>141.33333333333331</ele><time>2026-03-22T20:05:16.998Z</time></trkpt><trkpt lat="42.34196945875769" lon="-7.947525426808472"><ele>143.0</ele><time>2026-03-22T20:05:17.998Z</time></trkpt><trkpt lat="42.341894652696155" lon="-7.947811064874129"><ele>145.33333333333331</ele><time>2026-03-22T20:05:18.998Z</time></trkpt><trkpt lat="42.34182111493225" lon="-7.948084475094919"><ele>147.66666666666666</ele><time>2026-03-22T20:05:19.998Z</time></trkpt><trkpt lat="42.34173850760946" lon="-7.948349136841577"><ele>150.0</ele><time>2026-03-22T20:05:20.998Z</time></trkpt><trkpt lat="42.341672915511175" lon="-7.948620993285445"><ele>151.0</ele><time>2026-03-22T20:05:21.998Z</time></trkpt><trkpt lat="42.34160496657466" lon="-7.9488770621693225"><ele>152.0</ele><time>2026-03-22T20:05:22.998Z</time></trkpt><trkpt lat="42.34151948655568" lon="-7.949152358030651"><ele>153.0</ele><time>2026-03-22T20:05:23.998Z</time></trkpt><trkpt lat="42.34145621474232" lon="-7.949431993553527"><ele>152.0</ele><time>2026-03-22T20:05:24.998Z</time></trkpt><trkpt lat="42.34138916500788" lon="-7.94970868317457"><ele>151.0</ele><time>2026-03-22T20:05:25.998Z</time></trkpt><trkpt lat="42.341323726054036" lon="-7.949978760042161"><ele>150.0</ele><time>2026-03-22T20:05:26.998Z</time></trkpt><trkpt lat="42.341252272876275" lon="-7.950268440934745"><ele>150.0</ele><time>2026-03-22T20:05:28Z</time></trkpt><trkpt lat="42.34118204525971" lon="-7.950536420318557"><ele>150.0</ele><time>2026-03-22T20:05:29Z</time></trkpt><trkpt lat="42.34112726996112" lon="-7.950830289740076"><ele>150.0</ele><time>2026-03-22T20:05:30Z</time></trkpt><trkpt lat="42.341059305895286" lon="-7.951110806713513"><ele>151.0</ele><time>2026-03-22T20:05:31Z</time></trkpt><trkpt lat="42.34097634390241" lon="-7.951386998708705"><ele>152.0</ele><time>2026-03-22T20:05:32Z</time></trkpt><trkpt lat="42.34091140759868" lon="-7.9516690094898825"><ele>153.0</ele><time>2026-03-22T20:05:33Z</time></trkpt><trkpt lat="42.34084431900833" lon="-7.951954463973925"><ele>154.0</ele><time>2026-03-22T20:05:34Z</time></trkpt><trkpt lat="42.34077859107961" lon="-7.952245400557328"><ele>155.0</ele><time>2026-03-22T20:05:35Z</time></trkpt><trkpt lat="42.34072051278595" lon="-7.952528630521944"><ele>156.0</ele><time>2026-03-22T20:05:36Z</time></trkpt><trkpt lat="42.34066354917826" lon="-7.95282862610686"><ele>156.0</ele><time>2026-03-22T20:05:37Z</time></trkpt><trkpt lat="42.34063042113357" lon="-7.953129305872654"><ele>156.0</ele><time>2026-03-22T20:05:38Z</time></trkpt><trkpt lat="42.34058515924493" lon="-7.953423281628216"><ele>156.0</ele><time>2026-03-22T20:05:39Z</time></trkpt><trkpt lat="42.340542321064696" lon="-7.9537015153247985"><ele>152.33333333333334</ele><time>2026-03-22T20:05:40Z</time></trkpt><trkpt lat="42.340501924610045" lon="-7.953975160218079"><ele>148.66666666666669</ele><time>2026-03-22T20:05:41Z</time></trkpt><trkpt lat="42.340441304414384" lon="-7.954271618682834"><ele>145.0</ele><time>2026-03-22T20:05:42Z</time></trkpt><trkpt lat="42.340402638024784" lon="-7.954572749812384"><ele>145.0</ele><time>2026-03-22T20:05:43Z</time></trkpt><trkpt lat="42.340373652802214" lon="-7.954861338978081"><ele>145.0</ele><time>2026-03-22T20:05:44Z</time></trkpt><trkpt lat="42.34034648851409" lon="-7.955165481968132"><ele>145.0</ele><time>2026-03-22T20:05:45Z</time></trkpt><trkpt lat="42.34034024500325" lon="-7.955481417810528"><ele>144.5</ele><time>2026-03-22T20:05:46Z</time></trkpt><trkpt lat="42.34031276764115" lon="-7.955790811106134"><ele>144.0</ele><time>2026-03-22T20:05:47Z</time></trkpt><trkpt lat="42.34028177297891" lon="-7.956106851364472"><ele>145.0</ele><time>2026-03-22T20:05:48Z</time></trkpt><trkpt lat="42.34024526085077" lon="-7.956435774140305"><ele>146.0</ele><time>2026-03-22T20:05:49Z</time></trkpt><trkpt lat="42.340215532921626" lon="-7.956753989098708"><ele>146.0</ele><time>2026-03-22T20:05:50Z</time></trkpt><trkpt lat="42.34019021506955" lon="-7.957090667346639"><ele>146.0</ele><time>2026-03-22T20:05:51Z</time></trkpt><trkpt lat="42.34016109149912" lon="-7.9574151735401575"><ele>146.0</ele><time>2026-03-22T20:05:52Z</time></trkpt><trkpt lat="42.34016811431246" lon="-7.957735592869955"><ele>146.0</ele><time>2026-03-22T20:05:53Z</time></trkpt><trkpt lat="42.340159171370914" lon="-7.958069054219608"><ele>146.0</ele><time>2026-03-22T20:05:54Z</time></trkpt><trkpt lat="42.340142386813035" lon="-7.958401352142309"><ele>146.0</ele><time>2026-03-22T20:05:55Z</time></trkpt><trkpt lat="42.34011997989828" lon="-7.958727140778028"><ele>146.0</ele><time>2026-03-22T20:05:56Z</time></trkpt><trkpt lat="42.34009111477427" lon="-7.9590454420921715"><ele>146.0</ele><time>2026-03-22T20:05:57Z</time></trkpt><trkpt lat="42.340062974746466" lon="-7.959364317910464"><ele>147.5</ele><time>2026-03-22T20:05:58Z</time></trkpt><trkpt lat="42.34005555429531" lon="-7.959696496160026"><ele>149.0</ele><time>2026-03-22T20:05:59Z</time></trkpt><trkpt lat="42.34007673237283" lon="-7.960021702837248"><ele>145.5</ele><time>2026-03-22T20:06:00Z</time></trkpt><trkpt lat="42.34012660487756" lon="-7.960336648922649"><ele>142.0</ele><time>2026-03-22T20:06:01Z</time></trkpt><trkpt lat="42.34019713681158" lon="-7.9606449044271885"><ele>139.0</ele><time>2026-03-22T20:06:02Z</time></trkpt><trkpt lat="42.34026809858004" lon="-7.960939710403034"><ele>136.0</ele><time>2026-03-22T20:06:03Z</time></trkpt><trkpt lat="42.340332202877946" lon="-7.96122589253548"><ele>136.0</ele><time>2026-03-22T20:06:04Z</time></trkpt><trkpt lat="42.340396660135504" lon="-7.9615243273613245"><ele>136.0</ele><time>2026-03-22T20:06:05Z</time></trkpt><trkpt lat="42.34044433365789" lon="-7.961829694304785"><ele>138.0</ele><time>2026-03-22T20:06:05.999Z</time></trkpt><trkpt lat="42.340498547608654" lon="-7.962128153924308"><ele>140.0</ele><time>2026-03-22T20:06:06.999Z</time></trkpt><trkpt lat="42.3405605828642" lon="-7.962419970546361"><ele>148.66666666666666</ele><time>2026-03-22T20:06:07.999Z</time></trkpt><trkpt lat="42.34060201978428" lon="-7.962708960529781"><ele>157.33333333333334</ele><time>2026-03-22T20:06:08.999Z</time></trkpt><trkpt lat="42.34064557817764" lon="-7.96300248628178"><ele>166.0</ele><time>2026-03-22T20:06:09.999Z</time></trkpt><trkpt lat="42.340681862016" lon="-7.963302783302553"><ele>165.0</ele><time>2026-03-22T20:06:10.999Z</time></trkpt><trkpt lat="42.34071154415914" lon="-7.963591622610179"><ele>164.0</ele><time>2026-03-22T20:06:11.999Z</time></trkpt><trkpt lat="42.340742774127484" lon="-7.963844944673953"><ele>163.0</ele><time>2026-03-22T20:06:12.999Z</time></trkpt><trkpt lat="42.34076865154821" lon="-7.964083679558739"><ele>167.0</ele><time>2026-03-22T20:06:13.999Z</time></trkpt><trkpt lat="42.34074673573717" lon="-7.964346829450094"><ele>171.0</ele><time>2026-03-22T20:06:14.999Z</time></trkpt><trkpt lat="42.34071646328451" lon="-7.964606496836166"><ele>175.0</ele><time>2026-03-22T20:06:15.999Z</time></trkpt><trkpt lat="42.34064320261774" lon="-7.964866453144111"><ele>178.0</ele><time>2026-03-22T20:06:16.999Z</time></trkpt><trkpt lat="42.34055969727764" lon="-7.965100226703999"><ele>181.0</ele><time>2026-03-22T20:06:17.999Z</time></trkpt><trkpt lat="42.34046779654739" lon="-7.965345790931821"><ele>184.0</ele><time>2026-03-22T20:06:18.999Z</time></trkpt><trkpt lat="42.34039682668583" lon="-7.96557827481386"><ele>173.33333333333334</ele><time>2026-03-22T20:06:19.999Z</time></trkpt><trkpt lat="42.34035038874592" lon="-7.965829996867806"><ele>162.66666666666666</ele><time>2026-03-22T20:06:20.999Z</time></trkpt><trkpt lat="42.34033642071218" lon="-7.966089499700282"><ele>152.0</ele><time>2026-03-22T20:06:21.999Z</time></trkpt><trkpt lat="42.340358055249865" lon="-7.966357835683979"><ele>152.0</ele><time>2026-03-22T20:06:22.999Z</time></trkpt><trkpt lat="42.340390551710094" lon="-7.96661150391963"><ele>152.0</ele><time>2026-03-22T20:06:23.999Z</time></trkpt><trkpt lat="42.34043112086261" lon="-7.966889476360516"><ele>152.0</ele><time>2026-03-22T20:06:24.999Z</time></trkpt><trkpt lat="42.340474299127465" lon="-7.9671510349179355"><ele>153.0</ele><time>2026-03-22T20:06:25.999Z</time></trkpt><trkpt lat="42.34052273145993" lon="-7.967421844112152"><ele>154.0</ele><time>2026-03-22T20:06:26.999Z</time></trkpt><trkpt lat="42.34058106384459" lon="-7.967692229439287"><ele>155.0</ele><time>2026-03-22T20:06:27.999Z</time></trkpt><trkpt lat="42.340659741034784" lon="-7.967952764907428"><ele>158.0</ele><time>2026-03-22T20:06:28.999Z</time></trkpt><trkpt lat="42.34076388866335" lon="-7.968207622847362"><ele>161.0</ele><time>2026-03-22T20:06:29.999Z</time></trkpt><trkpt lat="42.34089622276557" lon="-7.968443242108583"><ele>164.0</ele><time>2026-03-22T20:06:30.999Z</time></trkpt><trkpt lat="42.341041319103645" lon="-7.968661964539415"><ele>164.0</ele><time>2026-03-22T20:06:31.999Z</time></trkpt><trkpt lat="42.34118478272399" lon="-7.968885287123583"><ele>164.0</ele><time>2026-03-22T20:06:32.999Z</time></trkpt><trkpt lat="42.34132913736283" lon="-7.969085012500939"><ele>164.0</ele><time>2026-03-22T20:06:33.999Z</time></trkpt><trkpt lat="42.34145828745836" lon="-7.969289518156428"><ele>161.0</ele><time>2026-03-22T20:06:34.999Z</time></trkpt><trkpt lat="42.34158636075404" lon="-7.9695128747243045"><ele>158.0</ele><time>2026-03-22T20:06:35.999Z</time></trkpt><trkpt lat="42.34167359694008" lon="-7.969731237200608"><ele>155.0</ele><time>2026-03-22T20:06:36.999Z</time></trkpt><trkpt lat="42.34174440693855" lon="-7.9699803490338645"><ele>153.66666666666666</ele><time>2026-03-22T20:06:37.999Z</time></trkpt><trkpt lat="42.34179824653591" lon="-7.970232765833167"><ele>152.33333333333334</ele><time>2026-03-22T20:06:38.999Z</time></trkpt><trkpt lat="42.34183726816768" lon="-7.970512875229741"><ele>151.0</ele><time>2026-03-22T20:06:39.999Z</time></trkpt><trkpt lat="42.341841071875244" lon="-7.97078218486717"><ele>152.0</ele><time>2026-03-22T20:06:40.999Z</time></trkpt><trkpt lat="42.34181912473826" lon="-7.971026907889214"><ele>153.0</ele><time>2026-03-22T20:06:41.999Z</time></trkpt><trkpt lat="42.34178200590281" lon="-7.971290528062889"><ele>154.0</ele><time>2026-03-22T20:06:42.999Z</time></trkpt><trkpt lat="42.341724986830904" lon="-7.971549737026122"><ele>157.33333333333334</ele><time>2026-03-22T20:06:43.999Z</time></trkpt><trkpt lat="42.341643019466105" lon="-7.971789684140962"><ele>160.66666666666666</ele><time>2026-03-22T20:06:44.999Z</time></trkpt><trkpt lat="42.341531533529164" lon="-7.9720396940529135"><ele>164.0</ele><time>2026-03-22T20:06:45.999Z</time></trkpt><trkpt lat="42.341410878223414" lon="-7.9722506499609676"><ele>161.66666666666666</ele><time>2026-03-22T20:06:46.999Z</time></trkpt><trkpt lat="42.3412715750415" lon="-7.972491105862186"><ele>159.33333333333334</ele><time>2026-03-22T20:06:47.999Z</time></trkpt><trkpt lat="42.341151080956664" lon="-7.972721820936966"><ele>157.0</ele><time>2026-03-22T20:06:48.999Z</time></trkpt><trkpt lat="42.34104009242062" lon="-7.972928936137326"><ele>157.0</ele><time>2026-03-22T20:06:49.999Z</time></trkpt><trkpt lat="42.34093942447649" lon="-7.9731415143039825"><ele>157.0</ele><time>2026-03-22T20:06:50.999Z</time></trkpt><trkpt lat="42.340849752404736" lon="-7.973362272752976"><ele>157.0</ele><time>2026-03-22T20:06:51.999Z</time></trkpt><trkpt lat="42.34077610184173" lon="-7.973601287947976"><ele>156.33333333333334</ele><time>2026-03-22T20:06:52.999Z</time></trkpt><trkpt lat="42.34073068360495" lon="-7.973825424975616"><ele>155.66666666666666</ele><time>2026-03-22T20:06:53.999Z</time></trkpt><trkpt lat="42.340697357747246" lon="-7.974053493803134"><ele>155.0</ele><time>2026-03-22T20:06:54.999Z</time></trkpt><trkpt lat="42.340715287032474" lon="-7.974314543289604"><ele>152.66666666666666</ele><time>2026-03-22T20:06:55.999Z</time></trkpt><trkpt lat="42.34074511682794" lon="-7.974548495529942"><ele>150.33333333333334</ele><time>2026-03-22T20:06:56.999Z</time></trkpt><trkpt lat="42.34080541708885" lon="-7.974780264951312"><ele>148.0</ele><time>2026-03-22T20:06:57.999Z</time></trkpt><trkpt lat="42.34088001980063" lon="-7.975020043372896"><ele>145.66666666666669</ele><time>2026-03-22T20:06:58.999Z</time></trkpt><trkpt lat="42.34099268541235" lon="-7.975240022879256"><ele>143.33333333333334</ele><time>2026-03-22T20:06:59.999Z</time></trkpt><trkpt lat="42.34111364387329" lon="-7.975427364393783"><ele>141.0</ele><time>2026-03-22T20:07:00.999Z</time></trkpt><trkpt lat="42.341260114398175" lon="-7.975613930542838"><ele>142.66666666666666</ele><time>2026-03-22T20:07:01.999Z</time></trkpt><trkpt lat="42.3414247754686" lon="-7.975795833782369"><ele>144.33333333333331</ele><time>2026-03-22T20:07:02.999Z</time></trkpt><trkpt lat="42.341594155622495" lon="-7.97596373568152"><ele>146.0</ele><time>2026-03-22T20:07:03.999Z</time></trkpt><trkpt lat="42.34178539959118" lon="-7.976116844542423"><ele>137.0</ele><time>2026-03-22T20:07:04.999Z</time></trkpt><trkpt lat="42.34198358695357" lon="-7.976266817115793"><ele>128.0</ele><time>2026-03-22T20:07:05.999Z</time></trkpt><trkpt lat="42.342186303643054" lon="-7.976411642383094"><ele>132.0</ele><time>2026-03-22T20:07:06.999Z</time></trkpt><trkpt lat="42.34239591416383" lon="-7.976559977477516"><ele>136.0</ele><time>2026-03-22T20:07:07.999Z</time></trkpt><trkpt lat="42.34259182054539" lon="-7.976718842768987"><ele>127.0</ele><time>2026-03-22T20:07:08.999Z</time></trkpt><trkpt lat="42.34276734337076" lon="-7.97689392840151"><ele>118.0</ele><time>2026-03-22T20:07:09.999Z</time></trkpt><trkpt lat="42.342946258106515" lon="-7.9770991152514075"><ele>120.0</ele><time>2026-03-22T20:07:10.999Z</time></trkpt><trkpt lat="42.34309019361322" lon="-7.977316659250005"><ele>122.0</ele><time>2026-03-22T20:07:11.999Z</time></trkpt><trkpt lat="42.34320765601628" lon="-7.9775544766182325"><ele>124.0</ele><time>2026-03-22T20:07:12.999Z</time></trkpt><trkpt lat="42.34328718812679" lon="-7.977797143461903"><ele>125.0</ele><time>2026-03-22T20:07:13.999Z</time></trkpt><trkpt lat="42.343339102129484" lon="-7.978067208714407"><ele>126.0</ele><time>2026-03-22T20:07:14.999Z</time></trkpt><trkpt lat="42.34335335485218" lon="-7.978329699052116"><ele>127.0</ele><time>2026-03-22T20:07:15.999Z</time></trkpt><trkpt lat="42.343340645362886" lon="-7.978613799336848"><ele>129.33333333333334</ele><time>2026-03-22T20:07:16.999Z</time></trkpt><trkpt lat="42.34329906425984" lon="-7.978878156688881"><ele>131.66666666666666</ele><time>2026-03-22T20:07:17.999Z</time></trkpt><trkpt lat="42.343239267305485" lon="-7.979125450177504"><ele>134.0</ele><time>2026-03-22T20:07:18.999Z</time></trkpt><trkpt lat="42.343168030369995" lon="-7.979383708951123"><ele>135.66666666666666</ele><time>2026-03-22T20:07:19.999Z</time></trkpt><trkpt lat="42.34309704198922" lon="-7.979644171419136"><ele>137.33333333333334</ele><time>2026-03-22T20:07:20.999Z</time></trkpt><trkpt lat="42.34305358288691" lon="-7.97989467890816"><ele>139.0</ele><time>2026-03-22T20:07:21.999Z</time></trkpt><trkpt lat="42.343059503764195" lon="-7.980117850600913"><ele>140.33333333333334</ele><time>2026-03-22T20:07:22.998Z</time></trkpt><trkpt lat="42.34307564080848" lon="-7.980339173242414"><ele>141.66666666666666</ele><time>2026-03-22T20:07:23.998Z</time></trkpt><trkpt lat="42.343113196570734" lon="-7.980575022339492"><ele>143.0</ele><time>2026-03-22T20:07:24.998Z</time></trkpt><trkpt lat="42.34319254952718" lon="-7.980791994769986"><ele>143.0</ele><time>2026-03-22T20:07:25.998Z</time></trkpt><trkpt lat="42.34329040799889" lon="-7.980977410041368"><ele>143.0</ele><time>2026-03-22T20:07:26.998Z</time></trkpt><trkpt lat="42.343411948763475" lon="-7.981141887736641"><ele>143.0</ele><time>2026-03-22T20:07:27.998Z</time></trkpt><trkpt lat="42.34355999123401" lon="-7.981255705441425"><ele>143.0</ele><time>2026-03-22T20:07:28.998Z</time></trkpt><trkpt lat="42.34369276255225" lon="-7.981370760320655"><ele>143.0</ele><time>2026-03-22T20:07:29.998Z</time></trkpt><trkpt lat="42.34382576846576" lon="-7.981431123919073"><ele>143.0</ele><time>2026-03-22T20:07:30.998Z</time></trkpt><trkpt lat="42.343956844683284" lon="-7.98146619206263"><ele>143.0</ele><time>2026-03-22T20:07:31.998Z</time></trkpt><trkpt lat="42.34407895794593" lon="-7.981494736455198"><ele>143.5</ele><time>2026-03-22T20:07:32.998Z</time></trkpt><trkpt lat="42.34418229370062" lon="-7.981514349092485"><ele>144.0</ele><time>2026-03-22T20:07:34Z</time></trkpt><trkpt lat="42.344265363288336" lon="-7.981532523346092"><ele>144.5</ele><time>2026-03-22T20:07:35Z</time></trkpt><trkpt lat="42.344338511836135" lon="-7.981543680786199"><ele>145.0</ele><time>2026-03-22T20:07:37Z</time></trkpt><trkpt lat="42.344414558750174" lon="-7.981563998475027"><ele>145.5</ele><time>2026-03-22T20:07:39Z</time></trkpt><trkpt lat="42.34448310322337" lon="-7.9815965820518295"><ele>146.0</ele><time>2026-03-22T20:09:46Z</time></trkpt><trkpt lat="42.34455437893756" lon="-7.981624116762679"><ele>146.0</ele><time>2026-03-22T20:09:47Z</time></trkpt><trkpt lat="42.34464412690889" lon="-7.981656817713033"><ele>146.0</ele><time>2026-03-22T20:09:48Z</time></trkpt><trkpt lat="42.34473870551254" lon="-7.9816917077823275"><ele>146.0</ele><time>2026-03-22T20:09:49Z</time></trkpt><trkpt lat="42.344873050692364" lon="-7.981742712094886"><ele>146.0</ele><time>2026-03-22T20:09:50Z</time></trkpt><trkpt lat="42.344997168299074" lon="-7.981796989967235"><ele>143.0</ele><time>2026-03-22T20:09:51Z</time></trkpt><trkpt lat="42.345105482323106" lon="-7.981856116261627"><ele>140.0</ele><time>2026-03-22T20:09:52Z</time></trkpt><trkpt lat="42.34520854949605" lon="-7.981921375903671"><ele>137.0</ele><time>2026-03-22T20:09:53Z</time></trkpt><trkpt lat="42.34532280573174" lon="-7.981998398602551"><ele>134.0</ele><time>2026-03-22T20:09:54Z</time></trkpt><trkpt lat="42.34544782723957" lon="-7.982092318689729"><ele>134.0</ele><time>2026-03-22T20:09:55Z</time></trkpt><trkpt lat="42.34556216445369" lon="-7.982201087242733"><ele>134.0</ele><time>2026-03-22T20:09:56Z</time></trkpt><trkpt lat="42.34568448356406" lon="-7.982346950911297"><ele>134.0</ele><time>2026-03-22T20:09:57Z</time></trkpt><trkpt lat="42.34578912449417" lon="-7.982490417821992"><ele>132.33333333333331</ele><time>2026-03-22T20:09:58Z</time></trkpt><trkpt lat="42.34587355047326" lon="-7.982679608286445"><ele>130.66666666666666</ele><time>2026-03-22T20:09:59Z</time></trkpt><trkpt lat="42.34594978584252" lon="-7.982885775265417"><ele>129.0</ele><time>2026-03-22T20:10:00Z</time></trkpt><trkpt lat="42.34602084741933" lon="-7.983115861256157"><ele>129.0</ele><time>2026-03-22T20:10:01Z</time></trkpt><trkpt lat="42.34607697220527" lon="-7.983340205608188"><ele>129.0</ele><time>2026-03-22T20:10:02Z</time></trkpt><trkpt lat="42.346113053969425" lon="-7.983616701314086"><ele>129.0</ele><time>2026-03-22T20:10:03Z</time></trkpt><trkpt lat="42.3461476410928" lon="-7.983892585800114"><ele>127.66666666666666</ele><time>2026-03-22T20:10:04Z</time></trkpt><trkpt lat="42.346177920459816" lon="-7.984170407387621"><ele>126.33333333333333</ele><time>2026-03-22T20:10:05Z</time></trkpt><trkpt lat="42.34619671165558" lon="-7.984448434576077"><ele>125.0</ele><time>2026-03-22T20:10:06Z</time></trkpt><trkpt lat="42.34621680915496" lon="-7.9847574053861345"><ele>122.66666666666666</ele><time>2026-03-22T20:10:07Z</time></trkpt><trkpt lat="42.34623626521292" lon="-7.985059894102773"><ele>120.33333333333334</ele><time>2026-03-22T20:10:08Z</time></trkpt><trkpt lat="42.34626279437773" lon="-7.985355316099136"><ele>118.0</ele><time>2026-03-22T20:10:09Z</time></trkpt><trkpt lat="42.346283336395594" lon="-7.9856759525539855"><ele>120.5</ele><time>2026-03-22T20:10:10Z</time></trkpt><trkpt lat="42.34630832858807" lon="-7.985985420384784"><ele>123.0</ele><time>2026-03-22T20:10:11Z</time></trkpt><trkpt lat="42.346340708681325" lon="-7.986299742559029"><ele>124.0</ele><time>2026-03-22T20:10:12Z</time></trkpt><trkpt lat="42.34638356457435" lon="-7.9866099285031815"><ele>125.0</ele><time>2026-03-22T20:10:13Z</time></trkpt><trkpt lat="42.34644364091016" lon="-7.986916812460801"><ele>125.0</ele><time>2026-03-22T20:10:14Z</time></trkpt><trkpt lat="42.34653147126138" lon="-7.987207909183249"><ele>125.0</ele><time>2026-03-22T20:10:15Z</time></trkpt><trkpt lat="42.34661031785831" lon="-7.987505695296319"><ele>125.0</ele><time>2026-03-22T20:10:16Z</time></trkpt><trkpt lat="42.346693032415814" lon="-7.987800461464039"><ele>125.0</ele><time>2026-03-22T20:10:17Z</time></trkpt><trkpt lat="42.346761745703105" lon="-7.988103437981641"><ele>125.0</ele><time>2026-03-22T20:10:18Z</time></trkpt><trkpt lat="42.34684457322165" lon="-7.988397928496841"><ele>125.0</ele><time>2026-03-22T20:10:19Z</time></trkpt><trkpt lat="42.34693880800013" lon="-7.988684781378268"><ele>125.0</ele><time>2026-03-22T20:10:20Z</time></trkpt><trkpt lat="42.347023959217154" lon="-7.98899035636116"><ele>125.0</ele><time>2026-03-22T20:10:21Z</time></trkpt><trkpt lat="42.34710325307388" lon="-7.989276280434351"><ele>125.0</ele><time>2026-03-22T20:10:22Z</time></trkpt><trkpt lat="42.34718470269825" lon="-7.989570827276124"><ele>125.0</ele><time>2026-03-22T20:10:23Z</time></trkpt><trkpt lat="42.34725132592792" lon="-7.989876570722336"><ele>124.5</ele><time>2026-03-22T20:10:24Z</time></trkpt><trkpt lat="42.3473385395787" lon="-7.990172029831337"><ele>124.0</ele><time>2026-03-22T20:10:25Z</time></trkpt><trkpt lat="42.347435852108575" lon="-7.990473907041295"><ele>124.0</ele><time>2026-03-22T20:10:26Z</time></trkpt><trkpt lat="42.34752052613555" lon="-7.990774421444887"><ele>124.0</ele><time>2026-03-22T20:10:27Z</time></trkpt><trkpt lat="42.34760521785114" lon="-7.991074698515073"><ele>124.0</ele><time>2026-03-22T20:10:28Z</time></trkpt><trkpt lat="42.3476951212185" lon="-7.991391593523629"><ele>124.0</ele><time>2026-03-22T20:10:29Z</time></trkpt><trkpt lat="42.34777691672873" lon="-7.991679909392091"><ele>123.66666666666667</ele><time>2026-03-22T20:10:30Z</time></trkpt><trkpt lat="42.34785521038418" lon="-7.99195812265554"><ele>123.33333333333334</ele><time>2026-03-22T20:10:31Z</time></trkpt><trkpt lat="42.34793061656623" lon="-7.992230285817203"><ele>123.0</ele><time>2026-03-22T20:10:32Z</time></trkpt><trkpt lat="42.348006395550684" lon="-7.992503762498461"><ele>123.0</ele><time>2026-03-22T20:10:33Z</time></trkpt><trkpt lat="42.34808639024939" lon="-7.992777823917307"><ele>123.0</ele><time>2026-03-22T20:10:34Z</time></trkpt><trkpt lat="42.348165598957245" lon="-7.993044893872486"><ele>123.0</ele><time>2026-03-22T20:10:35Z</time></trkpt><trkpt lat="42.34824556380015" lon="-7.993314513108056"><ele>122.66666666666666</ele><time>2026-03-22T20:10:35.999Z</time></trkpt><trkpt lat="42.348325732744534" lon="-7.993575804337006"><ele>122.33333333333333</ele><time>2026-03-22T20:10:36.999Z</time></trkpt><trkpt lat="42.348410931839645" lon="-7.993830249039171"><ele>122.0</ele><time>2026-03-22T20:10:37.999Z</time></trkpt><trkpt lat="42.34850242167098" lon="-7.994103477028978"><ele>121.0</ele><time>2026-03-22T20:10:38.999Z</time></trkpt><trkpt lat="42.3485961632192" lon="-7.994378391289381"><ele>120.0</ele><time>2026-03-22T20:10:39.999Z</time></trkpt><trkpt lat="42.34868849615326" lon="-7.994650149402111"><ele>119.0</ele><time>2026-03-22T20:10:40.999Z</time></trkpt><trkpt lat="42.348784769991916" lon="-7.994933506372197"><ele>119.0</ele><time>2026-03-22T20:10:41.999Z</time></trkpt><trkpt lat="42.34888077412846" lon="-7.99521708169715"><ele>119.0</ele><time>2026-03-22T20:10:42.999Z</time></trkpt><trkpt lat="42.3489759325638" lon="-7.99550786076349"><ele>119.0</ele><time>2026-03-22T20:10:43.999Z</time></trkpt><trkpt lat="42.34906746547095" lon="-7.995800809446335"><ele>119.0</ele><time>2026-03-22T20:10:44.999Z</time></trkpt><trkpt lat="42.349135435806986" lon="-7.996095463437565"><ele>120.5</ele><time>2026-03-22T20:10:45.999Z</time></trkpt><trkpt lat="42.349222150333155" lon="-7.996406397210512"><ele>122.0</ele><time>2026-03-22T20:10:46.999Z</time></trkpt><trkpt lat="42.34928493733438" lon="-7.996711139488678"><ele>123.5</ele><time>2026-03-22T20:10:47.999Z</time></trkpt><trkpt lat="42.3493453122823" lon="-7.997034337489587"><ele>125.0</ele><time>2026-03-22T20:10:48.999Z</time></trkpt><trkpt lat="42.34939437048839" lon="-7.9973480546534415"><ele>125.0</ele><time>2026-03-22T20:10:49.999Z</time></trkpt><trkpt lat="42.34943938222082" lon="-7.997677551732322"><ele>125.0</ele><time>2026-03-22T20:10:50.999Z</time></trkpt><trkpt lat="42.3494794003628" lon="-7.997993916836633"><ele>125.0</ele><time>2026-03-22T20:10:51.999Z</time></trkpt><trkpt lat="42.3495154803586" lon="-7.9983075590568555"><ele>125.0</ele><time>2026-03-22T20:10:52.999Z</time></trkpt><trkpt lat="42.349550088881514" lon="-7.998610389497566"><ele>122.66666666666666</ele><time>2026-03-22T20:10:53.999Z</time></trkpt><trkpt lat="42.34958333606251" lon="-7.998905060114096"><ele>120.33333333333334</ele><time>2026-03-22T20:10:54.999Z</time></trkpt><trkpt lat="42.34961289749998" lon="-7.9991775557542235"><ele>118.0</ele><time>2026-03-22T20:10:55.999Z</time></trkpt><trkpt lat="42.34964675756395" lon="-7.999448565355277"><ele>116.66666666666667</ele><time>2026-03-22T20:10:56.999Z</time></trkpt><trkpt lat="42.34968432917002" lon="-7.999713557997191"><ele>115.33333333333334</ele><time>2026-03-22T20:10:57.999Z</time></trkpt><trkpt lat="42.349721488373724" lon="-7.999959462168131"><ele>114.0</ele><time>2026-03-22T20:10:58.999Z</time></trkpt><trkpt lat="42.34975394242671" lon="-8.000193764050898"><ele>114.0</ele><time>2026-03-22T20:10:59.999Z</time></trkpt><trkpt lat="42.34979569153468" lon="-8.000432989470447"><ele>114.0</ele><time>2026-03-22T20:11:00.999Z</time></trkpt><trkpt lat="42.34983647778667" lon="-8.000655182341395"><ele>114.0</ele><time>2026-03-22T20:11:01.999Z</time></trkpt><trkpt lat="42.34988285089779" lon="-8.000869490556855"><ele>112.66666666666666</ele><time>2026-03-22T20:11:02.999Z</time></trkpt><trkpt lat="42.34992574940987" lon="-8.00106504975018"><ele>111.33333333333333</ele><time>2026-03-22T20:11:03.999Z</time></trkpt><trkpt lat="42.3499684706726" lon="-8.0012707444204"><ele>110.0</ele><time>2026-03-22T20:11:04.999Z</time></trkpt><trkpt lat="42.35000933943876" lon="-8.001465130159911"><ele>110.0</ele><time>2026-03-22T20:11:05.999Z</time></trkpt><trkpt lat="42.35004326536893" lon="-8.00166014346953"><ele>110.0</ele><time>2026-03-22T20:11:06.999Z</time></trkpt><trkpt lat="42.35006836627244" lon="-8.001859926394175"><ele>110.0</ele><time>2026-03-22T20:11:07.999Z</time></trkpt><trkpt lat="42.3500791522302" lon="-8.002061803659824"><ele>110.0</ele><time>2026-03-22T20:11:08.999Z</time></trkpt><trkpt lat="42.35006404230479" lon="-8.002253408996143"><ele>108.0</ele><time>2026-03-22T20:11:09.999Z</time></trkpt><trkpt lat="42.350014834488626" lon="-8.002438170116523"><ele>106.0</ele><time>2026-03-22T20:11:10.999Z</time></trkpt><trkpt lat="42.34995456246325" lon="-8.002612333095993"><ele>104.0</ele><time>2026-03-22T20:11:11.999Z</time></trkpt><trkpt lat="42.34989555927839" lon="-8.00277644231877"><ele>102.0</ele><time>2026-03-22T20:11:12.999Z</time></trkpt><trkpt lat="42.349833986381284" lon="-8.002939211866483"><ele>100.0</ele><time>2026-03-22T20:11:13.999Z</time></trkpt><trkpt lat="42.34979744716796" lon="-8.003100105136197"><ele>98.0</ele><time>2026-03-22T20:11:14.999Z</time></trkpt><trkpt lat="42.34979675817217" lon="-8.003271538082213"><ele>96.0</ele><time>2026-03-22T20:11:15.999Z</time></trkpt><trkpt lat="42.34984279287074" lon="-8.003422768910438"><ele>94.0</ele><time>2026-03-22T20:11:16.999Z</time></trkpt><trkpt lat="42.34995052639542" lon="-8.003517927918722"><ele>94.0</ele><time>2026-03-22T20:11:17.999Z</time></trkpt><trkpt lat="42.35003639029573" lon="-8.003661571670092"><ele>94.0</ele><time>2026-03-22T20:11:18.999Z</time></trkpt><trkpt lat="42.35011662507124" lon="-8.003816291387585"><ele>94.0</ele><time>2026-03-22T20:11:19.999Z</time></trkpt><trkpt lat="42.35020711336887" lon="-8.00395892167809"><ele>94.0</ele><time>2026-03-22T20:11:20.999Z</time></trkpt><trkpt lat="42.35030185151103" lon="-8.004113870572535"><ele>94.66666666666666</ele><time>2026-03-22T20:11:21.999Z</time></trkpt><trkpt lat="42.350399250716954" lon="-8.004269271574374"><ele>95.33333333333333</ele><time>2026-03-22T20:11:22.999Z</time></trkpt><trkpt lat="42.35050027112357" lon="-8.004429453599384"><ele>96.0</ele><time>2026-03-22T20:11:23.999Z</time></trkpt><trkpt lat="42.35060494662268" lon="-8.004590852148768"><ele>96.0</ele><time>2026-03-22T20:11:24.999Z</time></trkpt><trkpt lat="42.350710775023806" lon="-8.004767966419656"><ele>96.0</ele><time>2026-03-22T20:11:25.999Z</time></trkpt><trkpt lat="42.350821803625976" lon="-8.004924845537351"><ele>96.0</ele><time>2026-03-22T20:11:26.999Z</time></trkpt><trkpt lat="42.35095255378417" lon="-8.00505854280754"><ele>98.33333333333334</ele><time>2026-03-22T20:11:27.999Z</time></trkpt><trkpt lat="42.35109641073459" lon="-8.005185269999297"><ele>100.66666666666667</ele><time>2026-03-22T20:11:28.999Z</time></trkpt><trkpt lat="42.351253416344065" lon="-8.005283075982861"><ele>103.0</ele><time>2026-03-22T20:11:29.999Z</time></trkpt><trkpt lat="42.35141966059844" lon="-8.005357060087233"><ele>103.0</ele><time>2026-03-22T20:11:30.999Z</time></trkpt><trkpt lat="42.35161643953429" lon="-8.005417442542845"><ele>103.0</ele><time>2026-03-22T20:11:31.999Z</time></trkpt><trkpt lat="42.351771366415846" lon="-8.005433063801894"><ele>103.0</ele><time>2026-03-22T20:11:32.999Z</time></trkpt><trkpt lat="42.35194321123019" lon="-8.005433377000854"><ele>103.0</ele><time>2026-03-22T20:11:33.999Z</time></trkpt><trkpt lat="42.35212357356203" lon="-8.005422913697263"><ele>103.0</ele><time>2026-03-22T20:11:34.999Z</time></trkpt><trkpt lat="42.352307467521484" lon="-8.005409700423048"><ele>103.0</ele><time>2026-03-22T20:11:35.999Z</time></trkpt><trkpt lat="42.35247973612047" lon="-8.005416075421138"><ele>104.0</ele><time>2026-03-22T20:11:36.999Z</time></trkpt><trkpt lat="42.35264749625393" lon="-8.005397401840199"><ele>105.0</ele><time>2026-03-22T20:11:37.999Z</time></trkpt><trkpt lat="42.352849685375595" lon="-8.005394087702758"><ele>106.0</ele><time>2026-03-22T20:11:38.999Z</time></trkpt><trkpt lat="42.35304472171178" lon="-8.005390199384442"><ele>107.33333333333334</ele><time>2026-03-22T20:11:39.999Z</time></trkpt><trkpt lat="42.35323321604148" lon="-8.005385152896281"><ele>108.66666666666666</ele><time>2026-03-22T20:11:40.999Z</time></trkpt><trkpt lat="42.353424349071545" lon="-8.005378301172875"><ele>110.0</ele><time>2026-03-22T20:11:41.999Z</time></trkpt><trkpt lat="42.3536222314222" lon="-8.00537084417818"><ele>110.0</ele><time>2026-03-22T20:11:42.999Z</time></trkpt><trkpt lat="42.35382151532199" lon="-8.005360665348949"><ele>110.0</ele><time>2026-03-22T20:11:43.999Z</time></trkpt><trkpt lat="42.35401367153649" lon="-8.005354089724532"><ele>110.0</ele><time>2026-03-22T20:11:44.999Z</time></trkpt><trkpt lat="42.3542132639845" lon="-8.005344238007114"><ele>109.66666666666666</ele><time>2026-03-22T20:11:46Z</time></trkpt><trkpt lat="42.35441353191582" lon="-8.005342259462369"><ele>109.33333333333334</ele><time>2026-03-22T20:11:47Z</time></trkpt><trkpt lat="42.35462213189051" lon="-8.005331901867983"><ele>109.0</ele><time>2026-03-22T20:11:48Z</time></trkpt><trkpt lat="42.35483155196137" lon="-8.00532179867883"><ele>109.0</ele><time>2026-03-22T20:11:49Z</time></trkpt><trkpt lat="42.355037252450124" lon="-8.005308017004257"><ele>109.0</ele><time>2026-03-22T20:11:50Z</time></trkpt><trkpt lat="42.355251113005835" lon="-8.005297844941639"><ele>109.0</ele><time>2026-03-22T20:11:51Z</time></trkpt><trkpt lat="42.35546768407094" lon="-8.00527673065696"><ele>110.0</ele><time>2026-03-22T20:11:52Z</time></trkpt><trkpt lat="42.35568393228489" lon="-8.00526360817099"><ele>111.0</ele><time>2026-03-22T20:11:53Z</time></trkpt><trkpt lat="42.355913322399374" lon="-8.0052518091591"><ele>112.0</ele><time>2026-03-22T20:11:54Z</time></trkpt><trkpt lat="42.35612971242231" lon="-8.00523681004607"><ele>112.0</ele><time>2026-03-22T20:11:55Z</time></trkpt><trkpt lat="42.356347409572116" lon="-8.005246816382193"><ele>112.0</ele><time>2026-03-22T20:11:56Z</time></trkpt><trkpt lat="42.35657099518738" lon="-8.005256940547417"><ele>112.0</ele><time>2026-03-22T20:11:57Z</time></trkpt><trkpt lat="42.35678827652275" lon="-8.005277661518297"><ele>112.66666666666667</ele><time>2026-03-22T20:11:58Z</time></trkpt><trkpt lat="42.3570105198129" lon="-8.005298588850426"><ele>113.33333333333334</ele><time>2026-03-22T20:11:59Z</time></trkpt><trkpt lat="42.357216634750316" lon="-8.005325483462194"><ele>114.0</ele><time>2026-03-22T20:12:00Z</time></trkpt><trkpt lat="42.35742447173717" lon="-8.005337280857377"><ele>112.66666666666666</ele><time>2026-03-22T20:12:01Z</time></trkpt><trkpt lat="42.357621315071945" lon="-8.00532488534115"><ele>111.33333333333333</ele><time>2026-03-22T20:12:02Z</time></trkpt><trkpt lat="42.35783115336995" lon="-8.005289427768917"><ele>110.0</ele><time>2026-03-22T20:12:03Z</time></trkpt><trkpt lat="42.35803283064854" lon="-8.005204918959233"><ele>109.66666666666666</ele><time>2026-03-22T20:12:04Z</time></trkpt><trkpt lat="42.358226947113266" lon="-8.005083450429838"><ele>109.33333333333334</ele><time>2026-03-22T20:12:05Z</time></trkpt><trkpt lat="42.35841250736157" lon="-8.004942812669242"><ele>109.0</ele><time>2026-03-22T20:12:06Z</time></trkpt><trkpt lat="42.35860204107872" lon="-8.004796935926018"><ele>109.0</ele><time>2026-03-22T20:12:07Z</time></trkpt><trkpt lat="42.358793984291204" lon="-8.004663472944923"><ele>109.0</ele><time>2026-03-22T20:12:08Z</time></trkpt><trkpt lat="42.358986721888755" lon="-8.004535965953268"><ele>109.0</ele><time>2026-03-22T20:12:09Z</time></trkpt><trkpt lat="42.35917451025617" lon="-8.004413126143804"><ele>112.33333333333334</ele><time>2026-03-22T20:12:10Z</time></trkpt><trkpt lat="42.359370186663554" lon="-8.004299494941176"><ele>115.66666666666666</ele><time>2026-03-22T20:12:11Z</time></trkpt><trkpt lat="42.359571831908056" lon="-8.00418105132695"><ele>119.0</ele><time>2026-03-22T20:12:12Z</time></trkpt><trkpt lat="42.35976612308051" lon="-8.004068588054144"><ele>119.0</ele><time>2026-03-22T20:12:13Z</time></trkpt><trkpt lat="42.35997000951948" lon="-8.003958091677262"><ele>119.0</ele><time>2026-03-22T20:12:14Z</time></trkpt><trkpt lat="42.36017468713089" lon="-8.003846710419207"><ele>119.0</ele><time>2026-03-22T20:12:15Z</time></trkpt><trkpt lat="42.36037614730368" lon="-8.003733757351839"><ele>118.33333333333333</ele><time>2026-03-22T20:12:16Z</time></trkpt><trkpt lat="42.360586838872756" lon="-8.003621087139091"><ele>117.66666666666666</ele><time>2026-03-22T20:12:17Z</time></trkpt><trkpt lat="42.360788870023654" lon="-8.003505406521608"><ele>117.0</ele><time>2026-03-22T20:12:18Z</time></trkpt><trkpt lat="42.36099159093511" lon="-8.003383958712138"><ele>117.0</ele><time>2026-03-22T20:12:19Z</time></trkpt><trkpt lat="42.361193747367764" lon="-8.003227625454548"><ele>117.0</ele><time>2026-03-22T20:12:20Z</time></trkpt><trkpt lat="42.36138471599396" lon="-8.003060145872706"><ele>117.0</ele><time>2026-03-22T20:12:21Z</time></trkpt><trkpt lat="42.36156048345417" lon="-8.00286688741722"><ele>117.0</ele><time>2026-03-22T20:12:22Z</time></trkpt><trkpt lat="42.36171306156554" lon="-8.002665412752808"><ele>117.0</ele><time>2026-03-22T20:12:23Z</time></trkpt><trkpt lat="42.361854012985546" lon="-8.002476991106747"><ele>117.0</ele><time>2026-03-22T20:12:24Z</time></trkpt><trkpt lat="42.3619936352514" lon="-8.002306911061584"><ele>117.0</ele><time>2026-03-22T20:12:25Z</time></trkpt><trkpt lat="42.36212328633955" lon="-8.002137968496118"><ele>117.0</ele><time>2026-03-22T20:12:26Z</time></trkpt><trkpt lat="42.36225922815218" lon="-8.001985132185842"><ele>118.66666666666666</ele><time>2026-03-22T20:12:27Z</time></trkpt><trkpt lat="42.36241972165126" lon="-8.001859097465834"><ele>120.33333333333333</ele><time>2026-03-22T20:12:28Z</time></trkpt><trkpt lat="42.36259061186881" lon="-8.001778834960014"><ele>122.0</ele><time>2026-03-22T20:12:29Z</time></trkpt><trkpt lat="42.3627672866674" lon="-8.001747870884914"><ele>122.0</ele><time>2026-03-22T20:12:30Z</time></trkpt><trkpt lat="42.36295645000748" lon="-8.001733225709913"><ele>122.0</ele><time>2026-03-22T20:12:30.999Z</time></trkpt><trkpt lat="42.363145802569186" lon="-8.001734207356947"><ele>122.0</ele><time>2026-03-22T20:12:31.999Z</time></trkpt><trkpt lat="42.36333789279275" lon="-8.001754924535255"><ele>122.0</ele><time>2026-03-22T20:12:32.999Z</time></trkpt><trkpt lat="42.36353042196054" lon="-8.001770295588091"><ele>122.0</ele><time>2026-03-22T20:12:33.999Z</time></trkpt><trkpt lat="42.363705788502436" lon="-8.001787590057726"><ele>122.0</ele><time>2026-03-22T20:12:34.999Z</time></trkpt><trkpt lat="42.36391975721232" lon="-8.00179234383846"><ele>121.66666666666666</ele><time>2026-03-22T20:12:35.999Z</time></trkpt><trkpt lat="42.36412571222624" lon="-8.001814174274713"><ele>121.33333333333334</ele><time>2026-03-22T20:12:36.999Z</time></trkpt><trkpt lat="42.36433784260025" lon="-8.001829202974898"><ele>121.0</ele><time>2026-03-22T20:12:37.999Z</time></trkpt><trkpt lat="42.36454783805926" lon="-8.00183965998201"><ele>121.66666666666667</ele><time>2026-03-22T20:12:38.999Z</time></trkpt><trkpt lat="42.364759940639445" lon="-8.001836232543363"><ele>122.33333333333334</ele><time>2026-03-22T20:12:39.999Z</time></trkpt><trkpt lat="42.36497348891783" lon="-8.001816523363456"><ele>123.0</ele><time>2026-03-22T20:12:40.999Z</time></trkpt><trkpt lat="42.36517307137853" lon="-8.001759670248857"><ele>123.0</ele><time>2026-03-22T20:12:41.999Z</time></trkpt><trkpt lat="42.365396553054694" lon="-8.001674024826427"><ele>123.0</ele><time>2026-03-22T20:12:42.999Z</time></trkpt><trkpt lat="42.365581989176526" lon="-8.001529254824314"><ele>123.0</ele><time>2026-03-22T20:12:43.999Z</time></trkpt><trkpt lat="42.36576129423588" lon="-8.001380608835708"><ele>125.66666666666666</ele><time>2026-03-22T20:12:44.999Z</time></trkpt><trkpt lat="42.36594624280626" lon="-8.001246896699573"><ele>128.33333333333331</ele><time>2026-03-22T20:12:45.999Z</time></trkpt><trkpt lat="42.36612584919512" lon="-8.001099162435983"><ele>131.0</ele><time>2026-03-22T20:12:46.999Z</time></trkpt><trkpt lat="42.36628550741165" lon="-8.000996455070537"><ele>132.66666666666666</ele><time>2026-03-22T20:12:47.999Z</time></trkpt><trkpt lat="42.36646383098774" lon="-8.000926340335377"><ele>134.33333333333334</ele><time>2026-03-22T20:12:48.999Z</time></trkpt><trkpt lat="42.36665090230534" lon="-8.000887392335779"><ele>136.0</ele><time>2026-03-22T20:12:49.999Z</time></trkpt><trkpt lat="42.36684669257783" lon="-8.000884300828503"><ele>136.0</ele><time>2026-03-22T20:12:50.999Z</time></trkpt><trkpt lat="42.367034388056695" lon="-8.00090222827314"><ele>136.0</ele><time>2026-03-22T20:12:51.999Z</time></trkpt><trkpt lat="42.36721912635212" lon="-8.000927019538373"><ele>136.0</ele><time>2026-03-22T20:12:52.999Z</time></trkpt><trkpt lat="42.36739721591063" lon="-8.000951984889005"><ele>134.33333333333334</ele><time>2026-03-22T20:12:53.999Z</time></trkpt><trkpt lat="42.367561767039405" lon="-8.00095524493811"><ele>132.66666666666666</ele><time>2026-03-22T20:12:54.999Z</time></trkpt><trkpt lat="42.36772429836212" lon="-8.000930009008611"><ele>131.0</ele><time>2026-03-22T20:12:55.999Z</time></trkpt><trkpt lat="42.36788561853422" lon="-8.00086738002742"><ele>130.33333333333331</ele><time>2026-03-22T20:12:56.999Z</time></trkpt><trkpt lat="42.36804797904936" lon="-8.000776850652954"><ele>129.66666666666666</ele><time>2026-03-22T20:12:57.999Z</time></trkpt><trkpt lat="42.36820733783928" lon="-8.000664033946459"><ele>129.0</ele><time>2026-03-22T20:12:58.999Z</time></trkpt><trkpt lat="42.368359789840504" lon="-8.000532516456325"><ele>129.0</ele><time>2026-03-22T20:12:59.999Z</time></trkpt><trkpt lat="42.36852125546224" lon="-8.000407162526406"><ele>129.0</ele><time>2026-03-22T20:13:00.999Z</time></trkpt><trkpt lat="42.368687004397934" lon="-8.000316406549207"><ele>129.0</ele><time>2026-03-22T20:13:01.999Z</time></trkpt><trkpt lat="42.36886866993339" lon="-8.000260196686495"><ele>131.33333333333334</ele><time>2026-03-22T20:13:02.999Z</time></trkpt><trkpt lat="42.369050024706446" lon="-8.000239999450026"><ele>133.66666666666669</ele><time>2026-03-22T20:13:03.999Z</time></trkpt><trkpt lat="42.36923357259999" lon="-8.000254992225198"><ele>136.0</ele><time>2026-03-22T20:13:04.999Z</time></trkpt><trkpt lat="42.369418939936395" lon="-8.000298500860206"><ele>136.0</ele><time>2026-03-22T20:13:05.999Z</time></trkpt><trkpt lat="42.369599515585634" lon="-8.000370558992888"><ele>136.0</ele><time>2026-03-22T20:13:06.999Z</time></trkpt><trkpt lat="42.36976982020228" lon="-8.000442529361493"><ele>136.0</ele><time>2026-03-22T20:13:07.999Z</time></trkpt><trkpt lat="42.3699575811014" lon="-8.00049256075553"><ele>136.33333333333334</ele><time>2026-03-22T20:13:08.999Z</time></trkpt><trkpt lat="42.370150137838046" lon="-8.000540969011556"><ele>136.66666666666666</ele><time>2026-03-22T20:13:09.999Z</time></trkpt><trkpt lat="42.37034488535637" lon="-8.000590796713636"><ele>137.0</ele><time>2026-03-22T20:13:10.999Z</time></trkpt><trkpt lat="42.370544466857034" lon="-8.00064041491564"><ele>136.33333333333331</ele><time>2026-03-22T20:13:11.999Z</time></trkpt><trkpt lat="42.370744359485904" lon="-8.000688290910121"><ele>135.66666666666666</ele><time>2026-03-22T20:13:12.999Z</time></trkpt><trkpt lat="42.370936871642414" lon="-8.00074146830236"><ele>135.0</ele><time>2026-03-22T20:13:13.999Z</time></trkpt><trkpt lat="42.37113677002691" lon="-8.000788402776255"><ele>135.0</ele><time>2026-03-22T20:13:14.999Z</time></trkpt><trkpt lat="42.371347913520424" lon="-8.000822291021002"><ele>135.0</ele><time>2026-03-22T20:13:15.999Z</time></trkpt><trkpt lat="42.37153210040683" lon="-8.000852255689264"><ele>135.0</ele><time>2026-03-22T20:13:16.999Z</time></trkpt><trkpt lat="42.37172973750277" lon="-8.000854534505427"><ele>137.33333333333334</ele><time>2026-03-22T20:13:17.999Z</time></trkpt><trkpt lat="42.371928979477886" lon="-8.000834016623939"><ele>139.66666666666669</ele><time>2026-03-22T20:13:18.999Z</time></trkpt><trkpt lat="42.372112027452864" lon="-8.00082733087356"><ele>142.0</ele><time>2026-03-22T20:13:19.999Z</time></trkpt><trkpt lat="42.37231241939728" lon="-8.000809547742877"><ele>144.0</ele><time>2026-03-22T20:13:20.999Z</time></trkpt><trkpt lat="42.37249260502337" lon="-8.000802708961414"><ele>146.0</ele><time>2026-03-22T20:13:21.999Z</time></trkpt><trkpt lat="42.37265626627574" lon="-8.000794952525819"><ele>148.0</ele><time>2026-03-22T20:13:22.999Z</time></trkpt><trkpt lat="42.37285304643716" lon="-8.000798679460106"><ele>150.0</ele><time>2026-03-22T20:13:23.999Z</time></trkpt><trkpt lat="42.37303841486218" lon="-8.000796524256382"><ele>152.0</ele><time>2026-03-22T20:13:24.999Z</time></trkpt><trkpt lat="42.37320566983733" lon="-8.000779800357561"><ele>154.0</ele><time>2026-03-22T20:13:25.999Z</time></trkpt><trkpt lat="42.37339975143646" lon="-8.000779111953113"><ele>154.0</ele><time>2026-03-22T20:13:26.999Z</time></trkpt><trkpt lat="42.37356334906239" lon="-8.000765282644242"><ele>154.0</ele><time>2026-03-22T20:13:27.999Z</time></trkpt><trkpt lat="42.373764232811546" lon="-8.000776927772005"><ele>154.0</ele><time>2026-03-22T20:13:28.999Z</time></trkpt><trkpt lat="42.373954881328544" lon="-8.00077605078608"><ele>155.33333333333334</ele><time>2026-03-22T20:13:29.999Z</time></trkpt><trkpt lat="42.374140557464976" lon="-8.000768764903304"><ele>156.66666666666666</ele><time>2026-03-22T20:13:30.999Z</time></trkpt><trkpt lat="42.374337334464116" lon="-8.000761826911319"><ele>158.0</ele><time>2026-03-22T20:13:31.999Z</time></trkpt><trkpt lat="42.3745321071342" lon="-8.000757630786268"><ele>157.66666666666666</ele><time>2026-03-22T20:13:32.999Z</time></trkpt><trkpt lat="42.37472475294428" lon="-8.000758620348423"><ele>157.33333333333334</ele><time>2026-03-22T20:13:33.999Z</time></trkpt><trkpt lat="42.374925358323594" lon="-8.000758512487252"><ele>157.0</ele><time>2026-03-22T20:13:34.999Z</time></trkpt><trkpt lat="42.37513153169544" lon="-8.00076423494572"><ele>157.0</ele><time>2026-03-22T20:13:35.999Z</time></trkpt><trkpt lat="42.375331526775724" lon="-8.000760928364723"><ele>157.0</ele><time>2026-03-22T20:13:36.999Z</time></trkpt><trkpt lat="42.375533137532535" lon="-8.00075657292566"><ele>157.0</ele><time>2026-03-22T20:13:37.999Z</time></trkpt><trkpt lat="42.375735866126846" lon="-8.0007489113939"><ele>157.66666666666669</ele><time>2026-03-22T20:13:38.999Z</time></trkpt><trkpt lat="42.37594514502089" lon="-8.000750189976563"><ele>158.33333333333334</ele><time>2026-03-22T20:13:39.999Z</time></trkpt><trkpt lat="42.37614887931046" lon="-8.000741462024699"><ele>159.0</ele><time>2026-03-22T20:13:40.999Z</time></trkpt><trkpt lat="42.37636327277966" lon="-8.00073929008396"><ele>159.66666666666666</ele><time>2026-03-22T20:13:41.999Z</time></trkpt><trkpt lat="42.376576274738184" lon="-8.000717191581488"><ele>160.33333333333331</ele><time>2026-03-22T20:13:42.998Z</time></trkpt><trkpt lat="42.37676022695229" lon="-8.00066068775825"><ele>161.0</ele><time>2026-03-22T20:13:43.998Z</time></trkpt><trkpt lat="42.37694743579103" lon="-8.000589301196676"><ele>161.0</ele><time>2026-03-22T20:13:44.998Z</time></trkpt><trkpt lat="42.377129124242586" lon="-8.00046980624371"><ele>161.0</ele><time>2026-03-22T20:13:45.998Z</time></trkpt><trkpt lat="42.37730221073791" lon="-8.00032890414007"><ele>161.0</ele><time>2026-03-22T20:13:46.998Z</time></trkpt><trkpt lat="42.37747082582945" lon="-8.000188593886673"><ele>163.66666666666666</ele><time>2026-03-22T20:13:47.998Z</time></trkpt><trkpt lat="42.37763002114762" lon="-8.000073594023316"><ele>166.33333333333334</ele><time>2026-03-22T20:13:48.998Z</time></trkpt><trkpt lat="42.377786259465765" lon="-7.999985457311613"><ele>169.0</ele><time>2026-03-22T20:13:49.998Z</time></trkpt><trkpt lat="42.37795603579377" lon="-7.999909475183046"><ele>172.33333333333334</ele><time>2026-03-22T20:13:50.998Z</time></trkpt><trkpt lat="42.378136587460766" lon="-7.999858696632146"><ele>175.66666666666666</ele><time>2026-03-22T20:13:52Z</time></trkpt><trkpt lat="42.378332930334054" lon="-7.999832695853145"><ele>179.0</ele><time>2026-03-22T20:13:53Z</time></trkpt><trkpt lat="42.37852063995215" lon="-7.999822983110701"><ele>179.0</ele><time>2026-03-22T20:13:54Z</time></trkpt><trkpt lat="42.37871261556384" lon="-7.999821703697216"><ele>179.0</ele><time>2026-03-22T20:13:55Z</time></trkpt><trkpt lat="42.378906511221764" lon="-7.999813564830136"><ele>179.0</ele><time>2026-03-22T20:13:56Z</time></trkpt><trkpt lat="42.37910062672164" lon="-7.999802105250447"><ele>178.0</ele><time>2026-03-22T20:13:57Z</time></trkpt><trkpt lat="42.379283122598075" lon="-7.999782887859131"><ele>177.0</ele><time>2026-03-22T20:13:58Z</time></trkpt><trkpt lat="42.37947636576365" lon="-7.999725288862728"><ele>176.0</ele><time>2026-03-22T20:13:59Z</time></trkpt><trkpt lat="42.37966054575156" lon="-7.999649896003779"><ele>180.33333333333331</ele><time>2026-03-22T20:14:00Z</time></trkpt><trkpt lat="42.379833933918114" lon="-7.9995603643656645"><ele>184.66666666666666</ele><time>2026-03-22T20:14:01Z</time></trkpt><trkpt lat="42.38000471740545" lon="-7.999457766384191"><ele>189.0</ele><time>2026-03-22T20:14:02Z</time></trkpt><trkpt lat="42.380163423683335" lon="-7.999327377659845"><ele>189.0</ele><time>2026-03-22T20:14:03Z</time></trkpt><trkpt lat="42.38033435434779" lon="-7.999224817856831"><ele>189.0</ele><time>2026-03-22T20:14:04Z</time></trkpt><trkpt lat="42.38050060290085" lon="-7.999131776996977"><ele>189.0</ele><time>2026-03-22T20:14:05Z</time></trkpt><trkpt lat="42.38066684721162" lon="-7.999068063421871"><ele>189.33333333333334</ele><time>2026-03-22T20:14:06Z</time></trkpt><trkpt lat="42.380838814477" lon="-7.99899154503817"><ele>189.66666666666669</ele><time>2026-03-22T20:14:07Z</time></trkpt><trkpt lat="42.38100678995098" lon="-7.9989331851149075"><ele>190.0</ele><time>2026-03-22T20:14:08Z</time></trkpt><trkpt lat="42.38118746858313" lon="-7.998898636561809"><ele>192.0</ele><time>2026-03-22T20:14:09Z</time></trkpt><trkpt lat="42.38135939535218" lon="-7.998867619284681"><ele>194.0</ele><time>2026-03-22T20:14:10Z</time></trkpt><trkpt lat="42.381539991949694" lon="-7.998844750355922"><ele>196.0</ele><time>2026-03-22T20:14:11Z</time></trkpt><trkpt lat="42.381719644709555" lon="-7.998817251295245"><ele>196.0</ele><time>2026-03-22T20:14:12Z</time></trkpt><trkpt lat="42.38189462851705" lon="-7.998795226726828"><ele>196.0</ele><time>2026-03-22T20:14:13Z</time></trkpt><trkpt lat="42.382073839691934" lon="-7.998783451345014"><ele>196.0</ele><time>2026-03-22T20:14:14Z</time></trkpt><trkpt lat="42.38226651078656" lon="-7.998749941922475"><ele>197.66666666666666</ele><time>2026-03-22T20:14:15Z</time></trkpt><trkpt lat="42.382438871156545" lon="-7.998757430116679"><ele>199.33333333333331</ele><time>2026-03-22T20:14:16Z</time></trkpt><trkpt lat="42.382622618915775" lon="-7.9987513497457225"><ele>201.0</ele><time>2026-03-22T20:14:17Z</time></trkpt><trkpt lat="42.38280301258584" lon="-7.998749076856712"><ele>201.0</ele><time>2026-03-22T20:14:18Z</time></trkpt><trkpt lat="42.38298473064693" lon="-7.99873321060441"><ele>201.0</ele><time>2026-03-22T20:14:19Z</time></trkpt><trkpt lat="42.38316145153633" lon="-7.998699616810036"><ele>201.0</ele><time>2026-03-22T20:14:20Z</time></trkpt><trkpt lat="42.38333637779715" lon="-7.998649977018852"><ele>203.33333333333331</ele><time>2026-03-22T20:14:21Z</time></trkpt><trkpt lat="42.38351583587469" lon="-7.9985537821248025"><ele>205.66666666666666</ele><time>2026-03-22T20:14:22Z</time></trkpt><trkpt lat="42.38367104107838" lon="-7.998466922761824"><ele>208.0</ele><time>2026-03-22T20:14:23Z</time></trkpt><trkpt lat="42.38383623164125" lon="-7.998378821083382"><ele>210.66666666666666</ele><time>2026-03-22T20:14:24Z</time></trkpt><trkpt lat="42.38398812305686" lon="-7.998266215996053"><ele>213.33333333333331</ele><time>2026-03-22T20:14:25Z</time></trkpt><trkpt lat="42.38414372349275" lon="-7.998156607409414"><ele>216.0</ele><time>2026-03-22T20:14:26Z</time></trkpt><trkpt lat="42.38429721308484" lon="-7.998061110617652"><ele>216.0</ele><time>2026-03-22T20:14:27Z</time></trkpt><trkpt lat="42.384457303525714" lon="-7.997980445962783"><ele>216.0</ele><time>2026-03-22T20:14:28Z</time></trkpt><trkpt lat="42.3846216192081" lon="-7.997915763110658"><ele>216.0</ele><time>2026-03-22T20:14:29Z</time></trkpt><trkpt lat="42.38478662262396" lon="-7.997870156774543"><ele>221.33333333333331</ele><time>2026-03-22T20:14:30Z</time></trkpt><trkpt lat="42.38494998096361" lon="-7.997827203247387"><ele>226.66666666666666</ele><time>2026-03-22T20:14:31Z</time></trkpt><trkpt lat="42.38512033349231" lon="-7.997794560406043"><ele>232.0</ele><time>2026-03-22T20:14:32Z</time></trkpt><trkpt lat="42.38528695904581" lon="-7.997804581758811"><ele>232.0</ele><time>2026-03-22T20:14:33Z</time></trkpt><trkpt lat="42.3854538516161" lon="-7.9977542735775895"><ele>232.0</ele><time>2026-03-22T20:14:34Z</time></trkpt><trkpt lat="42.38562217061413" lon="-7.997724533528098"><ele>232.0</ele><time>2026-03-22T20:14:35Z</time></trkpt><trkpt lat="42.38578708159588" lon="-7.997693921568235"><ele>235.33333333333331</ele><time>2026-03-22T20:14:36Z</time></trkpt><trkpt lat="42.38595751419427" lon="-7.997664010859565"><ele>238.66666666666669</ele><time>2026-03-22T20:14:37Z</time></trkpt><trkpt lat="42.38613162631377" lon="-7.997641056825229"><ele>242.0</ele><time>2026-03-22T20:14:38Z</time></trkpt><trkpt lat="42.38629929128972" lon="-7.997617794443069"><ele>243.66666666666669</ele><time>2026-03-22T20:14:39Z</time></trkpt><trkpt lat="42.386455674313915" lon="-7.997587460696685"><ele>245.33333333333331</ele><time>2026-03-22T20:14:40Z</time></trkpt><trkpt lat="42.38663214058249" lon="-7.997576302296219"><ele>247.0</ele><time>2026-03-22T20:14:41Z</time></trkpt><trkpt lat="42.38680844012563" lon="-7.997578058281513"><ele>247.0</ele><time>2026-03-22T20:14:41.999Z</time></trkpt><trkpt lat="42.38698140685616" lon="-7.997607003071225"><ele>247.0</ele><time>2026-03-22T20:14:42.999Z</time></trkpt><trkpt lat="42.387151794410464" lon="-7.997661132768462"><ele>247.0</ele><time>2026-03-22T20:14:43.999Z</time></trkpt><trkpt lat="42.387308162941736" lon="-7.997757083511035"><ele>246.33333333333331</ele><time>2026-03-22T20:14:44.999Z</time></trkpt><trkpt lat="42.38744580419819" lon="-7.997882999686762"><ele>245.66666666666669</ele><time>2026-03-22T20:14:45.999Z</time></trkpt><trkpt lat="42.38757436119589" lon="-7.9980551761925085"><ele>245.0</ele><time>2026-03-22T20:14:46.999Z</time></trkpt><trkpt lat="42.38769771394347" lon="-7.998220277218724"><ele>250.66666666666669</ele><time>2026-03-22T20:14:47.999Z</time></trkpt><trkpt lat="42.38778157641264" lon="-7.998413452522683"><ele>256.3333333333333</ele><time>2026-03-22T20:14:48.999Z</time></trkpt><trkpt lat="42.38787618896415" lon="-7.99860829772049"><ele>262.0</ele><time>2026-03-22T20:14:49.999Z</time></trkpt><trkpt lat="42.38797502118542" lon="-7.998784763548892"><ele>260.0</ele><time>2026-03-22T20:14:50.999Z</time></trkpt><trkpt lat="42.388092725667654" lon="-7.998962495964243"><ele>258.0</ele><time>2026-03-22T20:14:51.999Z</time></trkpt><trkpt lat="42.388217323384836" lon="-7.999116282747151"><ele>256.0</ele><time>2026-03-22T20:14:52.999Z</time></trkpt><trkpt lat="42.38835578313671" lon="-7.999246005822679"><ele>256.0</ele><time>2026-03-22T20:14:53.999Z</time></trkpt><trkpt lat="42.388515111932165" lon="-7.999332671982498"><ele>256.0</ele><time>2026-03-22T20:14:54.999Z</time></trkpt><trkpt lat="42.38867670297656" lon="-7.999381218921803"><ele>256.0</ele><time>2026-03-22T20:14:55.999Z</time></trkpt><trkpt lat="42.38884533915837" lon="-7.999395927346194"><ele>254.33333333333331</ele><time>2026-03-22T20:14:56.999Z</time></trkpt><trkpt lat="42.389014510670044" lon="-7.999380713576592"><ele>252.66666666666669</ele><time>2026-03-22T20:14:57.999Z</time></trkpt><trkpt lat="42.38917303306961" lon="-7.999329537673648"><ele>251.0</ele><time>2026-03-22T20:14:58.999Z</time></trkpt><trkpt lat="42.38933164294893" lon="-7.999246724849637"><ele>248.0</ele><time>2026-03-22T20:14:59.999Z</time></trkpt><trkpt lat="42.38948197805719" lon="-7.999134055047468"><ele>245.0</ele><time>2026-03-22T20:15:00.999Z</time></trkpt><trkpt lat="42.38962176580447" lon="-7.999017141112822"><ele>242.0</ele><time>2026-03-22T20:15:01.999Z</time></trkpt><trkpt lat="42.38976910629098" lon="-7.998908636870116"><ele>248.0</ele><time>2026-03-22T20:15:02.999Z</time></trkpt><trkpt lat="42.389925962218065" lon="-7.998814712954116"><ele>254.0</ele><time>2026-03-22T20:15:03.999Z</time></trkpt><trkpt lat="42.390083454024" lon="-7.998746244225025"><ele>260.0</ele><time>2026-03-22T20:15:04.999Z</time></trkpt><trkpt lat="42.39025166458126" lon="-7.998686931310083"><ele>260.0</ele><time>2026-03-22T20:15:05.999Z</time></trkpt><trkpt lat="42.390422783126525" lon="-7.998662819499027"><ele>260.0</ele><time>2026-03-22T20:15:06.999Z</time></trkpt><trkpt lat="42.390571736467024" lon="-7.99867259875606"><ele>260.0</ele><time>2026-03-22T20:15:07.999Z</time></trkpt><trkpt lat="42.39076732950581" lon="-7.998729439592378"><ele>262.0</ele><time>2026-03-22T20:15:08.999Z</time></trkpt><trkpt lat="42.39093678468174" lon="-7.998803657901601"><ele>264.0</ele><time>2026-03-22T20:15:09.999Z</time></trkpt><trkpt lat="42.39108209804352" lon="-7.998902650790825"><ele>266.0</ele><time>2026-03-22T20:15:10.999Z</time></trkpt><trkpt lat="42.3912364478222" lon="-7.999023634856909"><ele>267.0</ele><time>2026-03-22T20:15:11.999Z</time></trkpt><trkpt lat="42.391387100219276" lon="-7.9991517205542495"><ele>268.0</ele><time>2026-03-22T20:15:12.999Z</time></trkpt><trkpt lat="42.39152327303035" lon="-7.999287120096952"><ele>269.0</ele><time>2026-03-22T20:15:13.999Z</time></trkpt><trkpt lat="42.39168659632999" lon="-7.999432242556786"><ele>269.0</ele><time>2026-03-22T20:15:14.999Z</time></trkpt><trkpt lat="42.391805345432125" lon="-7.999586361613112"><ele>269.0</ele><time>2026-03-22T20:15:15.999Z</time></trkpt><trkpt lat="42.391947773384025" lon="-7.999724995766574"><ele>269.0</ele><time>2026-03-22T20:15:16.999Z</time></trkpt><trkpt lat="42.39208589635169" lon="-7.999868365641031"><ele>268.6666666666667</ele><time>2026-03-22T20:15:17.999Z</time></trkpt><trkpt lat="42.39223898585278" lon="-7.999999454695992"><ele>268.3333333333333</ele><time>2026-03-22T20:15:18.999Z</time></trkpt><trkpt lat="42.392376812325125" lon="-8.000151773528708"><ele>268.0</ele><time>2026-03-22T20:15:19.999Z</time></trkpt><trkpt lat="42.392512629530344" lon="-8.000313423435085"><ele>268.0</ele><time>2026-03-22T20:15:20.999Z</time></trkpt><trkpt lat="42.392631696378665" lon="-8.000488266768743"><ele>268.0</ele><time>2026-03-22T20:15:21.999Z</time></trkpt><trkpt lat="42.39276767771745" lon="-8.00065162978439"><ele>268.0</ele><time>2026-03-22T20:15:22.999Z</time></trkpt><trkpt lat="42.39289895669923" lon="-8.000827740428711"><ele>268.3333333333333</ele><time>2026-03-22T20:15:23.999Z</time></trkpt><trkpt lat="42.39303309173644" lon="-8.000998102481304"><ele>268.6666666666667</ele><time>2026-03-22T20:15:24.999Z</time></trkpt><trkpt lat="42.3931683019886" lon="-8.001168439584731"><ele>269.0</ele><time>2026-03-22T20:15:25.999Z</time></trkpt><trkpt lat="42.39330562695132" lon="-8.0013301596448"><ele>269.0</ele><time>2026-03-22T20:15:26.999Z</time></trkpt><trkpt lat="42.3934472707155" lon="-8.001511915431285"><ele>269.0</ele><time>2026-03-22T20:15:27.999Z</time></trkpt><trkpt lat="42.393583509439196" lon="-8.001685835078474"><ele>269.0</ele><time>2026-03-22T20:15:28.999Z</time></trkpt><trkpt lat="42.39373291315058" lon="-8.001848281781486"><ele>271.0</ele><time>2026-03-22T20:15:29.999Z</time></trkpt><trkpt lat="42.39386812456984" lon="-8.00201818910038"><ele>273.0</ele><time>2026-03-22T20:15:30.999Z</time></trkpt><trkpt lat="42.394023152721104" lon="-8.00217256071402"><ele>275.0</ele><time>2026-03-22T20:15:31.999Z</time></trkpt><trkpt lat="42.39417604932253" lon="-8.002315649758039"><ele>275.0</ele><time>2026-03-22T20:15:32.999Z</time></trkpt><trkpt lat="42.39433797576436" lon="-8.002457410189491"><ele>275.0</ele><time>2026-03-22T20:15:33.999Z</time></trkpt><trkpt lat="42.394503968172245" lon="-8.002576251463937"><ele>275.0</ele><time>2026-03-22T20:15:34.999Z</time></trkpt><trkpt lat="42.394657872495806" lon="-8.002667576931676"><ele>277.0</ele><time>2026-03-22T20:15:35.999Z</time></trkpt><trkpt lat="42.3948478425627" lon="-8.002790797675894"><ele>279.0</ele><time>2026-03-22T20:15:36.999Z</time></trkpt><trkpt lat="42.395019685604865" lon="-8.00287227129835"><ele>281.0</ele><time>2026-03-22T20:15:37.999Z</time></trkpt><trkpt lat="42.395195936275634" lon="-8.002982700638547"><ele>281.0</ele><time>2026-03-22T20:15:38.999Z</time></trkpt><trkpt lat="42.39537350891012" lon="-8.003078023752257"><ele>281.0</ele><time>2026-03-22T20:15:39.999Z</time></trkpt><trkpt lat="42.39554982900319" lon="-8.003172475265476"><ele>281.0</ele><time>2026-03-22T20:15:40.999Z</time></trkpt><trkpt lat="42.39573018376437" lon="-8.00325427083579"><ele>284.0</ele><time>2026-03-22T20:15:41.999Z</time></trkpt><trkpt lat="42.3959161727403" lon="-8.003348080378212"><ele>287.0</ele><time>2026-03-22T20:15:42.999Z</time></trkpt><trkpt lat="42.39608081209344" lon="-8.003436961598053"><ele>290.0</ele><time>2026-03-22T20:15:43.999Z</time></trkpt><trkpt lat="42.3962515066348" lon="-8.003547417241371"><ele>288.0</ele><time>2026-03-22T20:15:44.999Z</time></trkpt><trkpt lat="42.39640784531633" lon="-8.003671640298538"><ele>286.0</ele><time>2026-03-22T20:15:45.999Z</time></trkpt><trkpt lat="42.396555609728715" lon="-8.003811028913981"><ele>284.0</ele><time>2026-03-22T20:15:46.999Z</time></trkpt><trkpt lat="42.39667749943305" lon="-8.003961658441533"><ele>284.0</ele><time>2026-03-22T20:15:47.999Z</time></trkpt><trkpt lat="42.396801690021896" lon="-8.00412982527567"><ele>284.0</ele><time>2026-03-22T20:15:48.999Z</time></trkpt><trkpt lat="42.396917340265894" lon="-8.004312132627943"><ele>284.0</ele><time>2026-03-22T20:15:49.999Z</time></trkpt><trkpt lat="42.39702914571774" lon="-8.004481102683274"><ele>286.6666666666667</ele><time>2026-03-22T20:15:50.999Z</time></trkpt><trkpt lat="42.39713741445069" lon="-8.004662505198665"><ele>289.3333333333333</ele><time>2026-03-22T20:15:51.999Z</time></trkpt><trkpt lat="42.39725039893843" lon="-8.004846331594218"><ele>292.0</ele><time>2026-03-22T20:15:52.999Z</time></trkpt><trkpt lat="42.39736620828625" lon="-8.005015796059647"><ele>295.0</ele><time>2026-03-22T20:15:53.999Z</time></trkpt><trkpt lat="42.39748209226514" lon="-8.005180207036098"><ele>298.0</ele><time>2026-03-22T20:15:54.999Z</time></trkpt><trkpt lat="42.39764168403764" lon="-8.005298776462096"><ele>301.0</ele><time>2026-03-22T20:15:55.999Z</time></trkpt><trkpt lat="42.39780878680577" lon="-8.005378015422624"><ele>301.0</ele><time>2026-03-22T20:15:56.998Z</time></trkpt><trkpt lat="42.397981188598685" lon="-8.005408700328159"><ele>301.0</ele><time>2026-03-22T20:15:58Z</time></trkpt><trkpt lat="42.39815288642327" lon="-8.005413386648453"><ele>301.0</ele><time>2026-03-22T20:15:59Z</time></trkpt><trkpt lat="42.398312315253655" lon="-8.005433096656336"><ele>301.66666666666663</ele><time>2026-03-22T20:16:00Z</time></trkpt><trkpt lat="42.39849093344859" lon="-8.005512355766774"><ele>302.3333333333333</ele><time>2026-03-22T20:16:01Z</time></trkpt><trkpt lat="42.39864606753234" lon="-8.005628063363346"><ele>303.0</ele><time>2026-03-22T20:16:02Z</time></trkpt><trkpt lat="42.3987828054898" lon="-8.005784372061495"><ele>305.6666666666667</ele><time>2026-03-22T20:16:03Z</time></trkpt><trkpt lat="42.39890681839304" lon="-8.005952338586454"><ele>308.33333333333337</ele><time>2026-03-22T20:16:04Z</time></trkpt><trkpt lat="42.39900827990922" lon="-8.006161651107115"><ele>311.0</ele><time>2026-03-22T20:16:05Z</time></trkpt><trkpt lat="42.39908245858139" lon="-8.006389515269106"><ele>311.0</ele><time>2026-03-22T20:16:06Z</time></trkpt><trkpt lat="42.399131285068826" lon="-8.006627278319232"><ele>311.0</ele><time>2026-03-22T20:16:07Z</time></trkpt><trkpt lat="42.39913891347124" lon="-8.006875841073134"><ele>311.0</ele><time>2026-03-22T20:16:08Z</time></trkpt><trkpt lat="42.399142303286936" lon="-8.007128624304261"><ele>311.33333333333337</ele><time>2026-03-22T20:16:09Z</time></trkpt><trkpt lat="42.399126315070085" lon="-8.007377497638089"><ele>311.6666666666667</ele><time>2026-03-22T20:16:10Z</time></trkpt><trkpt lat="42.399136592818174" lon="-8.007637743208564"><ele>312.0</ele><time>2026-03-22T20:16:11Z</time></trkpt><trkpt lat="42.39913511481553" lon="-8.007897701599358"><ele>312.0</ele><time>2026-03-22T20:16:12Z</time></trkpt><trkpt lat="42.399158056190956" lon="-8.008160512715332"><ele>312.0</ele><time>2026-03-22T20:16:13Z</time></trkpt><trkpt lat="42.39920807390776" lon="-8.008414857473948"><ele>312.0</ele><time>2026-03-22T20:16:14Z</time></trkpt><trkpt lat="42.39927979914416" lon="-8.008656211746496"><ele>312.6666666666667</ele><time>2026-03-22T20:16:15Z</time></trkpt><trkpt lat="42.39937702446967" lon="-8.008888900051366"><ele>313.33333333333337</ele><time>2026-03-22T20:16:16Z</time></trkpt><trkpt lat="42.399498791350226" lon="-8.009104439311649"><ele>314.0</ele><time>2026-03-22T20:16:17Z</time></trkpt><trkpt lat="42.399645860704396" lon="-8.009300295530347"><ele>314.0</ele><time>2026-03-22T20:16:18Z</time></trkpt><trkpt lat="42.39980698536096" lon="-8.009463679845544"><ele>314.0</ele><time>2026-03-22T20:16:19Z</time></trkpt><trkpt lat="42.39998563070366" lon="-8.009615252850537"><ele>314.0</ele><time>2026-03-22T20:16:20Z</time></trkpt><trkpt lat="42.400168222697076" lon="-8.009773918171621"><ele>314.0</ele><time>2026-03-22T20:16:21Z</time></trkpt><trkpt lat="42.40035674590897" lon="-8.009900494940128"><ele>314.0</ele><time>2026-03-22T20:16:22Z</time></trkpt><trkpt lat="42.400550462687725" lon="-8.010027400859975"><ele>314.0</ele><time>2026-03-22T20:16:23Z</time></trkpt><trkpt lat="42.4007491728245" lon="-8.01015592004716"><ele>314.0</ele><time>2026-03-22T20:16:24Z</time></trkpt><trkpt lat="42.400948623250635" lon="-8.010281681854545"><ele>314.0</ele><time>2026-03-22T20:16:25Z</time></trkpt><trkpt lat="42.40114891716272" lon="-8.010401838476604"><ele>314.0</ele><time>2026-03-22T20:16:26Z</time></trkpt><trkpt lat="42.40135362569493" lon="-8.010512399935728"><ele>314.0</ele><time>2026-03-22T20:16:27Z</time></trkpt><trkpt lat="42.40155445716893" lon="-8.01062801171022"><ele>314.0</ele><time>2026-03-22T20:16:28Z</time></trkpt><trkpt lat="42.4017621072403" lon="-8.010736154741629"><ele>314.0</ele><time>2026-03-22T20:16:29Z</time></trkpt><trkpt lat="42.40196352090101" lon="-8.010835456690602"><ele>315.33333333333337</ele><time>2026-03-22T20:16:30Z</time></trkpt><trkpt lat="42.40217516775852" lon="-8.010928576656031"><ele>316.6666666666667</ele><time>2026-03-22T20:16:31Z</time></trkpt><trkpt lat="42.40238620078313" lon="-8.011018166887961"><ele>318.0</ele><time>2026-03-22T20:16:32Z</time></trkpt><trkpt lat="42.40259518175108" lon="-8.011110189695316"><ele>318.0</ele><time>2026-03-22T20:16:33Z</time></trkpt><trkpt lat="42.40280830123407" lon="-8.011197650186578"><ele>318.0</ele><time>2026-03-22T20:16:34Z</time></trkpt><trkpt lat="42.40302000170153" lon="-8.011288970515574"><ele>318.0</ele><time>2026-03-22T20:16:35Z</time></trkpt><trkpt lat="42.403205351404246" lon="-8.011373708287456"><ele>318.3333333333333</ele><time>2026-03-22T20:16:36Z</time></trkpt><trkpt lat="42.40338570194393" lon="-8.01145936964902"><ele>318.66666666666663</ele><time>2026-03-22T20:16:37Z</time></trkpt><trkpt lat="42.403563976355876" lon="-8.011557051293643"><ele>319.0</ele><time>2026-03-22T20:16:38Z</time></trkpt><trkpt lat="42.40373584568207" lon="-8.011681650170559"><ele>319.0</ele><time>2026-03-22T20:16:39Z</time></trkpt><trkpt lat="42.40388887729292" lon="-8.011845777892894"><ele>319.0</ele><time>2026-03-22T20:16:40Z</time></trkpt><trkpt lat="42.40402353574679" lon="-8.012033246500815"><ele>319.0</ele><time>2026-03-22T20:16:41Z</time></trkpt><trkpt lat="42.40413174952049" lon="-8.012250092150204"><ele>320.3333333333333</ele><time>2026-03-22T20:16:42Z</time></trkpt><trkpt lat="42.40421577035059" lon="-8.012493360232256"><ele>321.6666666666667</ele><time>2026-03-22T20:16:43Z</time></trkpt><trkpt lat="42.404279550400744" lon="-8.012745558757851"><ele>323.0</ele><time>2026-03-22T20:16:44Z</time></trkpt><trkpt lat="42.4043216351203" lon="-8.013009106652229"><ele>323.0</ele><time>2026-03-22T20:16:45Z</time></trkpt><trkpt lat="42.40435038206472" lon="-8.01327912469951"><ele>323.0</ele><time>2026-03-22T20:16:46Z</time></trkpt><trkpt lat="42.40438304359228" lon="-8.01355944336863"><ele>323.0</ele><time>2026-03-22T20:16:47Z</time></trkpt><trkpt lat="42.40441924903276" lon="-8.013834817931228"><ele>324.33333333333337</ele><time>2026-03-22T20:16:48Z</time></trkpt><trkpt lat="42.40447255093292" lon="-8.014096571688615"><ele>325.6666666666667</ele><time>2026-03-22T20:16:49Z</time></trkpt><trkpt lat="42.40455383564213" lon="-8.01432640134028"><ele>327.0</ele><time>2026-03-22T20:16:50Z</time></trkpt><trkpt lat="42.40465654734365" lon="-8.014531291507911"><ele>325.6666666666667</ele><time>2026-03-22T20:16:50.999Z</time></trkpt><trkpt lat="42.40477255937396" lon="-8.014725982963434"><ele>324.33333333333337</ele><time>2026-03-22T20:16:51.999Z</time></trkpt><trkpt lat="42.40492915332356" lon="-8.014876330379735"><ele>323.0</ele><time>2026-03-22T20:16:52.999Z</time></trkpt><trkpt lat="42.4051016771435" lon="-8.015004971397286"><ele>323.0</ele><time>2026-03-22T20:16:53.999Z</time></trkpt><trkpt lat="42.40528942759783" lon="-8.015068020610617"><ele>323.0</ele><time>2026-03-22T20:16:54.999Z</time></trkpt><trkpt lat="42.4054851823529" lon="-8.015131191316103"><ele>323.0</ele><time>2026-03-22T20:16:55.999Z</time></trkpt><trkpt lat="42.405654555515135" lon="-8.015195118868881"><ele>322.6666666666667</ele><time>2026-03-22T20:16:56.999Z</time></trkpt><trkpt lat="42.40587320456947" lon="-8.01525794207823"><ele>322.3333333333333</ele><time>2026-03-22T20:16:57.999Z</time></trkpt><trkpt lat="42.40607175575515" lon="-8.015337151206072"><ele>322.0</ele><time>2026-03-22T20:16:58.999Z</time></trkpt><trkpt lat="42.40624927631176" lon="-8.015433714395428"><ele>321.3333333333333</ele><time>2026-03-22T20:16:59.999Z</time></trkpt><trkpt lat="42.40644061690168" lon="-8.015552841443396"><ele>320.6666666666667</ele><time>2026-03-22T20:17:00.999Z</time></trkpt><trkpt lat="42.40663466275417" lon="-8.01571195924808"><ele>320.0</ele><time>2026-03-22T20:17:01.999Z</time></trkpt><trkpt lat="42.40680979205635" lon="-8.015883973157312"><ele>321.33333333333337</ele><time>2026-03-22T20:17:02.999Z</time></trkpt><trkpt lat="42.40698321267518" lon="-8.016067324912571"><ele>322.6666666666667</ele><time>2026-03-22T20:17:03.999Z</time></trkpt><trkpt lat="42.40714673294604" lon="-8.016248758736127"><ele>324.0</ele><time>2026-03-22T20:17:04.999Z</time></trkpt><trkpt lat="42.407307047705665" lon="-8.016399672307566"><ele>324.5</ele><time>2026-03-22T20:17:05.999Z</time></trkpt><trkpt lat="42.40748219650699" lon="-8.016586104090774"><ele>325.0</ele><time>2026-03-22T20:17:06.999Z</time></trkpt><trkpt lat="42.40766924561468" lon="-8.016783886940946"><ele>326.0</ele><time>2026-03-22T20:17:07.999Z</time></trkpt><trkpt lat="42.407849634152385" lon="-8.016976278672647"><ele>327.0</ele><time>2026-03-22T20:17:08.999Z</time></trkpt><trkpt lat="42.40801058181173" lon="-8.017186467623777"><ele>327.3333333333333</ele><time>2026-03-22T20:17:09.999Z</time></trkpt><trkpt lat="42.40818453838305" lon="-8.017381594053218"><ele>327.66666666666663</ele><time>2026-03-22T20:17:10.999Z</time></trkpt><trkpt lat="42.408361206795476" lon="-8.017549575432913"><ele>328.0</ele><time>2026-03-22T20:17:11.999Z</time></trkpt><trkpt lat="42.408530469718706" lon="-8.017735205191597"><ele>328.3333333333333</ele><time>2026-03-22T20:17:12.999Z</time></trkpt><trkpt lat="42.40871117737064" lon="-8.017921164252362"><ele>328.6666666666667</ele><time>2026-03-22T20:17:13.999Z</time></trkpt><trkpt lat="42.40886247480691" lon="-8.018097585661208"><ele>329.0</ele><time>2026-03-22T20:17:14.999Z</time></trkpt><trkpt lat="42.40903024678619" lon="-8.018273857354648"><ele>330.6666666666667</ele><time>2026-03-22T20:17:15.999Z</time></trkpt><trkpt lat="42.409196739818476" lon="-8.01844898854051"><ele>332.3333333333333</ele><time>2026-03-22T20:17:16.999Z</time></trkpt><trkpt lat="42.40936638548593" lon="-8.018616747895525"><ele>334.0</ele><time>2026-03-22T20:17:17.999Z</time></trkpt><trkpt lat="42.4095173004595" lon="-8.018781869077268"><ele>335.66666666666663</ele><time>2026-03-22T20:17:18.999Z</time></trkpt><trkpt lat="42.40967357963341" lon="-8.018955648824683"><ele>337.3333333333333</ele><time>2026-03-22T20:17:19.999Z</time></trkpt><trkpt lat="42.409826389685996" lon="-8.01912376927199"><ele>339.0</ele><time>2026-03-22T20:17:20.999Z</time></trkpt><trkpt lat="42.40998814148313" lon="-8.019294789652745"><ele>339.6666666666667</ele><time>2026-03-22T20:17:21.999Z</time></trkpt><trkpt lat="42.41014050552457" lon="-8.019450468882688"><ele>340.33333333333337</ele><time>2026-03-22T20:17:22.999Z</time></trkpt><trkpt lat="42.41028960753371" lon="-8.019612638596914"><ele>341.0</ele><time>2026-03-22T20:17:23.999Z</time></trkpt><trkpt lat="42.41044380483465" lon="-8.019771589554713"><ele>344.33333333333337</ele><time>2026-03-22T20:17:24.999Z</time></trkpt><trkpt lat="42.41059280928358" lon="-8.01993268297564"><ele>347.6666666666667</ele><time>2026-03-22T20:17:25.999Z</time></trkpt><trkpt lat="42.4107458202818" lon="-8.020087748023869"><ele>351.0</ele><time>2026-03-22T20:17:26.999Z</time></trkpt><trkpt lat="42.410890822135826" lon="-8.020240275195194"><ele>351.0</ele><time>2026-03-22T20:17:27.999Z</time></trkpt><trkpt lat="42.41102273731514" lon="-8.02039390856585"><ele>351.0</ele><time>2026-03-22T20:17:28.999Z</time></trkpt><trkpt lat="42.41487953180427" lon="-8.027948386651758"><ele>368.66666666666663</ele><time>2026-03-22T20:18:15Z</time></trkpt><trkpt lat="42.41482942495281" lon="-8.028160425442335"><ele>386.3333333333333</ele><time>2026-03-22T20:18:16Z</time></trkpt><trkpt lat="42.41479046670953" lon="-8.028384893733696"><ele>404.0</ele><time>2026-03-22T20:18:17Z</time></trkpt><trkpt lat="42.41473735063247" lon="-8.02860494219568"><ele>403.3333333333333</ele><time>2026-03-22T20:18:18Z</time></trkpt><trkpt lat="42.41467877223559" lon="-8.02883394512474"><ele>402.66666666666663</ele><time>2026-03-22T20:18:19Z</time></trkpt><trkpt lat="42.41461607818899" lon="-8.02906390115817"><ele>402.0</ele><time>2026-03-22T20:18:20Z</time></trkpt><trkpt lat="42.41454565686834" lon="-8.02930927781456"><ele>403.33333333333337</ele><time>2026-03-22T20:18:21Z</time></trkpt><trkpt lat="42.41447953490245" lon="-8.029530632957535"><ele>404.6666666666667</ele><time>2026-03-22T20:18:22Z</time></trkpt><trkpt lat="42.41440987300372" lon="-8.029760779442022"><ele>406.0</ele><time>2026-03-22T20:18:23Z</time></trkpt><trkpt lat="42.414339610879594" lon="-8.029986776535706"><ele>407.33333333333337</ele><time>2026-03-22T20:18:24Z</time></trkpt><trkpt lat="42.414266632748785" lon="-8.030227397743982"><ele>408.66666666666663</ele><time>2026-03-22T20:18:25Z</time></trkpt><trkpt lat="42.41418846451679" lon="-8.030459449706475"><ele>410.0</ele><time>2026-03-22T20:18:26Z</time></trkpt><trkpt lat="42.41412267745427" lon="-8.030708624382276"><ele>410.3333333333333</ele><time>2026-03-22T20:18:27Z</time></trkpt><trkpt lat="42.41406813601812" lon="-8.03094210460407"><ele>410.66666666666663</ele><time>2026-03-22T20:18:28Z</time></trkpt><trkpt lat="42.414016667603185" lon="-8.031174262917576"><ele>411.0</ele><time>2026-03-22T20:18:29Z</time></trkpt><trkpt lat="42.41398078194788" lon="-8.031422033559547"><ele>412.0</ele><time>2026-03-22T20:18:30Z</time></trkpt><trkpt lat="42.41396574674835" lon="-8.031667234912135"><ele>413.0</ele><time>2026-03-22T20:18:31Z</time></trkpt><trkpt lat="42.413990266810515" lon="-8.032169709558131"><ele>413.0</ele><time>2026-03-22T20:18:33Z</time></trkpt><trkpt lat="42.41402026868408" lon="-8.032417215013973"><ele>413.0</ele><time>2026-03-22T20:18:34Z</time></trkpt><trkpt lat="42.414067444688214" lon="-8.03267534804988"><ele>413.0</ele><time>2026-03-22T20:18:35Z</time></trkpt><trkpt lat="42.41412770854609" lon="-8.032891426844657"><ele>414.3333333333333</ele><time>2026-03-22T20:18:36Z</time></trkpt><trkpt lat="42.414201533276106" lon="-8.033116329120048"><ele>415.66666666666663</ele><time>2026-03-22T20:18:37Z</time></trkpt><trkpt lat="42.41429151918155" lon="-8.03332866222771"><ele>417.0</ele><time>2026-03-22T20:18:38Z</time></trkpt><trkpt lat="42.41439475734081" lon="-8.033528688411458"><ele>417.66666666666663</ele><time>2026-03-22T20:18:39Z</time></trkpt><trkpt lat="42.4144994256723" lon="-8.03372271882336"><ele>418.3333333333333</ele><time>2026-03-22T20:18:40Z</time></trkpt><trkpt lat="42.414597749570156" lon="-8.033925761657253"><ele>419.0</ele><time>2026-03-22T20:18:41Z</time></trkpt><trkpt lat="42.414690325683104" lon="-8.034123905478161"><ele>421.66666666666663</ele><time>2026-03-22T20:18:42Z</time></trkpt><trkpt lat="42.41478132974615" lon="-8.034282294122313"><ele>424.33333333333337</ele><time>2026-03-22T20:18:43Z</time></trkpt><trkpt lat="42.41489424141099" lon="-8.034504006413302"><ele>427.0</ele><time>2026-03-22T20:18:44Z</time></trkpt><trkpt lat="42.41499486335007" lon="-8.034693431449247"><ele>427.0</ele><time>2026-03-22T20:18:45Z</time></trkpt><trkpt lat="42.41509010607995" lon="-8.034887179352895"><ele>427.0</ele><time>2026-03-22T20:18:46Z</time></trkpt><trkpt lat="42.41518270549072" lon="-8.03509300263946"><ele>427.0</ele><time>2026-03-22T20:18:47Z</time></trkpt><trkpt lat="42.41527444039232" lon="-8.035290281896561"><ele>428.0</ele><time>2026-03-22T20:18:48Z</time></trkpt><trkpt lat="42.415372421087945" lon="-8.035499164476455"><ele>429.0</ele><time>2026-03-22T20:18:49Z</time></trkpt><trkpt lat="42.41546148030789" lon="-8.03569757802905"><ele>430.0</ele><time>2026-03-22T20:18:50Z</time></trkpt><trkpt lat="42.41554175161921" lon="-8.03589680022105"><ele>432.5</ele><time>2026-03-22T20:18:51Z</time></trkpt><trkpt lat="42.41565953198577" lon="-8.036101164886293"><ele>435.0</ele><time>2026-03-22T20:18:52Z</time></trkpt><trkpt lat="42.41590002160722" lon="-8.03647912285351"><ele>434.66666666666663</ele><time>2026-03-22T20:18:54Z</time></trkpt><trkpt lat="42.416027481411376" lon="-8.036667637500475"><ele>434.3333333333333</ele><time>2026-03-22T20:18:55Z</time></trkpt><trkpt lat="42.41615822314485" lon="-8.036878585286992"><ele>434.0</ele><time>2026-03-22T20:18:56Z</time></trkpt><trkpt lat="42.41630869786621" lon="-8.037076491874382"><ele>434.0</ele><time>2026-03-22T20:18:57Z</time></trkpt><trkpt lat="42.41645419449343" lon="-8.03728364390689"><ele>434.0</ele><time>2026-03-22T20:18:58Z</time></trkpt><trkpt lat="42.416603843371824" lon="-8.03749712220189"><ele>434.0</ele><time>2026-03-22T20:18:59Z</time></trkpt><trkpt lat="42.416768780922325" lon="-8.037724233339354"><ele>432.66666666666663</ele><time>2026-03-22T20:18:59.999Z</time></trkpt><trkpt lat="42.41692814340713" lon="-8.037951982492118"><ele>431.33333333333337</ele><time>2026-03-22T20:19:00.999Z</time></trkpt><trkpt lat="42.417063162498145" lon="-8.038174535363188"><ele>430.0</ele><time>2026-03-22T20:19:01.999Z</time></trkpt><trkpt lat="42.417176414354564" lon="-8.038401506965597"><ele>428.6666666666667</ele><time>2026-03-22T20:19:02.999Z</time></trkpt><trkpt lat="42.41727166594355" lon="-8.03864896494261"><ele>427.33333333333337</ele><time>2026-03-22T20:19:03.999Z</time></trkpt><trkpt lat="42.417353823483204" lon="-8.0389061202942"><ele>426.0</ele><time>2026-03-22T20:19:04.999Z</time></trkpt><trkpt lat="42.41743541649453" lon="-8.039187641477586"><ele>423.5</ele><time>2026-03-22T20:19:05.999Z</time></trkpt><trkpt lat="42.41752562808412" lon="-8.039479195721952"><ele>421.0</ele><time>2026-03-22T20:19:06.999Z</time></trkpt><trkpt lat="42.417610820408484" lon="-8.03974877663933"><ele>419.6666666666667</ele><time>2026-03-22T20:19:07.999Z</time></trkpt><trkpt lat="42.417699366706" lon="-8.040004440959338"><ele>418.33333333333337</ele><time>2026-03-22T20:19:08.999Z</time></trkpt><trkpt lat="42.41778810326645" lon="-8.040233925358086"><ele>417.0</ele><time>2026-03-22T20:19:09.999Z</time></trkpt><trkpt lat="42.417900866802626" lon="-8.040459767541552"><ele>417.66666666666663</ele><time>2026-03-22T20:19:10.999Z</time></trkpt><trkpt lat="42.41806050172882" lon="-8.040639205235344"><ele>418.3333333333333</ele><time>2026-03-22T20:19:11.999Z</time></trkpt><trkpt lat="42.418213921347345" lon="-8.040801244953398"><ele>419.0</ele><time>2026-03-22T20:19:12.999Z</time></trkpt><trkpt lat="42.418533056281795" lon="-8.041135777475047"><ele>419.0</ele><time>2026-03-22T20:19:14.999Z</time></trkpt><trkpt lat="42.4187078771612" lon="-8.04128858034773"><ele>419.0</ele><time>2026-03-22T20:19:15.999Z</time></trkpt><trkpt lat="42.41888941047097" lon="-8.041406241999786"><ele>419.0</ele><time>2026-03-22T20:19:16.999Z</time></trkpt><trkpt lat="42.4190770619628" lon="-8.041491540756228"><ele>419.3333333333333</ele><time>2026-03-22T20:19:17.999Z</time></trkpt><trkpt lat="42.419290894138236" lon="-8.041562459159897"><ele>419.66666666666663</ele><time>2026-03-22T20:19:18.999Z</time></trkpt><trkpt lat="42.419503748534694" lon="-8.041622365262826"><ele>420.0</ele><time>2026-03-22T20:19:19.999Z</time></trkpt><trkpt lat="42.419718855166195" lon="-8.041698617255028"><ele>417.66666666666663</ele><time>2026-03-22T20:19:20.999Z</time></trkpt><trkpt lat="42.41993374777401" lon="-8.041784939445629"><ele>415.3333333333333</ele><time>2026-03-22T20:19:21.999Z</time></trkpt><trkpt lat="42.42014507972669" lon="-8.041874177999487"><ele>413.0</ele><time>2026-03-22T20:19:22.999Z</time></trkpt><trkpt lat="42.4203522415046" lon="-8.04196848506925"><ele>413.66666666666663</ele><time>2026-03-22T20:19:23.999Z</time></trkpt><trkpt lat="42.42054275648385" lon="-8.042081601851796"><ele>414.33333333333337</ele><time>2026-03-22T20:19:24.999Z</time></trkpt><trkpt lat="42.420733701704464" lon="-8.04222612219881"><ele>415.0</ele><time>2026-03-22T20:19:25.999Z</time></trkpt><trkpt lat="42.42090787116371" lon="-8.042385495438449"><ele>410.5</ele><time>2026-03-22T20:19:26.999Z</time></trkpt><trkpt lat="42.421087483780056" lon="-8.042583634698742"><ele>406.0</ele><time>2026-03-22T20:19:27.999Z</time></trkpt><trkpt lat="42.421255253316794" lon="-8.042792456137885"><ele>409.5</ele><time>2026-03-22T20:19:28.999Z</time></trkpt><trkpt lat="42.42140544958816" lon="-8.043019612398098"><ele>413.0</ele><time>2026-03-22T20:19:29.999Z</time></trkpt><trkpt lat="42.42154500976742" lon="-8.043260186339968"><ele>411.0</ele><time>2026-03-22T20:19:30.999Z</time></trkpt><trkpt lat="42.42168255538687" lon="-8.043507753648825"><ele>409.0</ele><time>2026-03-22T20:19:31.999Z</time></trkpt><trkpt lat="42.42181641005032" lon="-8.04374694793341"><ele>409.0</ele><time>2026-03-22T20:19:32.999Z</time></trkpt><trkpt lat="42.42193030405988" lon="-8.04397886338457"><ele>409.0</ele><time>2026-03-22T20:19:33.999Z</time></trkpt><trkpt lat="42.42209410713072" lon="-8.044416450997586"><ele>409.0</ele><time>2026-03-22T20:19:35.999Z</time></trkpt><trkpt lat="42.422141844766216" lon="-8.044655695084959"><ele>409.0</ele><time>2026-03-22T20:19:36.999Z</time></trkpt><trkpt lat="42.42215775831362" lon="-8.044907604697618"><ele>409.0</ele><time>2026-03-22T20:19:37.999Z</time></trkpt><trkpt lat="42.422137435378566" lon="-8.04515329781856"><ele>409.6666666666667</ele><time>2026-03-22T20:19:38.999Z</time></trkpt><trkpt lat="42.422095205312374" lon="-8.045403364937862"><ele>410.33333333333337</ele><time>2026-03-22T20:19:39.999Z</time></trkpt><trkpt lat="42.422037155068026" lon="-8.045651402901"><ele>411.0</ele><time>2026-03-22T20:19:40.999Z</time></trkpt><trkpt lat="42.422003337039875" lon="-8.045904578925043"><ele>412.0</ele><time>2026-03-22T20:19:41.999Z</time></trkpt><trkpt lat="42.42197545390445" lon="-8.04616873019768"><ele>413.0</ele><time>2026-03-22T20:19:42.999Z</time></trkpt><trkpt lat="42.42197296533414" lon="-8.046425349618334"><ele>414.0</ele><time>2026-03-22T20:19:43.999Z</time></trkpt><trkpt lat="42.42198729897467" lon="-8.046702081270265"><ele>414.66666666666663</ele><time>2026-03-22T20:19:44.999Z</time></trkpt><trkpt lat="42.42200761892811" lon="-8.046951977054087"><ele>415.3333333333333</ele><time>2026-03-22T20:19:45.999Z</time></trkpt><trkpt lat="42.42202603117182" lon="-8.047179827214693"><ele>416.0</ele><time>2026-03-22T20:19:46.999Z</time></trkpt><trkpt lat="42.422041898458794" lon="-8.047385264071522"><ele>416.0</ele><time>2026-03-22T20:19:47.999Z</time></trkpt><trkpt lat="42.42205749269631" lon="-8.047583827845884"><ele>416.0</ele><time>2026-03-22T20:19:48.999Z</time></trkpt><trkpt lat="42.42207299735476" lon="-8.047771166186093"><ele>416.0</ele><time>2026-03-22T20:19:49.999Z</time></trkpt><trkpt lat="42.42208754153736" lon="-8.0479397781238"><ele>416.0</ele><time>2026-03-22T20:19:50.999Z</time></trkpt><trkpt lat="42.422101032118" lon="-8.048096175530748"><ele>416.0</ele><time>2026-03-22T20:19:51.999Z</time></trkpt><trkpt lat="42.42211495288121" lon="-8.048249095223033"><ele>416.0</ele><time>2026-03-22T20:19:52.999Z</time></trkpt><trkpt lat="42.42212823060271" lon="-8.048394519364711"><ele>416.0</ele><time>2026-03-22T20:19:53.999Z</time></trkpt><trkpt lat="42.42213700857843" lon="-8.048521812855626"><ele>416.0</ele><time>2026-03-22T20:19:54.999Z</time></trkpt><trkpt lat="42.42215505219313" lon="-8.048750044772563"><ele>416.6</ele><time>2026-03-22T20:19:56.999Z</time></trkpt><trkpt lat="42.42216419549049" lon="-8.048865697420819"><ele>417.20000000000005</ele><time>2026-03-22T20:19:57.999Z</time></trkpt><trkpt lat="42.422172229879145" lon="-8.048967323534765"><ele>417.79999999999995</ele><time>2026-03-22T20:19:58.999Z</time></trkpt><trkpt lat="42.42218301873774" lon="-8.049109858111024"><ele>418.4</ele><time>2026-03-22T20:20:00.999Z</time></trkpt><trkpt lat="42.42204110156078" lon="-8.049224955956127"><ele>419.0</ele><time>2026-03-22T20:20:03.999Z</time></trkpt><trkpt lat="42.4219884460867" lon="-8.049278640121482"><ele>419.0</ele><time>2026-03-22T20:20:04.999Z</time></trkpt><trkpt lat="42.4219090671847" lon="-8.049371574919869"><ele>419.0</ele><time>2026-03-22T20:20:06.999Z</time></trkpt><trkpt lat="42.42174762306406" lon="-8.049234548054187"><ele>419.0</ele><time>2026-03-22T20:20:10Z</time></trkpt><trkpt lat="42.42170739475836" lon="-8.049162265436745"><ele>419.0</ele><time>2026-03-22T20:20:11Z</time></trkpt><trkpt lat="42.4216694505606" lon="-8.049072704946228"><ele>419.0</ele><time>2026-03-22T20:20:13Z</time></trkpt><trkpt lat="42.42161452946873" lon="-8.048991366403525"><ele>419.0</ele><time>2026-03-22T20:20:16Z</time></trkpt><trkpt lat="42.421500653682244" lon="-8.048825622375073"><ele>419.0</ele><time>2026-03-22T20:20:20Z</time></trkpt><trkpt lat="42.42144991146191" lon="-8.048734836000282"><ele>419.0</ele><time>2026-03-22T20:20:22Z</time></trkpt><trkpt lat="42.42145106024736" lon="-8.048639011355437"><ele>419.0</ele><time>2026-03-22T20:20:23Z</time></trkpt><trkpt lat="42.42147119859195" lon="-8.048479168151133"><ele>419.0</ele><time>2026-03-22T20:20:25Z</time></trkpt><trkpt lat="42.42148059927262" lon="-8.048392642133091"><ele>419.0</ele><time>2026-03-22T20:20:27Z</time></trkpt><trkpt lat="42.42166133595746" lon="-8.04834174807287"><ele>419.0</ele><time>2026-03-22T20:20:32Z</time></trkpt><trkpt lat="42.42175068158665" lon="-8.04831720296202"><ele>419.0</ele><time>2026-03-22T20:20:33Z</time></trkpt><trkpt lat="42.42183903945175" lon="-8.048295169028037"><ele>419.0</ele><time>2026-03-22T20:20:34Z</time></trkpt><trkpt lat="42.421928996664995" lon="-8.048286668366135"><ele>416.0</ele><time>2026-03-22T20:20:35Z</time></trkpt><trkpt lat="42.4220126064571" lon="-8.048284726544146"><ele>416.0</ele><time>2026-03-22T20:20:36Z</time></trkpt><trkpt lat="42.42208763524285" lon="-8.048290365888024"><ele>416.0</ele><time>2026-03-22T20:20:42Z</time></trkpt></trkseg><trkseg><trkpt lat="42.42232679066204" lon="-8.050824678373546"><ele>427.0</ele><time>2026-03-22T20:56:25Z</time></trkpt><trkpt lat="42.422379669504295" lon="-8.050936973454403"><ele>427.0</ele><time>2026-03-22T20:56:26Z</time></trkpt><trkpt lat="42.4224563279694" lon="-8.051044282092034"><ele>427.0</ele><time>2026-03-22T20:56:27Z</time></trkpt><trkpt lat="42.42258329198232" lon="-8.051114911107875"><ele>427.0</ele><time>2026-03-22T20:56:28Z</time></trkpt><trkpt lat="42.42268784930394" lon="-8.05121509065941"><ele>427.0</ele><time>2026-03-22T20:56:29Z</time></trkpt><trkpt lat="42.42280020522862" lon="-8.051322603542541"><ele>427.0</ele><time>2026-03-22T20:56:30Z</time></trkpt><trkpt lat="42.422916052843426" lon="-8.051439614026657"><ele>427.0</ele><time>2026-03-22T20:56:31Z</time></trkpt><trkpt lat="42.42303047354903" lon="-8.051558154223404"><ele>427.0</ele><time>2026-03-22T20:56:32Z</time></trkpt><trkpt lat="42.423135353992336" lon="-8.051690309366524"><ele>425.5</ele><time>2026-03-22T20:56:33Z</time></trkpt><trkpt lat="42.42324486254266" lon="-8.051842760288594"><ele>424.0</ele><time>2026-03-22T20:56:34Z</time></trkpt><trkpt lat="42.42334089618987" lon="-8.05198888398955"><ele>422.5</ele><time>2026-03-22T20:56:35Z</time></trkpt><trkpt lat="42.423423442053156" lon="-8.052145609342784"><ele>421.0</ele><time>2026-03-22T20:56:36Z</time></trkpt><trkpt lat="42.4234752895666" lon="-8.05231768475907"><ele>419.6666666666667</ele><time>2026-03-22T20:56:37Z</time></trkpt><trkpt lat="42.423523633943006" lon="-8.052510296703376"><ele>418.33333333333337</ele><time>2026-03-22T20:56:38Z</time></trkpt><trkpt lat="42.423553182862804" lon="-8.052714852521763"><ele>417.0</ele><time>2026-03-22T20:56:38.999Z</time></trkpt><trkpt lat="42.42357919496659" lon="-8.052922903210186"><ele>417.0</ele><time>2026-03-22T20:56:39.999Z</time></trkpt><trkpt lat="42.42360580371473" lon="-8.05314465758951"><ele>417.0</ele><time>2026-03-22T20:56:40.999Z</time></trkpt><trkpt lat="42.42362676061105" lon="-8.053371711187134"><ele>417.0</ele><time>2026-03-22T20:56:41.999Z</time></trkpt><trkpt lat="42.42366052241159" lon="-8.053584720832506"><ele>417.33333333333337</ele><time>2026-03-22T20:56:42.999Z</time></trkpt><trkpt lat="42.42372026925612" lon="-8.053741753397631"><ele>417.6666666666667</ele><time>2026-03-22T20:56:43.999Z</time></trkpt><trkpt lat="42.423819330215395" lon="-8.0539924536324"><ele>418.0</ele><time>2026-03-22T20:56:44.999Z</time></trkpt><trkpt lat="42.42390314126509" lon="-8.054184816611683"><ele>419.0</ele><time>2026-03-22T20:56:45.999Z</time></trkpt><trkpt lat="42.42399913198312" lon="-8.05434695587185"><ele>420.0</ele><time>2026-03-22T20:56:46.999Z</time></trkpt><trkpt lat="42.424091321117125" lon="-8.054584857672777"><ele>421.0</ele><time>2026-03-22T20:56:47.999Z</time></trkpt><trkpt lat="42.42417898511822" lon="-8.054802145875447"><ele>420.0</ele><time>2026-03-22T20:56:48.999Z</time></trkpt><trkpt lat="42.42426649287454" lon="-8.055026266118375"><ele>419.0</ele><time>2026-03-22T20:56:49.999Z</time></trkpt><trkpt lat="42.42434505708364" lon="-8.055232684065498"><ele>418.0</ele><time>2026-03-22T20:56:51Z</time></trkpt><trkpt lat="42.424433269457076" lon="-8.055482138567205"><ele>418.0</ele><time>2026-03-22T20:56:52Z</time></trkpt><trkpt lat="42.42451664607754" lon="-8.055718637542556"><ele>418.0</ele><time>2026-03-22T20:56:53Z</time></trkpt><trkpt lat="42.42460364030929" lon="-8.055966975310517"><ele>418.0</ele><time>2026-03-22T20:56:54Z</time></trkpt><trkpt lat="42.42468750934082" lon="-8.056211815091674"><ele>418.33333333333337</ele><time>2026-03-22T20:56:55Z</time></trkpt><trkpt lat="42.42477507579393" lon="-8.056459155380665"><ele>418.66666666666663</ele><time>2026-03-22T20:56:56Z</time></trkpt><trkpt lat="42.424865086823495" lon="-8.056714435726983"><ele>419.0</ele><time>2026-03-22T20:56:57Z</time></trkpt><trkpt lat="42.424961275344316" lon="-8.056960633720065"><ele>418.0</ele><time>2026-03-22T20:56:58Z</time></trkpt><trkpt lat="42.42506185601742" lon="-8.057228269577111"><ele>417.0</ele><time>2026-03-22T20:56:59Z</time></trkpt><trkpt lat="42.42516990414254" lon="-8.057488328056902"><ele>416.0</ele><time>2026-03-22T20:57:00Z</time></trkpt><trkpt lat="42.42527981429653" lon="-8.05773717963138"><ele>414.66666666666663</ele><time>2026-03-22T20:57:01Z</time></trkpt><trkpt lat="42.42539884935125" lon="-8.057962643976362"><ele>413.33333333333337</ele><time>2026-03-22T20:57:02Z</time></trkpt><trkpt lat="42.42549550949545" lon="-8.058200418353406"><ele>412.0</ele><time>2026-03-22T20:57:03Z</time></trkpt><trkpt lat="42.42560896219798" lon="-8.058435409641012"><ele>410.6666666666667</ele><time>2026-03-22T20:57:04Z</time></trkpt><trkpt lat="42.42572155365326" lon="-8.058672757853747"><ele>409.33333333333337</ele><time>2026-03-22T20:57:05Z</time></trkpt><trkpt lat="42.42583579522965" lon="-8.05893329620225"><ele>408.0</ele><time>2026-03-22T20:57:06Z</time></trkpt><trkpt lat="42.42595246198878" lon="-8.05918211732647"><ele>408.0</ele><time>2026-03-22T20:57:07Z</time></trkpt><trkpt lat="42.42606694060684" lon="-8.059435943541015"><ele>408.0</ele><time>2026-03-22T20:57:08Z</time></trkpt><trkpt lat="42.42618169906987" lon="-8.059689132111378"><ele>408.0</ele><time>2026-03-22T20:57:09Z</time></trkpt><trkpt lat="42.42630052641184" lon="-8.059940335967463"><ele>405.5</ele><time>2026-03-22T20:57:10Z</time></trkpt><trkpt lat="42.42645101625314" lon="-8.060202101277012"><ele>403.0</ele><time>2026-03-22T20:57:11Z</time></trkpt><trkpt lat="42.42658048269628" lon="-8.060418244240193"><ele>403.0</ele><time>2026-03-22T20:57:12Z</time></trkpt><trkpt lat="42.4266661595849" lon="-8.06068049306661"><ele>403.0</ele><time>2026-03-22T20:57:13Z</time></trkpt><trkpt lat="42.426761710892094" lon="-8.060904539655061"><ele>403.0</ele><time>2026-03-22T20:57:14Z</time></trkpt><trkpt lat="42.42686369306745" lon="-8.061123111805243"><ele>401.33333333333337</ele><time>2026-03-22T20:57:15Z</time></trkpt><trkpt lat="42.42696168390185" lon="-8.061338363732832"><ele>399.66666666666663</ele><time>2026-03-22T20:57:16Z</time></trkpt><trkpt lat="42.42705105715336" lon="-8.061537554873798"><ele>398.0</ele><time>2026-03-22T20:57:17Z</time></trkpt><trkpt lat="42.427139245255404" lon="-8.061744409471116"><ele>395.3333333333333</ele><time>2026-03-22T20:57:18Z</time></trkpt><trkpt lat="42.427239936014544" lon="-8.06191267429639"><ele>392.66666666666663</ele><time>2026-03-22T20:57:19Z</time></trkpt><trkpt lat="42.42733607564795" lon="-8.062079298594819"><ele>390.0</ele><time>2026-03-22T20:57:20Z</time></trkpt><trkpt lat="42.427430483957295" lon="-8.062247319671542"><ele>390.0</ele><time>2026-03-22T20:57:21Z</time></trkpt><trkpt lat="42.427529087251656" lon="-8.062420733521455"><ele>390.0</ele><time>2026-03-22T20:57:22Z</time></trkpt><trkpt lat="42.42763887650667" lon="-8.062562775600094"><ele>390.0</ele><time>2026-03-22T20:57:23Z</time></trkpt><trkpt lat="42.42772737736234" lon="-8.06269666778025"><ele>390.0</ele><time>2026-03-22T20:57:24Z</time></trkpt><trkpt lat="42.42783710279635" lon="-8.062810146372538"><ele>390.0</ele><time>2026-03-22T20:57:25Z</time></trkpt><trkpt lat="42.42795166306697" lon="-8.062882559714154"><ele>390.0</ele><time>2026-03-22T20:57:26Z</time></trkpt><trkpt lat="42.4280093665456" lon="-8.06295532943804"><ele>390.0</ele><time>2026-03-22T20:57:27Z</time></trkpt><trkpt lat="42.428194274297965" lon="-8.062897336310808"><ele>390.0</ele><time>2026-03-22T20:57:28Z</time></trkpt><trkpt lat="42.42828867681534" lon="-8.062921622050254"><ele>390.0</ele><time>2026-03-22T20:57:29Z</time></trkpt><trkpt lat="42.42836921478487" lon="-8.062996229865874"><ele>390.0</ele><time>2026-03-22T20:57:30Z</time></trkpt><trkpt lat="42.428430146365415" lon="-8.063106945955056"><ele>390.0</ele><time>2026-03-22T20:57:31Z</time></trkpt><trkpt lat="42.4284538645153" lon="-8.063238011271482"><ele>390.0</ele><time>2026-03-22T20:57:32Z</time></trkpt><trkpt lat="42.428472302398916" lon="-8.063373926767124"><ele>390.0</ele><time>2026-03-22T20:57:33Z</time></trkpt><trkpt lat="42.42850374847523" lon="-8.06352107827806"><ele>389.75</ele><time>2026-03-22T20:57:34Z</time></trkpt><trkpt lat="42.42856007533609" lon="-8.06367185095718"><ele>389.5</ele><time>2026-03-22T20:57:35Z</time></trkpt><trkpt lat="42.42863575854693" lon="-8.063817371509462"><ele>389.25</ele><time>2026-03-22T20:57:36Z</time></trkpt><trkpt lat="42.428711145201305" lon="-8.063988735735213"><ele>389.0</ele><time>2026-03-22T20:57:37Z</time></trkpt><trkpt lat="42.42882371439312" lon="-8.06418080076465"><ele>390.66666666666663</ele><time>2026-03-22T20:57:38Z</time></trkpt><trkpt lat="42.42890338645049" lon="-8.064346594741421"><ele>392.33333333333337</ele><time>2026-03-22T20:57:39Z</time></trkpt><trkpt lat="42.428986163258" lon="-8.064520966281675"><ele>394.0</ele><time>2026-03-22T20:57:40Z</time></trkpt><trkpt lat="42.42906316997156" lon="-8.064697226806258"><ele>394.0</ele><time>2026-03-22T20:57:41Z</time></trkpt><trkpt lat="42.42914022097198" lon="-8.064895899023824"><ele>394.0</ele><time>2026-03-22T20:57:42Z</time></trkpt><trkpt lat="42.42924201931946" lon="-8.065091233385912"><ele>394.0</ele><time>2026-03-22T20:57:43Z</time></trkpt><trkpt lat="42.42930764436354" lon="-8.065237509953185"><ele>393.33333333333337</ele><time>2026-03-22T20:57:44Z</time></trkpt><trkpt lat="42.42938430650606" lon="-8.06542970309594"><ele>392.66666666666663</ele><time>2026-03-22T20:57:45Z</time></trkpt><trkpt lat="42.42947429495663" lon="-8.065620950887313"><ele>392.0</ele><time>2026-03-22T20:57:46Z</time></trkpt><trkpt lat="42.42954505712954" lon="-8.065801889592834"><ele>391.6</ele><time>2026-03-22T20:57:47Z</time></trkpt><trkpt lat="42.429624427702464" lon="-8.065948900320254"><ele>391.20000000000005</ele><time>2026-03-22T20:57:48Z</time></trkpt><trkpt lat="42.429678911822755" lon="-8.066077183706758"><ele>390.8</ele><time>2026-03-22T20:57:49Z</time></trkpt><trkpt lat="42.429731775770826" lon="-8.066177545590492"><ele>390.4</ele><time>2026-03-22T20:57:50Z</time></trkpt><trkpt lat="42.429756603803554" lon="-8.066276466301884"><ele>390.0</ele><time>2026-03-22T20:57:51Z</time></trkpt><trkpt lat="42.42980080317958" lon="-8.066385902940123"><ele>391.0</ele><time>2026-03-22T20:57:52Z</time></trkpt><trkpt lat="42.42984998073683" lon="-8.066489205484908"><ele>392.0</ele><time>2026-03-22T20:57:53Z</time></trkpt><trkpt lat="42.42991477769637" lon="-8.066633551605175"><ele>393.0</ele><time>2026-03-22T20:57:54Z</time></trkpt><trkpt lat="42.429978288953706" lon="-8.06678001406657"><ele>394.0</ele><time>2026-03-22T20:57:55Z</time></trkpt><trkpt lat="42.43003955906939" lon="-8.066927193638339"><ele>394.0</ele><time>2026-03-22T20:57:56Z</time></trkpt><trkpt lat="42.430093511861514" lon="-8.067045686905388"><ele>394.0</ele><time>2026-03-22T20:57:57Z</time></trkpt><trkpt lat="42.430135340116465" lon="-8.067150462463824"><ele>394.0</ele><time>2026-03-22T20:57:58Z</time></trkpt><trkpt lat="42.43019694575291" lon="-8.067271796864569"><ele>394.0</ele><time>2026-03-22T20:57:59Z</time></trkpt><trkpt lat="42.43027299704893" lon="-8.067375832850058"><ele>394.0</ele><time>2026-03-22T20:58:00Z</time></trkpt><trkpt lat="42.43032381456422" lon="-8.067522520594638"><ele>394.33333333333337</ele><time>2026-03-22T20:58:02Z</time></trkpt><trkpt lat="42.430357026794425" lon="-8.067604621499433"><ele>394.6666666666667</ele><time>2026-03-22T20:58:03Z</time></trkpt><trkpt lat="42.430436415342584" lon="-8.06772928987979"><ele>395.0</ele><time>2026-03-22T20:58:05Z</time></trkpt><trkpt lat="42.430480959140986" lon="-8.067807949399912"><ele>395.33333333333337</ele><time>2026-03-22T20:58:06Z</time></trkpt><trkpt lat="42.43054724531645" lon="-8.067871585713425"><ele>395.6666666666667</ele><time>2026-03-22T20:58:07Z</time></trkpt><trkpt lat="42.43059337770013" lon="-8.067961570133635"><ele>396.0</ele><time>2026-03-22T20:58:08Z</time></trkpt><trkpt lat="42.430626490055644" lon="-8.06803858675056"><ele>396.0</ele><time>2026-03-22T20:58:09Z</time></trkpt><trkpt lat="42.430665888875026" lon="-8.068109306488914"><ele>396.0</ele><time>2026-03-22T20:58:10Z</time></trkpt><trkpt lat="42.430714830423035" lon="-8.068228602327599"><ele>396.0</ele><time>2026-03-22T20:58:12Z</time></trkpt><trkpt lat="42.43076127415952" lon="-8.068354216243193"><ele>396.0</ele><time>2026-03-22T20:58:14Z</time></trkpt><trkpt lat="42.43075925642889" lon="-8.068485369360673"><ele>396.0</ele><time>2026-03-22T20:58:16Z</time></trkpt><trkpt lat="42.430827358933115" lon="-8.06860874952199"><ele>396.0</ele><time>2026-03-22T20:58:18Z</time></trkpt><trkpt lat="42.43089063340202" lon="-8.068754192884764"><ele>396.0</ele><time>2026-03-22T20:58:20Z</time></trkpt><trkpt lat="42.430923983899426" lon="-8.068833179610127"><ele>396.0</ele><time>2026-03-22T20:58:21Z</time></trkpt><trkpt lat="42.43095756203496" lon="-8.0689184562669"><ele>396.0</ele><time>2026-03-22T20:58:22Z</time></trkpt><trkpt lat="42.430993984972794" lon="-8.069004710897367"><ele>396.0</ele><time>2026-03-22T20:58:23Z</time></trkpt><trkpt lat="42.431034767953435" lon="-8.069088413095347"><ele>396.0</ele><time>2026-03-22T20:58:24Z</time></trkpt><trkpt lat="42.431070622617355" lon="-8.069185949598236"><ele>396.0</ele><time>2026-03-22T20:58:25Z</time></trkpt><trkpt lat="42.43110833417662" lon="-8.069274756360592"><ele>396.0</ele><time>2026-03-22T20:58:26Z</time></trkpt><trkpt lat="42.43115265595187" lon="-8.06936067353472"><ele>396.0</ele><time>2026-03-22T20:58:27Z</time></trkpt><trkpt lat="42.43118634294943" lon="-8.069476206890158"><ele>396.0</ele><time>2026-03-22T20:58:27.999Z</time></trkpt><trkpt lat="42.43126551159623" lon="-8.069517680838635"><ele>396.0</ele><time>2026-03-22T20:58:28.999Z</time></trkpt><trkpt lat="42.43134142748749" lon="-8.069670127729283"><ele>396.0</ele><time>2026-03-22T20:58:29.999Z</time></trkpt><trkpt lat="42.43137079393567" lon="-8.069827324601093"><ele>396.0</ele><time>2026-03-22T20:58:30.999Z</time></trkpt><trkpt lat="42.43141476126775" lon="-8.069961744837281"><ele>396.0</ele><time>2026-03-22T20:58:31.999Z</time></trkpt><trkpt lat="42.43146659981513" lon="-8.070104030025043"><ele>396.0</ele><time>2026-03-22T20:58:32.999Z</time></trkpt><trkpt lat="42.431563848007954" lon="-8.070297007133219"><ele>396.0</ele><time>2026-03-22T20:58:34.999Z</time></trkpt><trkpt lat="42.431626517344775" lon="-8.070446825329581"><ele>396.0</ele><time>2026-03-22T20:58:35.999Z</time></trkpt><trkpt lat="42.431705609547976" lon="-8.070578005639724"><ele>396.0</ele><time>2026-03-22T20:58:36.999Z</time></trkpt><trkpt lat="42.4317780998101" lon="-8.07076023050805"><ele>396.0</ele><time>2026-03-22T20:58:37.999Z</time></trkpt><trkpt lat="42.43183391640496" lon="-8.070908611952833"><ele>396.0</ele><time>2026-03-22T20:58:38.999Z</time></trkpt><trkpt lat="42.43189522425455" lon="-8.071048788403708"><ele>396.0</ele><time>2026-03-22T20:58:39.999Z</time></trkpt><trkpt lat="42.43194575856783" lon="-8.071173432472662"><ele>396.0</ele><time>2026-03-22T20:58:40.999Z</time></trkpt><trkpt lat="42.43199637643526" lon="-8.071291192631607"><ele>396.0</ele><time>2026-03-22T20:58:41.999Z</time></trkpt><trkpt lat="42.43204812519008" lon="-8.071393774244855"><ele>396.0</ele><time>2026-03-22T20:58:42.999Z</time></trkpt><trkpt lat="42.432096710441975" lon="-8.071482477787036"><ele>396.4</ele><time>2026-03-22T20:58:43.999Z</time></trkpt><trkpt lat="42.43215354549188" lon="-8.071608303279794"><ele>396.8</ele><time>2026-03-22T20:58:45.999Z</time></trkpt><trkpt lat="42.432201528876114" lon="-8.071714532396404"><ele>397.2</ele><time>2026-03-22T20:58:46.999Z</time></trkpt><trkpt lat="42.432260841656465" lon="-8.071845842908399"><ele>397.59999999999997</ele><time>2026-03-22T20:58:47.999Z</time></trkpt><trkpt lat="42.43232758542164" lon="-8.071993605369238"><ele>398.0</ele><time>2026-03-22T20:58:48.999Z</time></trkpt><trkpt lat="42.432395338221454" lon="-8.072143601292007"><ele>398.0</ele><time>2026-03-22T20:58:49.999Z</time></trkpt><trkpt lat="42.432457975694255" lon="-8.072320202417854"><ele>398.0</ele><time>2026-03-22T20:58:50.999Z</time></trkpt><trkpt lat="42.43254054857619" lon="-8.07246550544367"><ele>398.0</ele><time>2026-03-22T20:58:51.999Z</time></trkpt><trkpt lat="42.43261327897602" lon="-8.072625328548181"><ele>398.0</ele><time>2026-03-22T20:58:52.999Z</time></trkpt><trkpt lat="42.43267665967039" lon="-8.072767684681567"><ele>398.4</ele><time>2026-03-22T20:58:53.999Z</time></trkpt><trkpt lat="42.43272084847309" lon="-8.072885713791273"><ele>398.79999999999995</ele><time>2026-03-22T20:58:54.999Z</time></trkpt><trkpt lat="42.432769498471195" lon="-8.073004237756734"><ele>399.2</ele><time>2026-03-22T20:58:55.999Z</time></trkpt><trkpt lat="42.432815991217645" lon="-8.073094523225453"><ele>399.6</ele><time>2026-03-22T20:58:57Z</time></trkpt><trkpt lat="42.43287190760064" lon="-8.073203843996172"><ele>400.0</ele><time>2026-03-22T20:58:59Z</time></trkpt><trkpt lat="42.43272533236515" lon="-8.073264430790564"><ele>400.33333333333337</ele><time>2026-03-22T20:59:01Z</time></trkpt><trkpt lat="42.43266662110708" lon="-8.073315060643479"><ele>400.6666666666667</ele><time>2026-03-22T20:59:02Z</time></trkpt><trkpt lat="42.43259540517055" lon="-8.073375214234785"><ele>401.0</ele><time>2026-03-22T20:59:03Z</time></trkpt><trkpt lat="42.43252799224536" lon="-8.073447929671572"><ele>401.33333333333337</ele><time>2026-03-22T20:59:04Z</time></trkpt><trkpt lat="42.432447647526885" lon="-8.073509312554059"><ele>401.6666666666667</ele><time>2026-03-22T20:59:05Z</time></trkpt><trkpt lat="42.43237792303402" lon="-8.073518061036166"><ele>402.0</ele><time>2026-03-22T20:59:06Z</time></trkpt><trkpt lat="42.43229558004943" lon="-8.07357355011683"><ele>402.0</ele><time>2026-03-22T20:59:07Z</time></trkpt><trkpt lat="42.432191402242225" lon="-8.073691514202322"><ele>402.0</ele><time>2026-03-22T20:59:09Z</time></trkpt><trkpt lat="42.43212163410042" lon="-8.073764745471397"><ele>402.0</ele><time>2026-03-22T20:59:10Z</time></trkpt><trkpt lat="42.43201767788529" lon="-8.073825612982626"><ele>402.0</ele><time>2026-03-22T20:59:11Z</time></trkpt><trkpt lat="42.43194443311497" lon="-8.073897672312025"><ele>402.0</ele><time>2026-03-22T20:59:12Z</time></trkpt><trkpt lat="42.431844779663514" lon="-8.073976363621318"><ele>402.0</ele><time>2026-03-22T20:59:13Z</time></trkpt><trkpt lat="42.43173693920685" lon="-8.074057016680593"><ele>402.0</ele><time>2026-03-22T20:59:14Z</time></trkpt><trkpt lat="42.431638450095036" lon="-8.074141829387044"><ele>402.0</ele><time>2026-03-22T20:59:15Z</time></trkpt><trkpt lat="42.43155069698463" lon="-8.074219318782625"><ele>402.0</ele><time>2026-03-22T20:59:16Z</time></trkpt><trkpt lat="42.43143422097502" lon="-8.074285510906673"><ele>402.0</ele><time>2026-03-22T20:59:17Z</time></trkpt><trkpt lat="42.43137098489811" lon="-8.074357328000604"><ele>402.0</ele><time>2026-03-22T20:59:18Z</time></trkpt><trkpt lat="42.43128403639194" lon="-8.07442991123362"><ele>402.0</ele><time>2026-03-22T20:59:19Z</time></trkpt><trkpt lat="42.43119592247301" lon="-8.07448504970765"><ele>402.0</ele><time>2026-03-22T20:59:20Z</time></trkpt><trkpt lat="42.4311165617324" lon="-8.074530434884473"><ele>402.0</ele><time>2026-03-22T20:59:21Z</time></trkpt><trkpt lat="42.43101084799772" lon="-8.074581159305929"><ele>401.8</ele><time>2026-03-22T20:59:22Z</time></trkpt><trkpt lat="42.43091333705284" lon="-8.074624550422131"><ele>401.6</ele><time>2026-03-22T20:59:23Z</time></trkpt><trkpt lat="42.43078498850756" lon="-8.074682176277081"><ele>401.40000000000003</ele><time>2026-03-22T20:59:25Z</time></trkpt><trkpt lat="42.430691954581064" lon="-8.07472315112909"><ele>401.20000000000005</ele><time>2026-03-22T20:59:26Z</time></trkpt><trkpt lat="42.43059978617111" lon="-8.07476254010896"><ele>401.0</ele><time>2026-03-22T20:59:27Z</time></trkpt><trkpt lat="42.43052997019767" lon="-8.074788831162852"><ele>401.6</ele><time>2026-03-22T20:59:29Z</time></trkpt><trkpt lat="42.43057221854058" lon="-8.074968563994004"><ele>402.20000000000005</ele><time>2026-03-22T20:59:35Z</time></trkpt><trkpt lat="42.430592211230724" lon="-8.075060741784862"><ele>402.79999999999995</ele><time>2026-03-22T20:59:36Z</time></trkpt><trkpt lat="42.43062119032112" lon="-8.075194352074988"><ele>403.4</ele><time>2026-03-22T20:59:38Z</time></trkpt><trkpt lat="42.43064691515821" lon="-8.075350545934837"><ele>404.0</ele><time>2026-03-22T20:59:40Z</time></trkpt><trkpt lat="42.43067349724705" lon="-8.075434540759641"><ele>403.99999999999994</ele><time>2026-03-22T20:59:42Z</time></trkpt><trkpt lat="42.43069001632384" lon="-8.075550948692834"><ele>404.0</ele><time>2026-03-22T20:59:44Z</time></trkpt><trkpt lat="42.43072128491737" lon="-8.075638713091509"><ele>404.0</ele><time>2026-03-22T20:59:45Z</time></trkpt><trkpt lat="42.430745285721954" lon="-8.075743582184218"><ele>404.0</ele><time>2026-03-22T20:59:46Z</time></trkpt><trkpt lat="42.43077194273605" lon="-8.075842649798451"><ele>403.99999999999994</ele><time>2026-03-22T20:59:47Z</time></trkpt><trkpt lat="42.430807137673995" lon="-8.076013837997564"><ele>404.0</ele><time>2026-03-22T20:59:49Z</time></trkpt><trkpt lat="42.43084399346108" lon="-8.076176010157132"><ele>404.0</ele><time>2026-03-22T20:59:51Z</time></trkpt><trkpt lat="42.43068215366472" lon="-8.076369366884117"><ele>404.0</ele><time>2026-03-22T20:59:53Z</time></trkpt><trkpt lat="42.43061623750529" lon="-8.07651304446932"><ele>404.0</ele><time>2026-03-22T20:59:54Z</time></trkpt><trkpt lat="42.43054480081166" lon="-8.076617640467266"><ele>404.0</ele><time>2026-03-22T20:59:55Z</time></trkpt><trkpt lat="42.43047903096142" lon="-8.076725533656557"><ele>403.2</ele><time>2026-03-22T20:59:56Z</time></trkpt><trkpt lat="42.43042739813571" lon="-8.076820192206563"><ele>402.4</ele><time>2026-03-22T20:59:57Z</time></trkpt><trkpt lat="42.4303770863545" lon="-8.076923082986916"><ele>401.6</ele><time>2026-03-22T20:59:58Z</time></trkpt><trkpt lat="42.430335223606065" lon="-8.077015641351625"><ele>400.8</ele><time>2026-03-22T20:59:59Z</time></trkpt><trkpt lat="42.43023328689367" lon="-8.077138557368974"><ele>400.0</ele><time>2026-03-22T21:00:01Z</time></trkpt><trkpt lat="42.43018690471229" lon="-8.07721007280079"><ele>400.00000000000006</ele><time>2026-03-22T21:00:02Z</time></trkpt><trkpt lat="42.43014424260221" lon="-8.07728054768814"><ele>400.0</ele><time>2026-03-22T21:00:03Z</time></trkpt><trkpt lat="42.430079525182265" lon="-8.077304171693436"><ele>400.0</ele><time>2026-03-22T21:00:04Z</time></trkpt><trkpt lat="42.429999316193786" lon="-8.0773690192868"><ele>400.0</ele><time>2026-03-22T21:00:05Z</time></trkpt><trkpt lat="42.42988615718911" lon="-8.077466274008925"><ele>400.00000000000006</ele><time>2026-03-22T21:00:06Z</time></trkpt><trkpt lat="42.42982132320112" lon="-8.077523856473642"><ele>400.0</ele><time>2026-03-22T21:00:07Z</time></trkpt><trkpt lat="42.42975892128268" lon="-8.077582912198558"><ele>400.4</ele><time>2026-03-22T21:00:08Z</time></trkpt><trkpt lat="42.42968649337441" lon="-8.077650174713867"><ele>400.8</ele><time>2026-03-22T21:00:09Z</time></trkpt><trkpt lat="42.42960455824845" lon="-8.077723337939803"><ele>401.20000000000005</ele><time>2026-03-22T21:00:10Z</time></trkpt><trkpt lat="42.42952244634064" lon="-8.077801614630797"><ele>401.6</ele><time>2026-03-22T21:00:11Z</time></trkpt><trkpt lat="42.42942809464434" lon="-8.077891619704088"><ele>402.0</ele><time>2026-03-22T21:00:12Z</time></trkpt><trkpt lat="42.42934038735389" lon="-8.077976660009767"><ele>402.0</ele><time>2026-03-22T21:00:13Z</time></trkpt><trkpt lat="42.4292626074841" lon="-8.078053351100332"><ele>402.0</ele><time>2026-03-22T21:00:14Z</time></trkpt><trkpt lat="42.42919133054972" lon="-8.078127489838911"><ele>402.0</ele><time>2026-03-22T21:00:15Z</time></trkpt><trkpt lat="42.42911970094543" lon="-8.078191450871332"><ele>402.0</ele><time>2026-03-22T21:00:16Z</time></trkpt><trkpt lat="42.42906285829343" lon="-8.078275884288542"><ele>402.0</ele><time>2026-03-22T21:00:17Z</time></trkpt><trkpt lat="42.42901587498378" lon="-8.078353800450962"><ele>402.0</ele><time>2026-03-22T21:00:18Z</time></trkpt><trkpt lat="42.42895287036926" lon="-8.078459725091536"><ele>402.0</ele><time>2026-03-22T21:00:20Z</time></trkpt><trkpt lat="42.42891330197458" lon="-8.07857404516409"><ele>402.0</ele><time>2026-03-22T21:00:22Z</time></trkpt><trkpt lat="42.429047658561934" lon="-8.078587325034142"><ele>402.0</ele><time>2026-03-22T21:00:25Z</time></trkpt><trkpt lat="42.429108808825056" lon="-8.078510905000126"><ele>402.0</ele><time>2026-03-22T21:00:26Z</time></trkpt><trkpt lat="42.429192675933734" lon="-8.078421712044834"><ele>402.0</ele><time>2026-03-22T21:00:27Z</time></trkpt><trkpt lat="42.42924603520207" lon="-8.078362177661829"><ele>402.0</ele><time>2026-03-22T21:00:28Z</time></trkpt><trkpt lat="42.42935971603562" lon="-8.078242913972618"><ele>398.0</ele><time>2026-03-22T21:00:30Z</time></trkpt></trkseg><trkseg><trkpt lat="42.42957584314068" lon="-8.075640192577616"><ele>392.0</ele><time>2026-03-22T21:23:40.999Z</time></trkpt><trkpt lat="42.42967841588092" lon="-8.075627529426368"><ele>394.0</ele><time>2026-03-22T21:23:42.999Z</time></trkpt><trkpt lat="42.42977619851487" lon="-8.075626265739364"><ele>396.0</ele><time>2026-03-22T21:23:44.998Z</time></trkpt><trkpt lat="42.42983778680759" lon="-8.07560805105478"><ele>398.0</ele><time>2026-03-22T21:23:45.998Z</time></trkpt><trkpt lat="42.42994329406333" lon="-8.075552310722411"><ele>400.0</ele><time>2026-03-22T21:23:47.998Z</time></trkpt><trkpt lat="42.430015648231034" lon="-8.075498004444936"><ele>400.00000000000006</ele><time>2026-03-22T21:23:49.998Z</time></trkpt><trkpt lat="42.4300902581331" lon="-8.075493567071021"><ele>400.0</ele><time>2026-03-22T21:23:51.998Z</time></trkpt><trkpt lat="42.430158206187414" lon="-8.075474531587224"><ele>400.0</ele><time>2026-03-22T21:23:55.998Z</time></trkpt><trkpt lat="42.43014702602007" lon="-8.075283595728557"><ele>400.0</ele><time>2026-03-22T21:23:59Z</time></trkpt><trkpt lat="42.43012992026123" lon="-8.075180947826352"><ele>400.00000000000006</ele><time>2026-03-22T21:24:00Z</time></trkpt><trkpt lat="42.430124138600235" lon="-8.075094429036772"><ele>400.0</ele><time>2026-03-22T21:24:01Z</time></trkpt><trkpt lat="42.430088792386485" lon="-8.074956455669286"><ele>400.0</ele><time>2026-03-22T21:24:03Z</time></trkpt><trkpt lat="42.430223986934436" lon="-8.07491068527002"><ele>397.0</ele><time>2026-03-22T21:24:06Z</time></trkpt><trkpt lat="42.43028757701999" lon="-8.074885521615672"><ele>397.0</ele><time>2026-03-22T21:25:09.999Z</time></trkpt><trkpt lat="42.430191143132994" lon="-8.074923680205645"><ele>397.0</ele><time>2026-03-22T21:29:22.999Z</time></trkpt><trkpt lat="42.43026464827909" lon="-8.07489459469838"><ele>397.0</ele><time>2026-03-22T21:30:01.999Z</time></trkpt></trkseg></trk></gpx>